BCO-DMO ERDDAP
Accessing BCO-DMO data
log in    
Brought to you by BCO-DMO    
 
 
cruise_no Cruise_ID1 Cruise_ID2 Year Month Day Date latitude longitude press depth temp sal potemp sigma_t sigma_0 O2_ml_L beam_cp beam_att fluor_CTD fluor_chla
integer alphanumeric alphanumeric unitless unitless unitless unitless degrees_north degrees_east decibars m degrees Celsius PSU degrees Celsius kilograms/meter^3 kilograms/meter^3 milliliters/liter 1/meter 1/meter RFU micrograms/meter^3
1 93HG_001 CAR-001 1995 11 8 1995-11-08 10.5 -64.667 1.006 1.0 36.612 0.173
1 93HG_001 CAR-001 1995 11 8 1995-11-08 10.5 -64.667 2.011 2.0 27.522 36.612 27.522 23.764 23.764 3.964 0.176
1 93HG_001 CAR-001 1995 11 8 1995-11-08 10.5 -64.667 4.023 4.0 27.489 36.612 27.488 23.775 23.775 3.978 0.166
1 93HG_001 CAR-001 1995 11 8 1995-11-08 10.5 -64.667 6.034 6.0 27.465 36.614 27.464 23.782 23.782 3.984 0.164
1 93HG_001 CAR-001 1995 11 8 1995-11-08 10.5 -64.667 8.046 8.0 27.458 36.613 27.456 23.786 23.787 3.99 0.17
1 93HG_001 CAR-001 1995 11 8 1995-11-08 10.5 -64.667 10.057 10.0 27.454 36.613 27.452 23.787 23.787 3.992 0.175
1 93HG_001 CAR-001 1995 11 8 1995-11-08 10.5 -64.667 12.069 12.0 27.452 36.612 27.449 23.787 23.788 4.003 0.164
1 93HG_001 CAR-001 1995 11 8 1995-11-08 10.5 -64.667 14.08 14.0 27.451 36.612 27.448 23.787 23.788 4.005 0.159
1 93HG_001 CAR-001 1995 11 8 1995-11-08 10.5 -64.667 16.092 16.0 27.449 36.612 27.445 23.788 23.789 4.015 0.16
1 93HG_001 CAR-001 1995 11 8 1995-11-08 10.5 -64.667 18.103 18.0 27.446 36.611 27.442 23.789 23.79 4.019 0.167
1 93HG_001 CAR-001 1995 11 8 1995-11-08 10.5 -64.667 20.115 20.0 27.444 36.593 27.44 23.788 23.79 3.868 0.187
1 93HG_001 CAR-001 1995 11 8 1995-11-08 10.5 -64.667 22.127 22.0 36.557 27.386 23.792 23.793 3.729 0.244
1 93HG_001 CAR-001 1995 11 8 1995-11-08 10.5 -64.667 24.138 24.0 26.717 36.663 26.711 23.982 23.984 3.786 0.373
1 93HG_001 CAR-001 1995 11 8 1995-11-08 10.5 -64.667 26.15 26.0 26.211 36.649 26.206 24.222 24.224 3.826 0.445
1 93HG_001 CAR-001 1995 11 8 1995-11-08 10.5 -64.667 28.162 28.0 26.027 36.718 26.021 24.27 24.272 3.844 0.487
1 93HG_001 CAR-001 1995 11 8 1995-11-08 10.5 -64.667 30.173 30.0 25.725 36.762 25.718 24.416 24.419 3.903 0.484
1 93HG_001 CAR-001 1995 11 8 1995-11-08 10.5 -64.667 32.185 32.0 25.513 36.764 25.506 24.515 24.518 3.916 0.484
1 93HG_001 CAR-001 1995 11 8 1995-11-08 10.5 -64.667 34.197 34.0 25.348 36.797 25.341 24.568 24.57 3.91 0.433
1 93HG_001 CAR-001 1995 11 8 1995-11-08 10.5 -64.667 36.208 36.0 25.201 36.805 25.193 24.638 24.641 3.887 0.385
1 93HG_001 CAR-001 1995 11 8 1995-11-08 10.5 -64.667 38.22 38.0 25.15 36.811 25.141 24.66 24.663 3.833 0.311
1 93HG_001 CAR-001 1995 11 8 1995-11-08 10.5 -64.667 40.232 40.0 25.096 36.809 25.087 24.681 24.683 3.809 0.301
1 93HG_001 CAR-001 1995 11 8 1995-11-08 10.5 -64.667 42.244 42.0 25.046 36.816 25.037 24.695 24.698 3.803 0.249
1 93HG_001 CAR-001 1995 11 8 1995-11-08 10.5 -64.667 44.256 44.0 25.006 36.813 24.997 24.712 24.715 3.804 0.22
1 93HG_001 CAR-001 1995 11 8 1995-11-08 10.5 -64.667 46.267 46.0 24.948 36.837 24.938 24.728 24.731 3.786 0.209
1 93HG_001 CAR-001 1995 11 8 1995-11-08 10.5 -64.667 48.279 48.0 24.851 36.853 24.84 24.776 24.779 3.792 0.198
1 93HG_001 CAR-001 1995 11 8 1995-11-08 10.5 -64.667 50.291 50.0 24.793 36.847 24.782 24.806 24.809 3.792 0.19
1 93HG_001 CAR-001 1995 11 8 1995-11-08 10.5 -64.667 52.303 52.0 24.753 36.863 24.742 24.814 24.817 3.79 0.18
1 93HG_001 CAR-001 1995 11 8 1995-11-08 10.5 -64.667 54.315 54.0 24.686 36.857 24.674 24.846 24.849 3.795 0.161
1 93HG_001 CAR-001 1995 11 8 1995-11-08 10.5 -64.667 56.327 56.0 24.656 36.867 24.644 24.851 24.854 3.783 0.144
1 93HG_001 CAR-001 1995 11 8 1995-11-08 10.5 -64.667 58.339 58.0 24.633 36.868 24.621 24.865 24.869 3.777 0.143
1 93HG_001 CAR-001 1995 11 8 1995-11-08 10.5 -64.667 60.351 60.0 24.629 36.866 24.616 24.867 24.871 3.767 0.139
1 93HG_001 CAR-001 1995 11 8 1995-11-08 10.5 -64.667 62.363 62.0 24.621 36.868 24.608 24.868 24.872 3.741 0.108
1 93HG_001 CAR-001 1995 11 8 1995-11-08 10.5 -64.667 64.375 64.0 24.594 36.865 24.58 24.877 24.881 3.72 0.091
1 93HG_001 CAR-001 1995 11 8 1995-11-08 10.5 -64.667 66.387 66.0 24.564 36.873 24.55 24.885 24.889 3.696 0.087
1 93HG_001 CAR-001 1995 11 8 1995-11-08 10.5 -64.667 68.399 68.0 24.541 36.871 24.526 24.898 24.902 3.673 0.085
1 93HG_001 CAR-001 1995 11 8 1995-11-08 10.5 -64.667 70.411 70.0 24.511 36.881 24.495 24.905 24.91 3.654 0.082
1 93HG_001 CAR-001 1995 11 8 1995-11-08 10.5 -64.667 72.423 72.0 24.441 36.879 24.425 24.934 24.939 3.641 0.08
1 93HG_001 CAR-001 1995 11 8 1995-11-08 10.5 -64.667 74.435 74.0 24.401 36.897 24.385 24.944 24.949 3.6 0.081
1 93HG_001 CAR-001 1995 11 8 1995-11-08 10.5 -64.667 76.447 76.0 24.329 36.911 24.313 24.98 24.985 3.602 0.076
1 93HG_001 CAR-001 1995 11 8 1995-11-08 10.5 -64.667 78.46 78.0 24.307 36.903 24.29 24.997 25.002 3.581 0.077
1 93HG_001 CAR-001 1995 11 8 1995-11-08 10.5 -64.667 80.472 80.0 24.282 36.905 24.265 24.998 25.003 3.564 0.071
1 93HG_001 CAR-001 1995 11 8 1995-11-08 10.5 -64.667 82.484 82.0 24.195 36.919 24.177 25.026 25.031 3.556 0.063
1 93HG_001 CAR-001 1995 11 8 1995-11-08 10.5 -64.667 84.496 84.0 24.116 36.922 24.098 25.061 25.066 3.559 0.059
1 93HG_001 CAR-001 1995 11 8 1995-11-08 10.5 -64.667 86.508 86.0 24.089 36.922 24.07 25.071 25.077 3.543 0.054
1 93HG_001 CAR-001 1995 11 8 1995-11-08 10.5 -64.667 88.521 88.0 24.071 36.929 24.052 25.076 25.081 3.495 0.049
1 93HG_001 CAR-001 1995 11 8 1995-11-08 10.5 -64.667 90.533 90.0 24.042 36.925 24.023 25.09 25.096 3.435 0.045
1 93HG_001 CAR-001 1995 11 8 1995-11-08 10.5 -64.667 92.545 92.0 24.01 36.931 23.991 25.097 25.103 3.404 0.043
1 93HG_001 CAR-001 1995 11 8 1995-11-08 10.5 -64.667 94.557 94.0 23.917 36.929 23.897 25.129 25.135 3.381 0.039
1 93HG_001 CAR-001 1995 11 8 1995-11-08 10.5 -64.667 96.57 96.0 23.799 36.905 23.779 25.162 25.168 3.348 0.04
1 93HG_001 CAR-001 1995 11 8 1995-11-08 10.5 -64.667 98.582 98.0 23.679 36.929 23.659 25.18 25.186 3.313 0.041
1 93HG_001 CAR-001 1995 11 8 1995-11-08 10.5 -64.667 100.6 100.0 23.518 36.932 23.497 25.246 25.252 3.294 0.04
1 93HG_001 CAR-001 1995 11 8 1995-11-08 10.5 -64.667 102.61 102.0 23.452 36.928 23.431 25.267 25.273 3.24 0.04
1 93HG_001 CAR-001 1995 11 8 1995-11-08 10.5 -64.667 104.62 104.0 23.293 36.922 23.271 25.311 25.317 3.188 0.037
1 93HG_001 CAR-001 1995 11 8 1995-11-08 10.5 -64.667 106.63 106.0 23.152 36.925 23.13 25.348 25.354 3.151 0.04
1 93HG_001 CAR-001 1995 11 8 1995-11-08 10.5 -64.667 108.64 108.0 23.04 36.916 23.017 25.383 25.39 3.117 0.038
1 93HG_001 CAR-001 1995 11 8 1995-11-08 10.5 -64.667 110.66 110.0 22.919 36.895 22.897 25.411 25.418 3.081 0.038
1 93HG_001 CAR-001 1995 11 8 1995-11-08 10.5 -64.667 112.67 112.0 22.726 36.897 22.703 25.451 25.457 3.069 0.04
1 93HG_001 CAR-001 1995 11 8 1995-11-08 10.5 -64.667 114.68 114.0 22.502 36.88 22.478 25.517 25.524 3.025 0.037
1 93HG_001 CAR-001 1995 11 8 1995-11-08 10.5 -64.667 116.69 116.0 22.338 36.919 22.314 25.551 25.558 2.971 0.036
1 93HG_001 CAR-001 1995 11 8 1995-11-08 10.5 -64.667 118.71 118.0 22.087 36.897 22.063 25.653 25.659 2.964 0.036
1 93HG_001 CAR-001 1995 11 8 1995-11-08 10.5 -64.667 120.72 120.0 21.985 36.869 21.961 25.664 25.671 2.915 0.032
1 93HG_001 CAR-001 1995 11 8 1995-11-08 10.5 -64.667 122.73 122.0 21.855 36.824 21.831 25.679 25.686 2.841
1 93HG_001 CAR-001 1995 11 8 1995-11-08 10.5 -64.667 124.75 124.0 21.635 36.852 21.61 25.707 25.714 2.765
1 93HG_001 CAR-001 1995 11 8 1995-11-08 10.5 -64.667 126.76 126.0 21.432 36.829 21.407 25.785 25.792 2.701
1 93HG_001 CAR-001 1995 11 8 1995-11-08 10.5 -64.667 128.77 128.0 21.32 36.76 21.295 25.798 25.805 2.654
1 93HG_001 CAR-001 1995 11 8 1995-11-08 10.5 -64.667 130.78 130.0 21.054 36.74 21.029 25.82 25.827 2.633
1 93HG_001 CAR-001 1995 11 8 1995-11-08 10.5 -64.667 132.79 132.0 20.729 36.733 20.703 25.893 25.9 2.619
1 93HG_001 CAR-001 1995 11 8 1995-11-08 10.5 -64.667 134.81 134.0 20.418 36.717 20.392 25.972 25.979 2.603
1 93HG_001 CAR-001 1995 11 8 1995-11-08 10.5 -64.667 136.82 136.0 20.228 36.711 20.203 26.011 26.018 2.537
1 93HG_001 CAR-001 1995 11 8 1995-11-08 10.5 -64.667 138.83 138.0 20.1 36.7 20.074 26.041 26.048 2.469
1 93HG_001 CAR-001 1995 11 8 1995-11-08 10.5 -64.667 140.85 140.0 19.953 36.674 19.927 26.071 26.078 2.415
1 93HG_001 CAR-001 1995 11 8 1995-11-08 10.5 -64.667 142.86 142.0 19.861 36.657 19.835 26.076 26.084 2.356
1 93HG_001 CAR-001 1995 11 8 1995-11-08 10.5 -64.667 144.87 144.0 19.684 36.635 19.657 26.11 26.117 2.307
1 93HG_001 CAR-001 1995 11 8 1995-11-08 10.5 -64.667 146.88 146.0 19.497 36.629 19.47 26.142 26.149 2.276
1 93HG_001 CAR-001 1995 11 8 1995-11-08 10.5 -64.667 148.9 148.0 19.381 36.616 19.354 26.168 26.175 2.255
1 93HG_001 CAR-001 1995 11 8 1995-11-08 10.5 -64.667 150.91 150.0 19.259 36.591 19.232 26.19 26.197 2.226
1 93HG_001 CAR-001 1995 11 8 1995-11-08 10.5 -64.667 152.92 152.0 19.169 36.594 19.142 26.194 26.201 2.178
1 93HG_001 CAR-001 1995 11 8 1995-11-08 10.5 -64.667 154.94 154.0 19.113 36.598 19.085 26.211 26.218 2.129
1 93HG_001 CAR-001 1995 11 8 1995-11-08 10.5 -64.667 156.95 156.0 19.084 36.591 19.055 26.221 26.229 2.11
1 93HG_001 CAR-001 1995 11 8 1995-11-08 10.5 -64.667 158.96 158.0 19.072 36.574 19.043 26.219 26.227 2.093
1 93HG_001 CAR-001 1995 11 8 1995-11-08 10.5 -64.667 160.97 160.0 19.025 36.564 18.997 26.218 26.226 2.072
1 93HG_001 CAR-001 1995 11 8 1995-11-08 10.5 -64.667 162.99 162.0 18.967 36.55 18.938 26.226 26.233 2.037
1 93HG_001 CAR-001 1995 11 8 1995-11-08 10.5 -64.667 165.0 164.0 18.912 36.564 18.882 26.229 26.237 1.993
1 93HG_001 CAR-001 1995 11 8 1995-11-08 10.5 -64.667 167.01 166.0 18.849 36.554 18.819 26.256 26.264 1.93
1 93HG_001 CAR-001 1995 11 8 1995-11-08 10.5 -64.667 169.03 168.0 18.825 36.541 18.794 26.255 26.262 1.841
1 93HG_001 CAR-001 1995 11 8 1995-11-08 10.5 -64.667 171.04 170.0 18.778 36.542 18.747 26.257 26.265 1.726
1 93HG_001 CAR-001 1995 11 8 1995-11-08 10.5 -64.667 173.05 172.0 18.726 36.529 18.695 26.271 26.279 1.639
1 93HG_001 CAR-001 1995 11 8 1995-11-08 10.5 -64.667 175.07 174.0 18.673 36.523 18.642 26.274 26.282 1.567
1 93HG_001 CAR-001 1995 11 8 1995-11-08 10.5 -64.667 177.08 176.0 18.609 36.515 18.578 26.286 26.294 1.494
1 93HG_001 CAR-001 1995 11 8 1995-11-08 10.5 -64.667 179.09 178.0 18.564 36.505 18.533 26.291 26.299 1.433
1 93HG_001 CAR-001 1995 11 8 1995-11-08 10.5 -64.667 181.1 180.0 18.523 36.504 18.491 26.294 26.302 1.375
1 93HG_001 CAR-001 1995 11 8 1995-11-08 10.5 -64.667 183.12 182.0 18.474 36.493 18.442 26.306 26.314 1.319
1 93HG_001 CAR-001 1995 11 8 1995-11-08 10.5 -64.667 185.13 184.0 18.436 36.483 18.404 26.306 26.315 1.276
1 93HG_001 CAR-001 1995 11 8 1995-11-08 10.5 -64.667 187.15 186.0 18.384 36.477 18.352 26.312 26.321 1.229
1 93HG_001 CAR-001 1995 11 8 1995-11-08 10.5 -64.667 189.16 188.0 18.329 36.479 18.296 26.321 26.329 1.196
1 93HG_001 CAR-001 1995 11 8 1995-11-08 10.5 -64.667 191.17 190.0 18.293 36.477 18.26 26.332 26.341 1.162
1 93HG_001 CAR-001 1995 11 8 1995-11-08 10.5 -64.667 193.19 192.0 18.276 36.466 18.242 26.335 26.344 1.128
1 93HG_001 CAR-001 1995 11 8 1995-11-08 10.5 -64.667 195.2 194.0 18.265 36.471 18.23 26.329 26.338 1.082
1 93HG_001 CAR-001 1995 11 8 1995-11-08 10.5 -64.667 197.21 196.0 18.245 36.47 18.211 26.338 26.347 1.026
1 93HG_001 CAR-001 1995 11 8 1995-11-08 10.5 -64.667 199.22 198.0 18.229 36.464 18.195 26.341 26.35 0.981
1 93HG_001 CAR-001 1995 11 8 1995-11-08 10.5 -64.667 201.24 200.0 18.223 36.46 18.187 26.338 26.347 0.935
1 93HG_001 CAR-001 1995 11 8 1995-11-08 10.5 -64.667 203.25 202.0 18.2 36.459 18.164 26.341 26.35 0.901
1 93HG_001 CAR-001 1995 11 8 1995-11-08 10.5 -64.667 205.26 204.0 18.176 36.456 18.14 26.346 26.355 0.867
1 93HG_001 CAR-001 1995 11 8 1995-11-08 10.5 -64.667 207.28 206.0 18.152 36.454 18.116 26.35 26.359 0.833
1 93HG_001 CAR-001 1995 11 8 1995-11-08 10.5 -64.667 209.29 208.0 18.135 36.454 18.098 26.353 26.362 0.807
1 93HG_001 CAR-001 1995 11 8 1995-11-08 10.5 -64.667 211.31 210.0 18.128 36.452 18.091 26.354 26.363 0.781
1 93HG_001 CAR-001 1995 11 8 1995-11-08 10.5 -64.667 213.32 212.0 18.119 36.448 18.082 26.355 26.364 0.753
1 93HG_001 CAR-001 1995 11 8 1995-11-08 10.5 -64.667 215.33 214.0 18.106 36.448 18.069 26.355 26.364 0.727
1 93HG_001 CAR-001 1995 11 8 1995-11-08 10.5 -64.667 217.35 216.0 18.092 36.446 18.054 26.359 26.368 0.701
1 93HG_001 CAR-001 1995 11 8 1995-11-08 10.5 -64.667 219.36 218.0 18.083 36.444 18.045 26.36 26.369 0.679
1 93HG_001 CAR-001 1995 11 8 1995-11-08 10.5 -64.667 221.37 220.0 18.074 36.444 18.036 26.36 26.369 0.651
1 93HG_001 CAR-001 1995 11 8 1995-11-08 10.5 -64.667 223.39 222.0 18.064 36.443 18.025 26.363 26.372 0.619
1 93HG_001 CAR-001 1995 11 8 1995-11-08 10.5 -64.667 225.4 224.0 18.061 36.44 18.021 26.363 26.372 0.594
1 93HG_001 CAR-001 1995 11 8 1995-11-08 10.5 -64.667 227.41 226.0 18.058 36.439 18.018 26.361 26.371 0.568
1 93HG_001 CAR-001 1995 11 8 1995-11-08 10.5 -64.667 229.43 228.0 18.048 36.439 18.008 26.363 26.373 0.546
1 93HG_001 CAR-001 1995 11 8 1995-11-08 10.5 -64.667 231.44 230.0 18.031 36.436 17.991 26.367 26.377 0.52
1 93HG_001 CAR-001 1995 11 8 1995-11-08 10.5 -64.667 233.45 232.0 18.023 36.434 17.983 26.367 26.377 0.501
1 93HG_001 CAR-001 1995 11 8 1995-11-08 10.5 -64.667 235.47 234.0 18.01 36.434 17.969 26.369 26.379 0.482
1 93HG_001 CAR-001 1995 11 8 1995-11-08 10.5 -64.667 237.48 236.0 17.999 36.429 17.958 26.371 26.381 0.469
1 93HG_001 CAR-001 1995 11 8 1995-11-08 10.5 -64.667 239.5 238.0 17.988 36.428 17.947 26.37 26.38 0.453
1 93HG_001 CAR-001 1995 11 8 1995-11-08 10.5 -64.667 241.51 240.0 17.971 36.427 17.929 26.374 26.384 0.438
1 93HG_001 CAR-001 1995 11 8 1995-11-08 10.5 -64.667 243.52 242.0 17.962 36.426 17.92 26.375 26.386 0.424
1 93HG_001 CAR-001 1995 11 8 1995-11-08 10.5 -64.667 245.54 244.0 17.953 36.422 17.91 26.376 26.387 0.412
1 93HG_001 CAR-001 1995 11 8 1995-11-08 10.5 -64.667 247.55 246.0 17.938 36.418 17.895 26.377 26.388 0.399
1 93HG_001 CAR-001 1995 11 8 1995-11-08 10.5 -64.667 249.56 248.0 17.923 36.416 17.88 26.378 26.389 0.388
1 93HG_001 CAR-001 1995 11 8 1995-11-08 10.5 -64.667 251.58 250.0 17.892 17.848 26.384 26.394 0.378
1 93HG_001 CAR-001 1995 11 8 1995-11-08 10.5 -64.667 253.59 252.0 17.875 17.831 0.365
1 93HG_001 CAR-001 1995 11 8 1995-11-08 10.5 -64.667 255.61 254.0 17.86 17.816 0.356
1 93HG_001 CAR-001 1995 11 8 1995-11-08 10.5 -64.667 257.62 256.0 17.852 17.807 0.346
1 93HG_001 CAR-001 1995 11 8 1995-11-08 10.5 -64.667 259.63 258.0 17.836 17.792 0.336
1 93HG_001 CAR-001 1995 11 8 1995-11-08 10.5 -64.667 261.65 260.0 17.821 17.776 0.326
1 93HG_001 CAR-001 1995 11 8 1995-11-08 10.5 -64.667 263.66 262.0 17.796 17.75 0.317
1 93HG_001 CAR-001 1995 11 8 1995-11-08 10.5 -64.667 265.68 264.0 17.781 17.735 0.309
1 93HG_001 CAR-001 1995 11 8 1995-11-08 10.5 -64.667 267.69 266.0 17.765 17.719 0.301
1 93HG_001 CAR-001 1995 11 8 1995-11-08 10.5 -64.667 269.7 268.0 17.762 17.715 0.29
1 93HG_001 CAR-001 1995 11 8 1995-11-08 10.5 -64.667 271.72 270.0 17.751 17.705 0.282
1 93HG_001 CAR-001 1995 11 8 1995-11-08 10.5 -64.667 273.73 272.0 17.746 17.699 0.276
1 93HG_001 CAR-001 1995 11 8 1995-11-08 10.5 -64.667 275.75 274.0 17.743 17.695 0.266
1 93HG_001 CAR-001 1995 11 8 1995-11-08 10.5 -64.667 277.76 276.0 17.736 17.689 0.26
1 93HG_001 CAR-001 1995 11 8 1995-11-08 10.5 -64.667 279.77 278.0 17.734 17.686 0.252
1 93HG_001 CAR-001 1995 11 8 1995-11-08 10.5 -64.667 281.79 280.0 17.727 17.679 0.246
1 93HG_001 CAR-001 1995 11 8 1995-11-08 10.5 -64.667 283.8 282.0 17.718 17.669 0.238
1 93HG_001 CAR-001 1995 11 8 1995-11-08 10.5 -64.667 285.82 284.0 17.714 17.665 0.231
1 93HG_001 CAR-001 1995 11 8 1995-11-08 10.5 -64.667 287.83 286.0 17.708 17.659 0.224
1 93HG_001 CAR-001 1995 11 8 1995-11-08 10.5 -64.667 289.85 288.0 17.701 17.651 0.22
1 93HG_001 CAR-001 1995 11 8 1995-11-08 10.5 -64.667 291.86 290.0 17.696 17.646 0.212
1 93HG_001 CAR-001 1995 11 8 1995-11-08 10.5 -64.667 293.87 292.0 17.686 17.636 0.207
1 93HG_001 CAR-001 1995 11 8 1995-11-08 10.5 -64.667 295.89 294.0 17.677 17.626 0.2
1 93HG_001 CAR-001 1995 11 8 1995-11-08 10.5 -64.667 297.9 296.0 17.667 17.616 0.196
1 93HG_001 CAR-001 1995 11 8 1995-11-08 10.5 -64.667 299.92 298.0 17.659 17.607 0.19
1 93HG_001 CAR-001 1995 11 8 1995-11-08 10.5 -64.667 301.93 300.0 17.657 17.605 0.184
1 93HG_001 CAR-001 1995 11 8 1995-11-08 10.5 -64.667 303.94 302.0 17.65 17.598 0.179
1 93HG_001 CAR-001 1995 11 8 1995-11-08 10.5 -64.667 305.96 304.0 17.639 17.587 0.177
1 93HG_001 CAR-001 1995 11 8 1995-11-08 10.5 -64.667 307.97 306.0 17.635 17.582 0.172
1 93HG_001 CAR-001 1995 11 8 1995-11-08 10.5 -64.667 309.99 308.0 17.634 17.58 0.166
1 93HG_001 CAR-001 1995 11 8 1995-11-08 10.5 -64.667 312.0 310.0 17.633 17.579 0.162
1 93HG_001 CAR-001 1995 11 8 1995-11-08 10.5 -64.667 314.02 312.0 17.63 17.576 0.158
1 93HG_001 CAR-001 1995 11 8 1995-11-08 10.5 -64.667 316.03 314.0 17.627 17.573 0.152
1 93HG_001 CAR-001 1995 11 8 1995-11-08 10.5 -64.667 318.05 316.0 17.624 17.569 0.151
1 93HG_001 CAR-001 1995 11 8 1995-11-08 10.5 -64.667 320.06 318.0 17.619 17.564 0.147
1 93HG_001 CAR-001 1995 11 8 1995-11-08 10.5 -64.667 322.07 320.0 17.613 17.558 0.142
1 93HG_001 CAR-001 1995 11 8 1995-11-08 10.5 -64.667 324.09 322.0 17.607 17.551 0.138
1 93HG_001 CAR-001 1995 11 8 1995-11-08 10.5 -64.667 326.1 324.0 17.602 17.546 0.135
1 93HG_001 CAR-001 1995 11 8 1995-11-08 10.5 -64.667 328.12 326.0 17.597 17.541 0.132
1 93HG_001 CAR-001 1995 11 8 1995-11-08 10.5 -64.667 330.13 328.0 17.592 17.536 0.127
1 93HG_001 CAR-001 1995 11 8 1995-11-08 10.5 -64.667 332.15 330.0 17.59 17.533 0.125
1 93HG_001 CAR-001 1995 11 8 1995-11-08 10.5 -64.667 334.16 332.0 17.585 17.528 0.124
1 93HG_001 CAR-001 1995 11 8 1995-11-08 10.5 -64.667 336.18 334.0 17.581 17.524 0.118
1 93HG_001 CAR-001 1995 11 8 1995-11-08 10.5 -64.667 338.19 336.0 17.579 17.521 0.117
1 93HG_001 CAR-001 1995 11 8 1995-11-08 10.5 -64.667 340.21 338.0 17.578 17.52 0.113
1 93HG_001 CAR-001 1995 11 8 1995-11-08 10.5 -64.667 342.22 340.0 17.576 17.517 0.11
1 93HG_001 CAR-001 1995 11 8 1995-11-08 10.5 -64.667 344.24 342.0 17.575 17.516 0.108
1 93HG_001 CAR-001 1995 11 8 1995-11-08 10.5 -64.667 346.25 344.0 17.569 17.51 0.104
1 93HG_001 CAR-001 1995 11 8 1995-11-08 10.5 -64.667 348.27 346.0 17.561 17.501 0.103
1 93HG_001 CAR-001 1995 11 8 1995-11-08 10.5 -64.667 350.28 348.0 17.554 17.494 0.099
1 93HG_001 CAR-001 1995 11 8 1995-11-08 10.5 -64.667 352.3 350.0 17.542 17.482 0.098
1 93HG_001 CAR-001 1995 11 8 1995-11-08 10.5 -64.667 354.31 352.0 17.536 17.475 0.097
1 93HG_001 CAR-001 1995 11 8 1995-11-08 10.5 -64.667 356.32 354.0 17.529 17.468 0.095
1 93HG_001 CAR-001 1995 11 8 1995-11-08 10.5 -64.667 358.34 356.0 17.519 17.458 0.093
1 93HG_001 CAR-001 1995 11 8 1995-11-08 10.5 -64.667 360.36 358.0 17.513 17.451 0.089
1 93HG_001 CAR-001 1995 11 8 1995-11-08 10.5 -64.667 362.37 360.0 17.51 17.448 0.089
1 93HG_001 CAR-001 1995 11 8 1995-11-08 10.5 -64.667 364.38 362.0 17.506 17.443 0.085
1 93HG_001 CAR-001 1995 11 8 1995-11-08 10.5 -64.667 366.4 364.0 17.502 17.44 0.086
1 93HG_001 CAR-001 1995 11 8 1995-11-08 10.5 -64.667 368.41 366.0 17.501 17.438 0.081
1 93HG_001 CAR-001 1995 11 8 1995-11-08 10.5 -64.667 370.43 368.0 17.499 17.436 0.08
1 93HG_001 CAR-001 1995 11 8 1995-11-08 10.5 -64.667 372.44 370.0 17.498 17.434 0.079
1 93HG_001 CAR-001 1995 11 8 1995-11-08 10.5 -64.667 374.46 372.0 17.495 17.432 0.076
1 93HG_001 CAR-001 1995 11 8 1995-11-08 10.5 -64.667 376.47 374.0 17.491 17.427 0.076
1 93HG_001 CAR-001 1995 11 8 1995-11-08 10.5 -64.667 378.49 376.0 17.488 17.423 0.075
1 93HG_001 CAR-001 1995 11 8 1995-11-08 10.5 -64.667 380.51 378.0 17.484 17.419 0.071
1 93HG_001 CAR-001 1995 11 8 1995-11-08 10.5 -64.667 382.52 380.0 17.482 17.416 0.072
1 93HG_001 CAR-001 1995 11 8 1995-11-08 10.5 -64.667 384.54 382.0 17.479 17.414 0.069
1 93HG_001 CAR-001 1995 11 8 1995-11-08 10.5 -64.667 386.55 384.0 17.475 17.409 0.069
1 93HG_001 CAR-001 1995 11 8 1995-11-08 10.5 -64.667 388.57 386.0 17.47 17.404 0.069
1 93HG_001 CAR-001 1995 11 8 1995-11-08 10.5 -64.667 390.58 388.0 17.464 17.397 0.064
1 93HG_001 CAR-001 1995 11 8 1995-11-08 10.5 -64.667 392.6 390.0 17.46 17.393 0.064
1 93HG_001 CAR-001 1995 11 8 1995-11-08 10.5 -64.667 394.61 392.0 17.447 17.38 0.06
1 93HG_001 CAR-001 1995 11 8 1995-11-08 10.5 -64.667 396.63 394.0 17.442 17.375 0.062
1 93HG_001 CAR-001 1995 11 8 1995-11-08 10.5 -64.667 398.64 396.0 17.437 17.369 0.062
1 93HG_001 CAR-001 1995 11 8 1995-11-08 10.5 -64.667 400.66 398.0 17.43 17.362 0.057
1 93HG_001 CAR-001 1995 11 8 1995-11-08 10.5 -64.667 402.67 400.0 17.425 17.356 0.058
1 93HG_001 CAR-001 1995 11 8 1995-11-08 10.5 -64.667 404.69 402.0 17.421 17.352 0.058
1 93HG_001 CAR-001 1995 11 8 1995-11-08 10.5 -64.667 406.7 404.0 17.418 17.348 0.057
1 93HG_001 CAR-001 1995 11 8 1995-11-08 10.5 -64.667 408.72 406.0 17.412 17.342 0.054
1 93HG_001 CAR-001 1995 11 8 1995-11-08 10.5 -64.667 410.73 408.0 17.409 17.339 0.055
1 93HG_001 CAR-001 1995 11 8 1995-11-08 10.5 -64.667 412.75 410.0 17.408 17.337 0.055
1 93HG_001 CAR-001 1995 11 8 1995-11-08 10.5 -64.667 414.76 412.0 17.404 17.333 0.054
1 93HG_001 CAR-001 1995 11 8 1995-11-08 10.5 -64.667 416.78 414.0 17.397 17.326 0.05
1 93HG_001 CAR-001 1995 11 8 1995-11-08 10.5 -64.667 418.8 416.0 17.393 17.321 0.051
1 93HG_001 CAR-001 1995 11 8 1995-11-08 10.5 -64.667 420.81 418.0 17.386 17.314 0.051
1 93HG_001 CAR-001 1995 11 8 1995-11-08 10.5 -64.667 422.83 420.0 17.384 17.312 0.049
1 93HG_001 CAR-001 1995 11 8 1995-11-08 10.5 -64.667 424.84 422.0 17.383 17.311 0.047
1 93HG_001 CAR-001 1995 11 8 1995-11-08 10.5 -64.667 426.86 424.0 17.381 17.308 0.048
1 93HG_001 CAR-001 1995 11 8 1995-11-08 10.5 -64.667 428.87 426.0 17.372 17.299 0.042
1 93HG_001 CAR-001 1995 11 8 1995-11-08 10.5 -64.667 430.89 428.0 17.366 17.292 0.044
1 93HG_001 CAR-001 1995 11 8 1995-11-08 10.5 -64.667 432.9 430.0 17.359 17.285 0.044
1 93HG_001 CAR-001 1995 11 8 1995-11-08 10.5 -64.667 434.92 432.0 17.352 17.278 0.044
1 93HG_001 CAR-001 1995 11 8 1995-11-08 10.5 -64.667 436.94 434.0 17.344 17.27 0.04
1 93HG_001 CAR-001 1995 11 8 1995-11-08 10.5 -64.667 438.95 436.0 17.338 17.263 0.041
1 93HG_001 CAR-001 1995 11 8 1995-11-08 10.5 -64.667 440.97 438.0 17.334 17.259 0.041
1 93HG_001 CAR-001 1995 11 8 1995-11-08 10.5 -64.667 442.98 440.0 17.331 17.256 0.041
1 93HG_001 CAR-001 1995 11 8 1995-11-08 10.5 -64.667 445.0 442.0 17.325 17.249 0.041
1 93HG_001 CAR-001 1995 11 8 1995-11-08 10.5 -64.667 447.01 444.0 17.313 17.237 0.04
1 93HG_001 CAR-001 1995 11 8 1995-11-08 10.5 -64.667 449.03 446.0 17.304 17.227 0.036
1 93HG_001 CAR-001 1995 11 8 1995-11-08 10.5 -64.667 451.05 448.0 17.296 17.219 0.037
1 93HG_001 CAR-001 1995 11 8 1995-11-08 10.5 -64.667 453.06 450.0 17.286 17.209 0.037
1 93HG_001 CAR-001 1995 11 8 1995-11-08 10.5 -64.667 455.08 452.0 17.28 17.203 0.037
1 93HG_001 CAR-001 1995 11 8 1995-11-08 10.5 -64.667 457.09 454.0 17.276 17.198 0.037
1 93HG_001 CAR-001 1995 11 8 1995-11-08 10.5 -64.667 459.11 456.0 17.272 17.194 0.037
1 93HG_001 CAR-001 1995 11 8 1995-11-08 10.5 -64.667 461.12 458.0 17.259 17.181 0.032
1 93HG_001 CAR-001 1995 11 8 1995-11-08 10.5 -64.667 463.14 460.0 17.25 17.172 0.033
1 93HG_001 CAR-001 1995 11 8 1995-11-08 10.5 -64.667 465.16 462.0 17.245 17.166 0.034
1 93HG_001 CAR-001 1995 11 8 1995-11-08 10.5 -64.667 467.17 464.0 17.243 17.163 0.034
1 93HG_001 CAR-001 1995 11 8 1995-11-08 10.5 -64.667 469.19 466.0 17.238 17.158 0.034
1 93HG_001 CAR-001 1995 11 8 1995-11-08 10.5 -64.667 471.2 468.0 17.235 17.155 0.034
1 93HG_001 CAR-001 1995 11 8 1995-11-08 10.5 -64.667 473.22 470.0 17.231 17.15 0.034
1 93HG_001 CAR-001 1995 11 8 1995-11-08 10.5 -64.667 475.24 472.0 17.228 17.147 0.034
1 93HG_001 CAR-001 1995 11 8 1995-11-08 10.5 -64.667 477.25 474.0 17.223 17.142 0.032
1 93HG_001 CAR-001 1995 11 8 1995-11-08 10.5 -64.667 479.27 476.0 17.217 17.136 0.028
1 93HG_001 CAR-001 1995 11 8 1995-11-08 10.5 -64.667 481.28 478.0 17.212 17.13 0.03
1 93HG_001 CAR-001 1995 11 8 1995-11-08 10.5 -64.667 483.3 480.0 17.207 17.125 0.03
1 93HG_001 CAR-001 1995 11 8 1995-11-08 10.5 -64.667 485.32 482.0 17.203 17.121 0.03
1 93HG_001 CAR-001 1995 11 8 1995-11-08 10.5 -64.667 487.33 484.0 17.201 17.118 0.03
1 93HG_001 CAR-001 1995 11 8 1995-11-08 10.5 -64.667 489.35 486.0 17.197 17.114 0.03
1 93HG_001 CAR-001 1995 11 8 1995-11-08 10.5 -64.667 491.37 488.0 17.192 17.109 0.03
1 93HG_001 CAR-001 1995 11 8 1995-11-08 10.5 -64.667 493.38 490.0 17.189 17.106 0.03
1 93HG_001 CAR-001 1995 11 8 1995-11-08 10.5 -64.667 495.4 492.0 17.186 17.102 0.025
1 93HG_001 CAR-001 1995 11 8 1995-11-08 10.5 -64.667 497.41 494.0 17.182 17.098 0.026
1 93HG_001 CAR-001 1995 11 8 1995-11-08 10.5 -64.667 499.43 496.0 17.18 17.095 0.026
1 93HG_001 CAR-001 1995 11 8 1995-11-08 10.5 -64.667 501.45 498.0 17.177 17.092 0.026
1 93HG_001 CAR-001 1995 11 8 1995-11-08 10.5 -64.667 503.46 500.0 17.175 17.09 0.026
1 93HG_001 CAR-001 1995 11 8 1995-11-08 10.5 -64.667 505.48 502.0 17.172 17.087 0.026
1 93HG_001 CAR-001 1995 11 8 1995-11-08 10.5 -64.667 507.5 504.0 17.17 17.084 0.026
1 93HG_001 CAR-001 1995 11 8 1995-11-08 10.5 -64.667 509.51 506.0 17.168 17.081 0.026
1 93HG_001 CAR-001 1995 11 8 1995-11-08 10.5 -64.667 511.53 508.0 17.162 17.076 0.026
1 93HG_001 CAR-001 1995 11 8 1995-11-08 10.5 -64.667 513.54 510.0 17.158 17.071 0.026
1 93HG_001 CAR-001 1995 11 8 1995-11-08 10.5 -64.667 515.56 512.0 17.155 17.068 0.023
1 93HG_001 CAR-001 1995 11 8 1995-11-08 10.5 -64.667 517.58 514.0 17.15 17.062 0.023
1 93HG_001 CAR-001 1995 11 8 1995-11-08 10.5 -64.667 519.59 516.0 17.149 17.061 0.023
1 93HG_001 CAR-001 1995 11 8 1995-11-08 10.5 -64.667 521.61 518.0 17.145 17.057 0.023
1 93HG_001 CAR-001 1995 11 8 1995-11-08 10.5 -64.667 523.63 520.0 17.143 17.055 0.023
1 93HG_001 CAR-001 1995 11 8 1995-11-08 10.5 -64.667 525.64 522.0 17.139 17.05 0.023
1 93HG_001 CAR-001 1995 11 8 1995-11-08 10.5 -64.667 527.66 524.0 17.134 17.045 0.023
1 93HG_001 CAR-001 1995 11 8 1995-11-08 10.5 -64.667 529.67 526.0 17.13 17.04 0.023
1 93HG_001 CAR-001 1995 11 8 1995-11-08 10.5 -64.667 531.69 528.0 17.127 17.037 0.023
1 93HG_001 CAR-001 1995 11 8 1995-11-08 10.5 -64.667 533.71 530.0 17.125 17.034 0.019
1 93HG_001 CAR-001 1995 11 8 1995-11-08 10.5 -64.667 535.73 532.0 17.123 17.033 0.019
1 93HG_001 CAR-001 1995 11 8 1995-11-08 10.5 -64.667 537.74 534.0 17.122 17.031 0.019
1 93HG_001 CAR-001 1995 11 8 1995-11-08 10.5 -64.667 539.76 536.0 17.12 17.029 0.019
1 93HG_001 CAR-001 1995 11 8 1995-11-08 10.5 -64.667 541.77 538.0 17.116 17.024 0.019
1 93HG_001 CAR-001 1995 11 8 1995-11-08 10.5 -64.667 543.79 540.0 17.112 17.02 0.019
1 93HG_001 CAR-001 1995 11 8 1995-11-08 10.5 -64.667 545.81 542.0 17.109 17.017 0.019
1 93HG_001 CAR-001 1995 11 8 1995-11-08 10.5 -64.667 547.83 544.0 17.105 17.012 0.019
1 93HG_001 CAR-001 1995 11 8 1995-11-08 10.5 -64.667 549.84 546.0 17.102 17.009 0.019
1 93HG_001 CAR-001 1995 11 8 1995-11-08 10.5 -64.667 551.86 548.0 17.101 17.007 0.019
1 93HG_001 CAR-001 1995 11 8 1995-11-08 10.5 -64.667 553.88 550.0 17.099 17.005 0.019
1 93HG_001 CAR-001 1995 11 8 1995-11-08 10.5 -64.667 555.89 552.0 17.098 17.004 0.019
1 93HG_001 CAR-001 1995 11 8 1995-11-08 10.5 -64.667 557.91 554.0 17.095 17.001 0.019
1 93HG_001 CAR-001 1995 11 8 1995-11-08 10.5 -64.667 559.93 556.0 17.093 16.998 0.019
1 93HG_001 CAR-001 1995 11 8 1995-11-08 10.5 -64.667 561.94 558.0 17.088 16.993 0.019
1 93HG_001 CAR-001 1995 11 8 1995-11-08 10.5 -64.667 563.96 560.0 17.085 16.99 0.019
1 93HG_001 CAR-001 1995 11 8 1995-11-08 10.5 -64.667 565.98 562.0 17.083 16.987 0.02
1 93HG_001 CAR-001 1995 11 8 1995-11-08 10.5 -64.667 567.99 564.0 17.081 16.984 0.015
1 93HG_001 CAR-001 1995 11 8 1995-11-08 10.5 -64.667 570.01 566.0 17.079 16.983 0.018
1 93HG_001 CAR-001 1995 11 8 1995-11-08 10.5 -64.667 572.03 568.0 17.077 16.98 0.015
1 93HG_001 CAR-001 1995 11 8 1995-11-08 10.5 -64.667 574.04 570.0 17.075 16.978 0.015
1 93HG_001 CAR-001 1995 11 8 1995-11-08 10.5 -64.667 576.06 572.0 17.073 16.976 0.015
1 93HG_001 CAR-001 1995 11 8 1995-11-08 10.5 -64.667 578.08 574.0 17.071 16.973 0.015
1 93HG_001 CAR-001 1995 11 8 1995-11-08 10.5 -64.667 580.1 576.0 17.067 16.969 0.015
1 93HG_001 CAR-001 1995 11 8 1995-11-08 10.5 -64.667 582.11 578.0 17.065 16.966 0.019
1 93HG_001 CAR-001 1995 11 8 1995-11-08 10.5 -64.667 584.13 580.0 17.063 16.965 0.019
1 93HG_001 CAR-001 1995 11 8 1995-11-08 10.5 -64.667 586.15 582.0 17.062 16.963 0.014
1 93HG_001 CAR-001 1995 11 8 1995-11-08 10.5 -64.667 588.16 584.0 17.058 16.959 0.015
1 93HG_001 CAR-001 1995 11 8 1995-11-08 10.5 -64.667 590.18 586.0 17.056 16.956 0.015
1 93HG_001 CAR-001 1995 11 8 1995-11-08 10.5 -64.667 592.2 588.0 17.054 16.954 0.015
1 93HG_001 CAR-001 1995 11 8 1995-11-08 10.5 -64.667 594.22 590.0 17.053 16.952 0.015
1 93HG_001 CAR-001 1995 11 8 1995-11-08 10.5 -64.667 596.23 592.0 17.052 16.951 0.015
1 93HG_001 CAR-001 1995 11 8 1995-11-08 10.5 -64.667 598.25 594.0 17.052 16.95 0.015
1 93HG_001 CAR-001 1995 11 8 1995-11-08 10.5 -64.667 600.27 596.0 17.051 16.95 0.015
1 93HG_001 CAR-001 1995 11 8 1995-11-08 10.5 -64.667 602.28 598.0 17.053 16.951 0.015
1 93HG_001 CAR-001 1995 11 8 1995-11-08 10.5 -64.667 604.3 600.0 17.054 16.952 0.011
1 93HG_001 CAR-001 1995 11 8 1995-11-08 10.5 -64.667 606.32 602.0 17.052 16.95 0.017
1 93HG_001 CAR-001 1995 11 8 1995-11-08 10.5 -64.667 608.34 604.0 17.051 16.948 0.015
1 93HG_001 CAR-001 1995 11 8 1995-11-08 10.5 -64.667 610.35 606.0 17.05 16.947 0.014
1 93HG_001 CAR-001 1995 11 8 1995-11-08 10.5 -64.667 612.37 608.0 17.049 16.946 0.01
1 93HG_001 CAR-001 1995 11 8 1995-11-08 10.5 -64.667 614.39 610.0 17.049 16.945 0.012
1 93HG_001 CAR-001 1995 11 8 1995-11-08 10.5 -64.667 616.4 612.0 17.048 16.943 0.012
1 93HG_001 CAR-001 1995 11 8 1995-11-08 10.5 -64.667 618.42 614.0 17.047 16.942 0.012
1 93HG_001 CAR-001 1995 11 8 1995-11-08 10.5 -64.667 620.44 616.0 17.045 16.941 0.016
1 93HG_001 CAR-001 1995 11 8 1995-11-08 10.5 -64.667 622.46 618.0 17.044 16.939 0.011
1 93HG_001 CAR-001 1995 11 8 1995-11-08 10.5 -64.667 624.47 620.0 17.042 16.937 0.012
1 93HG_001 CAR-001 1995 11 8 1995-11-08 10.5 -64.667 626.49 622.0 17.041 16.936 0.012
1 93HG_001 CAR-001 1995 11 8 1995-11-08 10.5 -64.667 628.51 624.0 17.04 16.934 0.012
1 93HG_001 CAR-001 1995 11 8 1995-11-08 10.5 -64.667 630.53 626.0 17.038 16.932 0.012
1 93HG_001 CAR-001 1995 11 8 1995-11-08 10.5 -64.667 632.54 628.0 17.038 16.93 0.012
1 93HG_001 CAR-001 1995 11 8 1995-11-08 10.5 -64.667 634.56 630.0 17.035 16.927 0.012
1 93HG_001 CAR-001 1995 11 8 1995-11-08 10.5 -64.667 636.58 632.0 17.031 16.924 0.012
1 93HG_001 CAR-001 1995 11 8 1995-11-08 10.5 -64.667 638.6 634.0 17.03 16.922 0.012
1 93HG_001 CAR-001 1995 11 8 1995-11-08 10.5 -64.667 640.62 636.0 17.029 16.921 0.012
1 93HG_001 CAR-001 1995 11 8 1995-11-08 10.5 -64.667 642.63 638.0 17.028 16.919 0.012
1 93HG_001 CAR-001 1995 11 8 1995-11-08 10.5 -64.667 644.65 640.0 17.029 16.92 0.012
1 93HG_001 CAR-001 1995 11 8 1995-11-08 10.5 -64.667 646.67 642.0 17.029 16.919 0.012
1 93HG_001 CAR-001 1995 11 8 1995-11-08 10.5 -64.667 648.68 644.0 17.027 16.917 0.012
1 93HG_001 CAR-001 1995 11 8 1995-11-08 10.5 -64.667 650.7 646.0 17.026 16.916 0.012
1 93HG_001 CAR-001 1995 11 8 1995-11-08 10.5 -64.667 652.72 648.0 17.027 16.916 0.012
1 93HG_001 CAR-001 1995 11 8 1995-11-08 10.5 -64.667 654.74 650.0 17.026 16.916 0.012
1 93HG_001 CAR-001 1995 11 8 1995-11-08 10.5 -64.667 656.76 652.0 17.026 16.914 0.012
1 93HG_001 CAR-001 1995 11 8 1995-11-08 10.5 -64.667 658.77 654.0 17.024 16.913 0.012
1 93HG_001 CAR-001 1995 11 8 1995-11-08 10.5 -64.667 660.79 656.0 17.022 16.91 0.012
1 93HG_001 CAR-001 1995 11 8 1995-11-08 10.5 -64.667 662.81 658.0 17.019 16.907 0.008
1 93HG_001 CAR-001 1995 11 8 1995-11-08 10.5 -64.667 664.83 660.0 17.019 16.906 0.013
1 93HG_001 CAR-001 1995 11 8 1995-11-08 10.5 -64.667 666.85 662.0 17.018 16.905 0.009
1 93HG_001 CAR-001 1995 11 8 1995-11-08 10.5 -64.667 668.86 664.0 17.017 16.904 0.009
1 93HG_001 CAR-001 1995 11 8 1995-11-08 10.5 -64.667 670.88 666.0 17.016 16.903 0.008
1 93HG_001 CAR-001 1995 11 8 1995-11-08 10.5 -64.667 672.9 668.0 17.015 16.901 0.008
1 93HG_001 CAR-001 1995 11 8 1995-11-08 10.5 -64.667 674.92 670.0 17.015 16.901 0.008
1 93HG_001 CAR-001 1995 11 8 1995-11-08 10.5 -64.667 676.93 672.0 17.015 16.9 0.008
1 93HG_001 CAR-001 1995 11 8 1995-11-08 10.5 -64.667 678.95 674.0 17.014 16.899 0.008
1 93HG_001 CAR-001 1995 11 8 1995-11-08 10.5 -64.667 680.97 676.0 17.013 16.898 0.008
1 93HG_001 CAR-001 1995 11 8 1995-11-08 10.5 -64.667 682.99 678.0 17.012 16.896 0.008
1 93HG_001 CAR-001 1995 11 8 1995-11-08 10.5 -64.667 685.01 680.0 17.011 16.895 0.008
1 93HG_001 CAR-001 1995 11 8 1995-11-08 10.5 -64.667 687.02 682.0 17.01 16.894 0.008
1 93HG_001 CAR-001 1995 11 8 1995-11-08 10.5 -64.667 689.04 684.0 17.01 16.893 0.008
1 93HG_001 CAR-001 1995 11 8 1995-11-08 10.5 -64.667 691.06 686.0 17.01 16.893 0.008
1 93HG_001 CAR-001 1995 11 8 1995-11-08 10.5 -64.667 693.08 688.0 17.01 16.893 0.008
1 93HG_001 CAR-001 1995 11 8 1995-11-08 10.5 -64.667 695.1 690.0 17.009 16.891 0.008
1 93HG_001 CAR-001 1995 11 8 1995-11-08 10.5 -64.667 697.12 692.0 17.009 16.89 0.008
1 93HG_001 CAR-001 1995 11 8 1995-11-08 10.5 -64.667 699.13 694.0 17.009 16.891 0.008
1 93HG_001 CAR-001 1995 11 8 1995-11-08 10.5 -64.667 701.15 696.0 17.009 16.89 0.008
1 93HG_001 CAR-001 1995 11 8 1995-11-08 10.5 -64.667 703.17 698.0 17.007 16.888 0.008
1 93HG_001 CAR-001 1995 11 8 1995-11-08 10.5 -64.667 705.19 700.0 17.006 16.886 0.008
1 93HG_001 CAR-001 1995 11 8 1995-11-08 10.5 -64.667 707.21 702.0 17.004 16.884 0.008
1 93HG_001 CAR-001 1995 11 8 1995-11-08 10.5 -64.667 709.23 704.0 17.004 16.884 0.008
1 93HG_001 CAR-001 1995 11 8 1995-11-08 10.5 -64.667 711.24 706.0 17.004 16.883 0.008
1 93HG_001 CAR-001 1995 11 8 1995-11-08 10.5 -64.667 713.26 708.0 17.003 16.882 0.008
1 93HG_001 CAR-001 1995 11 8 1995-11-08 10.5 -64.667 715.28 710.0 17.003 16.881 0.007
1 93HG_001 CAR-001 1995 11 8 1995-11-08 10.5 -64.667 717.3 712.0 17.002 16.881 0.008
1 93HG_001 CAR-001 1995 11 8 1995-11-08 10.5 -64.667 719.32 714.0 17.002 16.88 0.007
1 93HG_001 CAR-001 1995 11 8 1995-11-08 10.5 -64.667 721.34 716.0 17.002 16.88 0.003
1 93HG_001 CAR-001 1995 11 8 1995-11-08 10.5 -64.667 723.35 718.0 17.002 16.879 0.004
1 93HG_001 CAR-001 1995 11 8 1995-11-08 10.5 -64.667 725.37 720.0 17.002 16.879 0.004
1 93HG_001 CAR-001 1995 11 8 1995-11-08 10.5 -64.667 727.39 722.0 17.002 16.879 0.004
1 93HG_001 CAR-001 1995 11 8 1995-11-08 10.5 -64.667 729.41 724.0 17.002 16.878 0.004
1 93HG_001 CAR-001 1995 11 8 1995-11-08 10.5 -64.667 731.43 726.0 17.002 16.878 0.008
1 93HG_001 CAR-001 1995 11 8 1995-11-08 10.5 -64.667 733.45 728.0 17.002 16.878 0.008
1 93HG_001 CAR-001 1995 11 8 1995-11-08 10.5 -64.667 735.46 730.0 17.002 16.877 0.008
1 93HG_001 CAR-001 1995 11 8 1995-11-08 10.5 -64.667 737.48 732.0 17.001 16.876 0.008
1 93HG_001 CAR-001 1995 11 8 1995-11-08 10.5 -64.667 739.5 734.0 17.001 16.876 0.007
1 93HG_001 CAR-001 1995 11 8 1995-11-08 10.5 -64.667 741.52 736.0 17.001 16.875 0.003
1 93HG_001 CAR-001 1995 11 8 1995-11-08 10.5 -64.667 743.54 738.0 17.0 16.874 0.005
1 93HG_001 CAR-001 1995 11 8 1995-11-08 10.5 -64.667 745.56 740.0 17.0 16.874 0.009
1 93HG_001 CAR-001 1995 11 8 1995-11-08 10.5 -64.667 747.58 742.0 17.0 16.874 0.008
1 93HG_001 CAR-001 1995 11 8 1995-11-08 10.5 -64.667 749.59 744.0 17.0 16.873 0.007
1 93HG_001 CAR-001 1995 11 8 1995-11-08 10.5 -64.667 751.61 746.0 16.999 16.872 0.003
1 93HG_001 CAR-001 1995 11 8 1995-11-08 10.5 -64.667 753.63 748.0 17.0 16.872 0.004
1 93HG_001 CAR-001 1995 11 8 1995-11-08 10.5 -64.667 755.65 750.0 17.0 16.872 0.004
1 93HG_001 CAR-001 1995 11 8 1995-11-08 10.5 -64.667 757.67 752.0 17.0 16.871 0.004
1 93HG_001 CAR-001 1995 11 8 1995-11-08 10.5 -64.667 759.69 754.0 16.999 16.87 0.004
1 93HG_001 CAR-001 1995 11 8 1995-11-08 10.5 -64.667 761.71 756.0 16.999 16.869 0.004
1 93HG_001 CAR-001 1995 11 8 1995-11-08 10.5 -64.667 763.73 758.0 16.998 16.869 0.004
1 93HG_001 CAR-001 1995 11 8 1995-11-08 10.5 -64.667 765.74 760.0 16.999 16.869 0.004
1 93HG_001 CAR-001 1995 11 8 1995-11-08 10.5 -64.667 767.76 762.0 16.999 16.869 0.004
1 93HG_001 CAR-001 1995 11 8 1995-11-08 10.5 -64.667 769.78 764.0 16.999 16.869 0.004
1 93HG_001 CAR-001 1995 11 8 1995-11-08 10.5 -64.667 771.8 766.0 17.0 16.869 0.004
1 93HG_001 CAR-001 1995 11 8 1995-11-08 10.5 -64.667 773.82 768.0 17.0 16.869 0.004
1 93HG_001 CAR-001 1995 11 8 1995-11-08 10.5 -64.667 775.84 770.0 16.999 16.867 0.004
1 93HG_001 CAR-001 1995 11 8 1995-11-08 10.5 -64.667 777.86 772.0 16.999 16.867 0.004
1 93HG_001 CAR-001 1995 11 8 1995-11-08 10.5 -64.667 779.88 774.0 16.999 16.866 0.004
1 93HG_001 CAR-001 1995 11 8 1995-11-08 10.5 -64.667 781.89 776.0 16.999 16.866 0.004
1 93HG_001 CAR-001 1995 11 8 1995-11-08 10.5 -64.667 783.91 778.0 16.999 16.866 0.004
1 93HG_001 CAR-001 1995 11 8 1995-11-08 10.5 -64.667 785.93 780.0 16.998 16.865 0.006
1 93HG_001 CAR-001 1995 11 8 1995-11-08 10.5 -64.667 787.95 782.0 16.998 16.864 0.005
1 93HG_001 CAR-001 1995 11 8 1995-11-08 10.5 -64.667 789.97 784.0 16.998 16.864 0.004
1 93HG_001 CAR-001 1995 11 8 1995-11-08 10.5 -64.667 791.99 786.0 16.998 16.863 0.004
1 93HG_001 CAR-001 1995 11 8 1995-11-08 10.5 -64.667 794.01 788.0 16.998 16.863 0.004
1 93HG_001 CAR-001 1995 11 8 1995-11-08 10.5 -64.667 796.03 790.0 16.998 16.863 0.004
1 93HG_001 CAR-001 1995 11 8 1995-11-08 10.5 -64.667 798.05 792.0 16.998 16.863 0.004
1 93HG_001 CAR-001 1995 11 8 1995-11-08 10.5 -64.667 800.07 794.0 16.999 16.863 0.004
1 93HG_001 CAR-001 1995 11 8 1995-11-08 10.5 -64.667 802.09 796.0 16.999 16.863 0.004
1 93HG_001 CAR-001 1995 11 8 1995-11-08 10.5 -64.667 804.11 798.0 17.0 16.864 0.004
1 93HG_001 CAR-001 1995 11 8 1995-11-08 10.5 -64.667 806.12 800.0 17.001 16.864 0.004
1 93HG_001 CAR-001 1995 11 8 1995-11-08 10.5 -64.667 808.14 802.0 17.001 16.864 0.004
1 93HG_001 CAR-001 1995 11 8 1995-11-08 10.5 -64.667 810.16 804.0 17.001 16.863 0.004
1 93HG_001 CAR-001 1995 11 8 1995-11-08 10.5 -64.667 812.18 806.0 17.0 16.862 0.004
1 93HG_001 CAR-001 1995 11 8 1995-11-08 10.5 -64.667 814.2 808.0 16.998 16.86 0.004
1 93HG_001 CAR-001 1995 11 8 1995-11-08 10.5 -64.667 816.22 810.0 16.998 16.86 0.004
1 93HG_001 CAR-001 1995 11 8 1995-11-08 10.5 -64.667 818.24 812.0 16.999 16.86 0.004
1 93HG_001 CAR-001 1995 11 8 1995-11-08 10.5 -64.667 820.26 814.0 16.999 16.86 0.004
1 93HG_001 CAR-001 1995 11 8 1995-11-08 10.5 -64.667 822.28 816.0 16.998 16.858 0.004
1 93HG_001 CAR-001 1995 11 8 1995-11-08 10.5 -64.667 824.3 818.0 16.999 16.859 0.004
1 93HG_001 CAR-001 1995 11 8 1995-11-08 10.5 -64.667 826.32 820.0 16.998 16.858 0.004
1 93HG_001 CAR-001 1995 11 8 1995-11-08 10.5 -64.667 828.34 822.0 16.999 16.858 0.004
1 93HG_001 CAR-001 1995 11 8 1995-11-08 10.5 -64.667 830.36 824.0 16.999 16.858 0.004
1 93HG_001 CAR-001 1995 11 8 1995-11-08 10.5 -64.667 832.38 826.0 16.999 16.858 0.004
1 93HG_001 CAR-001 1995 11 8 1995-11-08 10.5 -64.667 834.39 828.0 16.999 16.857 0.004
1 93HG_001 CAR-001 1995 11 8 1995-11-08 10.5 -64.667 836.41 830.0 17.0 16.858 0.004
1 93HG_001 CAR-001 1995 11 8 1995-11-08 10.5 -64.667 838.43 832.0 17.0 16.858 0.004
1 93HG_001 CAR-001 1995 11 8 1995-11-08 10.5 -64.667 840.45 834.0 17.0 16.857 0.004
1 93HG_001 CAR-001 1995 11 8 1995-11-08 10.5 -64.667 842.47 836.0 17.0 16.857 0.004
1 93HG_001 CAR-001 1995 11 8 1995-11-08 10.5 -64.667 844.49 838.0 17.0 16.857 0.004
1 93HG_001 CAR-001 1995 11 8 1995-11-08 10.5 -64.667 846.51 840.0 17.0 16.857 0.004
1 93HG_001 CAR-001 1995 11 8 1995-11-08 10.5 -64.667 848.53 842.0 17.0 16.856 0.004
1 93HG_001 CAR-001 1995 11 8 1995-11-08 10.5 -64.667 850.55 844.0 17.0 16.855 0.004
1 93HG_001 CAR-001 1995 11 8 1995-11-08 10.5 -64.667 852.57 846.0 17.0 16.855 0.004
1 93HG_001 CAR-001 1995 11 8 1995-11-08 10.5 -64.667 854.59 848.0 17.0 16.854 0.004
1 93HG_001 CAR-001 1995 11 8 1995-11-08 10.5 -64.667 856.61 850.0 17.0 16.854 0.004
1 93HG_001 CAR-001 1995 11 8 1995-11-08 10.5 -64.667 858.63 852.0 16.999 16.854 0.0
1 93HG_001 CAR-001 1995 11 8 1995-11-08 10.5 -64.667 860.65 854.0 16.999 16.853 0.0
1 93HG_001 CAR-001 1995 11 8 1995-11-08 10.5 -64.667 862.67 856.0 16.999 16.853 0.0
1 93HG_001 CAR-001 1995 11 8 1995-11-08 10.5 -64.667 864.69 858.0 16.999 16.852 0.0
1 93HG_001 CAR-001 1995 11 8 1995-11-08 10.5 -64.667 866.71 860.0 17.0 16.853 0.005
1 93HG_001 CAR-001 1995 11 8 1995-11-08 10.5 -64.667 868.73 862.0 17.0 16.852 0.0
1 93HG_001 CAR-001 1995 11 8 1995-11-08 10.5 -64.667 870.75 864.0 17.001 16.853 0.0
1 93HG_001 CAR-001 1995 11 8 1995-11-08 10.5 -64.667 872.77 866.0 17.001 16.852 0.0
1 93HG_001 CAR-001 1995 11 8 1995-11-08 10.5 -64.667 874.79 868.0 17.001 16.852 0.0
1 93HG_001 CAR-001 1995 11 8 1995-11-08 10.5 -64.667 876.81 870.0 17.0 16.852 0.004
1 93HG_001 CAR-001 1995 11 8 1995-11-08 10.5 -64.667 878.83 872.0 17.0 16.851 0.0
1 93HG_001 CAR-001 1995 11 8 1995-11-08 10.5 -64.667 880.85 874.0 17.0 16.85 0.0
1 93HG_001 CAR-001 1995 11 8 1995-11-08 10.5 -64.667 882.87 876.0 17.0 16.85 0.003
1 93HG_001 CAR-001 1995 11 8 1995-11-08 10.5 -64.667 884.89 878.0 17.001 16.851 0.005
1 93HG_001 CAR-001 1995 11 8 1995-11-08 10.5 -64.667 886.91 880.0 17.001 16.85 0.004
1 93HG_001 CAR-001 1995 11 8 1995-11-08 10.5 -64.667 888.93 882.0 17.001 16.85 0.004
1 93HG_001 CAR-001 1995 11 8 1995-11-08 10.5 -64.667 890.95 884.0 17.001 16.849 0.002
1 93HG_001 CAR-001 1995 11 8 1995-11-08 10.5 -64.667 892.97 886.0 17.002 16.85 0.0
1 93HG_001 CAR-001 1995 11 8 1995-11-08 10.5 -64.667 894.99 888.0 17.002 16.85 0.0
1 93HG_001 CAR-001 1995 11 8 1995-11-08 10.5 -64.667 897.01 890.0 17.002 16.85 0.0
1 93HG_001 CAR-001 1995 11 8 1995-11-08 10.5 -64.667 899.03 892.0 17.003 16.851 0.0
1 93HG_001 CAR-001 1995 11 8 1995-11-08 10.5 -64.667 901.05 894.0 17.004 16.851 0.0
1 93HG_001 CAR-001 1995 11 8 1995-11-08 10.5 -64.667 903.07 896.0 17.004 16.85 0.002
1 93HG_001 CAR-001 1995 11 8 1995-11-08 10.5 -64.667 905.09 898.0 17.004 16.85 0.006
1 93HG_001 CAR-001 1995 11 8 1995-11-08 10.5 -64.667 907.11 900.0 17.005 16.85 0.002
1 93HG_001 CAR-001 1995 11 8 1995-11-08 10.5 -64.667 909.13 902.0 17.005 16.851 0.0
1 93HG_001 CAR-001 1995 11 8 1995-11-08 10.5 -64.667 911.15 904.0 17.005 16.85 0.0
1 93HG_001 CAR-001 1995 11 8 1995-11-08 10.5 -64.667 913.17 906.0 17.005 16.85 0.0
1 93HG_001 CAR-001 1995 11 8 1995-11-08 10.5 -64.667 915.19 908.0 17.006 16.85 0.0
1 93HG_001 CAR-001 1995 11 8 1995-11-08 10.5 -64.667 917.21 910.0 17.006 16.85 0.0
1 93HG_001 CAR-001 1995 11 8 1995-11-08 10.5 -64.667 919.23 912.0 17.006 16.849 0.0
1 93HG_001 CAR-001 1995 11 8 1995-11-08 10.5 -64.667 921.25 914.0 17.006 16.849 0.0
1 93HG_001 CAR-001 1995 11 8 1995-11-08 10.5 -64.667 923.27 916.0 17.006 16.849 0.0
1 93HG_001 CAR-001 1995 11 8 1995-11-08 10.5 -64.667 925.29 918.0 17.006 16.848 0.0
1 93HG_001 CAR-001 1995 11 8 1995-11-08 10.5 -64.667 927.31 920.0 17.006 16.849 0.0
1 93HG_001 CAR-001 1995 11 8 1995-11-08 10.5 -64.667 929.33 922.0 17.006 16.848 0.0
1 93HG_001 CAR-001 1995 11 8 1995-11-08 10.5 -64.667 931.35 924.0 17.006 16.848 0.0
1 93HG_001 CAR-001 1995 11 8 1995-11-08 10.5 -64.667 933.37 926.0 17.007 16.848 0.0
1 93HG_001 CAR-001 1995 11 8 1995-11-08 10.5 -64.667 935.39 928.0 17.007 16.848 0.0
1 93HG_001 CAR-001 1995 11 8 1995-11-08 10.5 -64.667 937.41 930.0 17.008 16.848 0.0
1 93HG_001 CAR-001 1995 11 8 1995-11-08 10.5 -64.667 939.43 932.0 17.008 16.849 0.0
1 93HG_001 CAR-001 1995 11 8 1995-11-08 10.5 -64.667 941.46 934.0 17.009 16.848 0.0
1 93HG_001 CAR-001 1995 11 8 1995-11-08 10.5 -64.667 943.48 936.0 17.008 16.848 0.0
1 93HG_001 CAR-001 1995 11 8 1995-11-08 10.5 -64.667 945.5 938.0 17.008 16.847 0.0
1 93HG_001 CAR-001 1995 11 8 1995-11-08 10.5 -64.667 947.52 940.0 17.009 16.848 0.0
1 93HG_001 CAR-001 1995 11 8 1995-11-08 10.5 -64.667 949.54 942.0 17.009 16.848 0.0
1 93HG_001 CAR-001 1995 11 8 1995-11-08 10.5 -64.667 951.56 944.0 17.009 16.848 0.0
1 93HG_001 CAR-001 1995 11 8 1995-11-08 10.5 -64.667 953.58 946.0 17.01 16.848 0.0
1 93HG_001 CAR-001 1995 11 8 1995-11-08 10.5 -64.667 955.6 948.0 17.011 16.848 0.0
1 93HG_001 CAR-001 1995 11 8 1995-11-08 10.5 -64.667 957.62 950.0 17.011 16.848 0.0
1 93HG_001 CAR-001 1995 11 8 1995-11-08 10.5 -64.667 959.64 952.0 17.011 16.847 0.0
1 93HG_001 CAR-001 1995 11 8 1995-11-08 10.5 -64.667 961.66 954.0 17.011 16.848 0.0
1 93HG_001 CAR-001 1995 11 8 1995-11-08 10.5 -64.667 963.68 956.0 17.012 16.848 0.0
1 93HG_001 CAR-001 1995 11 8 1995-11-08 10.5 -64.667 965.7 958.0 17.012 16.848 0.0
1 93HG_001 CAR-001 1995 11 8 1995-11-08 10.5 -64.667 967.72 960.0 17.013 16.848 0.0
1 93HG_001 CAR-001 1995 11 8 1995-11-08 10.5 -64.667 969.74 962.0 17.013 16.848 0.0
1 93HG_001 CAR-001 1995 11 8 1995-11-08 10.5 -64.667 971.76 964.0 17.013 16.848 0.001
1 93HG_001 CAR-001 1995 11 8 1995-11-08 10.5 -64.667 973.78 966.0 17.014 16.848 0.0
1 93HG_001 CAR-001 1995 11 8 1995-11-08 10.5 -64.667 975.81 968.0 17.014 16.848 0.0
1 93HG_001 CAR-001 1995 11 8 1995-11-08 10.5 -64.667 977.83 970.0 17.014 16.848 0.0
1 93HG_001 CAR-001 1995 11 8 1995-11-08 10.5 -64.667 979.85 972.0 17.014 16.847 0.0
1 93HG_001 CAR-001 1995 11 8 1995-11-08 10.5 -64.667 981.87 974.0 17.014 16.847 0.0
1 93HG_001 CAR-001 1995 11 8 1995-11-08 10.5 -64.667 983.89 976.0 17.015 16.847 0.0
1 93HG_001 CAR-001 1995 11 8 1995-11-08 10.5 -64.667 985.91 978.0 17.015 16.847 0.0
1 93HG_001 CAR-001 1995 11 8 1995-11-08 10.5 -64.667 987.93 980.0 17.015 16.847 0.0
1 93HG_001 CAR-001 1995 11 8 1995-11-08 10.5 -64.667 989.95 982.0 17.015 16.847 0.0
1 93HG_001 CAR-001 1995 11 8 1995-11-08 10.5 -64.667 991.97 984.0 17.016 16.847 0.0
1 93HG_001 CAR-001 1995 11 8 1995-11-08 10.5 -64.667 993.99 986.0 17.016 16.847 0.0
1 93HG_001 CAR-001 1995 11 8 1995-11-08 10.5 -64.667 996.01 988.0 17.017 16.847 0.0
1 93HG_001 CAR-001 1995 11 8 1995-11-08 10.5 -64.667 998.04 990.0 17.017 16.846 0.0
1 93HG_001 CAR-001 1995 11 8 1995-11-08 10.5 -64.667 1000.1 992.0 17.017 16.846 0.001
1 93HG_001 CAR-001 1995 11 8 1995-11-08 10.5 -64.667 1002.1 994.0 17.017 16.846 0.0
1 93HG_001 CAR-001 1995 11 8 1995-11-08 10.5 -64.667 1004.1 996.0 17.018 16.847 0.0
1 93HG_001 CAR-001 1995 11 8 1995-11-08 10.5 -64.667 1006.1 998.0 17.019 16.847 0.0
1 93HG_001 CAR-001 1995 11 8 1995-11-08 10.5 -64.667 1008.1 1000.0 17.019 16.847 0.0
1 93HG_001 CAR-001 1995 11 8 1995-11-08 10.5 -64.667 1010.2 1002.0 17.019 16.847 0.0
1 93HG_001 CAR-001 1995 11 8 1995-11-08 10.5 -64.667 1012.2 1004.0 17.02 16.847 0.0
1 93HG_001 CAR-001 1995 11 8 1995-11-08 10.5 -64.667 1014.2 1006.0 17.02 16.847 0.0
1 93HG_001 CAR-001 1995 11 8 1995-11-08 10.5 -64.667 1016.2 1008.0 17.02 16.847 0.0
1 93HG_001 CAR-001 1995 11 8 1995-11-08 10.5 -64.667 1018.2 1010.0 17.021 16.848 0.0
1 93HG_001 CAR-001 1995 11 8 1995-11-08 10.5 -64.667 1020.3 1012.0 17.022 16.848 0.0
1 93HG_001 CAR-001 1995 11 8 1995-11-08 10.5 -64.667 1022.3 1014.0 17.023 16.849 0.0
1 93HG_001 CAR-001 1995 11 8 1995-11-08 10.5 -64.667 1024.3 1016.0 17.023 16.848
1 93HG_001 CAR-001 1995 11 8 1995-11-08 10.5 -64.667 1026.3 1018.0 17.024 16.849
1 93HG_001 CAR-001 1995 11 8 1995-11-08 10.5 -64.667 1028.4 1020.0 17.024 16.849
1 93HG_001 CAR-001 1995 11 8 1995-11-08 10.5 -64.667 1030.4 1022.0 17.025 16.849
1 93HG_001 CAR-001 1995 11 8 1995-11-08 10.5 -64.667 1032.4 1024.0 17.025 16.849
1 93HG_001 CAR-001 1995 11 8 1995-11-08 10.5 -64.667 1034.4 1026.0 17.025 16.849
1 93HG_001 CAR-001 1995 11 8 1995-11-08 10.5 -64.667 1036.4 1028.0 17.025 16.848
1 93HG_001 CAR-001 1995 11 8 1995-11-08 10.5 -64.667 1038.5 1030.0 17.025 16.848
1 93HG_001 CAR-001 1995 11 8 1995-11-08 10.5 -64.667 1040.5 1032.0 17.025 16.848
1 93HG_001 CAR-001 1995 11 8 1995-11-08 10.5 -64.667 1042.5 1034.0 17.026 16.848
1 93HG_001 CAR-001 1995 11 8 1995-11-08 10.5 -64.667 1044.5 1036.0 17.026 16.848
1 93HG_001 CAR-001 1995 11 8 1995-11-08 10.5 -64.667 1046.5 1038.0 17.027 16.849
1 93HG_001 CAR-001 1995 11 8 1995-11-08 10.5 -64.667 1048.6 1040.0 17.028 16.849
1 93HG_001 CAR-001 1995 11 8 1995-11-08 10.5 -64.667 1050.6 1042.0 17.029 16.849
1 93HG_001 CAR-001 1995 11 8 1995-11-08 10.5 -64.667 1052.6 1044.0 17.028 16.849
1 93HG_001 CAR-001 1995 11 8 1995-11-08 10.5 -64.667 1054.6 1046.0 17.028 16.849
1 93HG_001 CAR-001 1995 11 8 1995-11-08 10.5 -64.667 1056.7 1048.0 17.029 16.849
1 93HG_001 CAR-001 1995 11 8 1995-11-08 10.5 -64.667 1058.7 1050.0 17.029 16.849
1 93HG_001 CAR-001 1995 11 8 1995-11-08 10.5 -64.667 1060.7 1052.0 17.029 16.848
1 93HG_001 CAR-001 1995 11 8 1995-11-08 10.5 -64.667 1062.7 1054.0 17.029 16.848
1 93HG_001 CAR-001 1995 11 8 1995-11-08 10.5 -64.667 1064.7 1056.0 17.03 16.848
1 93HG_001 CAR-001 1995 11 8 1995-11-08 10.5 -64.667 1066.8 1058.0 17.03 16.848
1 93HG_001 CAR-001 1995 11 8 1995-11-08 10.5 -64.667 1068.8 1060.0 17.031 16.848
1 93HG_001 CAR-001 1995 11 8 1995-11-08 10.5 -64.667 1070.8 1062.0 17.031 16.849
1 93HG_001 CAR-001 1995 11 8 1995-11-08 10.5 -64.667 1072.8 1064.0 17.031 16.848
1 93HG_001 CAR-001 1995 11 8 1995-11-08 10.5 -64.667 1074.8 1066.0 17.032 16.848
1 93HG_001 CAR-001 1995 11 8 1995-11-08 10.5 -64.667 1076.9 1068.0 17.032 16.848
1 93HG_001 CAR-001 1995 11 8 1995-11-08 10.5 -64.667 1078.9 1070.0 17.032 16.848
1 93HG_001 CAR-001 1995 11 8 1995-11-08 10.5 -64.667 1080.9 1072.0 17.033 16.848
1 93HG_001 CAR-001 1995 11 8 1995-11-08 10.5 -64.667 1082.9 1074.0 17.034 16.849
1 93HG_001 CAR-001 1995 11 8 1995-11-08 10.5 -64.667 1085.0 1076.0 17.034 16.849
1 93HG_001 CAR-001 1995 11 8 1995-11-08 10.5 -64.667 1087.0 1078.0 17.035 16.849
1 93HG_001 CAR-001 1995 11 8 1995-11-08 10.5 -64.667 1089.0 1080.0 17.036 16.85
1 93HG_001 CAR-001 1995 11 8 1995-11-08 10.5 -64.667 1091.0 1082.0 17.036 16.85
1 93HG_001 CAR-001 1995 11 8 1995-11-08 10.5 -64.667 1093.0 1084.0 17.037 16.85
1 93HG_001 CAR-001 1995 11 8 1995-11-08 10.5 -64.667 1095.1 1086.0 17.037 16.85
1 93HG_001 CAR-001 1995 11 8 1995-11-08 10.5 -64.667 1097.1 1088.0 17.037 16.85
1 93HG_001 CAR-001 1995 11 8 1995-11-08 10.5 -64.667 1099.1 1090.0 17.038 16.85
1 93HG_001 CAR-001 1995 11 8 1995-11-08 10.5 -64.667 1101.1 1092.0 17.039 16.851
1 93HG_001 CAR-001 1995 11 8 1995-11-08 10.5 -64.667 1103.2 1094.0 17.039 16.851
1 93HG_001 CAR-001 1995 11 8 1995-11-08 10.5 -64.667 1105.2 1096.0 17.04 16.851
1 93HG_001 CAR-001 1995 11 8 1995-11-08 10.5 -64.667 1107.2 1098.0 17.04 16.851
1 93HG_001 CAR-001 1995 11 8 1995-11-08 10.5 -64.667 1109.2 1100.0 17.04 16.851
1 93HG_001 CAR-001 1995 11 8 1995-11-08 10.5 -64.667 1111.2 1102.0 17.041 16.851
1 93HG_001 CAR-001 1995 11 8 1995-11-08 10.5 -64.667 1113.3 1104.0 17.041 16.851
1 93HG_001 CAR-001 1995 11 8 1995-11-08 10.5 -64.667 1115.3 1106.0 17.042 16.851
1 93HG_001 CAR-001 1995 11 8 1995-11-08 10.5 -64.667 1117.3 1108.0 17.042 16.851
1 93HG_001 CAR-001 1995 11 8 1995-11-08 10.5 -64.667 1119.3 1110.0 17.042 16.851
1 93HG_001 CAR-001 1995 11 8 1995-11-08 10.5 -64.667 1121.4 1112.0 17.043 16.851
1 93HG_001 CAR-001 1995 11 8 1995-11-08 10.5 -64.667 1123.4 1114.0 17.043 16.851
1 93HG_001 CAR-001 1995 11 8 1995-11-08 10.5 -64.667 1125.4 1116.0 17.044 16.851
1 93HG_001 CAR-001 1995 11 8 1995-11-08 10.5 -64.667 1127.4 1118.0 17.044 16.851
1 93HG_001 CAR-001 1995 11 8 1995-11-08 10.5 -64.667 1129.4 1120.0 17.044 16.851
1 93HG_001 CAR-001 1995 11 8 1995-11-08 10.5 -64.667 1131.5 1122.0 17.044 16.851
1 93HG_001 CAR-001 1995 11 8 1995-11-08 10.5 -64.667 1133.5 1124.0 17.045 16.851
1 93HG_001 CAR-001 1995 11 8 1995-11-08 10.5 -64.667 1135.5 1126.0 17.045 16.851
1 93HG_001 CAR-001 1995 11 8 1995-11-08 10.5 -64.667 1137.5 1128.0 17.046 16.852
1 93HG_001 CAR-001 1995 11 8 1995-11-08 10.5 -64.667 1139.6 1130.0 17.046 16.852
1 93HG_001 CAR-001 1995 11 8 1995-11-08 10.5 -64.667 1141.6 1132.0 17.047 16.852
1 93HG_001 CAR-001 1995 11 8 1995-11-08 10.5 -64.667 1143.6 1134.0 17.048 16.852
1 93HG_001 CAR-001 1995 11 8 1995-11-08 10.5 -64.667 1145.6 1136.0 17.048 16.852
1 93HG_001 CAR-001 1995 11 8 1995-11-08 10.5 -64.667 1147.6 1138.0 17.049 16.852
1 93HG_001 CAR-001 1995 11 8 1995-11-08 10.5 -64.667 1149.7 1140.0 17.049 16.853
1 93HG_001 CAR-001 1995 11 8 1995-11-08 10.5 -64.667 1151.7 1142.0 17.05 16.853
1 93HG_001 CAR-001 1995 11 8 1995-11-08 10.5 -64.667 1153.7 1144.0 17.05 16.853
1 93HG_001 CAR-001 1995 11 8 1995-11-08 10.5 -64.667 1155.7 1146.0 17.051 16.853
1 93HG_001 CAR-001 1995 11 8 1995-11-08 10.5 -64.667 1157.8 1148.0 17.051 16.853
1 93HG_001 CAR-001 1995 11 8 1995-11-08 10.5 -64.667 1159.8 1150.0 17.052 16.854
1 93HG_001 CAR-001 1995 11 8 1995-11-08 10.5 -64.667 1161.8 1152.0 17.052 16.854
1 93HG_001 CAR-001 1995 11 8 1995-11-08 10.5 -64.667 1163.8 1154.0 17.052 16.853
1 93HG_001 CAR-001 1995 11 8 1995-11-08 10.5 -64.667 1165.8 1156.0 17.053 16.854
1 93HG_001 CAR-001 1995 11 8 1995-11-08 10.5 -64.667 1167.9 1158.0 17.054 16.854
1 93HG_001 CAR-001 1995 11 8 1995-11-08 10.5 -64.667 1169.9 1160.0 17.055 16.855
1 93HG_001 CAR-001 1995 11 8 1995-11-08 10.5 -64.667 1171.9 1162.0 17.055 16.855
1 93HG_001 CAR-001 1995 11 8 1995-11-08 10.5 -64.667 1173.9 1164.0 17.056 16.855
1 93HG_001 CAR-001 1995 11 8 1995-11-08 10.5 -64.667 1176.0 1166.0 17.056 16.855
1 93HG_001 CAR-001 1995 11 8 1995-11-08 10.5 -64.667 1178.0 1168.0 17.057 16.855
1 93HG_001 CAR-001 1995 11 8 1995-11-08 10.5 -64.667 1180.0 1170.0 17.057 16.855
1 93HG_001 CAR-001 1995 11 8 1995-11-08 10.5 -64.667 1182.0 1172.0 17.057 16.854
1 93HG_001 CAR-001 1995 11 8 1995-11-08 10.5 -64.667 1184.1 1174.0 17.057 16.854
1 93HG_001 CAR-001 1995 11 8 1995-11-08 10.5 -64.667 1186.1 1176.0 17.058 16.854
1 93HG_001 CAR-001 1995 11 8 1995-11-08 10.5 -64.667 1188.1 1178.0 17.058 16.855
1 93HG_001 CAR-001 1995 11 8 1995-11-08 10.5 -64.667 1190.1 1180.0 17.058 16.855
1 93HG_001 CAR-001 1995 11 8 1995-11-08 10.5 -64.667 1192.1 1182.0 17.059 16.855
1 93HG_001 CAR-001 1995 11 8 1995-11-08 10.5 -64.667 1194.2 1184.0 17.059 16.855
1 93HG_001 CAR-001 1995 11 8 1995-11-08 10.5 -64.667 1196.2 1186.0 17.059 16.855
1 93HG_001 CAR-001 1995 11 8 1995-11-08 10.5 -64.667 1198.2 1188.0 17.06 16.855
1 93HG_001 CAR-001 1995 11 8 1995-11-08 10.5 -64.667 1200.2 1190.0 17.061 16.855
1 93HG_001 CAR-001 1995 11 8 1995-11-08 10.5 -64.667 1202.3 1192.0 17.061 16.855
1 93HG_001 CAR-001 1995 11 8 1995-11-08 10.5 -64.667 1204.3 1194.0 17.061 16.855
1 93HG_001 CAR-001 1995 11 8 1995-11-08 10.5 -64.667 1206.3 1196.0 17.062 16.855
1 93HG_001 CAR-001 1995 11 8 1995-11-08 10.5 -64.667 1208.3 1198.0 17.062 16.855
1 93HG_001 CAR-001 1995 11 8 1995-11-08 10.5 -64.667 1210.4 1200.0 17.063 16.855
1 93HG_001 CAR-001 1995 11 8 1995-11-08 10.5 -64.667 1212.4 1202.0 17.063 16.856
1 93HG_001 CAR-001 1995 11 8 1995-11-08 10.5 -64.667 1214.4 1204.0 17.064 16.856
1 93HG_001 CAR-001 1995 11 8 1995-11-08 10.5 -64.667 1216.4 1206.0 17.064 16.856
1 93HG_001 CAR-001 1995 11 8 1995-11-08 10.5 -64.667 1218.4 1208.0 17.065 16.857
1 93HG_001 CAR-001 1995 11 8 1995-11-08 10.5 -64.667 1220.5 1210.0 17.066 16.857
1 93HG_001 CAR-001 1995 11 8 1995-11-08 10.5 -64.667 1222.5 1212.0 17.067 16.858
1 93HG_001 CAR-001 1995 11 8 1995-11-08 10.5 -64.667 1224.5 1214.0 17.067 16.858
1 93HG_001 CAR-001 1995 11 8 1995-11-08 10.5 -64.667 1226.5 1216.0 17.067 16.857
1 93HG_001 CAR-001 1995 11 8 1995-11-08 10.5 -64.667 1228.6 1218.0 17.068 16.857
1 93HG_001 CAR-001 1995 11 8 1995-11-08 10.5 -64.667 1230.6 1220.0 17.068 16.857
1 93HG_001 CAR-001 1995 11 8 1995-11-08 10.5 -64.667 1232.6 1222.0 17.069 16.858
1 93HG_001 CAR-001 1995 11 8 1995-11-08 10.5 -64.667 1234.6 1224.0 17.07 16.858
1 93HG_001 CAR-001 1995 11 8 1995-11-08 10.5 -64.667 1236.7 1226.0 17.07 16.858
1 93HG_001 CAR-001 1995 11 8 1995-11-08 10.5 -64.667 1238.7 1228.0 17.07 16.858
1 93HG_001 CAR-001 1995 11 8 1995-11-08 10.5 -64.667 1240.7 1230.0 17.07 16.858
1 93HG_001 CAR-001 1995 11 8 1995-11-08 10.5 -64.667 1242.7 1232.0 17.07 16.858
1 93HG_001 CAR-001 1995 11 8 1995-11-08 10.5 -64.667 1244.7 1234.0 17.071 16.858
1 93HG_001 CAR-001 1995 11 8 1995-11-08 10.5 -64.667 1246.8 1236.0 17.071 16.857
1 93HG_001 CAR-001 1995 11 8 1995-11-08 10.5 -64.667 1248.8 1238.0 17.072 16.858
1 93HG_001 CAR-001 1995 11 8 1995-11-08 10.5 -64.667 1250.8 1240.0 17.072 16.857
1 93HG_001 CAR-001 1995 11 8 1995-11-08 10.5 -64.667 1252.8 1242.0 17.073 16.858
1 93HG_001 CAR-001 1995 11 8 1995-11-08 10.5 -64.667 1254.9 1244.0 17.073 16.858
1 93HG_001 CAR-001 1995 11 8 1995-11-08 10.5 -64.667 1256.9 1246.0 17.074 16.858
1 93HG_001 CAR-001 1995 11 8 1995-11-08 10.5 -64.667 1258.9 1248.0 17.074 16.858 0.0
1 93HG_001 CAR-001 1995 11 8 1995-11-08 10.5 -64.667 1260.9 1250.0 17.075 16.859 0.0
1 93HG_001 CAR-001 1995 11 8 1995-11-08 10.5 -64.667 1263.0 1252.0 17.075 16.859
1 93HG_001 CAR-001 1995 11 8 1995-11-08 10.5 -64.667 1265.0 1254.0 17.076 16.859
1 93HG_001 CAR-001 1995 11 8 1995-11-08 10.5 -64.667 1267.0 1256.0 17.077 16.859
1 93HG_001 CAR-001 1995 11 8 1995-11-08 10.5 -64.667 1269.0 1258.0 17.078 16.86
2 93HG_002 CAR-002 1995 12 14 1995-12-14 10.5 -64.667 1.006 1.0 25.489 36.918 25.489 24.568 24.643 0.049
2 93HG_002 CAR-002 1995 12 14 1995-12-14 10.5 -64.667 2.011 2.0 25.487 36.913 25.487 24.569 24.64 0.047
2 93HG_002 CAR-002 1995 12 14 1995-12-14 10.5 -64.667 4.023 4.0 25.491 36.913 25.49 24.567 24.639 0.045
2 93HG_002 CAR-002 1995 12 14 1995-12-14 10.5 -64.667 6.034 6.0 25.491 36.912 25.49 24.566 24.638 0.05
2 93HG_002 CAR-002 1995 12 14 1995-12-14 10.5 -64.667 8.046 8.0 25.492 36.909 25.491 24.566 24.636 0.048
2 93HG_002 CAR-002 1995 12 14 1995-12-14 10.5 -64.667 10.057 10.0 25.494 36.908 25.491 24.565 24.635 0.051
2 93HG_002 CAR-002 1995 12 14 1995-12-14 10.5 -64.667 12.069 12.0 25.49 36.907 25.487 24.567 24.636 0.051
2 93HG_002 CAR-002 1995 12 14 1995-12-14 10.5 -64.667 14.08 14.0 25.484 36.907 25.481 24.57 24.638 0.047
2 93HG_002 CAR-002 1995 12 14 1995-12-14 10.5 -64.667 16.092 16.0 25.439 36.906 25.435 24.616 24.651 0.052
2 93HG_002 CAR-002 1995 12 14 1995-12-14 10.5 -64.667 18.103 18.0 25.334 36.906 25.33 24.712 24.684 0.051
2 93HG_002 CAR-002 1995 12 14 1995-12-14 10.5 -64.667 20.115 20.0 25.248 36.904 25.243 24.792 24.71 0.048
2 93HG_002 CAR-002 1995 12 14 1995-12-14 10.5 -64.667 22.127 22.0 24.99 36.904 24.985 25.031 24.789 0.051
2 93HG_002 CAR-002 1995 12 14 1995-12-14 10.5 -64.667 24.138 24.0 24.794 36.903 24.789 25.214 24.848 0.059
2 93HG_002 CAR-002 1995 12 14 1995-12-14 10.5 -64.667 26.15 26.0 24.602 36.902 24.596 25.381 24.906 0.066
2 93HG_002 CAR-002 1995 12 14 1995-12-14 10.5 -64.667 28.162 28.0 24.51 36.901 24.504 25.471 24.933 0.069
2 93HG_002 CAR-002 1995 12 14 1995-12-14 10.5 -64.667 30.173 30.0 24.458 36.901 24.452 25.501 24.949 0.077
2 93HG_002 CAR-002 1995 12 14 1995-12-14 10.5 -64.667 32.185 32.0 24.375 36.901 24.368 25.554 24.975 0.086
2 93HG_002 CAR-002 1995 12 14 1995-12-14 10.5 -64.667 34.197 34.0 24.324 36.9 24.317 25.521 24.989 0.102
2 93HG_002 CAR-002 1995 12 14 1995-12-14 10.5 -64.667 36.208 36.0 24.249 36.9 24.241 25.643 25.012 0.117
2 93HG_002 CAR-002 1995 12 14 1995-12-14 10.5 -64.667 38.22 38.0 24.147 36.899 24.139 25.738 25.043 0.129
2 93HG_002 CAR-002 1995 12 14 1995-12-14 10.5 -64.667 40.232 40.0 24.089 36.896 24.081 25.719 25.058 0.159
2 93HG_002 CAR-002 1995 12 14 1995-12-14 10.5 -64.667 42.244 42.0 24.027 36.895 24.018 25.786 25.077 0.357
2 93HG_002 CAR-002 1995 12 14 1995-12-14 10.5 -64.667 44.256 44.0 23.971 36.895 23.962 25.806 25.093 0.647
2 93HG_002 CAR-002 1995 12 14 1995-12-14 10.5 -64.667 46.267 46.0 23.942 36.893 23.932 25.802 25.1 0.615
2 93HG_002 CAR-002 1995 12 14 1995-12-14 10.5 -64.667 48.279 48.0 23.92 36.891 23.909 25.854 25.106 0.43
2 93HG_002 CAR-002 1995 12 14 1995-12-14 10.5 -64.667 50.291 50.0 23.893 36.891 23.882 25.74 25.114 0.4
2 93HG_002 CAR-002 1995 12 14 1995-12-14 10.5 -64.667 52.303 52.0 23.746 36.889 23.735 25.924 25.156 0.426
2 93HG_002 CAR-002 1995 12 14 1995-12-14 10.5 -64.667 54.315 54.0 23.668 36.887 23.657 25.44 25.178 0.281
2 93HG_002 CAR-002 1995 12 14 1995-12-14 10.5 -64.667 56.327 56.0 23.607 36.882 23.595 25.198 25.193 0.254
2 93HG_002 CAR-002 1995 12 14 1995-12-14 10.5 -64.667 58.339 58.0 23.471 36.876 23.459 25.242 25.228 0.214
2 93HG_002 CAR-002 1995 12 14 1995-12-14 10.5 -64.667 60.351 60.0 23.37 36.872 23.358 25.27 25.255 0.191
2 93HG_002 CAR-002 1995 12 14 1995-12-14 10.5 -64.667 62.363 62.0 23.297 36.866 23.284 25.293 25.272 0.185
2 93HG_002 CAR-002 1995 12 14 1995-12-14 10.5 -64.667 64.375 64.0 23.17 36.865 23.156 25.334 25.31 0.187
2 93HG_002 CAR-002 1995 12 14 1995-12-14 10.5 -64.667 66.387 66.0 23.132 36.865 23.118 25.343 25.32 0.195
2 93HG_002 CAR-002 1995 12 14 1995-12-14 10.5 -64.667 68.399 68.0 23.004 36.855 22.99 25.389 25.35 0.16
2 93HG_002 CAR-002 1995 12 14 1995-12-14 10.5 -64.667 70.411 70.0 22.919 36.848 22.905 25.41 25.369 0.157
2 93HG_002 CAR-002 1995 12 14 1995-12-14 10.5 -64.667 72.423 72.0 22.898 36.846 22.883 25.411 25.375 0.159
2 93HG_002 CAR-002 1995 12 14 1995-12-14 10.5 -64.667 74.435 74.0 22.887 36.846 22.872 25.412 25.378 0.15
2 93HG_002 CAR-002 1995 12 14 1995-12-14 10.5 -64.667 76.447 76.0 22.852 36.845 22.836 25.426 25.387 0.142
2 93HG_002 CAR-002 1995 12 14 1995-12-14 10.5 -64.667 78.46 78.0 22.773 36.843 22.757 25.448 25.409 0.143
2 93HG_002 CAR-002 1995 12 14 1995-12-14 10.5 -64.667 80.472 80.0 22.645 36.843 22.629 25.487 25.446 0.138
2 93HG_002 CAR-002 1995 12 14 1995-12-14 10.5 -64.667 82.484 82.0 22.567 36.838 22.551 25.51 25.465 0.135
2 93HG_002 CAR-002 1995 12 14 1995-12-14 10.5 -64.667 84.496 84.0 22.472 36.837 22.455 25.534 25.491 0.133
2 93HG_002 CAR-002 1995 12 14 1995-12-14 10.5 -64.667 86.508 86.0 22.377 36.834 22.36 25.551 25.516 0.147
2 93HG_002 CAR-002 1995 12 14 1995-12-14 10.5 -64.667 88.521 88.0 22.283 36.832 22.265 25.577 25.542 0.135
2 93HG_002 CAR-002 1995 12 14 1995-12-14 10.5 -64.667 90.533 90.0 22.194 36.831 22.175 25.6 25.568 0.098
2 93HG_002 CAR-002 1995 12 14 1995-12-14 10.5 -64.667 92.545 92.0 22.135 36.828 22.116 25.611 25.581 0.088
2 93HG_002 CAR-002 1995 12 14 1995-12-14 10.5 -64.667 94.557 94.0 22.043 36.828 22.025 25.633 25.607 0.081
2 93HG_002 CAR-002 1995 12 14 1995-12-14 10.5 -64.667 96.57 96.0 21.895 36.826 21.876 25.675 25.648 0.077
2 93HG_002 CAR-002 1995 12 14 1995-12-14 10.5 -64.667 98.582 98.0 21.808 36.825 21.788 25.689 25.672 0.075
2 93HG_002 CAR-002 1995 12 14 1995-12-14 10.5 -64.667 100.6 100.0 21.747 36.823 21.727 25.7 25.688 0.07
2 93HG_002 CAR-002 1995 12 14 1995-12-14 10.5 -64.667 102.61 102.0 21.662 36.822 21.642 25.72 25.711 0.063
2 93HG_002 CAR-002 1995 12 14 1995-12-14 10.5 -64.667 104.62 104.0 21.574 36.821 21.554 25.747 25.735 0.06
2 93HG_002 CAR-002 1995 12 14 1995-12-14 10.5 -64.667 106.63 106.0 21.49 36.821 21.469 25.762 25.758 0.058
2 93HG_002 CAR-002 1995 12 14 1995-12-14 10.5 -64.667 108.64 108.0 21.416 36.82 21.394 25.772 25.779 0.054
2 93HG_002 CAR-002 1995 12 14 1995-12-14 10.5 -64.667 110.66 110.0 21.262 36.819 21.241 25.805 25.82 0.053
2 93HG_002 CAR-002 1995 12 14 1995-12-14 10.5 -64.667 112.67 112.0 21.091 36.818 21.069 25.847 25.867
2 93HG_002 CAR-002 1995 12 14 1995-12-14 10.5 -64.667 114.68 114.0 21.016 36.815 20.994 25.863 25.886
2 93HG_002 CAR-002 1995 12 14 1995-12-14 10.5 -64.667 116.69 116.0 20.983 36.811 20.961 25.867 25.892
2 93HG_002 CAR-002 1995 12 14 1995-12-14 10.5 -64.667 118.71 118.0 20.943 36.809 20.921 25.877 25.901
2 93HG_002 CAR-002 1995 12 14 1995-12-14 10.5 -64.667 120.72 120.0 20.885 36.791 20.862 25.892 25.904
2 93HG_002 CAR-002 1995 12 14 1995-12-14 10.5 -64.667 122.73 122.0 20.767 36.791 20.744 25.918 25.936
2 93HG_002 CAR-002 1995 12 14 1995-12-14 10.5 -64.667 124.75 124.0 20.705 36.784 20.681 25.922 25.948
2 93HG_002 CAR-002 1995 12 14 1995-12-14 10.5 -64.667 126.76 126.0 20.572 36.783 20.548 25.953 25.983
2 93HG_002 CAR-002 1995 12 14 1995-12-14 10.5 -64.667 128.77 128.0 20.487 36.78 20.463 25.967 26.004
2 93HG_002 CAR-002 1995 12 14 1995-12-14 10.5 -64.667 130.78 130.0 20.401 36.774 20.376 25.996 26.023
2 93HG_002 CAR-002 1995 12 14 1995-12-14 10.5 -64.667 132.79 132.0 20.31 36.762 20.284 26.007 26.039
2 93HG_002 CAR-002 1995 12 14 1995-12-14 10.5 -64.667 134.81 134.0 20.265 36.759 20.239 26.017 26.048
2 93HG_002 CAR-002 1995 12 14 1995-12-14 10.5 -64.667 136.82 136.0 20.215 36.755 20.19 26.025 26.059
2 93HG_002 CAR-002 1995 12 14 1995-12-14 10.5 -64.667 138.83 138.0 20.079 36.721 20.053 26.054 26.069
2 93HG_002 CAR-002 1995 12 14 1995-12-14 10.5 -64.667 140.85 140.0 19.916 36.693 19.89 26.078 26.091
2 93HG_002 CAR-002 1995 12 14 1995-12-14 10.5 -64.667 142.86 142.0 19.857 36.677 19.831 26.082 26.095
2 93HG_002 CAR-002 1995 12 14 1995-12-14 10.5 -64.667 144.87 144.0 19.808 36.676 19.781 26.089 26.107
2 93HG_002 CAR-002 1995 12 14 1995-12-14 10.5 -64.667 146.88 146.0 19.711 36.663 19.683 26.109 26.123
2 93HG_002 CAR-002 1995 12 14 1995-12-14 10.5 -64.667 148.9 148.0 19.591 36.654 19.563 26.132 26.148
2 93HG_002 CAR-002 1995 12 14 1995-12-14 10.5 -64.667 150.91 150.0 19.528 36.644 19.5 26.141 26.157
2 93HG_002 CAR-002 1995 12 14 1995-12-14 10.5 -64.667 152.92 152.0 19.437 36.625 19.409 26.157 26.166
2 93HG_002 CAR-002 1995 12 14 1995-12-14 10.5 -64.667 154.94 154.0 19.361 36.62 19.333 26.163 26.182
2 93HG_002 CAR-002 1995 12 14 1995-12-14 10.5 -64.667 156.95 156.0 19.304 36.615 19.276 26.17 26.193
2 93HG_002 CAR-002 1995 12 14 1995-12-14 10.5 -64.667 158.96 158.0 19.184 36.609 19.155 26.194 26.22
2 93HG_002 CAR-002 1995 12 14 1995-12-14 10.5 -64.667 160.97 160.0 19.104 36.605 19.075 26.207 26.238
2 93HG_002 CAR-002 1995 12 14 1995-12-14 10.5 -64.667 162.99 162.0 19.046 36.582 19.017 26.213 26.235
2 93HG_002 CAR-002 1995 12 14 1995-12-14 10.5 -64.667 165.0 164.0 18.967 36.57 18.937 26.229 26.247
2 93HG_002 CAR-002 1995 12 14 1995-12-14 10.5 -64.667 167.01 166.0 18.898 36.564 18.868 26.235 26.26
2 93HG_002 CAR-002 1995 12 14 1995-12-14 10.5 -64.667 169.03 168.0 18.851 36.562 18.821 26.243 26.271
2 93HG_002 CAR-002 1995 12 14 1995-12-14 10.5 -64.667 171.04 170.0 18.802 36.544 18.771 26.248 26.27
2 93HG_002 CAR-002 1995 12 14 1995-12-14 10.5 -64.667 173.05 172.0 18.742 36.541 18.711 26.257 26.283
2 93HG_002 CAR-002 1995 12 14 1995-12-14 10.5 -64.667 175.07 174.0 18.709 36.535 18.678 26.264 26.287
2 93HG_002 CAR-002 1995 12 14 1995-12-14 10.5 -64.667 177.08 176.0 18.663 36.523 18.631 26.272 26.29
2 93HG_002 CAR-002 1995 12 14 1995-12-14 10.5 -64.667 179.09 178.0 18.573 36.517 18.541 26.285 26.308
2 93HG_002 CAR-002 1995 12 14 1995-12-14 10.5 -64.667 181.1 180.0 18.498 36.51 18.466 26.297 26.321
2 93HG_002 CAR-002 1995 12 14 1995-12-14 10.5 -64.667 183.12 182.0 18.447 36.499 18.414 26.304 26.326
2 93HG_002 CAR-002 1995 12 14 1995-12-14 10.5 -64.667 185.13 184.0 18.421 36.498 18.388 26.305 26.332
2 93HG_002 CAR-002 1995 12 14 1995-12-14 10.5 -64.667 187.15 186.0 18.402 36.493 18.369 26.308 26.334
2 93HG_002 CAR-002 1995 12 14 1995-12-14 10.5 -64.667 189.16 188.0 18.381 36.493 18.348 26.312 26.339
2 93HG_002 CAR-002 1995 12 14 1995-12-14 10.5 -64.667 191.17 190.0 18.352 36.482 18.318 26.316 26.338
2 93HG_002 CAR-002 1995 12 14 1995-12-14 10.5 -64.667 193.19 192.0 18.332 36.477 18.298 26.317 26.339
2 93HG_002 CAR-002 1995 12 14 1995-12-14 10.5 -64.667 195.2 194.0 18.317 36.469 18.282 26.32 26.337
2 93HG_002 CAR-002 1995 12 14 1995-12-14 10.5 -64.667 197.21 196.0 18.299 36.455 18.264 26.323 26.331
2 93HG_002 CAR-002 1995 12 14 1995-12-14 10.5 -64.667 199.22 198.0 18.286 36.437 18.251 26.325 26.32
2 93HG_002 CAR-002 1995 12 14 1995-12-14 10.5 -64.667 201.24 200.0 18.254 36.435 18.218 26.332 26.327
2 93HG_002 CAR-002 1995 12 14 1995-12-14 10.5 -64.667 203.25 202.0 18.24 36.432 18.204 26.332 26.328
2 93HG_002 CAR-002 1995 12 14 1995-12-14 10.5 -64.667 205.26 204.0 18.223 36.43 18.187 26.332 26.331
2 93HG_002 CAR-002 1995 12 14 1995-12-14 10.5 -64.667 207.28 206.0 18.184 36.422 18.147 26.342 26.335
2 93HG_002 CAR-002 1995 12 14 1995-12-14 10.5 -64.667 209.29 208.0 18.167 36.421 18.13 26.342 26.339
2 93HG_002 CAR-002 1995 12 14 1995-12-14 10.5 -64.667 211.31 210.0 18.153 36.42 18.117 26.345 26.341
2 93HG_002 CAR-002 1995 12 14 1995-12-14 10.5 -64.667 213.32 212.0 18.134 36.42 18.097 26.348 26.346
2 93HG_002 CAR-002 1995 12 14 1995-12-14 10.5 -64.667 215.33 214.0 18.119 36.419 18.081 26.351 26.35
2 93HG_002 CAR-002 1995 12 14 1995-12-14 10.5 -64.667 217.35 216.0 18.109 36.418 18.071 26.351 26.351
2 93HG_002 CAR-002 1995 12 14 1995-12-14 10.5 -64.667 219.36 218.0 18.085 36.417 18.047 26.356 26.357
2 93HG_002 CAR-002 1995 12 14 1995-12-14 10.5 -64.667 221.37 220.0 18.073 36.417 18.034 26.358 26.36
2 93HG_002 CAR-002 1995 12 14 1995-12-14 10.5 -64.667 223.39 222.0 18.06 36.415 18.022 26.36 26.362
2 93HG_002 CAR-002 1995 12 14 1995-12-14 10.5 -64.667 225.4 224.0 18.053 36.413 18.013 26.36 26.362
2 93HG_002 CAR-002 1995 12 14 1995-12-14 10.5 -64.667 227.41 226.0 18.042 36.412 18.002 26.363 26.364
2 93HG_002 CAR-002 1995 12 14 1995-12-14 10.5 -64.667 229.43 228.0 18.034 36.412 17.994 26.363 26.366
2 93HG_002 CAR-002 1995 12 14 1995-12-14 10.5 -64.667 231.44 230.0 18.021 36.41 17.981 26.362 26.368
2 93HG_002 CAR-002 1995 12 14 1995-12-14 10.5 -64.667 233.45 232.0 17.994 36.41 17.954 26.368 26.375
2 93HG_002 CAR-002 1995 12 14 1995-12-14 10.5 -64.667 235.47 234.0 17.984 36.409 17.944 26.371 26.377
2 93HG_002 CAR-002 1995 12 14 1995-12-14 10.5 -64.667 237.48 236.0 17.978 36.409 17.936 26.37 26.379
2 93HG_002 CAR-002 1995 12 14 1995-12-14 10.5 -64.667 239.5 238.0 17.971 36.408 17.93 26.372 26.38
2 93HG_002 CAR-002 1995 12 14 1995-12-14 10.5 -64.667 241.51 240.0 17.965 36.406 17.924 26.373 26.38
2 93HG_002 CAR-002 1995 12 14 1995-12-14 10.5 -64.667 243.52 242.0 17.96 36.404 17.918 26.374 26.38
2 93HG_002 CAR-002 1995 12 14 1995-12-14 10.5 -64.667 245.54 244.0 17.95 36.404 17.908 26.375 26.382
2 93HG_002 CAR-002 1995 12 14 1995-12-14 10.5 -64.667 247.55 246.0 17.941 36.403 17.898 26.375 26.384
2 93HG_002 CAR-002 1995 12 14 1995-12-14 10.5 -64.667 249.56 248.0 17.936 36.402 17.892 26.376 26.385
2 93HG_002 CAR-002 1995 12 14 1995-12-14 10.5 -64.667 251.58 250.0 17.925 36.401 17.881 26.377 26.387
2 93HG_002 CAR-002 1995 12 14 1995-12-14 10.5 -64.667 253.59 252.0 17.914 36.401 17.87 26.379 26.39
2 93HG_002 CAR-002 1995 12 14 1995-12-14 10.5 -64.667 255.61 254.0 17.895 36.398 17.851 26.381 26.392
2 93HG_002 CAR-002 1995 12 14 1995-12-14 10.5 -64.667 257.62 256.0 17.883 36.397 17.839 26.383 26.394
2 93HG_002 CAR-002 1995 12 14 1995-12-14 10.5 -64.667 259.63 258.0 17.871 36.397 17.826 26.385 26.398
2 93HG_002 CAR-002 1995 12 14 1995-12-14 10.5 -64.667 261.65 260.0 17.861 36.396 17.816 26.387 26.4
2 93HG_002 CAR-002 1995 12 14 1995-12-14 10.5 -64.667 263.66 262.0 17.858 36.396 17.812 26.387 26.401
2 93HG_002 CAR-002 1995 12 14 1995-12-14 10.5 -64.667 265.68 264.0 17.854 36.394 17.808 26.388 26.4
2 93HG_002 CAR-002 1995 12 14 1995-12-14 10.5 -64.667 267.69 266.0 17.849 36.394 17.803 26.389 26.402
2 93HG_002 CAR-002 1995 12 14 1995-12-14 10.5 -64.667 269.7 268.0 17.843 36.388 17.796 26.39 26.399
2 93HG_002 CAR-002 1995 12 14 1995-12-14 10.5 -64.667 271.72 270.0 17.834 36.387 17.788 26.391 26.4
2 93HG_002 CAR-002 1995 12 14 1995-12-14 10.5 -64.667 273.73 272.0 17.818 36.383 17.771 26.394 26.401
2 93HG_002 CAR-002 1995 12 14 1995-12-14 10.5 -64.667 275.75 274.0 17.809 36.38 17.761 26.395 26.401
2 93HG_002 CAR-002 1995 12 14 1995-12-14 10.5 -64.667 277.76 276.0 17.804 36.38 17.756 26.397 26.403
2 93HG_002 CAR-002 1995 12 14 1995-12-14 10.5 -64.667 279.77 278.0 17.797 36.379 17.749 26.398 26.404
2 93HG_002 CAR-002 1995 12 14 1995-12-14 10.5 -64.667 281.79 280.0 17.791 36.378 17.742 26.396 26.405
2 93HG_002 CAR-002 1995 12 14 1995-12-14 10.5 -64.667 283.8 282.0 17.784 36.376 17.735 26.401 26.405
2 93HG_002 CAR-002 1995 12 14 1995-12-14 10.5 -64.667 285.82 284.0 17.773 36.375 17.724 26.403 26.407
2 93HG_002 CAR-002 1995 12 14 1995-12-14 10.5 -64.667 287.83 286.0 17.759 36.373 17.71 26.405 26.409
2 93HG_002 CAR-002 1995 12 14 1995-12-14 10.5 -64.667 289.85 288.0 17.753 36.37 17.703 26.407 26.409
2 93HG_002 CAR-002 1995 12 14 1995-12-14 10.5 -64.667 291.86 290.0 17.748 36.368 17.698 26.407 26.409
2 93HG_002 CAR-002 1995 12 14 1995-12-14 10.5 -64.667 293.87 292.0 17.742 36.367 17.691 26.409 26.409
2 93HG_002 CAR-002 1995 12 14 1995-12-14 10.5 -64.667 295.89 294.0 17.738 36.366 17.687 26.41 26.41
2 93HG_002 CAR-002 1995 12 14 1995-12-14 10.5 -64.667 297.9 296.0 17.731 36.362 17.68 26.41 26.409
2 93HG_002 CAR-002 1995 12 14 1995-12-14 10.5 -64.667 299.92 298.0 17.717 36.362 17.666 26.413 26.412
2 93HG_002 CAR-002 1995 12 14 1995-12-14 10.5 -64.667 301.93 300.0 17.709 36.361 17.657 26.414 26.414
2 93HG_002 CAR-002 1995 12 14 1995-12-14 10.5 -64.667 303.94 302.0 17.703 36.359 17.651 26.416 26.414
2 93HG_002 CAR-002 1995 12 14 1995-12-14 10.5 -64.667 305.96 304.0 17.696 36.358 17.643 26.417 26.415
2 93HG_002 CAR-002 1995 12 14 1995-12-14 10.5 -64.667 307.97 306.0 17.689 36.357 17.637 26.412 26.416
2 93HG_002 CAR-002 1995 12 14 1995-12-14 10.5 -64.667 309.99 308.0 17.677 36.356 17.624 26.419 26.418
2 93HG_002 CAR-002 1995 12 14 1995-12-14 10.5 -64.667 312.0 310.0 17.665 36.356 17.612 26.42 26.421
2 93HG_002 CAR-002 1995 12 14 1995-12-14 10.5 -64.667 314.02 312.0 17.657 36.355 17.604 26.423 26.422
2 93HG_002 CAR-002 1995 12 14 1995-12-14 10.5 -64.667 316.03 314.0 17.653 36.353 17.599 26.423 26.422
2 93HG_002 CAR-002 1995 12 14 1995-12-14 10.5 -64.667 318.05 316.0 17.648 36.352 17.593 26.424 26.423
2 93HG_002 CAR-002 1995 12 14 1995-12-14 10.5 -64.667 320.06 318.0 17.644 36.351 17.589 26.425 26.423
2 93HG_002 CAR-002 1995 12 14 1995-12-14 10.5 -64.667 322.07 320.0 17.641 36.351 17.586 26.426 26.424
2 93HG_002 CAR-002 1995 12 14 1995-12-14 10.5 -64.667 324.09 322.0 17.639 36.351 17.583 26.426 26.425
2 93HG_002 CAR-002 1995 12 14 1995-12-14 10.5 -64.667 326.1 324.0 17.637 36.351 17.581 26.425 26.425
2 93HG_002 CAR-002 1995 12 14 1995-12-14 10.5 -64.667 328.12 326.0 17.629 36.35 17.573 26.424 26.427
2 93HG_002 CAR-002 1995 12 14 1995-12-14 10.5 -64.667 330.13 328.0 17.62 36.349 17.564 26.425 26.428
2 93HG_002 CAR-002 1995 12 14 1995-12-14 10.5 -64.667 332.15 330.0 17.613 36.349 17.557 26.421 26.43
2 93HG_002 CAR-002 1995 12 14 1995-12-14 10.5 -64.667 334.16 332.0 17.608 36.349 17.551 26.427 26.431
2 93HG_002 CAR-002 1995 12 14 1995-12-14 10.5 -64.667 336.18 334.0 17.601 36.348 17.544 26.43 26.433
2 93HG_002 CAR-002 1995 12 14 1995-12-14 10.5 -64.667 338.19 336.0 17.588 36.346 17.53 26.431 26.435
2 93HG_002 CAR-002 1995 12 14 1995-12-14 10.5 -64.667 340.21 338.0 17.585 36.345 17.527 26.431 26.435
2 93HG_002 CAR-002 1995 12 14 1995-12-14 10.5 -64.667 342.22 340.0 17.581 36.343 17.522 26.429 26.434
2 93HG_002 CAR-002 1995 12 14 1995-12-14 10.5 -64.667 344.24 342.0 17.575 36.343 17.516 26.429 26.436
2 93HG_002 CAR-002 1995 12 14 1995-12-14 10.5 -64.667 346.25 344.0 17.567 36.341 17.507 26.43 26.437
2 93HG_002 CAR-002 1995 12 14 1995-12-14 10.5 -64.667 348.27 346.0 17.552 36.338 17.493 26.433 26.438
2 93HG_002 CAR-002 1995 12 14 1995-12-14 10.5 -64.667 350.28 348.0 17.551 36.338 17.492 26.432 26.438
2 93HG_002 CAR-002 1995 12 14 1995-12-14 10.5 -64.667 352.3 350.0 17.55 36.336 17.489 26.432 26.438
2 93HG_002 CAR-002 1995 12 14 1995-12-14 10.5 -64.667 354.31 352.0 17.548 36.333 17.488 26.429 26.436
2 93HG_002 CAR-002 1995 12 14 1995-12-14 10.5 -64.667 356.32 354.0 17.545 36.33 17.484 26.428 26.434
2 93HG_002 CAR-002 1995 12 14 1995-12-14 10.5 -64.667 358.34 356.0 17.541 36.33 17.48 26.43 26.435
2 93HG_002 CAR-002 1995 12 14 1995-12-14 10.5 -64.667 360.36 358.0 17.539 36.328 17.478 26.431 26.434
2 93HG_002 CAR-002 1995 12 14 1995-12-14 10.5 -64.667 362.37 360.0 17.535 36.326 17.474 26.431 26.434
2 93HG_002 CAR-002 1995 12 14 1995-12-14 10.5 -64.667 364.38 362.0 17.533 36.326 17.47 26.431 26.435
2 93HG_002 CAR-002 1995 12 14 1995-12-14 10.5 -64.667 366.4 364.0 17.522 36.326 17.46 26.432 26.437
2 93HG_002 CAR-002 1995 12 14 1995-12-14 10.5 -64.667 368.41 366.0 17.518 36.326 17.455 26.432 26.439
2 93HG_002 CAR-002 1995 12 14 1995-12-14 10.5 -64.667 370.43 368.0 17.514 36.326 17.451 26.432 26.44
2 93HG_002 CAR-002 1995 12 14 1995-12-14 10.5 -64.667 372.44 370.0 17.512 36.325 17.448 26.432 26.44
2 93HG_002 CAR-002 1995 12 14 1995-12-14 10.5 -64.667 374.46 372.0 17.506 36.324 17.442 26.431 26.441
2 93HG_002 CAR-002 1995 12 14 1995-12-14 10.5 -64.667 376.47 374.0 17.502 36.324 17.438 26.43 26.441
2 93HG_002 CAR-002 1995 12 14 1995-12-14 10.5 -64.667 378.49 376.0 17.498 36.324 17.434 26.429 26.443
2 93HG_002 CAR-002 1995 12 14 1995-12-14 10.5 -64.667 380.51 378.0 17.494 36.322 17.429 26.422 26.443
2 93HG_002 CAR-002 1995 12 14 1995-12-14 10.5 -64.667 382.52 380.0 17.489 36.322 17.424 26.434 26.444
2 93HG_002 CAR-002 1995 12 14 1995-12-14 10.5 -64.667 384.54 382.0 17.486 36.319 17.421 26.433 26.442
2 93HG_002 CAR-002 1995 12 14 1995-12-14 10.5 -64.667 386.55 384.0 17.484 36.319 17.418 26.433 26.443
2 93HG_002 CAR-002 1995 12 14 1995-12-14 10.5 -64.667 388.57 386.0 17.479 36.318 17.413 26.431 26.444
2 93HG_002 CAR-002 1995 12 14 1995-12-14 10.5 -64.667 390.58 388.0 17.476 36.315 17.41 26.438 26.442
2 93HG_002 CAR-002 1995 12 14 1995-12-14 10.5 -64.667 392.6 390.0 17.471 36.314 17.404 26.435 26.443
2 93HG_002 CAR-002 1995 12 14 1995-12-14 10.5 -64.667 394.61 392.0 17.468 36.313 17.401 26.43 26.444
2 93HG_002 CAR-002 1995 12 14 1995-12-14 10.5 -64.667 396.63 394.0 17.464 36.313 17.397 26.43 26.444
2 93HG_002 CAR-002 1995 12 14 1995-12-14 10.5 -64.667 398.64 396.0 17.459 36.313 17.391 26.425 26.446
2 93HG_002 CAR-002 1995 12 14 1995-12-14 10.5 -64.667 400.66 398.0 17.454 36.312 17.386 26.43 26.446
2 93HG_002 CAR-002 1995 12 14 1995-12-14 10.5 -64.667 402.67 400.0 17.447 36.312 17.378 26.433 26.448
2 93HG_002 CAR-002 1995 12 14 1995-12-14 10.5 -64.667 404.69 402.0 17.442 36.311 17.373 26.437 26.448
2 93HG_002 CAR-002 1995 12 14 1995-12-14 10.5 -64.667 406.7 404.0 17.438 36.311 17.369 26.424 26.45
2 93HG_002 CAR-002 1995 12 14 1995-12-14 10.5 -64.667 408.72 406.0 17.435 36.308 17.366 26.438 26.448
2 93HG_002 CAR-002 1995 12 14 1995-12-14 10.5 -64.667 410.73 408.0 17.432 36.308 17.362 26.436 26.449
2 93HG_002 CAR-002 1995 12 14 1995-12-14 10.5 -64.667 412.75 410.0 17.426 36.307 17.356 26.44 26.45
2 93HG_002 CAR-002 1995 12 14 1995-12-14 10.5 -64.667 414.76 412.0 17.421 36.305 17.351 26.441 26.45
2 93HG_002 CAR-002 1995 12 14 1995-12-14 10.5 -64.667 416.78 414.0 17.417 36.304 17.346 26.437 26.45
2 93HG_002 CAR-002 1995 12 14 1995-12-14 10.5 -64.667 418.8 416.0 17.412 36.303 17.341 26.433 26.451
2 93HG_002 CAR-002 1995 12 14 1995-12-14 10.5 -64.667 420.81 418.0 17.408 36.303 17.337 26.438 26.452
2 93HG_002 CAR-002 1995 12 14 1995-12-14 10.5 -64.667 422.83 420.0 17.401 36.302 17.329 26.433 26.453
2 93HG_002 CAR-002 1995 12 14 1995-12-14 10.5 -64.667 424.84 422.0 17.395 36.302 17.323 26.428 26.455
2 93HG_002 CAR-002 1995 12 14 1995-12-14 10.5 -64.667 426.86 424.0 17.392 36.301 17.32 26.432 26.455
2 93HG_002 CAR-002 1995 12 14 1995-12-14 10.5 -64.667 428.87 426.0 17.386 36.301 17.313 26.439 26.456
2 93HG_002 CAR-002 1995 12 14 1995-12-14 10.5 -64.667 430.89 428.0 17.386 36.301 17.312 26.431 26.457
2 93HG_002 CAR-002 1995 12 14 1995-12-14 10.5 -64.667 432.9 430.0 17.385 36.3 17.311 26.443 26.456
2 93HG_002 CAR-002 1995 12 14 1995-12-14 10.5 -64.667 434.92 432.0 17.384 36.3 17.31 26.44 26.457
2 93HG_002 CAR-002 1995 12 14 1995-12-14 10.5 -64.667 436.94 434.0 17.384 36.299 17.31 26.44 26.456
2 93HG_002 CAR-002 1995 12 14 1995-12-14 10.5 -64.667 438.95 436.0 17.378 36.299 17.304 26.441 26.458
2 93HG_002 CAR-002 1995 12 14 1995-12-14 10.5 -64.667 440.97 438.0 17.373 36.297 17.298 26.445 26.457
2 93HG_002 CAR-002 1995 12 14 1995-12-14 10.5 -64.667 442.98 440.0 17.371 36.297 17.295 26.448 26.458
2 93HG_002 CAR-002 1995 12 14 1995-12-14 10.5 -64.667 445.0 442.0 17.368 36.295 17.292 26.441 26.458
2 93HG_002 CAR-002 1995 12 14 1995-12-14 10.5 -64.667 447.01 444.0 17.363 36.293 17.287 26.447 26.457
2 93HG_002 CAR-002 1995 12 14 1995-12-14 10.5 -64.667 449.03 446.0 17.361 36.293 17.285 26.439 26.458
2 93HG_002 CAR-002 1995 12 14 1995-12-14 10.5 -64.667 451.05 448.0 17.359 36.292 17.282 26.448 26.458
2 93HG_002 CAR-002 1995 12 14 1995-12-14 10.5 -64.667 453.06 450.0 17.357 36.292 17.279 26.445 26.458
2 93HG_002 CAR-002 1995 12 14 1995-12-14 10.5 -64.667 455.08 452.0 17.355 36.291 17.278 26.443 26.458
2 93HG_002 CAR-002 1995 12 14 1995-12-14 10.5 -64.667 457.09 454.0 17.353 36.289 17.276 26.424 26.457
2 93HG_002 CAR-002 1995 12 14 1995-12-14 10.5 -64.667 459.11 456.0 17.351 36.288 17.273 26.44 26.457
2 93HG_002 CAR-002 1995 12 14 1995-12-14 10.5 -64.667 461.12 458.0 17.348 36.287 17.269 26.438 26.458
2 93HG_002 CAR-002 1995 12 14 1995-12-14 10.5 -64.667 463.14 460.0 17.344 36.286 17.265 26.441 26.458
2 93HG_002 CAR-002 1995 12 14 1995-12-14 10.5 -64.667 465.16 462.0 17.34 36.286 17.261 26.446 26.459
2 93HG_002 CAR-002 1995 12 14 1995-12-14 10.5 -64.667 467.17 464.0 17.338 36.285 17.259 26.445 26.459
2 93HG_002 CAR-002 1995 12 14 1995-12-14 10.5 -64.667 469.19 466.0 17.334 36.284 17.255 26.445 26.459
2 93HG_002 CAR-002 1995 12 14 1995-12-14 10.5 -64.667 471.2 468.0 17.33 36.284 17.25 26.448 26.46
2 93HG_002 CAR-002 1995 12 14 1995-12-14 10.5 -64.667 473.22 470.0 17.325 36.284 17.245 26.447 26.461
2 93HG_002 CAR-002 1995 12 14 1995-12-14 10.5 -64.667 475.24 472.0 17.313 36.281 17.233 26.447 26.462
2 93HG_002 CAR-002 1995 12 14 1995-12-14 10.5 -64.667 477.25 474.0 17.304 36.281 17.223 26.453 26.465
2 93HG_002 CAR-002 1995 12 14 1995-12-14 10.5 -64.667 479.27 476.0 17.301 36.281 17.22 26.433 26.466
2 93HG_002 CAR-002 1995 12 14 1995-12-14 10.5 -64.667 481.28 478.0 17.301 36.28 17.22 26.438 26.465
2 93HG_002 CAR-002 1995 12 14 1995-12-14 10.5 -64.667 483.3 480.0 17.299 36.278 17.217 26.446 26.464
2 93HG_002 CAR-002 1995 12 14 1995-12-14 10.5 -64.667 485.32 482.0 17.292 36.278 17.21 26.448 26.466
2 93HG_002 CAR-002 1995 12 14 1995-12-14 10.5 -64.667 487.33 484.0 17.287 36.278 17.204 26.446 26.467
2 93HG_002 CAR-002 1995 12 14 1995-12-14 10.5 -64.667 489.35 486.0 17.279 36.278 17.196 26.452 26.469
2 93HG_002 CAR-002 1995 12 14 1995-12-14 10.5 -64.667 491.37 488.0 17.275 36.276 17.192 26.447 26.47
2 93HG_002 CAR-002 1995 12 14 1995-12-14 10.5 -64.667 493.38 490.0 17.274 36.275 17.19 26.449 26.469
2 93HG_002 CAR-002 1995 12 14 1995-12-14 10.5 -64.667 495.4 492.0 17.272 36.275 17.188 26.449 26.469
2 93HG_002 CAR-002 1995 12 14 1995-12-14 10.5 -64.667 497.41 494.0 17.27 36.273 17.186 26.444 26.468
2 93HG_002 CAR-002 1995 12 14 1995-12-14 10.5 -64.667 499.43 496.0 17.266 36.271 17.181 26.454 26.468
2 93HG_002 CAR-002 1995 12 14 1995-12-14 10.5 -64.667 501.45 498.0 17.26 36.269 17.175 26.449 26.468
2 93HG_002 CAR-002 1995 12 14 1995-12-14 10.5 -64.667 503.46 500.0 17.257 36.269 17.172 26.437 26.469
2 93HG_002 CAR-002 1995 12 14 1995-12-14 10.5 -64.667 505.48 502.0 17.257 36.267 17.171 26.455 26.468
2 93HG_002 CAR-002 1995 12 14 1995-12-14 10.5 -64.667 507.5 504.0 17.253 36.267 17.167 26.451 26.469
2 93HG_002 CAR-002 1995 12 14 1995-12-14 10.5 -64.667 509.51 506.0 17.249 36.266 17.163 26.45 26.469
2 93HG_002 CAR-002 1995 12 14 1995-12-14 10.5 -64.667 511.53 508.0 17.242 36.265 17.155 26.449 26.47
2 93HG_002 CAR-002 1995 12 14 1995-12-14 10.5 -64.667 513.54 510.0 17.238 36.265 17.151 26.452 26.471
2 93HG_002 CAR-002 1995 12 14 1995-12-14 10.5 -64.667 515.56 512.0 17.237 36.265 17.15 26.457 26.471
2 93HG_002 CAR-002 1995 12 14 1995-12-14 10.5 -64.667 517.58 514.0 17.236 36.263 17.148 26.453 26.471
2 93HG_002 CAR-002 1995 12 14 1995-12-14 10.5 -64.667 519.59 516.0 17.236 36.263 17.148 26.458 26.471
2 93HG_002 CAR-002 1995 12 14 1995-12-14 10.5 -64.667 521.61 518.0 17.234 36.262 17.146 26.452 26.47
2 93HG_002 CAR-002 1995 12 14 1995-12-14 10.5 -64.667 523.63 520.0 17.233 36.261 17.144 26.453 26.471
2 93HG_002 CAR-002 1995 12 14 1995-12-14 10.5 -64.667 525.64 522.0 17.232 36.261 17.143 26.455 26.471
2 93HG_002 CAR-002 1995 12 14 1995-12-14 10.5 -64.667 527.66 524.0 17.227 36.26 17.137 26.448 26.471
2 93HG_002 CAR-002 1995 12 14 1995-12-14 10.5 -64.667 529.67 526.0 17.224 36.26 17.134 26.454 26.472
2 93HG_002 CAR-002 1995 12 14 1995-12-14 10.5 -64.667 531.69 528.0 17.22 36.26 17.13 26.458 26.473
2 93HG_002 CAR-002 1995 12 14 1995-12-14 10.5 -64.667 533.71 530.0 17.217 36.259 17.127 26.457 26.473
2 93HG_002 CAR-002 1995 12 14 1995-12-14 10.5 -64.667 535.73 532.0 17.211 36.258 17.12 26.459 26.474
2 93HG_002 CAR-002 1995 12 14 1995-12-14 10.5 -64.667 537.74 534.0 17.208 36.258 17.117 26.461 26.475
2 93HG_002 CAR-002 1995 12 14 1995-12-14 10.5 -64.667 539.76 536.0 17.207 36.257 17.116 26.459 26.475
2 93HG_002 CAR-002 1995 12 14 1995-12-14 10.5 -64.667 541.77 538.0 17.206 36.256 17.114 26.458 26.474
2 93HG_002 CAR-002 1995 12 14 1995-12-14 10.5 -64.667 543.79 540.0 17.205 36.255 17.113 26.458 26.474
2 93HG_002 CAR-002 1995 12 14 1995-12-14 10.5 -64.667 545.81 542.0 17.203 36.253 17.11 26.465 26.473
2 93HG_002 CAR-002 1995 12 14 1995-12-14 10.5 -64.667 547.83 544.0 17.201 36.253 17.108 26.454 26.474
2 93HG_002 CAR-002 1995 12 14 1995-12-14 10.5 -64.667 549.84 546.0 17.198 36.252 17.105 26.457 26.474
2 93HG_002 CAR-002 1995 12 14 1995-12-14 10.5 -64.667 551.86 548.0 17.195 36.252 17.101 26.447 26.475
2 93HG_002 CAR-002 1995 12 14 1995-12-14 10.5 -64.667 553.88 550.0 17.192 36.252 17.099 26.46 26.475
2 93HG_002 CAR-002 1995 12 14 1995-12-14 10.5 -64.667 555.89 552.0 17.19 36.251 17.096 26.463 26.475
2 93HG_002 CAR-002 1995 12 14 1995-12-14 10.5 -64.667 557.91 554.0 17.187 36.251 17.093 26.453 26.476
2 93HG_002 CAR-002 1995 12 14 1995-12-14 10.5 -64.667 559.93 556.0 17.185 36.251 17.09 26.461 26.477
2 93HG_002 CAR-002 1995 12 14 1995-12-14 10.5 -64.667 561.94 558.0 17.182 36.251 17.087 26.455 26.478
2 93HG_002 CAR-002 1995 12 14 1995-12-14 10.5 -64.667 563.96 560.0 17.181 36.251 17.086 26.455 26.478
2 93HG_002 CAR-002 1995 12 14 1995-12-14 10.5 -64.667 565.98 562.0 17.18 36.25 17.084 26.456 26.478
2 93HG_002 CAR-002 1995 12 14 1995-12-14 10.5 -64.667 567.99 564.0 17.179 36.249 17.083 26.455 26.478
2 93HG_002 CAR-002 1995 12 14 1995-12-14 10.5 -64.667 570.01 566.0 17.176 36.249 17.08 26.456 26.478
2 93HG_002 CAR-002 1995 12 14 1995-12-14 10.5 -64.667 572.03 568.0 17.174 36.248 17.078 26.457 26.478
2 93HG_002 CAR-002 1995 12 14 1995-12-14 10.5 -64.667 574.04 570.0 17.172 36.247 17.075 26.461 26.478
2 93HG_002 CAR-002 1995 12 14 1995-12-14 10.5 -64.667 576.06 572.0 17.169 36.246 17.071 26.45 26.478
2 93HG_002 CAR-002 1995 12 14 1995-12-14 10.5 -64.667 578.08 574.0 17.167 36.246 17.069 26.459 26.479
2 93HG_002 CAR-002 1995 12 14 1995-12-14 10.5 -64.667 580.1 576.0 17.165 36.245 17.067 26.461 26.478
2 93HG_002 CAR-002 1995 12 14 1995-12-14 10.5 -64.667 582.11 578.0 17.164 36.245 17.065 26.459 26.479
2 93HG_002 CAR-002 1995 12 14 1995-12-14 10.5 -64.667 584.13 580.0 17.163 36.245 17.064 26.461 26.479
2 93HG_002 CAR-002 1995 12 14 1995-12-14 10.5 -64.667 586.15 582.0 17.162 36.244 17.062 26.457 26.479
2 93HG_002 CAR-002 1995 12 14 1995-12-14 10.5 -64.667 588.16 584.0 17.16 36.243 17.06 26.459 26.48
2 93HG_002 CAR-002 1995 12 14 1995-12-14 10.5 -64.667 590.18 586.0 17.157 36.242 17.058 26.457 26.479
2 93HG_002 CAR-002 1995 12 14 1995-12-14 10.5 -64.667 592.2 588.0 17.153 36.241 17.053 26.46 26.479
2 93HG_002 CAR-002 1995 12 14 1995-12-14 10.5 -64.667 594.22 590.0 17.149 36.24 17.049 26.466 26.48
2 93HG_002 CAR-002 1995 12 14 1995-12-14 10.5 -64.667 596.23 592.0 17.144 36.24 17.044 26.461 26.481
2 93HG_002 CAR-002 1995 12 14 1995-12-14 10.5 -64.667 598.25 594.0 17.144 36.239 17.042 26.463 26.481
2 93HG_002 CAR-002 1995 12 14 1995-12-14 10.5 -64.667 600.27 596.0 17.143 36.239 17.041 26.459 26.481
2 93HG_002 CAR-002 1995 12 14 1995-12-14 10.5 -64.667 602.28 598.0 17.142 36.239 17.04 26.461 26.481
2 93HG_002 CAR-002 1995 12 14 1995-12-14 10.5 -64.667 604.3 600.0 17.14 36.239 17.038 26.46 26.482
2 93HG_002 CAR-002 1995 12 14 1995-12-14 10.5 -64.667 606.32 602.0 17.137 36.239 17.034 26.465 26.483
2 93HG_002 CAR-002 1995 12 14 1995-12-14 10.5 -64.667 608.34 604.0 17.135 36.239 17.032 26.464 26.483
2 93HG_002 CAR-002 1995 12 14 1995-12-14 10.5 -64.667 610.35 606.0 17.136 36.239 17.032 26.466 26.484
2 93HG_002 CAR-002 1995 12 14 1995-12-14 10.5 -64.667 612.37 608.0 17.135 36.238 17.032 26.466 26.483
2 93HG_002 CAR-002 1995 12 14 1995-12-14 10.5 -64.667 614.39 610.0 17.135 36.237 17.031 26.468 26.483
2 93HG_002 CAR-002 1995 12 14 1995-12-14 10.5 -64.667 616.4 612.0 17.136 36.237 17.031 26.468 26.483
2 93HG_002 CAR-002 1995 12 14 1995-12-14 10.5 -64.667 618.42 614.0 17.135 36.237 17.031 26.47 26.483
2 93HG_002 CAR-002 1995 12 14 1995-12-14 10.5 -64.667 620.44 616.0 17.135 36.237 17.03 26.468 26.483
2 93HG_002 CAR-002 1995 12 14 1995-12-14 10.5 -64.667 622.46 618.0 17.134 36.237 17.029 26.47 26.483
2 93HG_002 CAR-002 1995 12 14 1995-12-14 10.5 -64.667 624.47 620.0 17.133 36.236 17.027 26.465 26.483
2 93HG_002 CAR-002 1995 12 14 1995-12-14 10.5 -64.667 626.49 622.0 17.133 36.236 17.027 26.466 26.483
2 93HG_002 CAR-002 1995 12 14 1995-12-14 10.5 -64.667 628.51 624.0 17.133 36.236 17.026 26.47 26.483
2 93HG_002 CAR-002 1995 12 14 1995-12-14 10.5 -64.667 630.53 626.0 17.131 36.236 17.025 26.471 26.484
2 93HG_002 CAR-002 1995 12 14 1995-12-14 10.5 -64.667 632.54 628.0 17.13 36.235 17.023 26.472 26.484
2 93HG_002 CAR-002 1995 12 14 1995-12-14 10.5 -64.667 634.56 630.0 17.128 36.235 17.02 26.472 26.485
2 93HG_002 CAR-002 1995 12 14 1995-12-14 10.5 -64.667 636.58 632.0 17.128 36.235 17.02 26.472 26.485
2 93HG_002 CAR-002 1995 12 14 1995-12-14 10.5 -64.667 638.6 634.0 17.126 36.235 17.018 26.472 26.485
2 93HG_002 CAR-002 1995 12 14 1995-12-14 10.5 -64.667 640.62 636.0 17.124 36.235 17.016 26.474 26.486
2 93HG_002 CAR-002 1995 12 14 1995-12-14 10.5 -64.667 642.63 638.0 17.124 36.235 17.015 26.473 26.486
2 93HG_002 CAR-002 1995 12 14 1995-12-14 10.5 -64.667 644.65 640.0 17.122 36.235 17.013 26.474 26.486
2 93HG_002 CAR-002 1995 12 14 1995-12-14 10.5 -64.667 646.67 642.0 17.12 36.235 17.011 26.475 26.487
2 93HG_002 CAR-002 1995 12 14 1995-12-14 10.5 -64.667 648.68 644.0 17.119 36.234 17.009 26.464 26.487
2 93HG_002 CAR-002 1995 12 14 1995-12-14 10.5 -64.667 650.7 646.0 17.119 36.234 17.009 26.477 26.487
2 93HG_002 CAR-002 1995 12 14 1995-12-14 10.5 -64.667 652.72 648.0 17.119 36.234 17.008 26.475 26.487
2 93HG_002 CAR-002 1995 12 14 1995-12-14 10.5 -64.667 654.74 650.0 17.117 36.233 17.007 26.474 26.487
2 93HG_002 CAR-002 1995 12 14 1995-12-14 10.5 -64.667 656.76 652.0 17.116 36.232 17.005 26.476 26.487
2 93HG_002 CAR-002 1995 12 14 1995-12-14 10.5 -64.667 658.77 654.0 17.115 36.232 17.003 26.477 26.487
2 93HG_002 CAR-002 1995 12 14 1995-12-14 10.5 -64.667 660.79 656.0 17.115 36.232 17.003 26.477 26.487
2 93HG_002 CAR-002 1995 12 14 1995-12-14 10.5 -64.667 662.81 658.0 17.114 36.232 17.002 26.476 26.488
2 93HG_002 CAR-002 1995 12 14 1995-12-14 10.5 -64.667 664.83 660.0 17.113 36.232 17.001 26.479 26.488
2 93HG_002 CAR-002 1995 12 14 1995-12-14 10.5 -64.667 666.85 662.0 17.113 36.231 17.0 26.478 26.487
2 93HG_002 CAR-002 1995 12 14 1995-12-14 10.5 -64.667 668.86 664.0 17.111 36.231 16.998 26.478 26.488
2 93HG_002 CAR-002 1995 12 14 1995-12-14 10.5 -64.667 670.88 666.0 17.109 36.231 16.996 26.478 26.488
2 93HG_002 CAR-002 1995 12 14 1995-12-14 10.5 -64.667 672.9 668.0 17.109 36.231 16.995 26.47 26.489
2 93HG_002 CAR-002 1995 12 14 1995-12-14 10.5 -64.667 674.92 670.0 17.108 36.23 16.994 26.477 26.489
2 93HG_002 CAR-002 1995 12 14 1995-12-14 10.5 -64.667 676.93 672.0 17.107 36.23 16.992 26.478 26.489
2 93HG_002 CAR-002 1995 12 14 1995-12-14 10.5 -64.667 678.95 674.0 17.104 36.23 16.989 26.478 26.49
2 93HG_002 CAR-002 1995 12 14 1995-12-14 10.5 -64.667 680.97 676.0 17.102 36.23 16.986 26.479 26.49
2 93HG_002 CAR-002 1995 12 14 1995-12-14 10.5 -64.667 682.99 678.0 17.101 36.23 16.985 26.479 26.491
2 93HG_002 CAR-002 1995 12 14 1995-12-14 10.5 -64.667 685.01 680.0 17.1 36.229 16.984 26.477 26.49
2 93HG_002 CAR-002 1995 12 14 1995-12-14 10.5 -64.667 687.02 682.0 17.099 36.229 16.983 26.478 26.491
2 93HG_002 CAR-002 1995 12 14 1995-12-14 10.5 -64.667 689.04 684.0 17.099 36.229 16.983 26.478 26.491
2 93HG_002 CAR-002 1995 12 14 1995-12-14 10.5 -64.667 691.06 686.0 17.098 36.228 16.981 26.477 26.491
2 93HG_002 CAR-002 1995 12 14 1995-12-14 10.5 -64.667 693.08 688.0 17.097 36.228 16.98 26.478 26.491
2 93HG_002 CAR-002 1995 12 14 1995-12-14 10.5 -64.667 695.1 690.0 17.096 36.228 16.979 26.473 26.491
2 93HG_002 CAR-002 1995 12 14 1995-12-14 10.5 -64.667 697.12 692.0 17.096 36.227 16.978 26.479 26.491
2 93HG_002 CAR-002 1995 12 14 1995-12-14 10.5 -64.667 699.13 694.0 17.096 36.227 16.977 26.478 26.491
2 93HG_002 CAR-002 1995 12 14 1995-12-14 10.5 -64.667 701.15 696.0 17.094 36.226 16.976 26.48 26.491
2 93HG_002 CAR-002 1995 12 14 1995-12-14 10.5 -64.667 703.17 698.0 17.094 36.226 16.975 26.479 26.491
2 93HG_002 CAR-002 1995 12 14 1995-12-14 10.5 -64.667 705.19 700.0 17.093 36.226 16.974 26.48 26.491
2 93HG_002 CAR-002 1995 12 14 1995-12-14 10.5 -64.667 707.21 702.0 17.093 36.226 16.973 26.481 26.492
2 93HG_002 CAR-002 1995 12 14 1995-12-14 10.5 -64.667 709.23 704.0 17.093 36.226 16.973 26.479 26.492
2 93HG_002 CAR-002 1995 12 14 1995-12-14 10.5 -64.667 711.24 706.0 17.093 36.226 16.973 26.479 26.492
2 93HG_002 CAR-002 1995 12 14 1995-12-14 10.5 -64.667 713.26 708.0 17.092 36.226 16.971 26.479 26.492
2 93HG_002 CAR-002 1995 12 14 1995-12-14 10.5 -64.667 715.28 710.0 17.091 36.226 16.97 26.479 26.493
2 93HG_002 CAR-002 1995 12 14 1995-12-14 10.5 -64.667 717.3 712.0 17.091 36.226 16.969 26.476 26.493
2 93HG_002 CAR-002 1995 12 14 1995-12-14 10.5 -64.667 719.32 714.0 17.09 36.226 16.968 26.479 26.493
2 93HG_002 CAR-002 1995 12 14 1995-12-14 10.5 -64.667 721.34 716.0 17.089 36.226 16.967 26.48 26.494
2 93HG_002 CAR-002 1995 12 14 1995-12-14 10.5 -64.667 723.35 718.0 17.088 36.226 16.966 26.48 26.494
2 93HG_002 CAR-002 1995 12 14 1995-12-14 10.5 -64.667 725.37 720.0 17.087 36.226 16.964 26.48 26.495
2 93HG_002 CAR-002 1995 12 14 1995-12-14 10.5 -64.667 727.39 722.0 17.087 36.226 16.964 26.48 26.495
2 93HG_002 CAR-002 1995 12 14 1995-12-14 10.5 -64.667 729.41 724.0 17.087 36.226 16.964 26.48 26.495
2 93HG_002 CAR-002 1995 12 14 1995-12-14 10.5 -64.667 731.43 726.0 17.087 36.226 16.963 26.48 26.495
2 93HG_002 CAR-002 1995 12 14 1995-12-14 10.5 -64.667 733.45 728.0 17.087 36.225 16.963 26.48 26.495
2 93HG_002 CAR-002 1995 12 14 1995-12-14 10.5 -64.667 735.46 730.0 17.086 36.225 16.962 26.479 26.495
2 93HG_002 CAR-002 1995 12 14 1995-12-14 10.5 -64.667 737.48 732.0 17.086 36.225 16.961 26.474 26.495
2 93HG_002 CAR-002 1995 12 14 1995-12-14 10.5 -64.667 739.5 734.0 17.085 36.225 16.96 26.48 26.495
2 93HG_002 CAR-002 1995 12 14 1995-12-14 10.5 -64.667 741.52 736.0 17.083 36.225 16.958 26.479 26.496
2 93HG_002 CAR-002 1995 12 14 1995-12-14 10.5 -64.667 743.54 738.0 17.082 36.224 16.956 26.479 26.495
2 93HG_002 CAR-002 1995 12 14 1995-12-14 10.5 -64.667 745.56 740.0 17.082 36.224 16.956 26.48 26.496
2 93HG_002 CAR-002 1995 12 14 1995-12-14 10.5 -64.667 747.58 742.0 17.082 36.224 16.955 26.48 26.496
2 93HG_002 CAR-002 1995 12 14 1995-12-14 10.5 -64.667 749.59 744.0 17.082 36.224 16.955 26.48 26.496
2 93HG_002 CAR-002 1995 12 14 1995-12-14 10.5 -64.667 751.61 746.0 17.083 36.223 16.955 26.48 26.495
2 93HG_002 CAR-002 1995 12 14 1995-12-14 10.5 -64.667 753.63 748.0 17.081 36.223 16.953 26.479 26.496
2 93HG_002 CAR-002 1995 12 14 1995-12-14 10.5 -64.667 755.65 750.0 17.081 36.223 16.953 26.479 26.496
2 93HG_002 CAR-002 1995 12 14 1995-12-14 10.5 -64.667 757.67 752.0 17.081 36.223 16.953 26.479 26.496
2 93HG_002 CAR-002 1995 12 14 1995-12-14 10.5 -64.667 759.69 754.0 17.081 36.223 16.953 26.474 26.496
2 93HG_002 CAR-002 1995 12 14 1995-12-14 10.5 -64.667 761.71 756.0 17.082 36.222 16.953 26.479 26.496
2 93HG_002 CAR-002 1995 12 14 1995-12-14 10.5 -64.667 763.73 758.0 17.082 36.222 16.953 26.479 26.496
2 93HG_002 CAR-002 1995 12 14 1995-12-14 10.5 -64.667 765.74 760.0 17.083 36.222 16.953 26.478 26.496
2 93HG_002 CAR-002 1995 12 14 1995-12-14 10.5 -64.667 767.76 762.0 17.081 36.222 16.951 26.48 26.496
2 93HG_002 CAR-002 1995 12 14 1995-12-14 10.5 -64.667 769.78 764.0 17.08 36.222 16.95 26.48 26.497
2 93HG_002 CAR-002 1995 12 14 1995-12-14 10.5 -64.667 771.8 766.0 17.081 36.222 16.95 26.479 26.497
2 93HG_002 CAR-002 1995 12 14 1995-12-14 10.5 -64.667 773.82 768.0 17.081 36.222 16.949 26.479 26.497
2 93HG_002 CAR-002 1995 12 14 1995-12-14 10.5 -64.667 775.84 770.0 17.079 36.222 16.948 26.48 26.497
2 93HG_002 CAR-002 1995 12 14 1995-12-14 10.5 -64.667 777.86 772.0 17.078 36.222 16.946 26.48 26.498
2 93HG_002 CAR-002 1995 12 14 1995-12-14 10.5 -64.667 779.88 774.0 17.078 36.222 16.945 26.48 26.498
2 93HG_002 CAR-002 1995 12 14 1995-12-14 10.5 -64.667 781.89 776.0 17.077 36.222 16.945 26.48 26.498
2 93HG_002 CAR-002 1995 12 14 1995-12-14 10.5 -64.667 783.91 778.0 17.078 36.222 16.945 26.475 26.498
2 93HG_002 CAR-002 1995 12 14 1995-12-14 10.5 -64.667 785.93 780.0 17.078 36.222 16.945 26.48 26.498
2 93HG_002 CAR-002 1995 12 14 1995-12-14 10.5 -64.667 787.95 782.0 17.078 36.222 16.944 26.48 26.499
2 93HG_002 CAR-002 1995 12 14 1995-12-14 10.5 -64.667 789.97 784.0 17.077 36.221 16.943 26.48 26.499
2 93HG_002 CAR-002 1995 12 14 1995-12-14 10.5 -64.667 791.99 786.0 17.077 36.221 16.943 26.48 26.499
2 93HG_002 CAR-002 1995 12 14 1995-12-14 10.5 -64.667 794.01 788.0 17.077 36.221 16.943 26.48 26.498
2 93HG_002 CAR-002 1995 12 14 1995-12-14 10.5 -64.667 796.03 790.0 17.077 36.221 16.942 26.48 26.498
2 93HG_002 CAR-002 1995 12 14 1995-12-14 10.5 -64.667 798.05 792.0 17.078 36.221 16.942 26.48 26.499
2 93HG_002 CAR-002 1995 12 14 1995-12-14 10.5 -64.667 800.07 794.0 17.078 36.221 16.942 26.479 26.499
2 93HG_002 CAR-002 1995 12 14 1995-12-14 10.5 -64.667 802.09 796.0 17.078 36.22 16.942 26.479 26.498
2 93HG_002 CAR-002 1995 12 14 1995-12-14 10.5 -64.667 804.11 798.0 17.077 36.22 16.941 26.479 26.498
2 93HG_002 CAR-002 1995 12 14 1995-12-14 10.5 -64.667 806.12 800.0 17.077 36.22 16.94 26.479 26.499
2 93HG_002 CAR-002 1995 12 14 1995-12-14 10.5 -64.667 808.14 802.0 17.077 36.22 16.94 26.473 26.499
2 93HG_002 CAR-002 1995 12 14 1995-12-14 10.5 -64.667 810.16 804.0 17.077 36.22 16.94 26.479 26.499
2 93HG_002 CAR-002 1995 12 14 1995-12-14 10.5 -64.667 812.18 806.0 17.077 36.22 16.94 26.478 26.499
2 93HG_002 CAR-002 1995 12 14 1995-12-14 10.5 -64.667 814.2 808.0 17.077 36.219 16.939 26.479 26.499
2 93HG_002 CAR-002 1995 12 14 1995-12-14 10.5 -64.667 816.22 810.0 17.077 36.219 16.938 26.479 26.499
2 93HG_002 CAR-002 1995 12 14 1995-12-14 10.5 -64.667 818.24 812.0 17.076 36.219 16.937 26.479 26.499
2 93HG_002 CAR-002 1995 12 14 1995-12-14 10.5 -64.667 820.26 814.0 17.075 36.219 16.936 26.479 26.5
2 93HG_002 CAR-002 1995 12 14 1995-12-14 10.5 -64.667 822.28 816.0 17.075 36.219 16.936 26.478 26.5
2 93HG_002 CAR-002 1995 12 14 1995-12-14 10.5 -64.667 824.3 818.0 17.075 36.219 16.935 26.478 26.5
2 93HG_002 CAR-002 1995 12 14 1995-12-14 10.5 -64.667 826.32 820.0 17.075 36.219 16.935 26.478 26.5
2 93HG_002 CAR-002 1995 12 14 1995-12-14 10.5 -64.667 828.34 822.0 17.075 36.219 16.934 26.478 26.5
2 93HG_002 CAR-002 1995 12 14 1995-12-14 10.5 -64.667 830.36 824.0 17.075 36.219 16.934 26.477 26.501
2 93HG_002 CAR-002 1995 12 14 1995-12-14 10.5 -64.667 832.38 826.0 17.075 36.219 16.934 26.472 26.501
2 93HG_002 CAR-002 1995 12 14 1995-12-14 10.5 -64.667 834.39 828.0 17.075 36.219 16.933 26.477 26.501
2 93HG_002 CAR-002 1995 12 14 1995-12-14 10.5 -64.667 836.41 830.0 17.074 36.218 16.932 26.478 26.5
2 93HG_002 CAR-002 1995 12 14 1995-12-14 10.5 -64.667 838.43 832.0 17.074 36.218 16.932 26.477 26.501
2 93HG_002 CAR-002 1995 12 14 1995-12-14 10.5 -64.667 840.45 834.0 17.075 36.218 16.932 26.477 26.501
2 93HG_002 CAR-002 1995 12 14 1995-12-14 10.5 -64.667 842.47 836.0 17.075 36.218 16.932 26.478 26.501
2 93HG_002 CAR-002 1995 12 14 1995-12-14 10.5 -64.667 844.49 838.0 17.075 36.218 16.931 26.478 26.501
2 93HG_002 CAR-002 1995 12 14 1995-12-14 10.5 -64.667 846.51 840.0 17.075 36.218 16.931 26.478 26.501
2 93HG_002 CAR-002 1995 12 14 1995-12-14 10.5 -64.667 848.53 842.0 17.075 36.218 16.931 26.478 26.501
2 93HG_002 CAR-002 1995 12 14 1995-12-14 10.5 -64.667 850.55 844.0 17.075 36.218 16.93 26.478 26.501
2 93HG_002 CAR-002 1995 12 14 1995-12-14 10.5 -64.667 852.57 846.0 17.075 36.218 16.93 26.478 26.502
2 93HG_002 CAR-002 1995 12 14 1995-12-14 10.5 -64.667 854.59 848.0 17.075 36.218 16.93 26.478 26.502
2 93HG_002 CAR-002 1995 12 14 1995-12-14 10.5 -64.667 856.61 850.0 17.075 36.217 16.93 26.474 26.501
2 93HG_002 CAR-002 1995 12 14 1995-12-14 10.5 -64.667 858.63 852.0 17.075 36.217 16.929 26.478 26.501
2 93HG_002 CAR-002 1995 12 14 1995-12-14 10.5 -64.667 860.65 854.0 17.075 36.217 16.929 26.478 26.501
2 93HG_002 CAR-002 1995 12 14 1995-12-14 10.5 -64.667 862.67 856.0 17.075 36.217 16.929 26.477 26.501
2 93HG_002 CAR-002 1995 12 14 1995-12-14 10.5 -64.667 864.69 858.0 17.075 36.217 16.928 26.477 26.502
2 93HG_002 CAR-002 1995 12 14 1995-12-14 10.5 -64.667 866.71 860.0 17.075 36.217 16.928 26.477 26.502
2 93HG_002 CAR-002 1995 12 14 1995-12-14 10.5 -64.667 868.73 862.0 17.075 36.217 16.928 26.478 26.502
2 93HG_002 CAR-002 1995 12 14 1995-12-14 10.5 -64.667 870.75 864.0 17.075 36.217 16.928 26.478 26.502
2 93HG_002 CAR-002 1995 12 14 1995-12-14 10.5 -64.667 872.77 866.0 17.076 36.217 16.927 26.478 26.502
2 93HG_002 CAR-002 1995 12 14 1995-12-14 10.5 -64.667 874.79 868.0 17.076 36.217 16.928 26.477 26.502
2 93HG_002 CAR-002 1995 12 14 1995-12-14 10.5 -64.667 876.81 870.0 17.076 36.217 16.928 26.477 26.502
2 93HG_002 CAR-002 1995 12 14 1995-12-14 10.5 -64.667 878.83 872.0 17.077 36.217 16.928 26.476 26.502
2 93HG_002 CAR-002 1995 12 14 1995-12-14 10.5 -64.667 880.85 874.0 17.077 36.217 16.927 26.474 26.502
2 93HG_002 CAR-002 1995 12 14 1995-12-14 10.5 -64.667 882.87 876.0 17.077 36.217 16.927 26.477 26.503
2 93HG_002 CAR-002 1995 12 14 1995-12-14 10.5 -64.667 884.89 878.0 17.077 36.217 16.927 26.477 26.503
2 93HG_002 CAR-002 1995 12 14 1995-12-14 10.5 -64.667 886.91 880.0 17.078 36.216 16.927 26.477 26.502
2 93HG_002 CAR-002 1995 12 14 1995-12-14 10.5 -64.667 888.93 882.0 17.078 36.216 16.927 26.477 26.502
2 93HG_002 CAR-002 1995 12 14 1995-12-14 10.5 -64.667 890.95 884.0 17.078 36.216 16.927 26.476 26.502
2 93HG_002 CAR-002 1995 12 14 1995-12-14 10.5 -64.667 892.97 886.0 17.078 36.216 16.926 26.476 26.503
2 93HG_002 CAR-002 1995 12 14 1995-12-14 10.5 -64.667 894.99 888.0 17.078 36.216 16.926 26.476 26.503
2 93HG_002 CAR-002 1995 12 14 1995-12-14 10.5 -64.667 897.01 890.0 17.078 36.216 16.925 26.476 26.503
2 93HG_002 CAR-002 1995 12 14 1995-12-14 10.5 -64.667 899.03 892.0 17.078 36.216 16.926 26.476 26.503
2 93HG_002 CAR-002 1995 12 14 1995-12-14 10.5 -64.667 901.05 894.0 17.078 36.216 16.925 26.476 26.503
2 93HG_002 CAR-002 1995 12 14 1995-12-14 10.5 -64.667 903.07 896.0 17.078 36.216 16.924 26.476 26.503
2 93HG_002 CAR-002 1995 12 14 1995-12-14 10.5 -64.667 905.09 898.0 17.078 36.216 16.924 26.472 26.504
2 93HG_002 CAR-002 1995 12 14 1995-12-14 10.5 -64.667 907.11 900.0 17.078 36.216 16.924 26.477 26.504
2 93HG_002 CAR-002 1995 12 14 1995-12-14 10.5 -64.667 909.13 902.0 17.079 36.216 16.924 26.476 26.504
2 93HG_002 CAR-002 1995 12 14 1995-12-14 10.5 -64.667 911.15 904.0 17.078 36.216 16.924 26.476 26.504
2 93HG_002 CAR-002 1995 12 14 1995-12-14 10.5 -64.667 913.17 906.0 17.079 36.216 16.924 26.476 26.504
2 93HG_002 CAR-002 1995 12 14 1995-12-14 10.5 -64.667 915.19 908.0 17.078 36.216 16.923 26.476 26.504
2 93HG_002 CAR-002 1995 12 14 1995-12-14 10.5 -64.667 917.21 910.0 17.079 36.215 16.923 26.476 26.504
2 93HG_002 CAR-002 1995 12 14 1995-12-14 10.5 -64.667 919.23 912.0 17.08 36.215 16.924 26.476 26.504
2 93HG_002 CAR-002 1995 12 14 1995-12-14 10.5 -64.667 921.25 914.0 17.08 36.215 16.923 26.476 26.505
2 93HG_002 CAR-002 1995 12 14 1995-12-14 10.5 -64.667 923.27 916.0 17.079 36.215 16.922 26.475 26.504
2 93HG_002 CAR-002 1995 12 14 1995-12-14 10.5 -64.667 925.29 918.0 17.08 36.215 16.923 26.475 26.504
2 93HG_002 CAR-002 1995 12 14 1995-12-14 10.5 -64.667 927.31 920.0 17.08 36.215 16.923 26.472 26.504
2 93HG_002 CAR-002 1995 12 14 1995-12-14 10.5 -64.667 929.33 922.0 17.081 36.215 16.923 26.475 26.504
2 93HG_002 CAR-002 1995 12 14 1995-12-14 10.5 -64.667 931.35 924.0 17.081 36.215 16.923 26.475 26.504
2 93HG_002 CAR-002 1995 12 14 1995-12-14 10.5 -64.667 933.37 926.0 17.081 36.215 16.922 26.475 26.505
2 93HG_002 CAR-002 1995 12 14 1995-12-14 10.5 -64.667 935.39 928.0 17.081 36.215 16.922 26.475 26.505
2 93HG_002 CAR-002 1995 12 14 1995-12-14 10.5 -64.667 937.41 930.0 17.08 36.215 16.921 26.475 26.505
2 93HG_002 CAR-002 1995 12 14 1995-12-14 10.5 -64.667 939.43 932.0 17.081 36.215 16.922 26.474 26.505
2 93HG_002 CAR-002 1995 12 14 1995-12-14 10.5 -64.667 941.46 934.0 17.081 36.215 16.921 26.475 26.505
2 93HG_002 CAR-002 1995 12 14 1995-12-14 10.5 -64.667 943.48 936.0 17.081 36.215 16.921 26.475 26.505
2 93HG_002 CAR-002 1995 12 14 1995-12-14 10.5 -64.667 945.5 938.0 17.081 36.215 16.921 26.474 26.505
2 93HG_002 CAR-002 1995 12 14 1995-12-14 10.5 -64.667 947.52 940.0 17.082 36.215 16.921 26.474 26.505
2 93HG_002 CAR-002 1995 12 14 1995-12-14 10.5 -64.667 949.54 942.0 17.081 36.215 16.92 26.474 26.506
2 93HG_002 CAR-002 1995 12 14 1995-12-14 10.5 -64.667 951.56 944.0 17.082 36.215 16.92 26.472 26.506
2 93HG_002 CAR-002 1995 12 14 1995-12-14 10.5 -64.667 953.58 946.0 17.081 36.215 16.919 26.474 26.506
2 93HG_002 CAR-002 1995 12 14 1995-12-14 10.5 -64.667 955.6 948.0 17.081 36.215 16.919 26.474 26.506
2 93HG_002 CAR-002 1995 12 14 1995-12-14 10.5 -64.667 957.62 950.0 17.082 36.215 16.919 26.474 26.506
2 93HG_002 CAR-002 1995 12 14 1995-12-14 10.5 -64.667 959.64 952.0 17.082 36.215 16.919 26.474 26.506
2 93HG_002 CAR-002 1995 12 14 1995-12-14 10.5 -64.667 961.66 954.0 17.082 36.215 16.918 26.474 26.507
2 93HG_002 CAR-002 1995 12 14 1995-12-14 10.5 -64.667 963.68 956.0 17.082 36.215 16.918 26.474 26.507
2 93HG_002 CAR-002 1995 12 14 1995-12-14 10.5 -64.667 965.7 958.0 17.082 36.215 16.918 26.474 26.507
2 93HG_002 CAR-002 1995 12 14 1995-12-14 10.5 -64.667 967.72 960.0 17.082 36.215 16.917 26.474 26.507
2 93HG_002 CAR-002 1995 12 14 1995-12-14 10.5 -64.667 969.74 962.0 17.082 36.215 16.917 26.474 26.507
2 93HG_002 CAR-002 1995 12 14 1995-12-14 10.5 -64.667 971.76 964.0 17.082 36.215 16.917 26.474 26.507
2 93HG_002 CAR-002 1995 12 14 1995-12-14 10.5 -64.667 973.78 966.0 17.082 36.214 16.917 26.473 26.507
2 93HG_002 CAR-002 1995 12 14 1995-12-14 10.5 -64.667 975.81 968.0 17.082 36.214 16.916 26.474 26.507
2 93HG_002 CAR-002 1995 12 14 1995-12-14 10.5 -64.667 977.83 970.0 17.083 36.214 16.916 26.474 26.507
2 93HG_002 CAR-002 1995 12 14 1995-12-14 10.5 -64.667 979.85 972.0 17.083 36.214 16.916 26.474 26.507
2 93HG_002 CAR-002 1995 12 14 1995-12-14 10.5 -64.667 981.87 974.0 17.083 36.214 16.916 26.474 26.507
2 93HG_002 CAR-002 1995 12 14 1995-12-14 10.5 -64.667 983.89 976.0 17.084 36.214 16.916 26.473 26.507
2 93HG_002 CAR-002 1995 12 14 1995-12-14 10.5 -64.667 985.91 978.0 17.084 36.214 16.916 26.474 26.507
2 93HG_002 CAR-002 1995 12 14 1995-12-14 10.5 -64.667 987.93 980.0 17.084 36.214 16.916 26.473 26.507
2 93HG_002 CAR-002 1995 12 14 1995-12-14 10.5 -64.667 989.95 982.0 17.084 36.214 16.916 26.474 26.507
2 93HG_002 CAR-002 1995 12 14 1995-12-14 10.5 -64.667 991.97 984.0 17.085 36.214 16.916 26.474 26.508
2 93HG_002 CAR-002 1995 12 14 1995-12-14 10.5 -64.667 993.99 986.0 17.086 36.214 16.916 26.473 26.507
2 93HG_002 CAR-002 1995 12 14 1995-12-14 10.5 -64.667 996.01 988.0 17.086 36.214 16.917 26.472 26.507
2 93HG_002 CAR-002 1995 12 14 1995-12-14 10.5 -64.667 998.04 990.0 17.087 36.214 16.917 26.471 26.508
2 93HG_002 CAR-002 1995 12 14 1995-12-14 10.5 -64.667 1000.1 992.0 17.086 36.214 16.916 26.473 26.508
2 93HG_002 CAR-002 1995 12 14 1995-12-14 10.5 -64.667 1002.1 994.0 17.087 36.214 16.916 26.473 26.508
2 93HG_002 CAR-002 1995 12 14 1995-12-14 10.5 -64.667 1004.1 996.0 17.087 36.214 16.916 26.473 26.508
2 93HG_002 CAR-002 1995 12 14 1995-12-14 10.5 -64.667 1006.1 998.0 17.087 36.214 16.916 26.472 26.508
2 93HG_002 CAR-002 1995 12 14 1995-12-14 10.5 -64.667 1008.1 1000.0 17.087 36.214 16.915 26.473 26.508
2 93HG_002 CAR-002 1995 12 14 1995-12-14 10.5 -64.667 1010.2 1002.0 17.088 36.214 16.916 26.473 26.508
2 93HG_002 CAR-002 1995 12 14 1995-12-14 10.5 -64.667 1012.2 1004.0 17.088 36.214 16.916 26.473 26.508
2 93HG_002 CAR-002 1995 12 14 1995-12-14 10.5 -64.667 1014.2 1006.0 17.088 36.214 16.916 26.473 26.508
2 93HG_002 CAR-002 1995 12 14 1995-12-14 10.5 -64.667 1016.2 1008.0 17.088 36.214 16.915 26.473 26.509
2 93HG_002 CAR-002 1995 12 14 1995-12-14 10.5 -64.667 1018.2 1010.0 17.089 36.214 16.916 26.472 26.509
2 93HG_002 CAR-002 1995 12 14 1995-12-14 10.5 -64.667 1020.3 1012.0 17.089 36.214 16.915 26.47 26.509
2 93HG_002 CAR-002 1995 12 14 1995-12-14 10.5 -64.667 1022.3 1014.0 17.089 36.214 16.915 26.472 26.509
2 93HG_002 CAR-002 1995 12 14 1995-12-14 10.5 -64.667 1024.3 1016.0 17.09 36.214 16.915 26.473 26.509
2 93HG_002 CAR-002 1995 12 14 1995-12-14 10.5 -64.667 1026.3 1018.0 17.09 36.214 16.915 26.473 26.509
2 93HG_002 CAR-002 1995 12 14 1995-12-14 10.5 -64.667 1028.4 1020.0 17.09 36.214 16.915 26.473 26.509
2 93HG_002 CAR-002 1995 12 14 1995-12-14 10.5 -64.667 1030.4 1022.0 17.09 36.214 16.915 26.473 26.509
2 93HG_002 CAR-002 1995 12 14 1995-12-14 10.5 -64.667 1032.4 1024.0 17.09 36.214 16.914 26.473 26.51
2 93HG_002 CAR-002 1995 12 14 1995-12-14 10.5 -64.667 1034.4 1026.0 17.091 36.214 16.914 26.472 26.51
2 93HG_002 CAR-002 1995 12 14 1995-12-14 10.5 -64.667 1036.4 1028.0 17.091 36.214 16.914 26.472 26.51
2 93HG_002 CAR-002 1995 12 14 1995-12-14 10.5 -64.667 1038.5 1030.0 17.091 36.214 16.914 26.472 26.51
2 93HG_002 CAR-002 1995 12 14 1995-12-14 10.5 -64.667 1040.5 1032.0 17.091 36.213 16.914 26.472 26.509
2 93HG_002 CAR-002 1995 12 14 1995-12-14 10.5 -64.667 1042.5 1034.0 17.091 36.213 16.913 26.471 26.509
2 93HG_002 CAR-002 1995 12 14 1995-12-14 10.5 -64.667 1044.5 1036.0 17.091 36.213 16.913 26.472 26.51
2 93HG_002 CAR-002 1995 12 14 1995-12-14 10.5 -64.667 1046.5 1038.0 17.093 36.213 16.914 26.471 26.509
2 93HG_002 CAR-002 1995 12 14 1995-12-14 10.5 -64.667 1048.6 1040.0 17.093 36.213 16.914 26.471 26.509
2 93HG_002 CAR-002 1995 12 14 1995-12-14 10.5 -64.667 1050.6 1042.0 17.092 36.213 16.913 26.472 26.51
2 93HG_002 CAR-002 1995 12 14 1995-12-14 10.5 -64.667 1052.6 1044.0 17.093 36.213 16.913 26.471 26.51
2 93HG_002 CAR-002 1995 12 14 1995-12-14 10.5 -64.667 1054.6 1046.0 17.093 36.213 16.913 26.472 26.51
2 93HG_002 CAR-002 1995 12 14 1995-12-14 10.5 -64.667 1056.7 1048.0 17.093 36.213 16.913 26.472 26.51
2 93HG_002 CAR-002 1995 12 14 1995-12-14 10.5 -64.667 1058.7 1050.0 17.094 36.213 16.913 26.471 26.51
2 93HG_002 CAR-002 1995 12 14 1995-12-14 10.5 -64.667 1060.7 1052.0 17.094 36.213 16.913 26.471 26.51
2 93HG_002 CAR-002 1995 12 14 1995-12-14 10.5 -64.667 1062.7 1054.0 17.094 36.213 16.913 26.471 26.51
2 93HG_002 CAR-002 1995 12 14 1995-12-14 10.5 -64.667 1064.7 1056.0 17.094 36.213 16.913 26.471 26.51
2 93HG_002 CAR-002 1995 12 14 1995-12-14 10.5 -64.667 1066.8 1058.0 17.095 36.213 16.913 26.471 26.511
2 93HG_002 CAR-002 1995 12 14 1995-12-14 10.5 -64.667 1068.8 1060.0 17.095 36.213 16.913 26.471 26.511
2 93HG_002 CAR-002 1995 12 14 1995-12-14 10.5 -64.667 1070.8 1062.0 17.096 36.213 16.913 26.471 26.511
2 93HG_002 CAR-002 1995 12 14 1995-12-14 10.5 -64.667 1072.8 1064.0 17.096 36.213 16.913 26.471 26.511
2 93HG_002 CAR-002 1995 12 14 1995-12-14 10.5 -64.667 1074.8 1066.0 17.096 36.213 16.912 26.471 26.511
2 93HG_002 CAR-002 1995 12 14 1995-12-14 10.5 -64.667 1076.9 1068.0 17.096 36.213 16.912 26.471 26.511
2 93HG_002 CAR-002 1995 12 14 1995-12-14 10.5 -64.667 1078.9 1070.0 17.096 36.213 16.912 26.471 26.511
2 93HG_002 CAR-002 1995 12 14 1995-12-14 10.5 -64.667 1080.9 1072.0 17.096 36.213 16.911 26.471 26.512
2 93HG_002 CAR-002 1995 12 14 1995-12-14 10.5 -64.667 1082.9 1074.0 17.096 36.213 16.912 26.471 26.512
2 93HG_002 CAR-002 1995 12 14 1995-12-14 10.5 -64.667 1085.0 1076.0 17.097 36.213 16.912 26.471 26.512
2 93HG_002 CAR-002 1995 12 14 1995-12-14 10.5 -64.667 1087.0 1078.0 17.097 36.213 16.911 26.471 26.512
2 93HG_002 CAR-002 1995 12 14 1995-12-14 10.5 -64.667 1089.0 1080.0 17.097 36.213 16.911 26.47 26.512
2 93HG_002 CAR-002 1995 12 14 1995-12-14 10.5 -64.667 1091.0 1082.0 17.097 36.213 16.911 26.471 26.512
2 93HG_002 CAR-002 1995 12 14 1995-12-14 10.5 -64.667 1093.0 1084.0 17.098 36.213 16.911 26.471 26.512
2 93HG_002 CAR-002 1995 12 14 1995-12-14 10.5 -64.667 1095.1 1086.0 17.098 36.213 16.911 26.471 26.512
2 93HG_002 CAR-002 1995 12 14 1995-12-14 10.5 -64.667 1097.1 1088.0 17.098 36.213 16.91 26.471 26.513
2 93HG_002 CAR-002 1995 12 14 1995-12-14 10.5 -64.667 1099.1 1090.0 17.099 36.213 16.911 26.47 26.512
2 93HG_002 CAR-002 1995 12 14 1995-12-14 10.5 -64.667 1101.1 1092.0 17.099 36.213 16.911 26.47 26.512
2 93HG_002 CAR-002 1995 12 14 1995-12-14 10.5 -64.667 1103.2 1094.0 17.099 36.213 16.911 26.471 26.513
2 93HG_002 CAR-002 1995 12 14 1995-12-14 10.5 -64.667 1105.2 1096.0 17.099 36.213 16.911 26.471 26.513
2 93HG_002 CAR-002 1995 12 14 1995-12-14 10.5 -64.667 1107.2 1098.0 17.1 36.213 16.911 26.47 26.513
2 93HG_002 CAR-002 1995 12 14 1995-12-14 10.5 -64.667 1109.2 1100.0 17.1 36.213 16.911 26.47 26.513
2 93HG_002 CAR-002 1995 12 14 1995-12-14 10.5 -64.667 1111.2 1102.0 17.101 36.213 16.911 26.47 26.513
2 93HG_002 CAR-002 1995 12 14 1995-12-14 10.5 -64.667 1113.3 1104.0 17.101 36.213 16.911 26.471 26.513
2 93HG_002 CAR-002 1995 12 14 1995-12-14 10.5 -64.667 1115.3 1106.0 17.101 36.213 16.91 26.471 26.513
2 93HG_002 CAR-002 1995 12 14 1995-12-14 10.5 -64.667 1117.3 1108.0 17.101 36.213 16.91 26.471 26.513
2 93HG_002 CAR-002 1995 12 14 1995-12-14 10.5 -64.667 1119.3 1110.0 17.101 36.213 16.91 26.471 26.513
2 93HG_002 CAR-002 1995 12 14 1995-12-14 10.5 -64.667 1121.4 1112.0 17.102 36.213 16.91 26.47 26.513
2 93HG_002 CAR-002 1995 12 14 1995-12-14 10.5 -64.667 1123.4 1114.0 17.103 36.213 16.911 26.47 26.513
2 93HG_002 CAR-002 1995 12 14 1995-12-14 10.5 -64.667 1125.4 1116.0 17.103 36.213 16.91 26.471 26.514
2 93HG_002 CAR-002 1995 12 14 1995-12-14 10.5 -64.667 1127.4 1118.0 17.102 36.213 16.91 26.471 26.514
2 93HG_002 CAR-002 1995 12 14 1995-12-14 10.5 -64.667 1129.4 1120.0 17.103 36.213 16.91 26.471 26.514
2 93HG_002 CAR-002 1995 12 14 1995-12-14 10.5 -64.667 1131.5 1122.0 17.103 36.213 16.909 26.471 26.514
2 93HG_002 CAR-002 1995 12 14 1995-12-14 10.5 -64.667 1133.5 1124.0 17.103 36.213 16.909 26.47 26.514
2 93HG_002 CAR-002 1995 12 14 1995-12-14 10.5 -64.667 1135.5 1126.0 17.103 36.213 16.909 26.471 26.514
2 93HG_002 CAR-002 1995 12 14 1995-12-14 10.5 -64.667 1137.5 1128.0 17.104 36.213 16.91 26.471 26.514
2 93HG_002 CAR-002 1995 12 14 1995-12-14 10.5 -64.667 1139.6 1130.0 17.105 36.213 16.91 26.47 26.514
2 93HG_002 CAR-002 1995 12 14 1995-12-14 10.5 -64.667 1141.6 1132.0 17.105 36.213 16.909 26.471 26.514
2 93HG_002 CAR-002 1995 12 14 1995-12-14 10.5 -64.667 1143.6 1134.0 17.105 36.213 16.909 26.47 26.515
2 93HG_002 CAR-002 1995 12 14 1995-12-14 10.5 -64.667 1145.6 1136.0 17.105 36.213 16.91 26.471 26.514
2 93HG_002 CAR-002 1995 12 14 1995-12-14 10.5 -64.667 1147.6 1138.0 17.105 36.213 16.909 26.47 26.515
2 93HG_002 CAR-002 1995 12 14 1995-12-14 10.5 -64.667 1149.7 1140.0 17.106 36.213 16.909 26.47 26.515
2 93HG_002 CAR-002 1995 12 14 1995-12-14 10.5 -64.667 1151.7 1142.0 17.107 36.213 16.91 26.47 26.515
2 93HG_002 CAR-002 1995 12 14 1995-12-14 10.5 -64.667 1153.7 1144.0 17.107 36.213 16.909 26.47 26.515
2 93HG_002 CAR-002 1995 12 14 1995-12-14 10.5 -64.667 1155.7 1146.0 17.107 36.213 16.909 26.47 26.515
2 93HG_002 CAR-002 1995 12 14 1995-12-14 10.5 -64.667 1157.8 1148.0 17.107 36.213 16.909 26.47 26.515
2 93HG_002 CAR-002 1995 12 14 1995-12-14 10.5 -64.667 1159.8 1150.0 17.107 36.212 16.909 26.47 26.514
2 93HG_002 CAR-002 1995 12 14 1995-12-14 10.5 -64.667 1161.8 1152.0 17.108 36.212 16.909 26.47 26.515
2 93HG_002 CAR-002 1995 12 14 1995-12-14 10.5 -64.667 1163.8 1154.0 17.108 36.212 16.909 26.469 26.515
2 93HG_002 CAR-002 1995 12 14 1995-12-14 10.5 -64.667 1165.8 1156.0 17.108 36.212 16.908 26.469 26.515
2 93HG_002 CAR-002 1995 12 14 1995-12-14 10.5 -64.667 1167.9 1158.0 17.108 36.212 16.908 26.469 26.515
2 93HG_002 CAR-002 1995 12 14 1995-12-14 10.5 -64.667 1169.9 1160.0 17.108 36.212 16.908 26.47 26.515
2 93HG_002 CAR-002 1995 12 14 1995-12-14 10.5 -64.667 1171.9 1162.0 17.108 36.212 16.908 26.47 26.515
2 93HG_002 CAR-002 1995 12 14 1995-12-14 10.5 -64.667 1173.9 1164.0 17.108 36.212 16.907 26.47 26.516
2 93HG_002 CAR-002 1995 12 14 1995-12-14 10.5 -64.667 1176.0 1166.0 17.109 36.212 16.907 26.469 26.515
2 93HG_002 CAR-002 1995 12 14 1995-12-14 10.5 -64.667 1178.0 1168.0 17.109 36.212 16.907 26.469 26.516
2 93HG_002 CAR-002 1995 12 14 1995-12-14 10.5 -64.667 1180.0 1170.0 17.109 36.212 16.907 26.47 26.516
2 93HG_002 CAR-002 1995 12 14 1995-12-14 10.5 -64.667 1182.0 1172.0 17.11 36.212 16.908 26.469 26.516
2 93HG_002 CAR-002 1995 12 14 1995-12-14 10.5 -64.667 1184.1 1174.0 17.11 36.212 16.908 26.469 26.516
2 93HG_002 CAR-002 1995 12 14 1995-12-14 10.5 -64.667 1186.1 1176.0 17.11 36.212 16.907 26.469 26.516
2 93HG_002 CAR-002 1995 12 14 1995-12-14 10.5 -64.667 1188.1 1178.0 17.111 36.212 16.908 26.469 26.516
2 93HG_002 CAR-002 1995 12 14 1995-12-14 10.5 -64.667 1190.1 1180.0 17.111 36.212 16.907 26.469 26.516
2 93HG_002 CAR-002 1995 12 14 1995-12-14 10.5 -64.667 1192.1 1182.0 17.111 36.212 16.907 26.469 26.516
2 93HG_002 CAR-002 1995 12 14 1995-12-14 10.5 -64.667 1194.2 1184.0 17.111 36.212 16.907 26.469 26.516
2 93HG_002 CAR-002 1995 12 14 1995-12-14 10.5 -64.667 1196.2 1186.0 17.111 36.212 16.907 26.469 26.517
2 93HG_002 CAR-002 1995 12 14 1995-12-14 10.5 -64.667 1198.2 1188.0 17.111 36.212 16.906 26.469 26.517
2 93HG_002 CAR-002 1995 12 14 1995-12-14 10.5 -64.667 1200.2 1190.0 17.111 36.212 16.906 26.469 26.517
2 93HG_002 CAR-002 1995 12 14 1995-12-14 10.5 -64.667 1202.3 1192.0 17.112 36.212 16.906 26.469 26.517
2 93HG_002 CAR-002 1995 12 14 1995-12-14 10.5 -64.667 1204.3 1194.0 17.113 36.212 16.907 26.468 26.517
3 93HG_003 CAR-003 1996 1 13 1996-01-13 10.5 -64.667 1.006 1.0 1.235
3 93HG_003 CAR-003 1996 1 13 1996-01-13 10.5 -64.667 2.011 2.0 24.447 36.913 24.447 24.958 24.958 3.263 1.19
3 93HG_003 CAR-003 1996 1 13 1996-01-13 10.5 -64.667 4.023 4.0 24.439 36.901 24.438 24.952 24.953 3.17 1.247
3 93HG_003 CAR-003 1996 1 13 1996-01-13 10.5 -64.667 6.034 6.0 24.266 36.903 24.265 25.005 25.005 3.059 1.084
3 93HG_003 CAR-003 1996 1 13 1996-01-13 10.5 -64.667 8.046 8.0 24.107 36.897 24.106 25.048 25.049 3.002 1.242
3 93HG_003 CAR-003 1996 1 13 1996-01-13 10.5 -64.667 10.057 10.0 23.995 36.911 23.993 25.093 25.093 2.967 1.25
3 93HG_003 CAR-003 1996 1 13 1996-01-13 10.5 -64.667 12.069 12.0 23.938 36.913 23.936 25.111 25.112 2.973 1.36
3 93HG_003 CAR-003 1996 1 13 1996-01-13 10.5 -64.667 14.08 14.0 23.895 36.914 23.892 25.125 25.126 2.985 1.315
3 93HG_003 CAR-003 1996 1 13 1996-01-13 10.5 -64.667 16.092 16.0 23.847 36.916 23.843 25.141 25.142 2.993 1.274
3 93HG_003 CAR-003 1996 1 13 1996-01-13 10.5 -64.667 18.103 18.0 23.813 36.913 23.809 25.149 25.15 2.98 1.314
3 93HG_003 CAR-003 1996 1 13 1996-01-13 10.5 -64.667 20.115 20.0 23.782 36.914 23.778 25.159 25.16 2.955 1.406
3 93HG_003 CAR-003 1996 1 13 1996-01-13 10.5 -64.667 22.127 22.0 23.757 36.914 23.753 25.166 25.168 2.936 1.449
3 93HG_003 CAR-003 1996 1 13 1996-01-13 10.5 -64.667 24.138 24.0 23.744 36.913 23.739 25.17 25.171 2.754 1.289
3 93HG_003 CAR-003 1996 1 13 1996-01-13 10.5 -64.667 26.15 26.0 23.739 36.913 23.733 25.172 25.173 2.576 1.281
3 93HG_003 CAR-003 1996 1 13 1996-01-13 10.5 -64.667 28.162 28.0 23.733 36.913 23.727 25.174 25.175 2.547 1.14
3 93HG_003 CAR-003 1996 1 13 1996-01-13 10.5 -64.667 30.173 30.0 23.725 36.911 23.719 25.174 25.176 2.528 1.069
3 93HG_003 CAR-003 1996 1 13 1996-01-13 10.5 -64.667 32.185 32.0 23.716 36.911 23.71 25.177 25.179 2.492 1.104
3 93HG_003 CAR-003 1996 1 13 1996-01-13 10.5 -64.667 34.197 34.0 23.62 36.889 23.613 25.189 25.191 2.454 1.03
3 93HG_003 CAR-003 1996 1 13 1996-01-13 10.5 -64.667 36.208 36.0 23.468 36.897 23.461 25.24 25.242 2.451 0.57
3 93HG_003 CAR-003 1996 1 13 1996-01-13 10.5 -64.667 38.22 38.0 23.342 36.89 23.334 25.272 25.274 2.464 0.252
3 93HG_003 CAR-003 1996 1 13 1996-01-13 10.5 -64.667 40.232 40.0 23.204 36.895 23.196 25.316 25.319 2.464 0.212
3 93HG_003 CAR-003 1996 1 13 1996-01-13 10.5 -64.667 42.244 42.0 23.102 36.888 23.094 25.341 25.343 2.461 0.175
3 93HG_003 CAR-003 1996 1 13 1996-01-13 10.5 -64.667 44.256 44.0 22.945 36.896 22.936 25.393 25.395 2.456 0.153
3 93HG_003 CAR-003 1996 1 13 1996-01-13 10.5 -64.667 46.267 46.0 22.87 36.891 22.861 25.41 25.413 2.462 0.15
3 93HG_003 CAR-003 1996 1 13 1996-01-13 10.5 -64.667 48.279 48.0 22.806 36.887 22.796 25.426 25.429 2.456 0.138
3 93HG_003 CAR-003 1996 1 13 1996-01-13 10.5 -64.667 50.291 50.0 22.742 36.891 22.732 25.448 25.451 2.433 0.134
3 93HG_003 CAR-003 1996 1 13 1996-01-13 10.5 -64.667 52.303 52.0 22.578 36.885 22.567 25.491 25.494 2.423 0.132
3 93HG_003 CAR-003 1996 1 13 1996-01-13 10.5 -64.667 54.315 54.0 22.419 36.886 22.408 25.537 25.54 2.414 0.121
3 93HG_003 CAR-003 1996 1 13 1996-01-13 10.5 -64.667 56.327 56.0 22.363 36.884 22.352 25.552 25.555 2.413 0.11
3 93HG_003 CAR-003 1996 1 13 1996-01-13 10.5 -64.667 58.339 58.0 22.247 36.884 22.235 25.585 25.588 2.401 0.118
3 93HG_003 CAR-003 1996 1 13 1996-01-13 10.5 -64.667 60.351 60.0 22.128 36.88 22.116 25.616 25.619 2.395 0.097
3 93HG_003 CAR-003 1996 1 13 1996-01-13 10.5 -64.667 62.363 62.0 22.016 36.869 22.003 25.639 25.643 2.399 0.083
3 93HG_003 CAR-003 1996 1 13 1996-01-13 10.5 -64.667 64.375 64.0 21.951 36.862 21.938 25.653 25.656 2.393 0.08
3 93HG_003 CAR-003 1996 1 13 1996-01-13 10.5 -64.667 66.387 66.0 21.856 36.862 21.843 25.679 25.683 2.385 0.081
3 93HG_003 CAR-003 1996 1 13 1996-01-13 10.5 -64.667 68.399 68.0 21.728 36.849 21.714 25.706 25.709 2.381 0.081
3 93HG_003 CAR-003 1996 1 13 1996-01-13 10.5 -64.667 70.411 70.0 21.67 36.842 21.656 25.716 25.72 2.381 0.072
3 93HG_003 CAR-003 1996 1 13 1996-01-13 10.5 -64.667 72.423 72.0 21.624 36.84 21.61 25.728 25.732 2.368 0.065
3 93HG_003 CAR-003 1996 1 13 1996-01-13 10.5 -64.667 74.435 74.0 21.605 36.839 21.591 25.732 25.736 2.346 0.061
3 93HG_003 CAR-003 1996 1 13 1996-01-13 10.5 -64.667 76.447 76.0 21.576 36.835 21.56 25.738 25.742 2.335 0.061
3 93HG_003 CAR-003 1996 1 13 1996-01-13 10.5 -64.667 78.46 78.0 21.509 36.83 21.494 25.753 25.757 2.318 0.055
3 93HG_003 CAR-003 1996 1 13 1996-01-13 10.5 -64.667 80.472 80.0 21.451 36.83 21.435 25.769 25.773 2.305 0.056
3 93HG_003 CAR-003 1996 1 13 1996-01-13 10.5 -64.667 82.484 82.0 21.449 36.828 21.433 25.768 25.773 2.297 0.053
3 93HG_003 CAR-003 1996 1 13 1996-01-13 10.5 -64.667 84.496 84.0 21.428 36.827 21.411 25.773 25.778 2.278 0.055
3 93HG_003 CAR-003 1996 1 13 1996-01-13 10.5 -64.667 86.508 86.0 21.402 36.824 21.385 25.778 25.783 2.275 0.054
3 93HG_003 CAR-003 1996 1 13 1996-01-13 10.5 -64.667 88.521 88.0 21.39 36.822 21.373 25.78 25.785 2.269 0.051
3 93HG_003 CAR-003 1996 1 13 1996-01-13 10.5 -64.667 90.533 90.0 21.324 36.818 21.306 25.796 25.801 2.263 0.05
3 93HG_003 CAR-003 1996 1 13 1996-01-13 10.5 -64.667 92.545 92.0 21.275 36.815 21.257 25.807 25.812 2.265 0.045
3 93HG_003 CAR-003 1996 1 13 1996-01-13 10.5 -64.667 94.557 94.0 21.238 36.807 21.219 25.811 25.816 2.272 0.046
3 93HG_003 CAR-003 1996 1 13 1996-01-13 10.5 -64.667 96.57 96.0 21.181 36.804 21.163 25.825 25.83 2.265 0.041
3 93HG_003 CAR-003 1996 1 13 1996-01-13 10.5 -64.667 98.582 98.0 21.14 36.799 21.121 25.832 25.838 2.236 0.041
3 93HG_003 CAR-003 1996 1 13 1996-01-13 10.5 -64.667 100.6 100.0 21.067 36.796 21.048 25.85 25.855 2.213 0.041
3 93HG_003 CAR-003 1996 1 13 1996-01-13 10.5 -64.667 102.61 102.0 21.021 36.789 21.001 25.858 25.864 2.226 0.04
3 93HG_003 CAR-003 1996 1 13 1996-01-13 10.5 -64.667 104.62 104.0 20.963 36.786 20.943 25.871 25.877 2.224 0.043
3 93HG_003 CAR-003 1996 1 13 1996-01-13 10.5 -64.667 106.63 106.0 20.931 36.783 20.91 25.879 25.884 2.226 0.039
3 93HG_003 CAR-003 1996 1 13 1996-01-13 10.5 -64.667 108.64 108.0 20.924 36.779 20.903 25.877 25.883 2.214 0.041
3 93HG_003 CAR-003 1996 1 13 1996-01-13 10.5 -64.667 110.66 110.0 20.896 36.78 20.875 25.885 25.891 2.214
3 93HG_003 CAR-003 1996 1 13 1996-01-13 10.5 -64.667 112.67 112.0 20.842 36.774 20.82 25.896 25.902 2.173
3 93HG_003 CAR-003 1996 1 13 1996-01-13 10.5 -64.667 114.68 114.0 20.711 36.759 20.689 25.92 25.926 2.186
3 93HG_003 CAR-003 1996 1 13 1996-01-13 10.5 -64.667 116.69 116.0 20.612 36.753 20.59 25.942 25.948 2.159
3 93HG_003 CAR-003 1996 1 13 1996-01-13 10.5 -64.667 118.71 118.0 20.541 36.736 20.518 25.949 25.955 2.159
3 93HG_003 CAR-003 1996 1 13 1996-01-13 10.5 -64.667 120.72 120.0 20.496 36.725 20.473 25.953 25.96 2.156
3 93HG_003 CAR-003 1996 1 13 1996-01-13 10.5 -64.667 122.73 122.0 20.345 36.713 20.321 25.985 25.991 2.156
3 93HG_003 CAR-003 1996 1 13 1996-01-13 10.5 -64.667 124.75 124.0 20.211 36.7 20.187 26.011 26.017 2.145
3 93HG_003 CAR-003 1996 1 13 1996-01-13 10.5 -64.667 126.76 126.0 20.159 36.694 20.135 26.02 26.026 2.115
3 93HG_003 CAR-003 1996 1 13 1996-01-13 10.5 -64.667 128.77 128.0 20.109 36.69 20.085 26.03 26.037 2.05
3 93HG_003 CAR-003 1996 1 13 1996-01-13 10.5 -64.667 130.78 130.0 20.076 36.684 20.052 26.034 26.041 1.922
3 93HG_003 CAR-003 1996 1 13 1996-01-13 10.5 -64.667 132.79 132.0 20.053 36.668 20.028 26.029 26.035 1.842
3 93HG_003 CAR-003 1996 1 13 1996-01-13 10.5 -64.667 134.81 134.0 20.006 36.668 19.981 26.041 26.048 1.803
3 93HG_003 CAR-003 1996 1 13 1996-01-13 10.5 -64.667 136.82 136.0 19.93 36.664 19.904 26.058 26.065 1.784
3 93HG_003 CAR-003 1996 1 13 1996-01-13 10.5 -64.667 138.83 138.0 19.899 36.654 19.873 26.06 26.067 1.752
3 93HG_003 CAR-003 1996 1 13 1996-01-13 10.5 -64.667 140.85 140.0 19.802 36.655 19.776 26.085 26.092 1.71
3 93HG_003 CAR-003 1996 1 13 1996-01-13 10.5 -64.667 142.86 142.0 19.724 36.648 19.697 26.101 26.108 1.659
3 93HG_003 CAR-003 1996 1 13 1996-01-13 10.5 -64.667 144.87 144.0 19.623 36.642 19.597 26.123 26.13 1.608
3 93HG_003 CAR-003 1996 1 13 1996-01-13 10.5 -64.667 146.88 146.0 19.591 36.628 19.564 26.121 26.128 1.565
3 93HG_003 CAR-003 1996 1 13 1996-01-13 10.5 -64.667 148.9 148.0 19.566 36.627 19.539 26.127 26.133 1.524
3 93HG_003 CAR-003 1996 1 13 1996-01-13 10.5 -64.667 150.91 150.0 19.496 36.615 19.468 26.136 26.143 1.498
3 93HG_003 CAR-003 1996 1 13 1996-01-13 10.5 -64.667 152.92 152.0 19.384 36.603 19.357 26.157 26.164 1.466
3 93HG_003 CAR-003 1996 1 13 1996-01-13 10.5 -64.667 154.94 154.0 19.263 36.605 19.235 26.188 26.195 1.424
3 93HG_003 CAR-003 1996 1 13 1996-01-13 10.5 -64.667 156.95 156.0 19.196 36.578 19.167 26.193 26.2 1.444
3 93HG_003 CAR-003 1996 1 13 1996-01-13 10.5 -64.667 158.96 158.0 19.118 36.587 19.089 26.206 26.214 1.47
3 93HG_003 CAR-003 1996 1 13 1996-01-13 10.5 -64.667 160.97 160.0 19.105 36.558 19.076 26.194 26.202 1.468
3 93HG_003 CAR-003 1996 1 13 1996-01-13 10.5 -64.667 162.99 162.0 19.085 36.556 19.056 26.198 26.205 1.423
3 93HG_003 CAR-003 1996 1 13 1996-01-13 10.5 -64.667 165.0 164.0 19.031 36.532 19.002 26.194 26.202 1.286
3 93HG_003 CAR-003 1996 1 13 1996-01-13 10.5 -64.667 167.01 166.0 18.897 36.515 18.863 26.224 26.232 1.168
3 93HG_003 CAR-003 1996 1 13 1996-01-13 10.5 -64.667 169.03 168.0 18.789 36.526 18.759 26.248 26.256 1.092
3 93HG_003 CAR-003 1996 1 13 1996-01-13 10.5 -64.667 171.04 170.0 18.76 36.517 18.729 26.252 26.26 1.023
3 93HG_003 CAR-003 1996 1 13 1996-01-13 10.5 -64.667 173.05 172.0 18.736 36.522 18.705 26.256 26.264 0.944
3 93HG_003 CAR-003 1996 1 13 1996-01-13 10.5 -64.667 175.07 174.0 18.701 36.49 18.67 26.25 26.258 0.885
3 93HG_003 CAR-003 1996 1 13 1996-01-13 10.5 -64.667 177.08 176.0 18.635 36.495 18.604 26.263 26.271 0.832
3 93HG_003 CAR-003 1996 1 13 1996-01-13 10.5 -64.667 179.09 178.0 18.577 36.483 18.546 26.272 26.28 0.792
3 93HG_003 CAR-003 1996 1 13 1996-01-13 10.5 -64.667 181.1 180.0 18.486 36.464 18.454 26.281 26.289 0.758
3 93HG_003 CAR-003 1996 1 13 1996-01-13 10.5 -64.667 183.12 182.0 18.41 36.459 18.378 26.297 26.305 0.717
3 93HG_003 CAR-003 1996 1 13 1996-01-13 10.5 -64.667 185.13 184.0 18.347 36.446 18.314 26.302 26.311 0.686
3 93HG_003 CAR-003 1996 1 13 1996-01-13 10.5 -64.667 187.15 186.0 18.296 36.446 18.263 26.315 26.324 0.652
3 93HG_003 CAR-003 1996 1 13 1996-01-13 10.5 -64.667 189.16 188.0 18.263 36.438 18.23 26.318 26.326 0.618
3 93HG_003 CAR-003 1996 1 13 1996-01-13 10.5 -64.667 191.17 190.0 18.239 36.435 18.206 26.321 26.33 0.583
3 93HG_003 CAR-003 1996 1 13 1996-01-13 10.5 -64.667 193.19 192.0 18.224 36.431 18.19 26.322 26.331 0.544
3 93HG_003 CAR-003 1996 1 13 1996-01-13 10.5 -64.667 195.2 194.0 18.208 36.43 18.174 26.326 26.334 0.526
3 93HG_003 CAR-003 1996 1 13 1996-01-13 10.5 -64.667 197.21 196.0 18.198 36.427 18.164 26.326 26.335 0.501
3 93HG_003 CAR-003 1996 1 13 1996-01-13 10.5 -64.667 199.22 198.0 18.185 36.428 18.15 26.329 26.338 0.473
3 93HG_003 CAR-003 1996 1 13 1996-01-13 10.5 -64.667 201.24 200.0 18.158 36.423 18.123 26.333 26.342 0.446
3 93HG_003 CAR-003 1996 1 13 1996-01-13 10.5 -64.667 203.25 202.0 18.137 36.419 18.102 26.335 26.344 0.412
3 93HG_003 CAR-003 1996 1 13 1996-01-13 10.5 -64.667 205.26 204.0 18.11 36.417 18.074 26.341 26.35 0.386
3 93HG_003 CAR-003 1996 1 13 1996-01-13 10.5 -64.667 207.28 206.0 18.102 36.416 18.066 26.343 26.351 0.357
3 93HG_003 CAR-003 1996 1 13 1996-01-13 10.5 -64.667 209.29 208.0 18.094 36.416 18.057 26.344 26.353 0.331
3 93HG_003 CAR-003 1996 1 13 1996-01-13 10.5 -64.667 211.31 210.0 18.076 36.414 18.039 26.347 26.356 0.311
3 93HG_003 CAR-003 1996 1 13 1996-01-13 10.5 -64.667 213.32 212.0 18.057 36.411 18.02 26.349 26.359 0.293
3 93HG_003 CAR-003 1996 1 13 1996-01-13 10.5 -64.667 215.33 214.0 18.046 36.408 18.008 26.35 26.359 0.281
3 93HG_003 CAR-003 1996 1 13 1996-01-13 10.5 -64.667 217.35 216.0 18.033 36.406 17.995 26.352 26.362 0.271
3 93HG_003 CAR-003 1996 1 13 1996-01-13 10.5 -64.667 219.36 218.0 18.02 36.407 17.981 26.355 26.365 0.256
3 93HG_003 CAR-003 1996 1 13 1996-01-13 10.5 -64.667 221.37 220.0 18.009 36.405 17.971 26.357 26.367 0.246
3 93HG_003 CAR-003 1996 1 13 1996-01-13 10.5 -64.667 223.39 222.0 17.993 36.404 17.954 26.36 26.37 0.23
3 93HG_003 CAR-003 1996 1 13 1996-01-13 10.5 -64.667 225.4 224.0 17.982 36.401 17.943 26.362 26.371 0.22
3 93HG_003 CAR-003 1996 1 13 1996-01-13 10.5 -64.667 227.41 226.0 17.979 36.4 17.94 26.361 26.371 0.209
3 93HG_003 CAR-003 1996 1 13 1996-01-13 10.5 -64.667 229.43 228.0 17.975 36.399 17.935 26.361 26.371 0.199
3 93HG_003 CAR-003 1996 1 13 1996-01-13 10.5 -64.667 231.44 230.0 17.964 36.397 17.923 26.363 26.373 0.187
3 93HG_003 CAR-003 1996 1 13 1996-01-13 10.5 -64.667 233.45 232.0 17.954 36.395 17.913 26.365 26.374 0.178
3 93HG_003 CAR-003 1996 1 13 1996-01-13 10.5 -64.667 235.47 234.0 17.944 36.393 17.903 26.365 26.375 0.169
3 93HG_003 CAR-003 1996 1 13 1996-01-13 10.5 -64.667 237.48 236.0 17.94 36.393 17.899 26.366 26.376 0.161
3 93HG_003 CAR-003 1996 1 13 1996-01-13 10.5 -64.667 239.5 238.0 17.937 36.391 17.896 26.365 26.375 0.151
3 93HG_003 CAR-003 1996 1 13 1996-01-13 10.5 -64.667 241.51 240.0 17.93 36.39 17.889 26.366 26.376 0.144
3 93HG_003 CAR-003 1996 1 13 1996-01-13 10.5 -64.667 243.52 242.0 17.921 36.388 17.879 26.367 26.377 0.134
3 93HG_003 CAR-003 1996 1 13 1996-01-13 10.5 -64.667 245.54 244.0 17.913 36.387 17.87 26.368 26.379 0.124
3 93HG_003 CAR-003 1996 1 13 1996-01-13 10.5 -64.667 247.55 246.0 17.906 36.386 17.863 26.369 26.38 0.114
3 93HG_003 CAR-003 1996 1 13 1996-01-13 10.5 -64.667 249.56 248.0 17.897 36.386 17.854 26.372 26.382 0.106
3 93HG_003 CAR-003 1996 1 13 1996-01-13 10.5 -64.667 251.58 250.0 17.881 36.384 17.837 26.374 26.384 0.099
3 93HG_003 CAR-003 1996 1 13 1996-01-13 10.5 -64.667 253.59 252.0 17.871 36.384 17.827 26.377 26.387 0.094
3 93HG_003 CAR-003 1996 1 13 1996-01-13 10.5 -64.667 255.61 254.0 17.859 36.383 17.815 26.379 26.39 0.09
3 93HG_003 CAR-003 1996 1 13 1996-01-13 10.5 -64.667 257.62 256.0 17.858 36.38 17.814 26.377 26.389 0.084
3 93HG_003 CAR-003 1996 1 13 1996-01-13 10.5 -64.667 259.63 258.0 17.854 36.38 17.809 26.378 26.389 0.078
3 93HG_003 CAR-003 1996 1 13 1996-01-13 10.5 -64.667 261.65 260.0 17.846 36.377 17.801 26.379 26.39 0.069
3 93HG_003 CAR-003 1996 1 13 1996-01-13 10.5 -64.667 263.66 262.0 17.831 36.379 17.785 26.382 26.393 0.066
3 93HG_003 CAR-003 1996 1 13 1996-01-13 10.5 -64.667 265.68 264.0 17.822 36.377 17.776 26.384 26.395 0.06
3 93HG_003 CAR-003 1996 1 13 1996-01-13 10.5 -64.667 267.69 266.0 17.815 36.376 17.769 26.385 26.396 0.054
3 93HG_003 CAR-003 1996 1 13 1996-01-13 10.5 -64.667 269.7 268.0 17.81 36.376 17.764 26.386 26.397 0.046
3 93HG_003 CAR-003 1996 1 13 1996-01-13 10.5 -64.667 271.72 270.0 17.801 36.375 17.754 26.388 26.399 0.04
3 93HG_003 CAR-003 1996 1 13 1996-01-13 10.5 -64.667 273.73 272.0 17.791 36.374 17.744 26.389 26.401 0.036
3 93HG_003 CAR-003 1996 1 13 1996-01-13 10.5 -64.667 275.75 274.0 17.784 36.372 17.736 26.39 26.401 0.032
3 93HG_003 CAR-003 1996 1 13 1996-01-13 10.5 -64.667 277.76 276.0 17.774 36.37 17.726 26.391 26.402 0.028
3 93HG_003 CAR-003 1996 1 13 1996-01-13 10.5 -64.667 279.77 278.0 17.769 36.369 17.721 26.391 26.403 0.023
3 93HG_003 CAR-003 1996 1 13 1996-01-13 10.5 -64.667 281.79 280.0 17.767 36.367 17.718 26.39 26.402 0.021
3 93HG_003 CAR-003 1996 1 13 1996-01-13 10.5 -64.667 283.8 282.0 17.762 36.367 17.713 26.392 26.404 0.018
3 93HG_003 CAR-003 1996 1 13 1996-01-13 10.5 -64.667 285.82 284.0 17.752 36.365 17.703 26.393 26.405 0.015
3 93HG_003 CAR-003 1996 1 13 1996-01-13 10.5 -64.667 287.83 286.0 17.747 36.365 17.698 26.394 26.406 0.009
3 93HG_003 CAR-003 1996 1 13 1996-01-13 10.5 -64.667 289.85 288.0 17.744 36.364 17.694 26.394 26.406 0.006
3 93HG_003 CAR-003 1996 1 13 1996-01-13 10.5 -64.667 291.86 290.0 17.74 36.363 17.69 26.394 26.407 0.003
3 93HG_003 CAR-003 1996 1 13 1996-01-13 10.5 -64.667 293.87 292.0 17.729 36.363 17.678 26.397 26.409 0.0
3 93HG_003 CAR-003 1996 1 13 1996-01-13 10.5 -64.667 295.89 294.0 17.708 36.362 17.657 26.401 26.414 0.0
3 93HG_003 CAR-003 1996 1 13 1996-01-13 10.5 -64.667 297.9 296.0 17.699 36.361 17.648 26.403 26.416
3 93HG_003 CAR-003 1996 1 13 1996-01-13 10.5 -64.667 299.92 298.0 17.695 36.359 17.644 26.402 26.415
3 93HG_003 CAR-003 1996 1 13 1996-01-13 10.5 -64.667 301.93 300.0 17.69 36.359 17.639 26.404 26.416
3 93HG_003 CAR-003 1996 1 13 1996-01-13 10.5 -64.667 303.94 302.0 17.681 36.357 17.629 26.405 26.418
3 93HG_003 CAR-003 1996 1 13 1996-01-13 10.5 -64.667 305.96 304.0 17.676 36.357 17.624 26.406 26.419
3 93HG_003 CAR-003 1996 1 13 1996-01-13 10.5 -64.667 307.97 306.0 17.674 36.356 17.621 26.406 26.419
3 93HG_003 CAR-003 1996 1 13 1996-01-13 10.5 -64.667 309.99 308.0 17.673 36.355 17.62 26.405 26.418
3 93HG_003 CAR-003 1996 1 13 1996-01-13 10.5 -64.667 312.0 310.0 17.671 36.355 17.617 26.406 26.419
3 93HG_003 CAR-003 1996 1 13 1996-01-13 10.5 -64.667 314.02 312.0 17.666 36.353 17.613 26.406 26.419
3 93HG_003 CAR-003 1996 1 13 1996-01-13 10.5 -64.667 316.03 314.0 17.661 36.351 17.607 26.405 26.419
3 93HG_003 CAR-003 1996 1 13 1996-01-13 10.5 -64.667 318.05 316.0 17.649 36.351 17.594 26.409 26.422
3 93HG_003 CAR-003 1996 1 13 1996-01-13 10.5 -64.667 320.06 318.0 17.641 36.35 17.586 26.41 26.423
3 93HG_003 CAR-003 1996 1 13 1996-01-13 10.5 -64.667 322.07 320.0 17.637 36.349 17.581 26.41 26.424
3 93HG_003 CAR-003 1996 1 13 1996-01-13 10.5 -64.667 324.09 322.0 17.628 36.349 17.574 26.412 26.426
3 93HG_003 CAR-003 1996 1 13 1996-01-13 10.5 -64.667 326.1 324.0 17.626 36.346 17.57 26.411 26.424
3 93HG_003 CAR-003 1996 1 13 1996-01-13 10.5 -64.667 328.12 326.0 17.623 36.346 17.567 26.411 26.425
3 93HG_003 CAR-003 1996 1 13 1996-01-13 10.5 -64.667 330.13 328.0 17.611 36.345 17.554 26.414 26.427
3 93HG_003 CAR-003 1996 1 13 1996-01-13 10.5 -64.667 332.15 330.0 17.595 36.343 17.538 26.416 26.43
3 93HG_003 CAR-003 1996 1 13 1996-01-13 10.5 -64.667 334.16 332.0 17.586 36.342 17.529 26.418 26.431
3 93HG_003 CAR-003 1996 1 13 1996-01-13 10.5 -64.667 336.18 334.0 17.58 36.34 17.522 26.418 26.432
3 93HG_003 CAR-003 1996 1 13 1996-01-13 10.5 -64.667 338.19 336.0 17.575 36.339 17.517 26.418 26.432
3 93HG_003 CAR-003 1996 1 13 1996-01-13 10.5 -64.667 340.21 338.0 17.57 36.338 17.512 26.419 26.433
3 93HG_003 CAR-003 1996 1 13 1996-01-13 10.5 -64.667 342.22 340.0 17.565 36.337 17.506 26.419 26.434
3 93HG_003 CAR-003 1996 1 13 1996-01-13 10.5 -64.667 344.24 342.0 17.563 36.336 17.505 26.42 26.434
3 93HG_003 CAR-003 1996 1 13 1996-01-13 10.5 -64.667 346.25 344.0 17.561 36.337 17.502 26.42 26.434
3 93HG_003 CAR-003 1996 1 13 1996-01-13 10.5 -64.667 348.27 346.0 17.559 36.335 17.499 26.42 26.434
3 93HG_003 CAR-003 1996 1 13 1996-01-13 10.5 -64.667 350.28 348.0 17.557 36.331 17.497 26.418 26.432
3 93HG_003 CAR-003 1996 1 13 1996-01-13 10.5 -64.667 352.3 350.0 17.554 36.332 17.494 26.418 26.432
3 93HG_003 CAR-003 1996 1 13 1996-01-13 10.5 -64.667 354.31 352.0 17.548 36.331 17.488 26.419 26.434
3 93HG_003 CAR-003 1996 1 13 1996-01-13 10.5 -64.667 356.32 354.0 17.544 36.331 17.483 26.42 26.435
3 93HG_003 CAR-003 1996 1 13 1996-01-13 10.5 -64.667 358.34 356.0 17.541 36.329 17.48 26.42 26.435
3 93HG_003 CAR-003 1996 1 13 1996-01-13 10.5 -64.667 360.36 358.0 17.539 36.329 17.478 26.42 26.435
3 93HG_003 CAR-003 1996 1 13 1996-01-13 10.5 -64.667 362.37 360.0 17.538 36.328 17.476 26.421 26.436
3 93HG_003 CAR-003 1996 1 13 1996-01-13 10.5 -64.667 364.38 362.0 17.527 36.327 17.464 26.423 26.438
3 93HG_003 CAR-003 1996 1 13 1996-01-13 10.5 -64.667 366.4 364.0 17.524 36.328 17.461 26.423 26.438
3 93HG_003 CAR-003 1996 1 13 1996-01-13 10.5 -64.667 368.41 366.0 17.523 36.326 17.46 26.422 26.438
3 93HG_003 CAR-003 1996 1 13 1996-01-13 10.5 -64.667 370.43 368.0 17.52 36.324 17.456 26.422 26.437
3 93HG_003 CAR-003 1996 1 13 1996-01-13 10.5 -64.667 372.44 370.0 17.516 36.324 17.453 26.422 26.438
3 93HG_003 CAR-003 1996 1 13 1996-01-13 10.5 -64.667 374.46 372.0 17.515 36.322 17.451 26.421 26.437
3 93HG_003 CAR-003 1996 1 13 1996-01-13 10.5 -64.667 376.47 374.0 17.51 36.322 17.446 26.423 26.438
3 93HG_003 CAR-003 1996 1 13 1996-01-13 10.5 -64.667 378.49 376.0 17.506 36.322 17.441 26.424 26.44
3 93HG_003 CAR-003 1996 1 13 1996-01-13 10.5 -64.667 380.51 378.0 17.501 36.321 17.436 26.424 26.44
3 93HG_003 CAR-003 1996 1 13 1996-01-13 10.5 -64.667 382.52 380.0 17.499 36.321 17.433 26.425 26.441
3 93HG_003 CAR-003 1996 1 13 1996-01-13 10.5 -64.667 384.54 382.0 17.498 36.319 17.432 26.424 26.44
3 93HG_003 CAR-003 1996 1 13 1996-01-13 10.5 -64.667 386.55 384.0 17.495 36.319 17.429 26.424 26.44
3 93HG_003 CAR-003 1996 1 13 1996-01-13 10.5 -64.667 388.57 386.0 17.494 36.317 17.427 26.423 26.439
3 93HG_003 CAR-003 1996 1 13 1996-01-13 10.5 -64.667 390.58 388.0 17.491 36.317 17.425 26.424 26.44
3 93HG_003 CAR-003 1996 1 13 1996-01-13 10.5 -64.667 392.6 390.0 17.489 36.317 17.422 26.424 26.441
3 93HG_003 CAR-003 1996 1 13 1996-01-13 10.5 -64.667 394.61 392.0 17.488 36.315 17.42 26.424 26.44
3 93HG_003 CAR-003 1996 1 13 1996-01-13 10.5 -64.667 396.63 394.0 17.483 36.314 17.416 26.424 26.44
3 93HG_003 CAR-003 1996 1 13 1996-01-13 10.5 -64.667 398.64 396.0 17.48 36.312 17.413 26.423 26.439
3 93HG_003 CAR-003 1996 1 13 1996-01-13 10.5 -64.667 400.66 398.0 17.476 36.311 17.407 26.423 26.44
3 93HG_003 CAR-003 1996 1 13 1996-01-13 10.5 -64.667 402.67 400.0 17.465 36.311 17.396 26.426 26.443
3 93HG_003 CAR-003 1996 1 13 1996-01-13 10.5 -64.667 404.69 402.0 17.461 36.309 17.392 26.426 26.443
3 93HG_003 CAR-003 1996 1 13 1996-01-13 10.5 -64.667 406.7 404.0 17.458 36.309 17.389 26.426 26.443
3 93HG_003 CAR-003 1996 1 13 1996-01-13 10.5 -64.667 408.72 406.0 17.454 36.309 17.385 26.427 26.444
3 93HG_003 CAR-003 1996 1 13 1996-01-13 10.5 -64.667 410.73 408.0 17.453 36.308 17.383 26.427 26.444
3 93HG_003 CAR-003 1996 1 13 1996-01-13 10.5 -64.667 412.75 410.0 17.445 36.308 17.375 26.429 26.446
3 93HG_003 CAR-003 1996 1 13 1996-01-13 10.5 -64.667 414.76 412.0 17.441 36.307 17.37 26.429 26.447
3 93HG_003 CAR-003 1996 1 13 1996-01-13 10.5 -64.667 416.78 414.0 17.436 36.306 17.365 26.43 26.447
3 93HG_003 CAR-003 1996 1 13 1996-01-13 10.5 -64.667 418.8 416.0 17.43 36.304 17.36 26.43 26.447
3 93HG_003 CAR-003 1996 1 13 1996-01-13 10.5 -64.667 420.81 418.0 17.427 36.303 17.355 26.43 26.447
3 93HG_003 CAR-003 1996 1 13 1996-01-13 10.5 -64.667 422.83 420.0 17.421 36.301 17.349 26.431 26.448
3 93HG_003 CAR-003 1996 1 13 1996-01-13 10.5 -64.667 424.84 422.0 17.417 36.302 17.345 26.431 26.449
3 93HG_003 CAR-003 1996 1 13 1996-01-13 10.5 -64.667 426.86 424.0 17.414 36.301 17.341 26.432 26.45
3 93HG_003 CAR-003 1996 1 13 1996-01-13 10.5 -64.667 428.87 426.0 17.411 36.301 17.338 26.433 26.45
3 93HG_003 CAR-003 1996 1 13 1996-01-13 10.5 -64.667 430.89 428.0 17.409 36.301 17.336 26.433 26.451
3 93HG_003 CAR-003 1996 1 13 1996-01-13 10.5 -64.667 432.9 430.0 17.406 36.298 17.332 26.432 26.45
3 93HG_003 CAR-003 1996 1 13 1996-01-13 10.5 -64.667 434.92 432.0 17.402 36.298 17.328 26.433 26.451
3 93HG_003 CAR-003 1996 1 13 1996-01-13 10.5 -64.667 436.94 434.0 17.395 36.297 17.321 26.434 26.452
3 93HG_003 CAR-003 1996 1 13 1996-01-13 10.5 -64.667 438.95 436.0 17.392 36.296 17.317 26.434 26.452
3 93HG_003 CAR-003 1996 1 13 1996-01-13 10.5 -64.667 440.97 438.0 17.389 36.295 17.314 26.434 26.452
3 93HG_003 CAR-003 1996 1 13 1996-01-13 10.5 -64.667 442.98 440.0 17.387 36.294 17.311 26.434 26.452
3 93HG_003 CAR-003 1996 1 13 1996-01-13 10.5 -64.667 445.0 442.0 17.386 36.292 17.311 26.432 26.451
3 93HG_003 CAR-003 1996 1 13 1996-01-13 10.5 -64.667 447.01 444.0 17.386 36.292 17.31 26.433 26.451
3 93HG_003 CAR-003 1996 1 13 1996-01-13 10.5 -64.667 449.03 446.0 17.384 36.291 17.308 26.433 26.451
3 93HG_003 CAR-003 1996 1 13 1996-01-13 10.5 -64.667 451.05 448.0 17.382 36.291 17.306 26.433 26.451
3 93HG_003 CAR-003 1996 1 13 1996-01-13 10.5 -64.667 453.06 450.0 17.379 36.29 17.302 26.433 26.451
3 93HG_003 CAR-003 1996 1 13 1996-01-13 10.5 -64.667 455.08 452.0 17.371 36.289 17.294 26.434 26.453
3 93HG_003 CAR-003 1996 1 13 1996-01-13 10.5 -64.667 457.09 454.0 17.366 36.288 17.288 26.435 26.454
3 93HG_003 CAR-003 1996 1 13 1996-01-13 10.5 -64.667 459.11 456.0 17.359 36.287 17.281 26.436 26.455
3 93HG_003 CAR-003 1996 1 13 1996-01-13 10.5 -64.667 461.12 458.0 17.355 36.286 17.277 26.436 26.455
3 93HG_003 CAR-003 1996 1 13 1996-01-13 10.5 -64.667 463.14 460.0 17.349 36.286 17.271 26.437 26.456
3 93HG_003 CAR-003 1996 1 13 1996-01-13 10.5 -64.667 465.16 462.0 17.343 36.284 17.264 26.438 26.457
3 93HG_003 CAR-003 1996 1 13 1996-01-13 10.5 -64.667 467.17 464.0 17.333 36.282 17.253 26.439 26.459
3 93HG_003 CAR-003 1996 1 13 1996-01-13 10.5 -64.667 469.19 466.0 17.329 36.281 17.249 26.439 26.458
3 93HG_003 CAR-003 1996 1 13 1996-01-13 10.5 -64.667 471.2 468.0 17.325 36.28 17.245 26.439 26.458
3 93HG_003 CAR-003 1996 1 13 1996-01-13 10.5 -64.667 473.22 470.0 17.317 36.28 17.237 26.441 26.46
3 93HG_003 CAR-003 1996 1 13 1996-01-13 10.5 -64.667 475.24 472.0 17.309 36.278 17.228 26.442 26.461
3 93HG_003 CAR-003 1996 1 13 1996-01-13 10.5 -64.667 477.25 474.0 17.3 36.277 17.219 26.443 26.463
3 93HG_003 CAR-003 1996 1 13 1996-01-13 10.5 -64.667 479.27 476.0 17.295 36.276 17.214 26.444 26.463
3 93HG_003 CAR-003 1996 1 13 1996-01-13 10.5 -64.667 481.28 478.0 17.288 36.276 17.207 26.445 26.465
3 93HG_003 CAR-003 1996 1 13 1996-01-13 10.5 -64.667 483.3 480.0 17.284 36.275 17.202 26.446 26.466
3 93HG_003 CAR-003 1996 1 13 1996-01-13 10.5 -64.667 485.32 482.0 17.28 36.273 17.198 26.445 26.465
3 93HG_003 CAR-003 1996 1 13 1996-01-13 10.5 -64.667 487.33 484.0 17.276 36.273 17.193 26.446 26.466
3 93HG_003 CAR-003 1996 1 13 1996-01-13 10.5 -64.667 489.35 486.0 17.266 36.273 17.183 26.449 26.469
3 93HG_003 CAR-003 1996 1 13 1996-01-13 10.5 -64.667 491.37 488.0 17.26 36.27 17.177 26.448 26.468
3 93HG_003 CAR-003 1996 1 13 1996-01-13 10.5 -64.667 493.38 490.0 17.259 36.267 17.175 26.446 26.466
3 93HG_003 CAR-003 1996 1 13 1996-01-13 10.5 -64.667 495.4 492.0 17.257 36.267 17.173 26.447 26.467
3 93HG_003 CAR-003 1996 1 13 1996-01-13 10.5 -64.667 497.41 494.0 17.256 36.266 17.172 26.446 26.466
3 93HG_003 CAR-003 1996 1 13 1996-01-13 10.5 -64.667 499.43 496.0 17.256 36.266 17.171 26.446 26.467
3 93HG_003 CAR-003 1996 1 13 1996-01-13 10.5 -64.667 501.45 498.0 17.255 36.265 17.17 26.446 26.466
3 93HG_003 CAR-003 1996 1 13 1996-01-13 10.5 -64.667 503.46 500.0 17.252 36.264 17.167 26.446 26.466
3 93HG_003 CAR-003 1996 1 13 1996-01-13 10.5 -64.667 505.48 502.0 17.241 36.263 17.156 26.448 26.468
3 93HG_003 CAR-003 1996 1 13 1996-01-13 10.5 -64.667 507.5 504.0 17.234 36.263 17.148 26.45 26.47
3 93HG_003 CAR-003 1996 1 13 1996-01-13 10.5 -64.667 509.51 506.0 17.228 36.261 17.142 26.45 26.471
3 93HG_003 CAR-003 1996 1 13 1996-01-13 10.5 -64.667 511.53 508.0 17.225 36.262 17.139 26.451 26.472
3 93HG_003 CAR-003 1996 1 13 1996-01-13 10.5 -64.667 513.54 510.0 17.223 36.261 17.136 26.451 26.472
3 93HG_003 CAR-003 1996 1 13 1996-01-13 10.5 -64.667 515.56 512.0 17.221 36.26 17.134 26.451 26.472
3 93HG_003 CAR-003 1996 1 13 1996-01-13 10.5 -64.667 517.58 514.0 17.22 36.26 17.132 26.451 26.472
3 93HG_003 CAR-003 1996 1 13 1996-01-13 10.5 -64.667 519.59 516.0 17.218 36.259 17.13 26.451 26.472
3 93HG_003 CAR-003 1996 1 13 1996-01-13 10.5 -64.667 521.61 518.0 17.213 36.259 17.125 26.452 26.473
3 93HG_003 CAR-003 1996 1 13 1996-01-13 10.5 -64.667 523.63 520.0 17.209 36.257 17.12 26.452 26.473
3 93HG_003 CAR-003 1996 1 13 1996-01-13 10.5 -64.667 525.64 522.0 17.207 36.256 17.118 26.451 26.473
3 93HG_003 CAR-003 1996 1 13 1996-01-13 10.5 -64.667 527.66 524.0 17.204 36.256 17.114 26.452 26.474
3 93HG_003 CAR-003 1996 1 13 1996-01-13 10.5 -64.667 529.67 526.0 17.201 36.255 17.112 26.452 26.473
3 93HG_003 CAR-003 1996 1 13 1996-01-13 10.5 -64.667 531.69 528.0 17.199 36.254 17.109 26.452 26.474
3 93HG_003 CAR-003 1996 1 13 1996-01-13 10.5 -64.667 533.71 530.0 17.197 36.254 17.107 26.453 26.474
3 93HG_003 CAR-003 1996 1 13 1996-01-13 10.5 -64.667 535.73 532.0 17.194 36.253 17.103 26.453 26.474
3 93HG_003 CAR-003 1996 1 13 1996-01-13 10.5 -64.667 537.74 534.0 17.19 36.253 17.099 26.454 26.476
3 93HG_003 CAR-003 1996 1 13 1996-01-13 10.5 -64.667 539.76 536.0 17.186 36.252 17.095 26.454 26.476
3 93HG_003 CAR-003 1996 1 13 1996-01-13 10.5 -64.667 541.77 538.0 17.182 36.251 17.091 26.454 26.476
3 93HG_003 CAR-003 1996 1 13 1996-01-13 10.5 -64.667 543.79 540.0 17.181 36.251 17.089 26.454 26.477
3 93HG_003 CAR-003 1996 1 13 1996-01-13 10.5 -64.667 545.81 542.0 17.177 36.249 17.085 26.454 26.476
3 93HG_003 CAR-003 1996 1 13 1996-01-13 10.5 -64.667 547.83 544.0 17.175 36.249 17.082 26.455 26.477
3 93HG_003 CAR-003 1996 1 13 1996-01-13 10.5 -64.667 549.84 546.0 17.173 36.248 17.08 26.454 26.477
3 93HG_003 CAR-003 1996 1 13 1996-01-13 10.5 -64.667 551.86 548.0 17.17 36.247 17.077 26.454 26.477
3 93HG_003 CAR-003 1996 1 13 1996-01-13 10.5 -64.667 553.88 550.0 17.168 36.247 17.074 26.455 26.477
3 93HG_003 CAR-003 1996 1 13 1996-01-13 10.5 -64.667 555.89 552.0 17.167 36.247 17.073 26.455 26.478
3 93HG_003 CAR-003 1996 1 13 1996-01-13 10.5 -64.667 557.91 554.0 17.166 36.245 17.072 26.454 26.476
3 93HG_003 CAR-003 1996 1 13 1996-01-13 10.5 -64.667 559.93 556.0 17.163 36.245 17.068 26.455 26.477
3 93HG_003 CAR-003 1996 1 13 1996-01-13 10.5 -64.667 561.94 558.0 17.16 36.245 17.065 26.456 26.478
3 93HG_003 CAR-003 1996 1 13 1996-01-13 10.5 -64.667 563.96 560.0 17.158 36.244 17.063 26.456 26.479
3 93HG_003 CAR-003 1996 1 13 1996-01-13 10.5 -64.667 565.98 562.0 17.153 36.245 17.058 26.456 26.479
3 93HG_003 CAR-003 1996 1 13 1996-01-13 10.5 -64.667 567.99 564.0 17.151 36.244 17.055 26.457 26.48
3 93HG_003 CAR-003 1996 1 13 1996-01-13 10.5 -64.667 570.01 566.0 17.15 36.244 17.053 26.458 26.481
3 93HG_003 CAR-003 1996 1 13 1996-01-13 10.5 -64.667 572.03 568.0 17.148 36.243 17.051 26.458 26.481
3 93HG_003 CAR-003 1996 1 13 1996-01-13 10.5 -64.667 574.04 570.0 17.145 36.243 17.048 26.459 26.482
3 93HG_003 CAR-003 1996 1 13 1996-01-13 10.5 -64.667 576.06 572.0 17.143 36.242 17.046 26.458 26.481
3 93HG_003 CAR-003 1996 1 13 1996-01-13 10.5 -64.667 578.08 574.0 17.14 36.242 17.043 26.459 26.482
3 93HG_003 CAR-003 1996 1 13 1996-01-13 10.5 -64.667 580.1 576.0 17.136 36.241 17.038 26.459 26.482
3 93HG_003 CAR-003 1996 1 13 1996-01-13 10.5 -64.667 582.11 578.0 17.133 36.241 17.035 26.46 26.483
3 93HG_003 CAR-003 1996 1 13 1996-01-13 10.5 -64.667 584.13 580.0 17.131 36.241 17.032 26.46 26.484
3 93HG_003 CAR-003 1996 1 13 1996-01-13 10.5 -64.667 586.15 582.0 17.13 36.241 17.031 26.461 26.485
3 93HG_003 CAR-003 1996 1 13 1996-01-13 10.5 -64.667 588.16 584.0 17.127 36.241 17.028 26.461 26.485
3 93HG_003 CAR-003 1996 1 13 1996-01-13 10.5 -64.667 590.18 586.0 17.125 36.24 17.025 26.461 26.485
3 93HG_003 CAR-003 1996 1 13 1996-01-13 10.5 -64.667 592.2 588.0 17.123 36.24 17.023 26.462 26.486
3 93HG_003 CAR-003 1996 1 13 1996-01-13 10.5 -64.667 594.22 590.0 17.122 36.24 17.022 26.462 26.486
3 93HG_003 CAR-003 1996 1 13 1996-01-13 10.5 -64.667 596.23 592.0 17.119 36.24 17.019 26.463 26.487
3 93HG_003 CAR-003 1996 1 13 1996-01-13 10.5 -64.667 598.25 594.0 17.117 36.24 17.016 26.464 26.488
3 93HG_003 CAR-003 1996 1 13 1996-01-13 10.5 -64.667 600.27 596.0 17.116 36.239 17.015 26.463 26.487
3 93HG_003 CAR-003 1996 1 13 1996-01-13 10.5 -64.667 602.28 598.0 17.116 36.239 17.014 26.463 26.488
3 93HG_003 CAR-003 1996 1 13 1996-01-13 10.5 -64.667 604.3 600.0 17.113 36.239 17.011 26.464 26.488
3 93HG_003 CAR-003 1996 1 13 1996-01-13 10.5 -64.667 606.32 602.0 17.111 36.239 17.009 26.465 26.489
3 93HG_003 CAR-003 1996 1 13 1996-01-13 10.5 -64.667 608.34 604.0 17.111 36.239 17.008 26.465 26.489
3 93HG_003 CAR-003 1996 1 13 1996-01-13 10.5 -64.667 610.35 606.0 17.111 36.237 17.008 26.463 26.488
3 93HG_003 CAR-003 1996 1 13 1996-01-13 10.5 -64.667 612.37 608.0 17.11 36.237 17.006 26.464 26.488
3 93HG_003 CAR-003 1996 1 13 1996-01-13 10.5 -64.667 614.39 610.0 17.109 36.237 17.005 26.464 26.489
3 93HG_003 CAR-003 1996 1 13 1996-01-13 10.5 -64.667 616.4 612.0 17.107 36.236 17.003 26.465 26.489
3 93HG_003 CAR-003 1996 1 13 1996-01-13 10.5 -64.667 618.42 614.0 17.105 36.237 17.0 26.464 26.489
3 93HG_003 CAR-003 1996 1 13 1996-01-13 10.5 -64.667 620.44 616.0 17.102 36.236 16.998 26.465 26.49
3 93HG_003 CAR-003 1996 1 13 1996-01-13 10.5 -64.667 622.46 618.0 17.102 36.236 16.997 26.465 26.49
3 93HG_003 CAR-003 1996 1 13 1996-01-13 10.5 -64.667 624.47 620.0 17.101 36.235 16.996 26.465 26.49
3 93HG_003 CAR-003 1996 1 13 1996-01-13 10.5 -64.667 626.49 622.0 17.1 36.235 16.994 26.465 26.49
3 93HG_003 CAR-003 1996 1 13 1996-01-13 10.5 -64.667 628.51 624.0 17.097 36.234 16.991 26.465 26.49
3 93HG_003 CAR-003 1996 1 13 1996-01-13 10.5 -64.667 630.53 626.0 17.097 36.234 16.99 26.465 26.491
3 93HG_003 CAR-003 1996 1 13 1996-01-13 10.5 -64.667 632.54 628.0 17.097 36.233 16.99 26.465 26.491
3 93HG_003 CAR-003 1996 1 13 1996-01-13 10.5 -64.667 634.56 630.0 17.097 36.234 16.99 26.465 26.491
3 93HG_003 CAR-003 1996 1 13 1996-01-13 10.5 -64.667 636.58 632.0 17.096 36.234 16.989 26.465 26.491
3 93HG_003 CAR-003 1996 1 13 1996-01-13 10.5 -64.667 638.6 634.0 17.096 36.233 16.988 26.466 26.492
3 93HG_003 CAR-003 1996 1 13 1996-01-13 10.5 -64.667 640.62 636.0 17.095 36.233 16.987 26.465 26.491
3 93HG_003 CAR-003 1996 1 13 1996-01-13 10.5 -64.667 642.63 638.0 17.093 36.234 16.985 26.466 26.492
3 93HG_003 CAR-003 1996 1 13 1996-01-13 10.5 -64.667 644.65 640.0 17.092 36.233 16.983 26.466 26.492
3 93HG_003 CAR-003 1996 1 13 1996-01-13 10.5 -64.667 646.67 642.0 17.093 36.232 16.983 26.466 26.492
3 93HG_003 CAR-003 1996 1 13 1996-01-13 10.5 -64.667 648.68 644.0 17.09 36.233 16.981 26.467 26.493
3 93HG_003 CAR-003 1996 1 13 1996-01-13 10.5 -64.667 650.7 646.0 17.089 36.232 16.979 26.467 26.493
3 93HG_003 CAR-003 1996 1 13 1996-01-13 10.5 -64.667 652.72 648.0 17.087 36.233 16.977 26.468 26.494
3 93HG_003 CAR-003 1996 1 13 1996-01-13 10.5 -64.667 654.74 650.0 17.085 36.233 16.975 26.467 26.494
3 93HG_003 CAR-003 1996 1 13 1996-01-13 10.5 -64.667 656.76 652.0 17.084 36.232 16.973 26.468 26.494
3 93HG_003 CAR-003 1996 1 13 1996-01-13 10.5 -64.667 658.77 654.0 17.083 36.232 16.972 26.468 26.495
3 93HG_003 CAR-003 1996 1 13 1996-01-13 10.5 -64.667 660.79 656.0 17.083 36.232 16.971 26.468 26.495
3 93HG_003 CAR-003 1996 1 13 1996-01-13 10.5 -64.667 662.81 658.0 17.082 36.233 16.97 26.468 26.495
3 93HG_003 CAR-003 1996 1 13 1996-01-13 10.5 -64.667 664.83 660.0 17.081 36.232 16.969 26.469 26.495
3 93HG_003 CAR-003 1996 1 13 1996-01-13 10.5 -64.667 666.85 662.0 17.08 36.232 16.967 26.469 26.496
3 93HG_003 CAR-003 1996 1 13 1996-01-13 10.5 -64.667 668.86 664.0 17.081 36.231 16.968 26.468 26.495
3 93HG_003 CAR-003 1996 1 13 1996-01-13 10.5 -64.667 670.88 666.0 17.081 36.231 16.967 26.468 26.495
3 93HG_003 CAR-003 1996 1 13 1996-01-13 10.5 -64.667 672.9 668.0 17.081 36.231 16.967 26.468 26.495
3 93HG_003 CAR-003 1996 1 13 1996-01-13 10.5 -64.667 674.92 670.0 17.081 36.23 16.967 26.468 26.495
3 93HG_003 CAR-003 1996 1 13 1996-01-13 10.5 -64.667 676.93 672.0 17.081 36.23 16.966 26.468 26.495
3 93HG_003 CAR-003 1996 1 13 1996-01-13 10.5 -64.667 678.95 674.0 17.081 36.23 16.966 26.468 26.495
3 93HG_003 CAR-003 1996 1 13 1996-01-13 10.5 -64.667 680.97 676.0 17.079 36.23 16.964 26.468 26.496
3 93HG_003 CAR-003 1996 1 13 1996-01-13 10.5 -64.667 682.99 678.0 17.078 36.23 16.963 26.469 26.496
3 93HG_003 CAR-003 1996 1 13 1996-01-13 10.5 -64.667 685.01 680.0 17.078 36.23 16.962 26.469 26.496
3 93HG_003 CAR-003 1996 1 13 1996-01-13 10.5 -64.667 687.02 682.0 17.078 36.23 16.962 26.469 26.496
3 93HG_003 CAR-003 1996 1 13 1996-01-13 10.5 -64.667 689.04 684.0 17.077 36.229 16.961 26.469 26.497
3 93HG_003 CAR-003 1996 1 13 1996-01-13 10.5 -64.667 691.06 686.0 17.077 36.23 16.961 26.469 26.497
3 93HG_003 CAR-003 1996 1 13 1996-01-13 10.5 -64.667 693.08 688.0 17.076 36.23 16.959 26.47 26.497
3 93HG_003 CAR-003 1996 1 13 1996-01-13 10.5 -64.667 695.1 690.0 17.075 36.23 16.958 26.47 26.498
3 93HG_003 CAR-003 1996 1 13 1996-01-13 10.5 -64.667 697.12 692.0 17.074 36.229 16.957 26.469 26.497
3 93HG_003 CAR-003 1996 1 13 1996-01-13 10.5 -64.667 699.13 694.0 17.074 36.229 16.956 26.47 26.498
3 93HG_003 CAR-003 1996 1 13 1996-01-13 10.5 -64.667 701.15 696.0 17.074 36.23 16.956 26.47 26.498
3 93HG_003 CAR-003 1996 1 13 1996-01-13 10.5 -64.667 703.17 698.0 17.073 36.229 16.955 26.47 26.498
3 93HG_003 CAR-003 1996 1 13 1996-01-13 10.5 -64.667 705.19 700.0 17.073 36.228 16.954 26.469 26.498
3 93HG_003 CAR-003 1996 1 13 1996-01-13 10.5 -64.667 707.21 702.0 17.073 36.228 16.954 26.469 26.498
3 93HG_003 CAR-003 1996 1 13 1996-01-13 10.5 -64.667 709.23 704.0 17.073 36.228 16.953 26.47 26.498
3 93HG_003 CAR-003 1996 1 13 1996-01-13 10.5 -64.667 711.24 706.0 17.072 36.228 16.952 26.47 26.498
3 93HG_003 CAR-003 1996 1 13 1996-01-13 10.5 -64.667 713.26 708.0 17.073 36.228 16.952 26.47 26.498
3 93HG_003 CAR-003 1996 1 13 1996-01-13 10.5 -64.667 715.28 710.0 17.073 36.228 16.952 26.47 26.498
3 93HG_003 CAR-003 1996 1 13 1996-01-13 10.5 -64.667 717.3 712.0 17.072 36.228 16.95 26.47 26.499
3 93HG_003 CAR-003 1996 1 13 1996-01-13 10.5 -64.667 719.32 714.0 17.071 36.228 16.949 26.471 26.499
3 93HG_003 CAR-003 1996 1 13 1996-01-13 10.5 -64.667 721.34 716.0 17.07 36.228 16.948 26.471 26.5
3 93HG_003 CAR-003 1996 1 13 1996-01-13 10.5 -64.667 723.35 718.0 17.069 36.228 16.946 26.471 26.5
3 93HG_003 CAR-003 1996 1 13 1996-01-13 10.5 -64.667 725.37 720.0 17.068 36.228 16.946 26.471 26.5
3 93HG_003 CAR-003 1996 1 13 1996-01-13 10.5 -64.667 727.39 722.0 17.068 36.228 16.945 26.471 26.501
3 93HG_003 CAR-003 1996 1 13 1996-01-13 10.5 -64.667 729.41 724.0 17.068 36.227 16.945 26.471 26.5
3 93HG_003 CAR-003 1996 1 13 1996-01-13 10.5 -64.667 731.43 726.0 17.069 36.227 16.945 26.471 26.5
3 93HG_003 CAR-003 1996 1 13 1996-01-13 10.5 -64.667 733.45 728.0 17.069 36.227 16.945 26.471 26.5
3 93HG_003 CAR-003 1996 1 13 1996-01-13 10.5 -64.667 735.46 730.0 17.069 36.227 16.945 26.471 26.5
3 93HG_003 CAR-003 1996 1 13 1996-01-13 10.5 -64.667 737.48 732.0 17.07 36.227 16.945 26.471 26.5
3 93HG_003 CAR-003 1996 1 13 1996-01-13 10.5 -64.667 739.5 734.0 17.07 36.227 16.945 26.471 26.5
3 93HG_003 CAR-003 1996 1 13 1996-01-13 10.5 -64.667 741.52 736.0 17.07 36.226 16.945 26.471 26.5
3 93HG_003 CAR-003 1996 1 13 1996-01-13 10.5 -64.667 743.54 738.0 17.071 36.226 16.945 26.47 26.5
3 93HG_003 CAR-003 1996 1 13 1996-01-13 10.5 -64.667 745.56 740.0 17.071 36.226 16.945 26.47 26.5
3 93HG_003 CAR-003 1996 1 13 1996-01-13 10.5 -64.667 747.58 742.0 17.072 36.227 16.945 26.47 26.5
3 93HG_003 CAR-003 1996 1 13 1996-01-13 10.5 -64.667 749.59 744.0 17.073 36.226 16.946 26.47 26.5
3 93HG_003 CAR-003 1996 1 13 1996-01-13 10.5 -64.667 751.61 746.0 17.073 36.226 16.945 26.47 26.5
3 93HG_003 CAR-003 1996 1 13 1996-01-13 10.5 -64.667 753.63 748.0 17.073 36.226 16.945 26.47 26.5
3 93HG_003 CAR-003 1996 1 13 1996-01-13 10.5 -64.667 755.65 750.0 17.071 36.225 16.943 26.47 26.501
3 93HG_003 CAR-003 1996 1 13 1996-01-13 10.5 -64.667 757.67 752.0 17.072 36.225 16.943 26.47 26.5
3 93HG_003 CAR-003 1996 1 13 1996-01-13 10.5 -64.667 759.69 754.0 17.071 36.225 16.942 26.47 26.5
3 93HG_003 CAR-003 1996 1 13 1996-01-13 10.5 -64.667 761.71 756.0 17.071 36.226 16.942 26.47 26.5
3 93HG_003 CAR-003 1996 1 13 1996-01-13 10.5 -64.667 763.73 758.0 17.07 36.225 16.941 26.47 26.501
3 93HG_003 CAR-003 1996 1 13 1996-01-13 10.5 -64.667 765.74 760.0 17.07 36.225 16.94 26.47 26.501
3 93HG_003 CAR-003 1996 1 13 1996-01-13 10.5 -64.667 767.76 762.0 17.069 36.224 16.939 26.47 26.501
3 93HG_003 CAR-003 1996 1 13 1996-01-13 10.5 -64.667 769.78 764.0 17.069 36.224 16.938 26.47 26.501
3 93HG_003 CAR-003 1996 1 13 1996-01-13 10.5 -64.667 771.8 766.0 17.069 36.224 16.938 26.47 26.501
3 93HG_003 CAR-003 1996 1 13 1996-01-13 10.5 -64.667 773.82 768.0 17.068 36.224 16.937 26.47 26.501
3 93HG_003 CAR-003 1996 1 13 1996-01-13 10.5 -64.667 775.84 770.0 17.068 36.224 16.936 26.47 26.501
3 93HG_003 CAR-003 1996 1 13 1996-01-13 10.5 -64.667 777.86 772.0 17.067 36.223 16.936 26.471 26.502
3 93HG_003 CAR-003 1996 1 13 1996-01-13 10.5 -64.667 779.88 774.0 17.068 36.223 16.936 26.471 26.502
3 93HG_003 CAR-003 1996 1 13 1996-01-13 10.5 -64.667 781.89 776.0 17.067 36.223 16.935 26.47 26.501
3 93HG_003 CAR-003 1996 1 13 1996-01-13 10.5 -64.667 783.91 778.0 17.068 36.224 16.935 26.47 26.502
3 93HG_003 CAR-003 1996 1 13 1996-01-13 10.5 -64.667 785.93 780.0 17.068 36.223 16.935 26.47 26.502
3 93HG_003 CAR-003 1996 1 13 1996-01-13 10.5 -64.667 787.95 782.0 17.068 36.223 16.935 26.47 26.502
3 93HG_003 CAR-003 1996 1 13 1996-01-13 10.5 -64.667 789.97 784.0 17.069 36.223 16.935 26.47 26.502
3 93HG_003 CAR-003 1996 1 13 1996-01-13 10.5 -64.667 791.99 786.0 17.068 36.223 16.934 26.47 26.502
3 93HG_003 CAR-003 1996 1 13 1996-01-13 10.5 -64.667 794.01 788.0 17.068 36.223 16.933 26.471 26.502
3 93HG_003 CAR-003 1996 1 13 1996-01-13 10.5 -64.667 796.03 790.0 17.068 36.223 16.933 26.471 26.502
3 93HG_003 CAR-003 1996 1 13 1996-01-13 10.5 -64.667 798.05 792.0 17.068 36.222 16.933 26.471 26.502
3 93HG_003 CAR-003 1996 1 13 1996-01-13 10.5 -64.667 800.07 794.0 17.068 36.222 16.933 26.47 26.502
3 93HG_003 CAR-003 1996 1 13 1996-01-13 10.5 -64.667 802.09 796.0 17.068 36.222 16.933 26.47 26.502
3 93HG_003 CAR-003 1996 1 13 1996-01-13 10.5 -64.667 804.11 798.0 17.069 36.222 16.932 26.47 26.502
3 93HG_003 CAR-003 1996 1 13 1996-01-13 10.5 -64.667 806.12 800.0 17.069 36.222 16.932 26.47 26.502
3 93HG_003 CAR-003 1996 1 13 1996-01-13 10.5 -64.667 808.14 802.0 17.069 36.222 16.932 26.47 26.502
3 93HG_003 CAR-003 1996 1 13 1996-01-13 10.5 -64.667 810.16 804.0 17.068 36.222 16.931 26.47 26.503
3 93HG_003 CAR-003 1996 1 13 1996-01-13 10.5 -64.667 812.18 806.0 17.067 36.222 16.929 26.471 26.503
3 93HG_003 CAR-003 1996 1 13 1996-01-13 10.5 -64.667 814.2 808.0 17.067 36.222 16.929 26.471 26.503
3 93HG_003 CAR-003 1996 1 13 1996-01-13 10.5 -64.667 816.22 810.0 17.067 36.222 16.928 26.471 26.504
3 93HG_003 CAR-003 1996 1 13 1996-01-13 10.5 -64.667 818.24 812.0 17.067 36.221 16.929 26.471 26.504
3 93HG_003 CAR-003 1996 1 13 1996-01-13 10.5 -64.667 820.26 814.0 17.068 36.222 16.929 26.471 26.504
3 93HG_003 CAR-003 1996 1 13 1996-01-13 10.5 -64.667 822.28 816.0 17.068 36.222 16.929 26.471 26.504
3 93HG_003 CAR-003 1996 1 13 1996-01-13 10.5 -64.667 824.3 818.0 17.067 36.222 16.928 26.471 26.504
3 93HG_003 CAR-003 1996 1 13 1996-01-13 10.5 -64.667 826.32 820.0 17.068 36.221 16.928 26.471 26.504
3 93HG_003 CAR-003 1996 1 13 1996-01-13 10.5 -64.667 828.34 822.0 17.069 36.222 16.928 26.471 26.504
3 93HG_003 CAR-003 1996 1 13 1996-01-13 10.5 -64.667 830.36 824.0 17.069 36.221 16.928 26.471 26.504
3 93HG_003 CAR-003 1996 1 13 1996-01-13 10.5 -64.667 832.38 826.0 17.068 36.221 16.927 26.471 26.504
3 93HG_003 CAR-003 1996 1 13 1996-01-13 10.5 -64.667 834.39 828.0 17.069 36.221 16.927 26.47 26.504
3 93HG_003 CAR-003 1996 1 13 1996-01-13 10.5 -64.667 836.41 830.0 17.069 36.221 16.927 26.471 26.504
3 93HG_003 CAR-003 1996 1 13 1996-01-13 10.5 -64.667 838.43 832.0 17.07 36.221 16.927 26.471 26.504
3 93HG_003 CAR-003 1996 1 13 1996-01-13 10.5 -64.667 840.45 834.0 17.07 36.221 16.927 26.47 26.504
3 93HG_003 CAR-003 1996 1 13 1996-01-13 10.5 -64.667 842.47 836.0 17.07 36.221 16.927 26.471 26.504
3 93HG_003 CAR-003 1996 1 13 1996-01-13 10.5 -64.667 844.49 838.0 17.07 36.221 16.927 26.471 26.504
3 93HG_003 CAR-003 1996 1 13 1996-01-13 10.5 -64.667 846.51 840.0 17.07 36.221 16.927 26.471 26.504
3 93HG_003 CAR-003 1996 1 13 1996-01-13 10.5 -64.667 848.53 842.0 17.07 36.221 16.927 26.471 26.505
3 93HG_003 CAR-003 1996 1 13 1996-01-13 10.5 -64.667 850.55 844.0 17.07 36.221 16.926 26.471 26.505
3 93HG_003 CAR-003 1996 1 13 1996-01-13 10.5 -64.667 852.57 846.0 17.071 36.22 16.926 26.471 26.505
3 93HG_003 CAR-003 1996 1 13 1996-01-13 10.5 -64.667 854.59 848.0 17.071 36.22 16.926 26.471 26.505
3 93HG_003 CAR-003 1996 1 13 1996-01-13 10.5 -64.667 856.61 850.0 17.071 36.22 16.926 26.471 26.505
3 93HG_003 CAR-003 1996 1 13 1996-01-13 10.5 -64.667 858.63 852.0 17.072 36.221 16.926 26.471 26.505
3 93HG_003 CAR-003 1996 1 13 1996-01-13 10.5 -64.667 860.65 854.0 17.071 36.221 16.925 26.471 26.505
3 93HG_003 CAR-003 1996 1 13 1996-01-13 10.5 -64.667 862.67 856.0 17.071 36.221 16.925 26.47 26.505
3 93HG_003 CAR-003 1996 1 13 1996-01-13 10.5 -64.667 864.69 858.0 17.071 36.22 16.924 26.47 26.505
3 93HG_003 CAR-003 1996 1 13 1996-01-13 10.5 -64.667 866.71 860.0 17.071 36.221 16.923 26.471 26.505
3 93HG_003 CAR-003 1996 1 13 1996-01-13 10.5 -64.667 868.73 862.0 17.072 36.22 16.924 26.47 26.505
3 93HG_003 CAR-003 1996 1 13 1996-01-13 10.5 -64.667 870.75 864.0 17.072 36.22 16.924 26.47 26.505
3 93HG_003 CAR-003 1996 1 13 1996-01-13 10.5 -64.667 872.77 866.0 17.072 36.22 16.924 26.47 26.505
3 93HG_003 CAR-003 1996 1 13 1996-01-13 10.5 -64.667 874.79 868.0 17.072 36.22 16.923 26.471 26.506
3 93HG_003 CAR-003 1996 1 13 1996-01-13 10.5 -64.667 876.81 870.0 17.073 36.22 16.924 26.47 26.505
3 93HG_003 CAR-003 1996 1 13 1996-01-13 10.5 -64.667 878.83 872.0 17.072 36.219 16.923 26.471 26.506
3 93HG_003 CAR-003 1996 1 13 1996-01-13 10.5 -64.667 880.85 874.0 17.072 36.22 16.923 26.471 26.506
3 93HG_003 CAR-003 1996 1 13 1996-01-13 10.5 -64.667 882.87 876.0 17.072 36.22 16.922 26.471 26.506
3 93HG_003 CAR-003 1996 1 13 1996-01-13 10.5 -64.667 884.89 878.0 17.072 36.22 16.922 26.471 26.506
3 93HG_003 CAR-003 1996 1 13 1996-01-13 10.5 -64.667 886.91 880.0 17.073 36.22 16.922 26.471 26.506
3 93HG_003 CAR-003 1996 1 13 1996-01-13 10.5 -64.667 888.93 882.0 17.072 36.219 16.921 26.471 26.507
3 93HG_003 CAR-003 1996 1 13 1996-01-13 10.5 -64.667 890.95 884.0 17.073 36.219 16.921 26.471 26.507
3 93HG_003 CAR-003 1996 1 13 1996-01-13 10.5 -64.667 892.97 886.0 17.073 36.219 16.921 26.471 26.507
3 93HG_003 CAR-003 1996 1 13 1996-01-13 10.5 -64.667 894.99 888.0 17.073 36.219 16.922 26.471 26.507
3 93HG_003 CAR-003 1996 1 13 1996-01-13 10.5 -64.667 897.01 890.0 17.073 36.22 16.921 26.471 26.507
3 93HG_003 CAR-003 1996 1 13 1996-01-13 10.5 -64.667 899.03 892.0 17.073 36.22 16.92 26.471 26.507
3 93HG_003 CAR-003 1996 1 13 1996-01-13 10.5 -64.667 901.05 894.0 17.073 36.22 16.92 26.471 26.507
3 93HG_003 CAR-003 1996 1 13 1996-01-13 10.5 -64.667 903.07 896.0 17.074 36.22 16.921 26.471 26.507
3 93HG_003 CAR-003 1996 1 13 1996-01-13 10.5 -64.667 905.09 898.0 17.074 36.22 16.92 26.471 26.508
3 93HG_003 CAR-003 1996 1 13 1996-01-13 10.5 -64.667 907.11 900.0 17.074 36.22 16.92 26.471 26.508
3 93HG_003 CAR-003 1996 1 13 1996-01-13 10.5 -64.667 909.13 902.0 17.075 36.22 16.92 26.471 26.508
3 93HG_003 CAR-003 1996 1 13 1996-01-13 10.5 -64.667 911.15 904.0 17.076 36.22 16.921 26.471 26.508
3 93HG_003 CAR-003 1996 1 13 1996-01-13 10.5 -64.667 913.17 906.0 17.075 36.219 16.92 26.471 26.508
3 93HG_003 CAR-003 1996 1 13 1996-01-13 10.5 -64.667 915.19 908.0 17.076 36.219 16.92 26.471 26.508
3 93HG_003 CAR-003 1996 1 13 1996-01-13 10.5 -64.667 917.21 910.0 17.076 36.219 16.92 26.471 26.508
3 93HG_003 CAR-003 1996 1 13 1996-01-13 10.5 -64.667 919.23 912.0 17.076 36.22 16.919 26.471 26.508
3 93HG_003 CAR-003 1996 1 13 1996-01-13 10.5 -64.667 921.25 914.0 17.076 36.22 16.919 26.471 26.508
3 93HG_003 CAR-003 1996 1 13 1996-01-13 10.5 -64.667 923.27 916.0 17.076 36.22 16.919 26.471 26.508
3 93HG_003 CAR-003 1996 1 13 1996-01-13 10.5 -64.667 925.29 918.0 17.076 36.22 16.919 26.471 26.508
3 93HG_003 CAR-003 1996 1 13 1996-01-13 10.5 -64.667 927.31 920.0 17.077 36.219 16.919 26.471 26.508
3 93HG_003 CAR-003 1996 1 13 1996-01-13 10.5 -64.667 929.33 922.0 17.078 36.22 16.92 26.471 26.508
3 93HG_003 CAR-003 1996 1 13 1996-01-13 10.5 -64.667 931.35 924.0 17.078 36.219 16.92 26.471 26.508
3 93HG_003 CAR-003 1996 1 13 1996-01-13 10.5 -64.667 933.37 926.0 17.078 36.219 16.919 26.471 26.508
3 93HG_003 CAR-003 1996 1 13 1996-01-13 10.5 -64.667 935.39 928.0 17.079 36.219 16.92 26.471 26.508
3 93HG_003 CAR-003 1996 1 13 1996-01-13 10.5 -64.667 937.41 930.0 17.079 36.219 16.92 26.471 26.508
3 93HG_003 CAR-003 1996 1 13 1996-01-13 10.5 -64.667 939.43 932.0 17.08 36.219 16.92 26.471 26.508
3 93HG_003 CAR-003 1996 1 13 1996-01-13 10.5 -64.667 941.46 934.0 17.08 36.219 16.92 26.471 26.508
3 93HG_003 CAR-003 1996 1 13 1996-01-13 10.5 -64.667 943.48 936.0 17.08 36.219 16.92 26.471 26.508
3 93HG_003 CAR-003 1996 1 13 1996-01-13 10.5 -64.667 945.5 938.0 17.08 36.219 16.919 26.471 26.509
3 93HG_003 CAR-003 1996 1 13 1996-01-13 10.5 -64.667 947.52 940.0 17.08 36.219 16.919 26.471 26.509
3 93HG_003 CAR-003 1996 1 13 1996-01-13 10.5 -64.667 949.54 942.0 17.08 36.219 16.919 26.471 26.509
3 93HG_003 CAR-003 1996 1 13 1996-01-13 10.5 -64.667 951.56 944.0 17.081 36.219 16.919 26.471 26.509
3 93HG_003 CAR-003 1996 1 13 1996-01-13 10.5 -64.667 953.58 946.0 17.081 36.219 16.919 26.471 26.509
3 93HG_003 CAR-003 1996 1 13 1996-01-13 10.5 -64.667 955.6 948.0 17.081 36.219 16.919 26.471 26.509
3 93HG_003 CAR-003 1996 1 13 1996-01-13 10.5 -64.667 957.62 950.0 17.082 36.219 16.919 26.471 26.509
3 93HG_003 CAR-003 1996 1 13 1996-01-13 10.5 -64.667 959.64 952.0 17.082 36.219 16.919 26.471 26.509
3 93HG_003 CAR-003 1996 1 13 1996-01-13 10.5 -64.667 961.66 954.0 17.083 36.218 16.919 26.471 26.509
3 93HG_003 CAR-003 1996 1 13 1996-01-13 10.5 -64.667 963.68 956.0 17.083 36.219 16.919 26.471 26.509
3 93HG_003 CAR-003 1996 1 13 1996-01-13 10.5 -64.667 965.7 958.0 17.083 36.219 16.919 26.471 26.509
3 93HG_003 CAR-003 1996 1 13 1996-01-13 10.5 -64.667 967.72 960.0 17.083 36.219 16.918 26.471 26.51
3 93HG_003 CAR-003 1996 1 13 1996-01-13 10.5 -64.667 969.74 962.0 17.084 36.219 16.919 26.471 26.51
3 93HG_003 CAR-003 1996 1 13 1996-01-13 10.5 -64.667 971.76 964.0 17.084 36.219 16.918 26.471 26.51
3 93HG_003 CAR-003 1996 1 13 1996-01-13 10.5 -64.667 973.78 966.0 17.084 36.219 16.918 26.471 26.51
3 93HG_003 CAR-003 1996 1 13 1996-01-13 10.5 -64.667 975.81 968.0 17.085 36.219 16.919 26.471 26.51
3 93HG_003 CAR-003 1996 1 13 1996-01-13 10.5 -64.667 977.83 970.0 17.084 36.218 16.918 26.471 26.51
3 93HG_003 CAR-003 1996 1 13 1996-01-13 10.5 -64.667 979.85 972.0 17.085 36.219 16.918 26.471 26.511
3 93HG_003 CAR-003 1996 1 13 1996-01-13 10.5 -64.667 981.87 974.0 17.085 36.217 16.918 26.471 26.511
3 93HG_003 CAR-003 1996 1 13 1996-01-13 10.5 -64.667 983.89 976.0 17.085 36.219 16.917 26.471 26.511
3 93HG_003 CAR-003 1996 1 13 1996-01-13 10.5 -64.667 985.91 978.0 17.085 36.218 16.917 26.471 26.511
3 93HG_003 CAR-003 1996 1 13 1996-01-13 10.5 -64.667 987.93 980.0 17.085 36.219 16.917 26.471 26.511
3 93HG_003 CAR-003 1996 1 13 1996-01-13 10.5 -64.667 989.95 982.0 17.085 36.218 16.916 26.471 26.511
3 93HG_003 CAR-003 1996 1 13 1996-01-13 10.5 -64.667 991.97 984.0 17.085 36.218 16.916 26.471 26.512
3 93HG_003 CAR-003 1996 1 13 1996-01-13 10.5 -64.667 993.99 986.0 17.086 36.218 16.916 26.471 26.512
3 93HG_003 CAR-003 1996 1 13 1996-01-13 10.5 -64.667 996.01 988.0 17.086 36.218 16.916 26.471 26.512
3 93HG_003 CAR-003 1996 1 13 1996-01-13 10.5 -64.667 998.04 990.0 17.086 36.218 16.916 26.471 26.512
3 93HG_003 CAR-003 1996 1 13 1996-01-13 10.5 -64.667 1000.1 992.0 17.086 36.218 16.916 26.471 26.512
3 93HG_003 CAR-003 1996 1 13 1996-01-13 10.5 -64.667 1002.1 994.0 17.086 36.218 16.916 26.471 26.512
3 93HG_003 CAR-003 1996 1 13 1996-01-13 10.5 -64.667 1004.1 996.0 17.086 36.218 16.915 26.471 26.512
3 93HG_003 CAR-003 1996 1 13 1996-01-13 10.5 -64.667 1006.1 998.0 17.087 36.218 16.915 26.471 26.512
3 93HG_003 CAR-003 1996 1 13 1996-01-13 10.5 -64.667 1008.1 1000.0 17.087 36.217 16.915 26.471 26.512
3 93HG_003 CAR-003 1996 1 13 1996-01-13 10.5 -64.667 1010.2 1002.0 17.088 36.218 16.916 26.471 26.512
3 93HG_003 CAR-003 1996 1 13 1996-01-13 10.5 -64.667 1012.2 1004.0 17.088 36.218 16.915 26.471 26.512
3 93HG_003 CAR-003 1996 1 13 1996-01-13 10.5 -64.667 1014.2 1006.0 17.088 36.217 16.915 26.471 26.512
3 93HG_003 CAR-003 1996 1 13 1996-01-13 10.5 -64.667 1016.2 1008.0 17.089 36.216 16.916 26.471 26.512
3 93HG_003 CAR-003 1996 1 13 1996-01-13 10.5 -64.667 1018.2 1010.0 17.089 36.218 16.915 26.471 26.512
3 93HG_003 CAR-003 1996 1 13 1996-01-13 10.5 -64.667 1020.3 1012.0 17.089 36.218 16.915 26.471 26.512
3 93HG_003 CAR-003 1996 1 13 1996-01-13 10.5 -64.667 1022.3 1014.0 17.089 36.217 16.915 26.471 26.512
3 93HG_003 CAR-003 1996 1 13 1996-01-13 10.5 -64.667 1024.3 1016.0 17.089 36.218 16.915 26.471 26.512
3 93HG_003 CAR-003 1996 1 13 1996-01-13 10.5 -64.667 1026.3 1018.0 17.09 36.217 16.915 26.471 26.512
3 93HG_003 CAR-003 1996 1 13 1996-01-13 10.5 -64.667 1028.4 1020.0 17.09 36.218 16.914 26.471 26.513
3 93HG_003 CAR-003 1996 1 13 1996-01-13 10.5 -64.667 1030.4 1022.0 17.09 36.218 16.915 26.471 26.512
3 93HG_003 CAR-003 1996 1 13 1996-01-13 10.5 -64.667 1032.4 1024.0 17.091 36.217 16.915 26.471 26.513
3 93HG_003 CAR-003 1996 1 13 1996-01-13 10.5 -64.667 1034.4 1026.0 17.091 36.218 16.915 26.471 26.513
3 93HG_003 CAR-003 1996 1 13 1996-01-13 10.5 -64.667 1036.4 1028.0 17.091 36.218 16.915 26.471 26.513
3 93HG_003 CAR-003 1996 1 13 1996-01-13 10.5 -64.667 1038.5 1030.0 17.092 36.218 16.915 26.471 26.513
3 93HG_003 CAR-003 1996 1 13 1996-01-13 10.5 -64.667 1040.5 1032.0 17.092 36.217 16.915 26.471 26.513
3 93HG_003 CAR-003 1996 1 13 1996-01-13 10.5 -64.667 1042.5 1034.0 17.093 36.218 16.915 26.471 26.513
3 93HG_003 CAR-003 1996 1 13 1996-01-13 10.5 -64.667 1044.5 1036.0 17.093 36.217 16.915 26.471 26.513
3 93HG_003 CAR-003 1996 1 13 1996-01-13 10.5 -64.667 1046.5 1038.0 17.093 36.218 16.915 26.471 26.513
3 93HG_003 CAR-003 1996 1 13 1996-01-13 10.5 -64.667 1048.6 1040.0 17.093 36.217 16.914 26.471 26.513
3 93HG_003 CAR-003 1996 1 13 1996-01-13 10.5 -64.667 1050.6 1042.0 17.094 36.217 16.915 26.471 26.513
3 93HG_003 CAR-003 1996 1 13 1996-01-13 10.5 -64.667 1052.6 1044.0 17.094 36.218 16.915 26.471 26.513
3 93HG_003 CAR-003 1996 1 13 1996-01-13 10.5 -64.667 1054.6 1046.0 17.094 36.217 16.914 26.471 26.514
3 93HG_003 CAR-003 1996 1 13 1996-01-13 10.5 -64.667 1056.7 1048.0 17.094 36.217 16.914 26.471 26.514
3 93HG_003 CAR-003 1996 1 13 1996-01-13 10.5 -64.667 1058.7 1050.0 17.095 36.217 16.914 26.471 26.514
3 93HG_003 CAR-003 1996 1 13 1996-01-13 10.5 -64.667 1060.7 1052.0 17.095 36.218 16.914 26.471 26.514
3 93HG_003 CAR-003 1996 1 13 1996-01-13 10.5 -64.667 1062.7 1054.0 17.095 36.217 16.914 26.471 26.514
3 93HG_003 CAR-003 1996 1 13 1996-01-13 10.5 -64.667 1064.7 1056.0 17.095 36.217 16.913 26.471 26.514
3 93HG_003 CAR-003 1996 1 13 1996-01-13 10.5 -64.667 1066.8 1058.0 17.095 36.217 16.913 26.471 26.514
3 93HG_003 CAR-003 1996 1 13 1996-01-13 10.5 -64.667 1068.8 1060.0 17.095 36.217 16.913 26.471 26.515
3 93HG_003 CAR-003 1996 1 13 1996-01-13 10.5 -64.667 1070.8 1062.0 17.096 36.218 16.913 26.471 26.515
3 93HG_003 CAR-003 1996 1 13 1996-01-13 10.5 -64.667 1072.8 1064.0 17.096 36.218 16.913 26.471 26.515
3 93HG_003 CAR-003 1996 1 13 1996-01-13 10.5 -64.667 1074.8 1066.0 17.096 36.217 16.913 26.471 26.515
3 93HG_003 CAR-003 1996 1 13 1996-01-13 10.5 -64.667 1076.9 1068.0 17.097 36.217 16.913 26.471 26.515
3 93HG_003 CAR-003 1996 1 13 1996-01-13 10.5 -64.667 1078.9 1070.0 17.097 36.217 16.913 26.471 26.515
3 93HG_003 CAR-003 1996 1 13 1996-01-13 10.5 -64.667 1080.9 1072.0 17.098 36.217 16.913 26.471 26.515
3 93HG_003 CAR-003 1996 1 13 1996-01-13 10.5 -64.667 1082.9 1074.0 17.097 36.216 16.913 26.471 26.515
3 93HG_003 CAR-003 1996 1 13 1996-01-13 10.5 -64.667 1085.0 1076.0 17.098 36.216 16.912 26.471 26.515
3 93HG_003 CAR-003 1996 1 13 1996-01-13 10.5 -64.667 1087.0 1078.0 17.098 36.217 16.913 26.471 26.514
3 93HG_003 CAR-003 1996 1 13 1996-01-13 10.5 -64.667 1089.0 1080.0 17.098 36.217 16.912 26.471 26.515
3 93HG_003 CAR-003 1996 1 13 1996-01-13 10.5 -64.667 1091.0 1082.0 17.099 36.217 16.913 26.471 26.515
3 93HG_003 CAR-003 1996 1 13 1996-01-13 10.5 -64.667 1093.0 1084.0 17.099 36.217 16.913 26.471 26.515
3 93HG_003 CAR-003 1996 1 13 1996-01-13 10.5 -64.667 1095.1 1086.0 17.1 36.217 16.913 26.471 26.515
3 93HG_003 CAR-003 1996 1 13 1996-01-13 10.5 -64.667 1097.1 1088.0 17.1 36.217 16.912 26.471 26.515
3 93HG_003 CAR-003 1996 1 13 1996-01-13 10.5 -64.667 1099.1 1090.0 17.1 36.217 16.912 26.471 26.515
3 93HG_003 CAR-003 1996 1 13 1996-01-13 10.5 -64.667 1101.1 1092.0 17.099 36.217 16.911 26.471 26.515
3 93HG_003 CAR-003 1996 1 13 1996-01-13 10.5 -64.667 1103.2 1094.0 17.1 36.217 16.911 26.471 26.515
3 93HG_003 CAR-003 1996 1 13 1996-01-13 10.5 -64.667 1105.2 1096.0 17.1 36.217 16.911 26.471 26.516
3 93HG_003 CAR-003 1996 1 13 1996-01-13 10.5 -64.667 1107.2 1098.0 17.099 36.218 16.91 26.471 26.516
3 93HG_003 CAR-003 1996 1 13 1996-01-13 10.5 -64.667 1109.2 1100.0 17.1 36.218 16.91 26.471 26.516
3 93HG_003 CAR-003 1996 1 13 1996-01-13 10.5 -64.667 1111.2 1102.0 17.1 36.217 16.91 26.471 26.516
3 93HG_003 CAR-003 1996 1 13 1996-01-13 10.5 -64.667 1113.3 1104.0 17.101 36.218 16.91 26.471 26.516
3 93HG_003 CAR-003 1996 1 13 1996-01-13 10.5 -64.667 1115.3 1106.0 17.101 36.218 16.91 26.471 26.516
3 93HG_003 CAR-003 1996 1 13 1996-01-13 10.5 -64.667 1117.3 1108.0 17.102 36.218 16.911 26.471 26.516
3 93HG_003 CAR-003 1996 1 13 1996-01-13 10.5 -64.667 1119.3 1110.0 17.102 36.218 16.911 26.471 26.516
3 93HG_003 CAR-003 1996 1 13 1996-01-13 10.5 -64.667 1121.4 1112.0 17.102 36.218 16.911 26.471 26.516
3 93HG_003 CAR-003 1996 1 13 1996-01-13 10.5 -64.667 1123.4 1114.0 17.103 36.218 16.911 26.471 26.516
3 93HG_003 CAR-003 1996 1 13 1996-01-13 10.5 -64.667 1125.4 1116.0 17.103 36.216 16.911 26.471 26.516
3 93HG_003 CAR-003 1996 1 13 1996-01-13 10.5 -64.667 1127.4 1118.0 17.103 36.217 16.91 26.471 26.517
3 93HG_003 CAR-003 1996 1 13 1996-01-13 10.5 -64.667 1129.4 1120.0 17.104 36.219 16.911 26.471 26.517
3 93HG_003 CAR-003 1996 1 13 1996-01-13 10.5 -64.667 1131.5 1122.0 17.104 36.219 16.91 26.471 26.517
3 93HG_003 CAR-003 1996 1 13 1996-01-13 10.5 -64.667 1133.5 1124.0 17.104 36.219 16.91 26.471 26.517
3 93HG_003 CAR-003 1996 1 13 1996-01-13 10.5 -64.667 1135.5 1126.0 17.104 36.218 16.91 26.471 26.517
3 93HG_003 CAR-003 1996 1 13 1996-01-13 10.5 -64.667 1137.5 1128.0 17.104 36.218 16.91 26.471 26.517
3 93HG_003 CAR-003 1996 1 13 1996-01-13 10.5 -64.667 1139.6 1130.0 17.105 36.218 16.91 26.471 26.517
3 93HG_003 CAR-003 1996 1 13 1996-01-13 10.5 -64.667 1141.6 1132.0 17.105 36.218 16.909 26.472 26.518
3 93HG_003 CAR-003 1996 1 13 1996-01-13 10.5 -64.667 1143.6 1134.0 17.105 36.218 16.909 26.472 26.518
3 93HG_003 CAR-003 1996 1 13 1996-01-13 10.5 -64.667 1145.6 1136.0 17.105 36.218 16.909 26.472 26.518
3 93HG_003 CAR-003 1996 1 13 1996-01-13 10.5 -64.667 1147.6 1138.0 17.105 36.219 16.909 26.472 26.518
3 93HG_003 CAR-003 1996 1 13 1996-01-13 10.5 -64.667 1149.7 1140.0 17.106 36.219 16.909 26.472 26.518
3 93HG_003 CAR-003 1996 1 13 1996-01-13 10.5 -64.667 1151.7 1142.0 17.105 36.219 16.908 26.472 26.518
3 93HG_003 CAR-003 1996 1 13 1996-01-13 10.5 -64.667 1153.7 1144.0 17.105 36.217 16.908 26.471 26.518
3 93HG_003 CAR-003 1996 1 13 1996-01-13 10.5 -64.667 1155.7 1146.0 17.105 36.218 16.907 26.471 26.518
3 93HG_003 CAR-003 1996 1 13 1996-01-13 10.5 -64.667 1157.8 1148.0 17.105 36.22 16.907 26.471 26.518
3 93HG_003 CAR-003 1996 1 13 1996-01-13 10.5 -64.667 1159.8 1150.0 17.104 36.224 16.905 26.472 26.519
4 93HG_004 CAR-004 1996 2 14 1996-02-14 10.492 -64.668 2.011 2.0 24.186 36.933 24.186 25.052 25.052 3.387 1.256
4 93HG_004 CAR-004 1996 2 14 1996-02-14 10.492 -64.668 4.023 4.0 24.167 36.934 24.166 25.058 25.058 3.301 1.31
4 93HG_004 CAR-004 1996 2 14 1996-02-14 10.492 -64.668 6.034 6.0 24.031 36.935 24.03 25.099 25.1 3.261 1.36
4 93HG_004 CAR-004 1996 2 14 1996-02-14 10.492 -64.668 8.046 8.0 23.754 36.961 23.752 25.202 25.202 3.207 1.384
4 93HG_004 CAR-004 1996 2 14 1996-02-14 10.492 -64.668 10.057 10.0 23.609 36.964 23.607 25.247 25.248 3.149 1.37
4 93HG_004 CAR-004 1996 2 14 1996-02-14 10.492 -64.668 12.069 12.0 23.556 36.956 23.553 25.257 25.257 3.006 1.385
4 93HG_004 CAR-004 1996 2 14 1996-02-14 10.492 -64.668 14.08 14.0 23.491 36.953 23.488 25.274 25.274 2.895 1.363
4 93HG_004 CAR-004 1996 2 14 1996-02-14 10.492 -64.668 16.092 16.0 23.457 36.945 23.453 25.277 25.278 2.72 1.386
4 93HG_004 CAR-004 1996 2 14 1996-02-14 10.492 -64.668 18.103 18.0 23.381 36.948 23.377 25.302 25.303 2.619 1.523
4 93HG_004 CAR-004 1996 2 14 1996-02-14 10.492 -64.668 20.115 20.0 23.333 36.941 23.329 25.311 25.312 2.564 1.428
4 93HG_004 CAR-004 1996 2 14 1996-02-14 10.492 -64.668 22.127 22.0 23.298 36.935 23.293 25.317 25.318 2.524 1.351
4 93HG_004 CAR-004 1996 2 14 1996-02-14 10.492 -64.668 24.138 24.0 23.211 36.943 23.206 25.348 25.35 2.509 1.158
4 93HG_004 CAR-004 1996 2 14 1996-02-14 10.492 -64.668 26.15 26.0 23.132 36.925 23.127 25.358 25.359 2.506 0.94
4 93HG_004 CAR-004 1996 2 14 1996-02-14 10.492 -64.668 28.162 28.0 22.883 36.928 22.877 25.432 25.434 2.518 0.517
4 93HG_004 CAR-004 1996 2 14 1996-02-14 10.492 -64.668 30.173 30.0 22.668 36.938 22.662 25.502 25.504 2.499 0.339
4 93HG_004 CAR-004 1996 2 14 1996-02-14 10.492 -64.668 32.185 32.0 22.592 36.932 22.585 25.519 25.521 2.51 0.279
4 93HG_004 CAR-004 1996 2 14 1996-02-14 10.492 -64.668 34.197 34.0 22.552 36.93 22.545 25.529 25.531 2.526 0.247
4 93HG_004 CAR-004 1996 2 14 1996-02-14 10.492 -64.668 36.208 36.0 22.516 36.926 22.509 25.537 25.539 2.518 0.228
4 93HG_004 CAR-004 1996 2 14 1996-02-14 10.492 -64.668 38.22 38.0 22.499 36.923 22.492 25.539 25.542 2.52 0.228
4 93HG_004 CAR-004 1996 2 14 1996-02-14 10.492 -64.668 40.232 40.0 22.487 36.918 22.479 25.539 25.541 2.896 0.219
4 93HG_004 CAR-004 1996 2 14 1996-02-14 10.492 -64.668 42.244 42.0 22.472 36.916 22.464 25.542 25.544 2.781 0.203
4 93HG_004 CAR-004 1996 2 14 1996-02-14 10.492 -64.668 44.256 44.0 22.454 36.914 22.445 25.545 25.548 2.474 0.18
4 93HG_004 CAR-004 1996 2 14 1996-02-14 10.492 -64.668 46.267 46.0 22.438 36.91 22.429 25.547 25.55 2.475 0.171
4 93HG_004 CAR-004 1996 2 14 1996-02-14 10.492 -64.668 48.279 48.0 22.425 36.91 22.415 25.551 25.553 2.465 0.15
4 93HG_004 CAR-004 1996 2 14 1996-02-14 10.492 -64.668 50.291 50.0 22.407 36.907 22.397 25.553 25.556 2.426 0.151
4 93HG_004 CAR-004 1996 2 14 1996-02-14 10.492 -64.668 52.303 52.0 22.386 36.906 22.375 25.559 25.562 2.417 0.159
4 93HG_004 CAR-004 1996 2 14 1996-02-14 10.492 -64.668 54.315 54.0 22.383 36.903 22.372 25.557 25.56 2.388 0.153
4 93HG_004 CAR-004 1996 2 14 1996-02-14 10.492 -64.668 56.327 56.0 22.378 36.902 22.367 25.558 25.561 2.385 0.151
4 93HG_004 CAR-004 1996 2 14 1996-02-14 10.492 -64.668 58.339 58.0 22.345 36.904 22.333 25.569 25.572 2.377 0.155
4 93HG_004 CAR-004 1996 2 14 1996-02-14 10.492 -64.668 60.351 60.0 22.282 36.904 22.27 25.587 25.59 2.376 0.148
4 93HG_004 CAR-004 1996 2 14 1996-02-14 10.492 -64.668 62.363 62.0 22.201 36.903 22.188 25.609 25.613 2.375 0.144
4 93HG_004 CAR-004 1996 2 14 1996-02-14 10.492 -64.668 64.375 64.0 22.141 36.897 22.128 25.622 25.625 2.38 0.141
4 93HG_004 CAR-004 1996 2 14 1996-02-14 10.492 -64.668 66.387 66.0 22.109 36.893 22.096 25.628 25.631 2.386 0.126
4 93HG_004 CAR-004 1996 2 14 1996-02-14 10.492 -64.668 68.399 68.0 21.99 36.897 21.976 25.664 25.668 2.394 0.114
4 93HG_004 CAR-004 1996 2 14 1996-02-14 10.492 -64.668 70.411 70.0 21.871 36.89 21.857 25.692 25.697 2.376 0.11
4 93HG_004 CAR-004 1996 2 14 1996-02-14 10.492 -64.668 72.423 72.0 21.803 36.88 21.788 25.704 25.708 2.36 0.106
4 93HG_004 CAR-004 1996 2 14 1996-02-14 10.492 -64.668 74.435 74.0 21.729 36.873 21.715 25.72 25.724 2.342 0.111
4 93HG_004 CAR-004 1996 2 14 1996-02-14 10.492 -64.668 76.447 76.0 21.63 36.874 21.615 25.748 25.752 2.325 0.104
4 93HG_004 CAR-004 1996 2 14 1996-02-14 10.492 -64.668 78.46 78.0 21.56 36.868 21.544 25.763 25.767 2.314 0.101
4 93HG_004 CAR-004 1996 2 14 1996-02-14 10.492 -64.668 80.472 80.0 21.514 36.861 21.498 25.771 25.775 2.284 0.093
4 93HG_004 CAR-004 1996 2 14 1996-02-14 10.492 -64.668 82.484 82.0 21.479 36.857 21.463 25.777 25.782 2.285 0.087
4 93HG_004 CAR-004 1996 2 14 1996-02-14 10.492 -64.668 84.496 84.0 21.465 36.85 21.449 25.776 25.78 2.256 0.087
4 93HG_004 CAR-004 1996 2 14 1996-02-14 10.492 -64.668 86.508 86.0 21.427 36.844 21.41 25.782 25.787 2.236 0.079
4 93HG_004 CAR-004 1996 2 14 1996-02-14 10.492 -64.668 88.521 88.0 21.296 36.844 21.278 25.818 25.823 2.219 0.079
4 93HG_004 CAR-004 1996 2 14 1996-02-14 10.492 -64.668 90.533 90.0 21.224 36.834 21.206 25.831 25.835 2.207 0.08
4 93HG_004 CAR-004 1996 2 14 1996-02-14 10.492 -64.668 92.545 92.0 21.143 36.827 21.125 25.848 25.852 2.198 0.08
4 93HG_004 CAR-004 1996 2 14 1996-02-14 10.492 -64.668 94.557 94.0 21.052 36.823 21.034 25.87 25.875 2.185 0.061
4 93HG_004 CAR-004 1996 2 14 1996-02-14 10.492 -64.668 96.57 96.0 20.962 36.812 20.943 25.886 25.891 2.169 0.057
4 93HG_004 CAR-004 1996 2 14 1996-02-14 10.492 -64.668 98.582 98.0 20.892 36.802 20.873 25.898 25.903 2.142 0.058
4 93HG_004 CAR-004 1996 2 14 1996-02-14 10.492 -64.668 100.6 100.0 20.829 36.791 20.81 25.906 25.911 2.132 0.05
4 93HG_004 CAR-004 1996 2 14 1996-02-14 10.492 -64.668 102.61 102.0 20.795 36.787 20.775 25.913 25.918 2.1 0.049
4 93HG_004 CAR-004 1996 2 14 1996-02-14 10.492 -64.668 104.62 104.0 20.737 36.781 20.717 25.924 25.929 2.087 0.047
4 93HG_004 CAR-004 1996 2 14 1996-02-14 10.492 -64.668 106.63 106.0 20.603 36.787 20.583 25.965 25.97 2.053 0.05
4 93HG_004 CAR-004 1996 2 14 1996-02-14 10.492 -64.668 108.64 108.0 20.539 36.769 20.518 25.968 25.974 2.029 0.051
4 93HG_004 CAR-004 1996 2 14 1996-02-14 10.492 -64.668 110.66 110.0 20.461 36.758 20.44 25.981 25.987 2.009 0.052
4 93HG_004 CAR-004 1996 2 14 1996-02-14 10.492 -64.668 112.67 112.0 20.381 36.754 20.36 26.0 26.005 1.975 0.048
4 93HG_004 CAR-004 1996 2 14 1996-02-14 10.492 -64.668 114.68 114.0 20.315 36.738 20.293 26.005 26.011 1.968 0.044
4 93HG_004 CAR-004 1996 2 14 1996-02-14 10.492 -64.668 116.69 116.0 20.26 36.761 20.238 26.038 26.043 1.931 0.046
4 93HG_004 CAR-004 1996 2 14 1996-02-14 10.492 -64.668 118.71 118.0 20.241 36.708 20.219 26.002 26.008 1.888
4 93HG_004 CAR-004 1996 2 14 1996-02-14 10.492 -64.668 120.72 120.0 19.991 36.686 19.969 26.052 26.058 1.884
4 93HG_004 CAR-004 1996 2 14 1996-02-14 10.492 -64.668 122.73 122.0 19.943 36.679 19.92 26.06 26.066 1.855
4 93HG_004 CAR-004 1996 2 14 1996-02-14 10.492 -64.668 124.75 124.0 19.888 36.676 19.865 26.072 26.078 1.819
4 93HG_004 CAR-004 1996 2 14 1996-02-14 10.492 -64.668 126.76 126.0 19.833 36.665 19.809 26.078 26.084 1.8
4 93HG_004 CAR-004 1996 2 14 1996-02-14 10.492 -64.668 128.77 128.0 19.769 36.662 19.745 26.093 26.099 1.75
4 93HG_004 CAR-004 1996 2 14 1996-02-14 10.492 -64.668 130.78 130.0 19.737 36.653 19.713 26.094 26.101 1.73
4 93HG_004 CAR-004 1996 2 14 1996-02-14 10.492 -64.668 132.79 132.0 19.677 36.649 19.653 26.107 26.113 1.693
4 93HG_004 CAR-004 1996 2 14 1996-02-14 10.492 -64.668 134.81 134.0 19.615 36.639 19.59 26.116 26.122 1.644
4 93HG_004 CAR-004 1996 2 14 1996-02-14 10.492 -64.668 136.82 136.0 19.543 36.632 19.518 26.129 26.136 1.608
4 93HG_004 CAR-004 1996 2 14 1996-02-14 10.492 -64.668 138.83 138.0 19.512 36.627 19.487 26.134 26.14 1.585
4 93HG_004 CAR-004 1996 2 14 1996-02-14 10.492 -64.668 140.85 140.0 19.464 36.62 19.438 26.141 26.148 1.553
4 93HG_004 CAR-004 1996 2 14 1996-02-14 10.492 -64.668 142.86 142.0 19.393 36.613 19.367 26.154 26.161 1.527
4 93HG_004 CAR-004 1996 2 14 1996-02-14 10.492 -64.668 144.87 144.0 19.299 36.604 19.272 26.172 26.178 1.514
4 93HG_004 CAR-004 1996 2 14 1996-02-14 10.492 -64.668 146.88 146.0 19.246 36.594 19.219 26.178 26.185 1.498
4 93HG_004 CAR-004 1996 2 14 1996-02-14 10.492 -64.668 148.9 148.0 19.204 36.59 19.177 26.186 26.193 1.468
4 93HG_004 CAR-004 1996 2 14 1996-02-14 10.492 -64.668 150.91 150.0 19.154 36.582 19.127 26.192 26.199 1.459
4 93HG_004 CAR-004 1996 2 14 1996-02-14 10.492 -64.668 152.92 152.0 19.114 36.579 19.086 26.2 26.208 1.456
4 93HG_004 CAR-004 1996 2 14 1996-02-14 10.492 -64.668 154.94 154.0 19.078 36.571 19.05 26.203 26.211 1.42
4 93HG_004 CAR-004 1996 2 14 1996-02-14 10.492 -64.668 156.95 156.0 19.03 36.567 19.002 26.213 26.22 1.375
4 93HG_004 CAR-004 1996 2 14 1996-02-14 10.492 -64.668 158.96 158.0 18.972 36.559 18.943 26.222 26.229 1.329
4 93HG_004 CAR-004 1996 2 14 1996-02-14 10.492 -64.668 160.97 160.0 18.935 36.553 18.906 26.227 26.234 1.286
4 93HG_004 CAR-004 1996 2 14 1996-02-14 10.492 -64.668 162.99 162.0 18.905 36.55 18.876 26.232 26.239 1.27
4 93HG_004 CAR-004 1996 2 14 1996-02-14 10.492 -64.668 165.0 164.0 18.867 36.544 18.838 26.237 26.245 1.22
4 93HG_004 CAR-004 1996 2 14 1996-02-14 10.492 -64.668 167.01 166.0 18.831 36.537 18.802 26.241 26.248 1.179
4 93HG_004 CAR-004 1996 2 14 1996-02-14 10.492 -64.668 169.03 168.0 18.798 36.53 18.767 26.244 26.252 1.153
4 93HG_004 CAR-004 1996 2 14 1996-02-14 10.492 -64.668 171.04 170.0 18.73 36.525 18.7 26.258 26.265 1.113
4 93HG_004 CAR-004 1996 2 14 1996-02-14 10.492 -64.668 173.05 172.0 18.698 36.518 18.667 26.261 26.268 1.076
4 93HG_004 CAR-004 1996 2 14 1996-02-14 10.492 -64.668 175.07 174.0 18.666 36.515 18.634 26.266 26.274 1.055
4 93HG_004 CAR-004 1996 2 14 1996-02-14 10.492 -64.668 177.08 176.0 18.619 36.513 18.588 26.277 26.285 1.02
4 93HG_004 CAR-004 1996 2 14 1996-02-14 10.492 -64.668 179.09 178.0 18.588 36.506 18.556 26.279 26.287 0.991
4 93HG_004 CAR-004 1996 2 14 1996-02-14 10.492 -64.668 181.1 180.0 18.559 36.501 18.527 26.283 26.291 0.964
4 93HG_004 CAR-004 1996 2 14 1996-02-14 10.492 -64.668 183.12 182.0 18.52 36.497 18.488 26.29 26.298 0.92
4 93HG_004 CAR-004 1996 2 14 1996-02-14 10.492 -64.668 185.13 184.0 18.499 36.494 18.467 26.293 26.301 0.876
4 93HG_004 CAR-004 1996 2 14 1996-02-14 10.492 -64.668 187.15 186.0 18.48 36.49 18.447 26.294 26.303 0.835
4 93HG_004 CAR-004 1996 2 14 1996-02-14 10.492 -64.668 189.16 188.0 18.428 36.488 18.394 26.306 26.314 0.802
4 93HG_004 CAR-004 1996 2 14 1996-02-14 10.492 -64.668 191.17 190.0 18.408 36.478 18.374 26.304 26.312 0.775
4 93HG_004 CAR-004 1996 2 14 1996-02-14 10.492 -64.668 193.19 192.0 18.36 36.475 18.326 26.313 26.322 0.74
4 93HG_004 CAR-004 1996 2 14 1996-02-14 10.492 -64.668 195.2 194.0 18.327 36.468 18.292 26.316 26.325 0.706
4 93HG_004 CAR-004 1996 2 14 1996-02-14 10.492 -64.668 197.21 196.0 18.318 36.467 18.284 26.318 26.326 0.663
4 93HG_004 CAR-004 1996 2 14 1996-02-14 10.492 -64.668 199.22 198.0 18.3 36.463 18.265 26.319 26.328 0.629
4 93HG_004 CAR-004 1996 2 14 1996-02-14 10.492 -64.668 201.24 200.0 18.251 36.46 18.215 26.329 26.338 0.606
4 93HG_004 CAR-004 1996 2 14 1996-02-14 10.492 -64.668 203.25 202.0 18.21 36.455 18.175 26.336 26.345 0.573
4 93HG_004 CAR-004 1996 2 14 1996-02-14 10.492 -64.668 205.26 204.0 18.172 36.451 18.137 26.342 26.351 0.548
4 93HG_004 CAR-004 1996 2 14 1996-02-14 10.492 -64.668 207.28 206.0 18.154 36.446 18.118 26.343 26.352 0.533
4 93HG_004 CAR-004 1996 2 14 1996-02-14 10.492 -64.668 209.29 208.0 18.145 36.445 18.108 26.344 26.353 0.498
4 93HG_004 CAR-004 1996 2 14 1996-02-14 10.492 -64.668 211.31 210.0 18.131 36.442 18.094 26.346 26.355 0.465
4 93HG_004 CAR-004 1996 2 14 1996-02-14 10.492 -64.668 213.32 212.0 18.116 36.439 18.079 26.347 26.356 0.454
4 93HG_004 CAR-004 1996 2 14 1996-02-14 10.492 -64.668 215.33 214.0 18.104 36.437 18.066 26.348 26.358 0.425
4 93HG_004 CAR-004 1996 2 14 1996-02-14 10.492 -64.668 217.35 216.0 18.073 36.433 18.036 26.353 26.362 0.4
4 93HG_004 CAR-004 1996 2 14 1996-02-14 10.492 -64.668 219.36 218.0 18.049 36.431 18.01 26.357 26.367 0.387
4 93HG_004 CAR-004 1996 2 14 1996-02-14 10.492 -64.668 221.37 220.0 18.039 36.427 18.001 26.357 26.367 0.366
4 93HG_004 CAR-004 1996 2 14 1996-02-14 10.492 -64.668 223.39 222.0 18.019 36.425 17.98 26.36 26.37 0.35
4 93HG_004 CAR-004 1996 2 14 1996-02-14 10.492 -64.668 225.4 224.0 18.002 36.422 17.963 26.362 26.372 0.344
4 93HG_004 CAR-004 1996 2 14 1996-02-14 10.492 -64.668 227.41 226.0 17.992 36.421 17.952 26.364 26.374 0.323
4 93HG_004 CAR-004 1996 2 14 1996-02-14 10.492 -64.668 229.43 228.0 17.985 36.419 17.945 26.364 26.374 0.307
4 93HG_004 CAR-004 1996 2 14 1996-02-14 10.492 -64.668 231.44 230.0 17.972 36.417 17.932 26.366 26.376 0.295
4 93HG_004 CAR-004 1996 2 14 1996-02-14 10.492 -64.668 233.45 232.0 17.949 36.415 17.909 26.37 26.38 0.281
4 93HG_004 CAR-004 1996 2 14 1996-02-14 10.492 -64.668 235.47 234.0 17.936 36.412 17.895 26.371 26.381 0.27
4 93HG_004 CAR-004 1996 2 14 1996-02-14 10.492 -64.668 237.48 236.0 17.929 36.41 17.888 26.371 26.381 0.253
4 93HG_004 CAR-004 1996 2 14 1996-02-14 10.492 -64.668 239.5 238.0 17.919 36.409 17.878 26.373 26.383 0.244
4 93HG_004 CAR-004 1996 2 14 1996-02-14 10.492 -64.668 241.51 240.0 17.896 36.407 17.855 26.377 26.387 0.233
4 93HG_004 CAR-004 1996 2 14 1996-02-14 10.492 -64.668 243.52 242.0 17.882 36.405 17.84 26.379 26.389 0.221
4 93HG_004 CAR-004 1996 2 14 1996-02-14 10.492 -64.668 245.54 244.0 17.876 36.403 17.833 26.379 26.389 0.211
4 93HG_004 CAR-004 1996 2 14 1996-02-14 10.492 -64.668 247.55 246.0 17.875 36.402 17.832 26.378 26.389 0.205
4 93HG_004 CAR-004 1996 2 14 1996-02-14 10.492 -64.668 249.56 248.0 17.872 36.4 17.829 26.378 26.388 0.198
4 93HG_004 CAR-004 1996 2 14 1996-02-14 10.492 -64.668 251.58 250.0 17.865 36.4 17.822 26.379 26.39 0.182
4 93HG_004 CAR-004 1996 2 14 1996-02-14 10.492 -64.668 253.59 252.0 17.859 36.399 17.815 26.38 26.391 0.175
4 93HG_004 CAR-004 1996 2 14 1996-02-14 10.492 -64.668 255.61 254.0 17.852 36.397 17.807 26.38 26.391 0.169
4 93HG_004 CAR-004 1996 2 14 1996-02-14 10.492 -64.668 257.62 256.0 17.838 36.396 17.794 26.383 26.394 0.161
4 93HG_004 CAR-004 1996 2 14 1996-02-14 10.492 -64.668 259.63 258.0 17.825 36.394 17.78 26.385 26.396 0.152
4 93HG_004 CAR-004 1996 2 14 1996-02-14 10.492 -64.668 261.65 260.0 17.813 36.392 17.768 26.386 26.397 0.139
4 93HG_004 CAR-004 1996 2 14 1996-02-14 10.492 -64.668 263.66 262.0 17.809 36.39 17.764 26.386 26.397 0.134
4 93HG_004 CAR-004 1996 2 14 1996-02-14 10.492 -64.668 265.68 264.0 17.802 36.389 17.756 26.387 26.398 0.128
4 93HG_004 CAR-004 1996 2 14 1996-02-14 10.492 -64.668 267.69 266.0 17.794 36.388 17.748 26.388 26.399 0.123
4 93HG_004 CAR-004 1996 2 14 1996-02-14 10.492 -64.668 269.7 268.0 17.789 36.387 17.743 26.388 26.4 0.114
4 93HG_004 CAR-004 1996 2 14 1996-02-14 10.492 -64.668 271.72 270.0 17.784 36.385 17.738 26.388 26.399 0.106
4 93HG_004 CAR-004 1996 2 14 1996-02-14 10.492 -64.668 273.73 272.0 17.773 36.384 17.726 26.39 26.401 0.105
4 93HG_004 CAR-004 1996 2 14 1996-02-14 10.492 -64.668 275.75 274.0 17.762 36.383 17.715 26.392 26.404 0.1
4 93HG_004 CAR-004 1996 2 14 1996-02-14 10.492 -64.668 277.76 276.0 17.755 36.381 17.707 26.392 26.404 0.097
4 93HG_004 CAR-004 1996 2 14 1996-02-14 10.492 -64.668 279.77 278.0 17.747 36.379 17.699 26.392 26.404 0.094
4 93HG_004 CAR-004 1996 2 14 1996-02-14 10.492 -64.668 281.79 280.0 17.743 36.378 17.694 26.393 26.405 0.091
4 93HG_004 CAR-004 1996 2 14 1996-02-14 10.492 -64.668 283.8 282.0 17.737 36.377 17.688 26.393 26.405 0.086
4 93HG_004 CAR-004 1996 2 14 1996-02-14 10.492 -64.668 285.82 284.0 17.731 36.376 17.682 26.394 26.406 0.083
4 93HG_004 CAR-004 1996 2 14 1996-02-14 10.492 -64.668 287.83 286.0 17.73 36.375 17.68 26.394 26.406 0.074
4 93HG_004 CAR-004 1996 2 14 1996-02-14 10.492 -64.668 289.85 288.0 17.726 36.375 17.676 26.395 26.407 0.072
4 93HG_004 CAR-004 1996 2 14 1996-02-14 10.492 -64.668 291.86 290.0 17.72 36.374 17.67 26.395 26.408 0.065
4 93HG_004 CAR-004 1996 2 14 1996-02-14 10.492 -64.668 293.87 292.0 17.714 36.374 17.663 26.397 26.409 0.064
4 93HG_004 CAR-004 1996 2 14 1996-02-14 10.492 -64.668 295.89 294.0 17.708 36.372 17.657 26.397 26.409 0.057
4 93HG_004 CAR-004 1996 2 14 1996-02-14 10.492 -64.668 297.9 296.0 17.701 36.37 17.65 26.397 26.409 0.057
4 93HG_004 CAR-004 1996 2 14 1996-02-14 10.492 -64.668 299.92 298.0 17.697 36.369 17.645 26.397 26.41 0.05
4 93HG_004 CAR-004 1996 2 14 1996-02-14 10.492 -64.668 301.93 300.0 17.693 36.368 17.641 26.397 26.41 0.044
4 93HG_004 CAR-004 1996 2 14 1996-02-14 10.492 -64.668 303.94 302.0 17.688 36.368 17.636 26.399 26.411 0.04
4 93HG_004 CAR-004 1996 2 14 1996-02-14 10.492 -64.668 305.96 304.0 17.684 36.367 17.632 26.399 26.412 0.038
4 93HG_004 CAR-004 1996 2 14 1996-02-14 10.492 -64.668 307.97 306.0 17.68 36.366 17.628 26.399 26.412 0.035
4 93HG_004 CAR-004 1996 2 14 1996-02-14 10.492 -64.668 309.99 308.0 17.677 36.365 17.624 26.399 26.412 0.033
4 93HG_004 CAR-004 1996 2 14 1996-02-14 10.492 -64.668 312.0 310.0 17.669 36.365 17.615 26.401 26.414 0.028
4 93HG_004 CAR-004 1996 2 14 1996-02-14 10.492 -64.668 314.02 312.0 17.662 36.363 17.608 26.401 26.414 0.028
4 93HG_004 CAR-004 1996 2 14 1996-02-14 10.492 -64.668 316.03 314.0 17.657 36.362 17.603 26.401 26.415 0.028
4 93HG_004 CAR-004 1996 2 14 1996-02-14 10.492 -64.668 318.05 316.0 17.645 36.36 17.591 26.403 26.416 0.026
4 93HG_004 CAR-004 1996 2 14 1996-02-14 10.492 -64.668 320.06 318.0 17.639 36.359 17.585 26.404 26.417 0.025
4 93HG_004 CAR-004 1996 2 14 1996-02-14 10.492 -64.668 322.07 320.0 17.637 36.358 17.582 26.403 26.417 0.022
4 93HG_004 CAR-004 1996 2 14 1996-02-14 10.492 -64.668 324.09 322.0 17.632 36.357 17.577 26.404 26.418 0.024
4 93HG_004 CAR-004 1996 2 14 1996-02-14 10.492 -64.668 326.1 324.0 17.618 36.357 17.562 26.407 26.421 0.02
4 93HG_004 CAR-004 1996 2 14 1996-02-14 10.492 -64.668 328.12 326.0 17.599 36.353 17.543 26.409 26.422 0.017
4 93HG_004 CAR-004 1996 2 14 1996-02-14 10.492 -64.668 330.13 328.0 17.591 36.351 17.534 26.409 26.423 0.015
4 93HG_004 CAR-004 1996 2 14 1996-02-14 10.492 -64.668 332.15 330.0 17.583 36.35 17.526 26.41 26.424 0.012
4 93HG_004 CAR-004 1996 2 14 1996-02-14 10.492 -64.668 334.16 332.0 17.578 36.349 17.521 26.411 26.425 0.01
4 93HG_004 CAR-004 1996 2 14 1996-02-14 10.492 -64.668 336.18 334.0 17.574 36.346 17.516 26.41 26.424 0.006
4 93HG_004 CAR-004 1996 2 14 1996-02-14 10.492 -64.668 338.19 336.0 17.568 36.346 17.511 26.411 26.425 0.002
4 93HG_004 CAR-004 1996 2 14 1996-02-14 10.492 -64.668 340.21 338.0 17.561 36.345 17.503 26.412 26.426 0.001
4 93HG_004 CAR-004 1996 2 14 1996-02-14 10.492 -64.668 342.22 340.0 17.554 36.345 17.496 26.414 26.428 0.0
4 93HG_004 CAR-004 1996 2 14 1996-02-14 10.492 -64.668 344.24 342.0 17.551 36.343 17.492 26.413 26.427 0.0
4 93HG_004 CAR-004 1996 2 14 1996-02-14 10.492 -64.668 346.25 344.0 17.549 36.342 17.49 26.412 26.427
4 93HG_004 CAR-004 1996 2 14 1996-02-14 10.492 -64.668 348.27 346.0 17.544 36.341 17.484 26.413 26.428
4 93HG_004 CAR-004 1996 2 14 1996-02-14 10.492 -64.668 350.28 348.0 17.537 36.341 17.477 26.415 26.429
4 93HG_004 CAR-004 1996 2 14 1996-02-14 10.492 -64.668 352.3 350.0 17.526 36.339 17.466 26.416 26.431
4 93HG_004 CAR-004 1996 2 14 1996-02-14 10.492 -64.668 354.31 352.0 17.516 36.339 17.455 26.419 26.433
4 93HG_004 CAR-004 1996 2 14 1996-02-14 10.492 -64.668 356.32 354.0 17.509 36.335 17.448 26.417 26.432
4 93HG_004 CAR-004 1996 2 14 1996-02-14 10.492 -64.668 358.34 356.0 17.505 36.333 17.444 26.417 26.431
4 93HG_004 CAR-004 1996 2 14 1996-02-14 10.492 -64.668 360.36 358.0 17.501 36.332 17.44 26.417 26.432
4 93HG_004 CAR-004 1996 2 14 1996-02-14 10.492 -64.668 362.37 360.0 17.501 36.331 17.439 26.416 26.431
4 93HG_004 CAR-004 1996 2 14 1996-02-14 10.492 -64.668 364.38 362.0 17.501 36.33 17.439 26.415 26.43
4 93HG_004 CAR-004 1996 2 14 1996-02-14 10.492 -64.668 366.4 364.0 17.5 36.33 17.438 26.415 26.431
4 93HG_004 CAR-004 1996 2 14 1996-02-14 10.492 -64.668 368.41 366.0 17.498 36.33 17.435 26.416 26.431
4 93HG_004 CAR-004 1996 2 14 1996-02-14 10.492 -64.668 370.43 368.0 17.496 36.33 17.432 26.416 26.432
4 93HG_004 CAR-004 1996 2 14 1996-02-14 10.492 -64.668 372.44 370.0 17.491 36.329 17.427 26.417 26.432
4 93HG_004 CAR-004 1996 2 14 1996-02-14 10.492 -64.668 374.46 372.0 17.483 36.328 17.419 26.418 26.434
4 93HG_004 CAR-004 1996 2 14 1996-02-14 10.492 -64.668 376.47 374.0 17.474 36.327 17.41 26.42 26.435
4 93HG_004 CAR-004 1996 2 14 1996-02-14 10.492 -64.668 378.49 376.0 17.464 36.326 17.4 26.421 26.437
4 93HG_004 CAR-004 1996 2 14 1996-02-14 10.492 -64.668 380.51 378.0 17.46 36.323 17.395 26.42 26.436
4 93HG_004 CAR-004 1996 2 14 1996-02-14 10.492 -64.668 382.52 380.0 17.46 36.322 17.395 26.419 26.435
4 93HG_004 CAR-004 1996 2 14 1996-02-14 10.492 -64.668 384.54 382.0 17.454 36.323 17.389 26.421 26.437
4 93HG_004 CAR-004 1996 2 14 1996-02-14 10.492 -64.668 386.55 384.0 17.445 36.321 17.379 26.422 26.438
4 93HG_004 CAR-004 1996 2 14 1996-02-14 10.492 -64.668 388.57 386.0 17.44 36.32 17.374 26.422 26.439
4 93HG_004 CAR-004 1996 2 14 1996-02-14 10.492 -64.668 390.58 388.0 17.438 36.319 17.371 26.422 26.438
4 93HG_004 CAR-004 1996 2 14 1996-02-14 10.492 -64.668 392.6 390.0 17.431 36.318 17.365 26.423 26.439
4 93HG_004 CAR-004 1996 2 14 1996-02-14 10.492 -64.668 394.61 392.0 17.427 36.316 17.36 26.423 26.439
4 93HG_004 CAR-004 1996 2 14 1996-02-14 10.492 -64.668 396.63 394.0 17.419 36.316 17.352 26.424 26.441
4 93HG_004 CAR-004 1996 2 14 1996-02-14 10.492 -64.668 398.64 396.0 17.416 36.314 17.349 26.424 26.44
4 93HG_004 CAR-004 1996 2 14 1996-02-14 10.492 -64.668 400.66 398.0 17.414 36.314 17.346 26.424 26.441
4 93HG_004 CAR-004 1996 2 14 1996-02-14 10.492 -64.668 402.67 400.0 17.408 36.314 17.34 26.426 26.442
4 93HG_004 CAR-004 1996 2 14 1996-02-14 10.492 -64.668 404.69 402.0 17.404 36.311 17.335 26.424 26.441
4 93HG_004 CAR-004 1996 2 14 1996-02-14 10.492 -64.668 406.7 404.0 17.403 36.31 17.334 26.424 26.441
4 93HG_004 CAR-004 1996 2 14 1996-02-14 10.492 -64.668 408.72 406.0 17.401 36.311 17.332 26.425 26.442
4 93HG_004 CAR-004 1996 2 14 1996-02-14 10.492 -64.668 410.73 408.0 17.4 36.309 17.33 26.424 26.441
4 93HG_004 CAR-004 1996 2 14 1996-02-14 10.492 -64.668 412.75 410.0 17.399 36.308 17.329 26.423 26.44
4 93HG_004 CAR-004 1996 2 14 1996-02-14 10.492 -64.668 414.76 412.0 17.398 36.308 17.328 26.423 26.441
4 93HG_004 CAR-004 1996 2 14 1996-02-14 10.492 -64.668 416.78 414.0 17.397 36.307 17.326 26.423 26.44
4 93HG_004 CAR-004 1996 2 14 1996-02-14 10.492 -64.668 418.8 416.0 17.389 36.309 17.318 26.426 26.444
4 93HG_004 CAR-004 1996 2 14 1996-02-14 10.492 -64.668 420.81 418.0 17.382 36.307 17.311 26.427 26.444
4 93HG_004 CAR-004 1996 2 14 1996-02-14 10.492 -64.668 422.83 420.0 17.375 36.306 17.304 26.427 26.445
4 93HG_004 CAR-004 1996 2 14 1996-02-14 10.492 -64.668 424.84 422.0 17.371 36.305 17.299 26.428 26.445
4 93HG_004 CAR-004 1996 2 14 1996-02-14 10.492 -64.668 426.86 424.0 17.369 36.304 17.297 26.427 26.445
4 93HG_004 CAR-004 1996 2 14 1996-02-14 10.492 -64.668 428.87 426.0 17.367 36.303 17.294 26.427 26.445
4 93HG_004 CAR-004 1996 2 14 1996-02-14 10.492 -64.668 430.89 428.0 17.365 36.301 17.292 26.426 26.444
4 93HG_004 CAR-004 1996 2 14 1996-02-14 10.492 -64.668 432.9 430.0 17.365 36.302 17.291 26.427 26.445
4 93HG_004 CAR-004 1996 2 14 1996-02-14 10.492 -64.668 434.92 432.0 17.364 36.301 17.291 26.426 26.444
4 93HG_004 CAR-004 1996 2 14 1996-02-14 10.492 -64.668 436.94 434.0 17.365 36.299 17.291 26.425 26.443
4 93HG_004 CAR-004 1996 2 14 1996-02-14 10.492 -64.668 438.95 436.0 17.365 36.299 17.29 26.425 26.443
4 93HG_004 CAR-004 1996 2 14 1996-02-14 10.492 -64.668 440.97 438.0 17.364 36.3 17.289 26.426 26.444
4 93HG_004 CAR-004 1996 2 14 1996-02-14 10.492 -64.668 442.98 440.0 17.359 36.301 17.284 26.428 26.446
4 93HG_004 CAR-004 1996 2 14 1996-02-14 10.492 -64.668 445.0 442.0 17.354 36.301 17.278 26.429 26.447
4 93HG_004 CAR-004 1996 2 14 1996-02-14 10.492 -64.668 447.01 444.0 17.345 36.3 17.269 26.43 26.449
4 93HG_004 CAR-004 1996 2 14 1996-02-14 10.492 -64.668 449.03 446.0 17.332 36.299 17.255 26.433 26.451
4 93HG_004 CAR-004 1996 2 14 1996-02-14 10.492 -64.668 451.05 448.0 17.317 36.301 17.241 26.438 26.456
4 93HG_004 CAR-004 1996 2 14 1996-02-14 10.492 -64.668 453.06 450.0 17.313 36.295 17.236 26.434 26.453
4 93HG_004 CAR-004 1996 2 14 1996-02-14 10.492 -64.668 455.08 452.0 17.309 36.297 17.232 26.437 26.455
4 93HG_004 CAR-004 1996 2 14 1996-02-14 10.492 -64.668 457.09 454.0 17.299 36.298 17.222 26.44 26.459
4 93HG_004 CAR-004 1996 2 14 1996-02-14 10.492 -64.668 459.11 456.0 17.292 36.292 17.215 26.437 26.456
4 93HG_004 CAR-004 1996 2 14 1996-02-14 10.492 -64.668 461.12 458.0 17.291 36.29 17.213 26.436 26.455
4 93HG_004 CAR-004 1996 2 14 1996-02-14 10.492 -64.668 463.14 460.0 17.289 36.289 17.21 26.435 26.455
4 93HG_004 CAR-004 1996 2 14 1996-02-14 10.492 -64.668 465.16 462.0 17.281 36.289 17.202 26.437 26.456
4 93HG_004 CAR-004 1996 2 14 1996-02-14 10.492 -64.668 467.17 464.0 17.267 36.293 17.187 26.444 26.463
4 93HG_004 CAR-004 1996 2 14 1996-02-14 10.492 -64.668 469.19 466.0 17.261 36.286 17.181 26.44 26.459
4 93HG_004 CAR-004 1996 2 14 1996-02-14 10.492 -64.668 471.2 468.0 17.259 36.283 17.179 26.438 26.457
4 93HG_004 CAR-004 1996 2 14 1996-02-14 10.492 -64.668 473.22 470.0 17.259 36.28 17.179 26.436 26.455
4 93HG_004 CAR-004 1996 2 14 1996-02-14 10.492 -64.668 475.24 472.0 17.258 36.279 17.178 26.435 26.455
4 93HG_004 CAR-004 1996 2 14 1996-02-14 10.492 -64.668 477.25 474.0 17.257 36.28 17.176 26.436 26.456
4 93HG_004 CAR-004 1996 2 14 1996-02-14 10.492 -64.668 479.27 476.0 17.256 36.279 17.175 26.436 26.455
4 93HG_004 CAR-004 1996 2 14 1996-02-14 10.492 -64.668 481.28 478.0 17.253 36.278 17.172 26.436 26.455
4 93HG_004 CAR-004 1996 2 14 1996-02-14 10.492 -64.668 483.3 480.0 17.251 36.278 17.169 26.436 26.456
4 93HG_004 CAR-004 1996 2 14 1996-02-14 10.492 -64.668 485.32 482.0 17.243 36.28 17.161 26.44 26.459
4 93HG_004 CAR-004 1996 2 14 1996-02-14 10.492 -64.668 487.33 484.0 17.236 36.279 17.154 26.441 26.46
4 93HG_004 CAR-004 1996 2 14 1996-02-14 10.492 -64.668 489.35 486.0 17.235 36.275 17.153 26.438 26.458
4 93HG_004 CAR-004 1996 2 14 1996-02-14 10.492 -64.668 491.37 488.0 17.235 36.276 17.152 26.439 26.458
4 93HG_004 CAR-004 1996 2 14 1996-02-14 10.492 -64.668 493.38 490.0 17.234 36.276 17.15 26.439 26.459
4 93HG_004 CAR-004 1996 2 14 1996-02-14 10.492 -64.668 495.4 492.0 17.231 36.275 17.148 26.439 26.459
4 93HG_004 CAR-004 1996 2 14 1996-02-14 10.492 -64.668 497.41 494.0 17.227 36.275 17.142 26.44 26.46
4 93HG_004 CAR-004 1996 2 14 1996-02-14 10.492 -64.668 499.43 496.0 17.218 36.273 17.134 26.44 26.461
4 93HG_004 CAR-004 1996 2 14 1996-02-14 10.492 -64.668 501.45 498.0 17.214 36.274 17.129 26.442 26.463
4 93HG_004 CAR-004 1996 2 14 1996-02-14 10.492 -64.668 503.46 500.0 17.211 36.271 17.125 26.441 26.461
4 93HG_004 CAR-004 1996 2 14 1996-02-14 10.492 -64.668 505.48 502.0 17.208 17.123
4 93HG_004 CAR-004 1996 2 14 1996-02-14 10.492 -64.668 507.5 504.0 17.207 17.121
4 93HG_004 CAR-004 1996 2 14 1996-02-14 10.492 -64.668 509.51 506.0 17.205 17.119
4 93HG_004 CAR-004 1996 2 14 1996-02-14 10.492 -64.668 511.53 508.0 17.204 17.117
4 93HG_004 CAR-004 1996 2 14 1996-02-14 10.492 -64.668 513.54 510.0 17.202 17.115
4 93HG_004 CAR-004 1996 2 14 1996-02-14 10.492 -64.668 515.56 512.0 17.201 17.114
4 93HG_004 CAR-004 1996 2 14 1996-02-14 10.492 -64.668 517.58 514.0 17.201 17.114
4 93HG_004 CAR-004 1996 2 14 1996-02-14 10.492 -64.668 519.59 516.0 17.201 17.113
4 93HG_004 CAR-004 1996 2 14 1996-02-14 10.492 -64.668 521.61 518.0 17.199 17.111
4 93HG_004 CAR-004 1996 2 14 1996-02-14 10.492 -64.668 523.63 520.0 17.196 17.108
4 93HG_004 CAR-004 1996 2 14 1996-02-14 10.492 -64.668 525.64 522.0 17.193 17.105
4 93HG_004 CAR-004 1996 2 14 1996-02-14 10.492 -64.668 527.66 524.0 17.189 17.1
4 93HG_004 CAR-004 1996 2 14 1996-02-14 10.492 -64.668 529.67 526.0 17.189 17.1
4 93HG_004 CAR-004 1996 2 14 1996-02-14 10.492 -64.668 531.69 528.0 17.188 17.098
4 93HG_004 CAR-004 1996 2 14 1996-02-14 10.492 -64.668 533.71 530.0 17.186 17.096
4 93HG_004 CAR-004 1996 2 14 1996-02-14 10.492 -64.668 535.73 532.0 17.186 17.095
4 93HG_004 CAR-004 1996 2 14 1996-02-14 10.492 -64.668 537.74 534.0 17.186 17.095
4 93HG_004 CAR-004 1996 2 14 1996-02-14 10.492 -64.668 539.76 536.0 17.185 17.094
4 93HG_004 CAR-004 1996 2 14 1996-02-14 10.492 -64.668 541.77 538.0 17.185 17.093
4 93HG_004 CAR-004 1996 2 14 1996-02-14 10.492 -64.668 543.79 540.0 17.185 17.093
4 93HG_004 CAR-004 1996 2 14 1996-02-14 10.492 -64.668 545.81 542.0 17.185 17.093
4 93HG_004 CAR-004 1996 2 14 1996-02-14 10.492 -64.668 547.83 544.0 17.184 17.091
4 93HG_004 CAR-004 1996 2 14 1996-02-14 10.492 -64.668 549.84 546.0 17.184 17.091
4 93HG_004 CAR-004 1996 2 14 1996-02-14 10.492 -64.668 551.86 548.0 17.183 17.09
4 93HG_004 CAR-004 1996 2 14 1996-02-14 10.492 -64.668 553.88 550.0 17.182 17.088
4 93HG_004 CAR-004 1996 2 14 1996-02-14 10.492 -64.668 555.89 552.0 17.181 17.087
4 93HG_004 CAR-004 1996 2 14 1996-02-14 10.492 -64.668 557.91 554.0 17.181 17.087
4 93HG_004 CAR-004 1996 2 14 1996-02-14 10.492 -64.668 559.93 556.0 17.179 17.084
4 93HG_004 CAR-004 1996 2 14 1996-02-14 10.492 -64.668 561.94 558.0 17.177 17.082
4 93HG_004 CAR-004 1996 2 14 1996-02-14 10.492 -64.668 563.96 560.0 17.176 17.08
4 93HG_004 CAR-004 1996 2 14 1996-02-14 10.492 -64.668 565.98 562.0 17.172 17.076
4 93HG_004 CAR-004 1996 2 14 1996-02-14 10.492 -64.668 567.99 564.0 17.172 17.075
4 93HG_004 CAR-004 1996 2 14 1996-02-14 10.492 -64.668 570.01 566.0 17.171 17.075
4 93HG_004 CAR-004 1996 2 14 1996-02-14 10.492 -64.668 572.03 568.0 17.171 17.074
4 93HG_004 CAR-004 1996 2 14 1996-02-14 10.492 -64.668 574.04 570.0 17.17 17.073
4 93HG_004 CAR-004 1996 2 14 1996-02-14 10.492 -64.668 576.06 572.0 17.169 17.072
4 93HG_004 CAR-004 1996 2 14 1996-02-14 10.492 -64.668 578.08 574.0 17.167 17.069
4 93HG_004 CAR-004 1996 2 14 1996-02-14 10.492 -64.668 580.1 576.0 17.165 17.067
4 93HG_004 CAR-004 1996 2 14 1996-02-14 10.492 -64.668 582.11 578.0 17.164 17.066
4 93HG_004 CAR-004 1996 2 14 1996-02-14 10.492 -64.668 584.13 580.0 17.163 17.064
4 93HG_004 CAR-004 1996 2 14 1996-02-14 10.492 -64.668 586.15 582.0 17.163 17.064
4 93HG_004 CAR-004 1996 2 14 1996-02-14 10.492 -64.668 588.16 584.0 17.163 17.063
4 93HG_004 CAR-004 1996 2 14 1996-02-14 10.492 -64.668 590.18 586.0 17.162 17.062
4 93HG_004 CAR-004 1996 2 14 1996-02-14 10.492 -64.668 592.2 588.0 17.16 17.06
4 93HG_004 CAR-004 1996 2 14 1996-02-14 10.492 -64.668 594.22 590.0 17.16 17.059
4 93HG_004 CAR-004 1996 2 14 1996-02-14 10.492 -64.668 596.23 592.0 17.159 17.058
4 93HG_004 CAR-004 1996 2 14 1996-02-14 10.492 -64.668 598.25 594.0 17.158 17.057
4 93HG_004 CAR-004 1996 2 14 1996-02-14 10.492 -64.668 600.27 596.0 17.155 17.053
4 93HG_004 CAR-004 1996 2 14 1996-02-14 10.492 -64.668 602.28 598.0 17.152 17.051
4 93HG_004 CAR-004 1996 2 14 1996-02-14 10.492 -64.668 604.3 600.0 17.151 17.049
4 93HG_004 CAR-004 1996 2 14 1996-02-14 10.492 -64.668 606.32 602.0 17.149 17.046
4 93HG_004 CAR-004 1996 2 14 1996-02-14 10.492 -64.668 608.34 604.0 17.146 17.043
4 93HG_004 CAR-004 1996 2 14 1996-02-14 10.492 -64.668 610.35 606.0 17.144 17.041
4 93HG_004 CAR-004 1996 2 14 1996-02-14 10.492 -64.668 612.37 608.0 17.143 17.039
4 93HG_004 CAR-004 1996 2 14 1996-02-14 10.492 -64.668 614.39 610.0 17.143 17.039
4 93HG_004 CAR-004 1996 2 14 1996-02-14 10.492 -64.668 616.4 612.0 17.141 17.037
4 93HG_004 CAR-004 1996 2 14 1996-02-14 10.492 -64.668 618.42 614.0 17.139 17.034
4 93HG_004 CAR-004 1996 2 14 1996-02-14 10.492 -64.668 620.44 616.0 17.136 17.031
4 93HG_004 CAR-004 1996 2 14 1996-02-14 10.492 -64.668 622.46 618.0 17.135 17.029
4 93HG_004 CAR-004 1996 2 14 1996-02-14 10.492 -64.668 624.47 620.0 17.133 17.028
4 93HG_004 CAR-004 1996 2 14 1996-02-14 10.492 -64.668 626.49 622.0 17.133 17.026
4 93HG_004 CAR-004 1996 2 14 1996-02-14 10.492 -64.668 628.51 624.0 17.131 17.025
4 93HG_004 CAR-004 1996 2 14 1996-02-14 10.492 -64.668 630.53 626.0 17.131 17.024
4 93HG_004 CAR-004 1996 2 14 1996-02-14 10.492 -64.668 632.54 628.0 17.13 17.023
4 93HG_004 CAR-004 1996 2 14 1996-02-14 10.492 -64.668 634.56 630.0 17.13 17.023
4 93HG_004 CAR-004 1996 2 14 1996-02-14 10.492 -64.668 636.58 632.0 17.13 17.022
4 93HG_004 CAR-004 1996 2 14 1996-02-14 10.492 -64.668 638.6 634.0 17.13 17.022
4 93HG_004 CAR-004 1996 2 14 1996-02-14 10.492 -64.668 640.62 636.0 17.129 17.021
4 93HG_004 CAR-004 1996 2 14 1996-02-14 10.492 -64.668 642.63 638.0 17.13 17.021
4 93HG_004 CAR-004 1996 2 14 1996-02-14 10.492 -64.668 644.65 640.0 17.129 17.02
4 93HG_004 CAR-004 1996 2 14 1996-02-14 10.492 -64.668 646.67 642.0 17.129 17.02
4 93HG_004 CAR-004 1996 2 14 1996-02-14 10.492 -64.668 648.68 644.0 17.126 17.016
4 93HG_004 CAR-004 1996 2 14 1996-02-14 10.492 -64.668 650.7 646.0 17.125 17.015
4 93HG_004 CAR-004 1996 2 14 1996-02-14 10.492 -64.668 652.72 648.0 17.125 17.014
4 93HG_004 CAR-004 1996 2 14 1996-02-14 10.492 -64.668 654.74 650.0 17.125 17.014
4 93HG_004 CAR-004 1996 2 14 1996-02-14 10.492 -64.668 656.76 652.0 17.125 17.014
4 93HG_004 CAR-004 1996 2 14 1996-02-14 10.492 -64.668 658.77 654.0 17.125 17.014
4 93HG_004 CAR-004 1996 2 14 1996-02-14 10.492 -64.668 660.79 656.0 17.125 17.013
4 93HG_004 CAR-004 1996 2 14 1996-02-14 10.492 -64.668 662.81 658.0 17.124 17.012
4 93HG_004 CAR-004 1996 2 14 1996-02-14 10.492 -64.668 664.83 660.0 17.123 17.01
4 93HG_004 CAR-004 1996 2 14 1996-02-14 10.492 -64.668 666.85 662.0 17.12 17.007
4 93HG_004 CAR-004 1996 2 14 1996-02-14 10.492 -64.668 668.86 664.0 17.12 17.007
4 93HG_004 CAR-004 1996 2 14 1996-02-14 10.492 -64.668 670.88 666.0 17.12 17.007
4 93HG_004 CAR-004 1996 2 14 1996-02-14 10.492 -64.668 672.9 668.0 17.119 17.005
4 93HG_004 CAR-004 1996 2 14 1996-02-14 10.492 -64.668 674.92 670.0 17.118 17.003
4 93HG_004 CAR-004 1996 2 14 1996-02-14 10.492 -64.668 676.93 672.0 17.118 17.004
4 93HG_004 CAR-004 1996 2 14 1996-02-14 10.492 -64.668 678.95 674.0 17.117 17.002
4 93HG_004 CAR-004 1996 2 14 1996-02-14 10.492 -64.668 680.97 676.0 17.118 17.002
4 93HG_004 CAR-004 1996 2 14 1996-02-14 10.492 -64.668 682.99 678.0 17.116 17.0
4 93HG_004 CAR-004 1996 2 14 1996-02-14 10.492 -64.668 685.01 680.0 17.116 17.0
4 93HG_004 CAR-004 1996 2 14 1996-02-14 10.492 -64.668 687.02 682.0 17.114 16.998
4 93HG_004 CAR-004 1996 2 14 1996-02-14 10.492 -64.668 689.04 684.0 17.112 16.995
4 93HG_004 CAR-004 1996 2 14 1996-02-14 10.492 -64.668 691.06 686.0 17.112 16.995
4 93HG_004 CAR-004 1996 2 14 1996-02-14 10.492 -64.668 693.08 688.0 17.112 16.995
4 93HG_004 CAR-004 1996 2 14 1996-02-14 10.492 -64.668 695.1 690.0 17.112 16.994
4 93HG_004 CAR-004 1996 2 14 1996-02-14 10.492 -64.668 697.12 692.0 17.112 16.994
4 93HG_004 CAR-004 1996 2 14 1996-02-14 10.492 -64.668 699.13 694.0 17.111 16.993
4 93HG_004 CAR-004 1996 2 14 1996-02-14 10.492 -64.668 701.15 696.0 17.112 16.993
4 93HG_004 CAR-004 1996 2 14 1996-02-14 10.492 -64.668 703.17 698.0 17.113 16.994
4 93HG_004 CAR-004 1996 2 14 1996-02-14 10.492 -64.668 705.19 700.0 17.112 16.993
4 93HG_004 CAR-004 1996 2 14 1996-02-14 10.492 -64.668 707.21 702.0 17.113 16.993
4 93HG_004 CAR-004 1996 2 14 1996-02-14 10.492 -64.668 709.23 704.0 17.113 16.993
4 93HG_004 CAR-004 1996 2 14 1996-02-14 10.492 -64.668 711.24 706.0 17.113 16.993
4 93HG_004 CAR-004 1996 2 14 1996-02-14 10.492 -64.668 713.26 708.0 17.113 16.993
4 93HG_004 CAR-004 1996 2 14 1996-02-14 10.492 -64.668 715.28 710.0 17.111 16.99
4 93HG_004 CAR-004 1996 2 14 1996-02-14 10.492 -64.668 717.3 712.0 17.11 16.988
4 93HG_004 CAR-004 1996 2 14 1996-02-14 10.492 -64.668 719.32 714.0 17.109 16.987
4 93HG_004 CAR-004 1996 2 14 1996-02-14 10.492 -64.668 721.34 716.0 17.108 16.986
4 93HG_004 CAR-004 1996 2 14 1996-02-14 10.492 -64.668 723.35 718.0 17.11 16.987
4 93HG_004 CAR-004 1996 2 14 1996-02-14 10.492 -64.668 725.37 720.0 17.111 16.988
4 93HG_004 CAR-004 1996 2 14 1996-02-14 10.492 -64.668 727.39 722.0 17.109 16.986
4 93HG_004 CAR-004 1996 2 14 1996-02-14 10.492 -64.668 729.41 724.0 17.109 16.985
4 93HG_004 CAR-004 1996 2 14 1996-02-14 10.492 -64.668 731.43 726.0 17.107 16.983
4 93HG_004 CAR-004 1996 2 14 1996-02-14 10.492 -64.668 733.45 728.0 17.105 16.981
4 93HG_004 CAR-004 1996 2 14 1996-02-14 10.492 -64.668 735.46 730.0 17.104 16.98
4 93HG_004 CAR-004 1996 2 14 1996-02-14 10.492 -64.668 737.48 732.0 17.104 16.979
4 93HG_004 CAR-004 1996 2 14 1996-02-14 10.492 -64.668 739.5 734.0 17.103 16.978
4 93HG_004 CAR-004 1996 2 14 1996-02-14 10.492 -64.668 741.52 736.0 17.104 16.978
4 93HG_004 CAR-004 1996 2 14 1996-02-14 10.492 -64.668 743.54 738.0 17.104 16.978
4 93HG_004 CAR-004 1996 2 14 1996-02-14 10.492 -64.668 745.56 740.0 17.104 16.977
4 93HG_004 CAR-004 1996 2 14 1996-02-14 10.492 -64.668 747.58 742.0 17.104 16.977
4 93HG_004 CAR-004 1996 2 14 1996-02-14 10.492 -64.668 749.59 744.0 17.104 16.977
4 93HG_004 CAR-004 1996 2 14 1996-02-14 10.492 -64.668 751.61 746.0 17.101 16.974
4 93HG_004 CAR-004 1996 2 14 1996-02-14 10.492 -64.668 753.63 748.0 17.101 16.973
4 93HG_004 CAR-004 1996 2 14 1996-02-14 10.492 -64.668 755.65 750.0 17.101 16.973
4 93HG_004 CAR-004 1996 2 14 1996-02-14 10.492 -64.668 757.67 752.0 17.1 16.972
4 93HG_004 CAR-004 1996 2 14 1996-02-14 10.492 -64.668 759.69 754.0 17.1 16.972
4 93HG_004 CAR-004 1996 2 14 1996-02-14 10.492 -64.668 761.71 756.0 17.1 16.971
4 93HG_004 CAR-004 1996 2 14 1996-02-14 10.492 -64.668 763.73 758.0 17.102 16.972
4 93HG_004 CAR-004 1996 2 14 1996-02-14 10.492 -64.668 765.74 760.0 17.101 16.972
4 93HG_004 CAR-004 1996 2 14 1996-02-14 10.492 -64.668 767.76 762.0 17.1 16.97
4 93HG_004 CAR-004 1996 2 14 1996-02-14 10.492 -64.668 769.78 764.0 17.101 16.971
4 93HG_004 CAR-004 1996 2 14 1996-02-14 10.492 -64.668 771.8 766.0 17.099 16.968
4 93HG_004 CAR-004 1996 2 14 1996-02-14 10.492 -64.668 773.82 768.0 17.099 16.968
4 93HG_004 CAR-004 1996 2 14 1996-02-14 10.492 -64.668 775.84 770.0 17.098 16.967
4 93HG_004 CAR-004 1996 2 14 1996-02-14 10.492 -64.668 777.86 772.0 17.098 16.966
4 93HG_004 CAR-004 1996 2 14 1996-02-14 10.492 -64.668 779.88 774.0 17.1 16.968
4 93HG_004 CAR-004 1996 2 14 1996-02-14 10.492 -64.668 781.89 776.0 17.097 16.965
4 93HG_004 CAR-004 1996 2 14 1996-02-14 10.492 -64.668 783.91 778.0 17.096 16.963
4 93HG_004 CAR-004 1996 2 14 1996-02-14 10.492 -64.668 785.93 780.0 17.096 16.963
4 93HG_004 CAR-004 1996 2 14 1996-02-14 10.492 -64.668 787.95 782.0 17.097 16.964
4 93HG_004 CAR-004 1996 2 14 1996-02-14 10.492 -64.668 789.97 784.0 17.096 16.962
4 93HG_004 CAR-004 1996 2 14 1996-02-14 10.492 -64.668 791.99 786.0 17.097 16.962
4 93HG_004 CAR-004 1996 2 14 1996-02-14 10.492 -64.668 794.01 788.0 17.096 16.962
4 93HG_004 CAR-004 1996 2 14 1996-02-14 10.492 -64.668 796.03 790.0 17.096 16.961
4 93HG_004 CAR-004 1996 2 14 1996-02-14 10.492 -64.668 798.05 792.0 17.095 16.959
4 93HG_004 CAR-004 1996 2 14 1996-02-14 10.492 -64.668 800.07 794.0 17.094 16.958
4 93HG_004 CAR-004 1996 2 14 1996-02-14 10.492 -64.668 802.09 796.0 17.094 16.958
4 93HG_004 CAR-004 1996 2 14 1996-02-14 10.492 -64.668 804.11 798.0 17.094 16.958
4 93HG_004 CAR-004 1996 2 14 1996-02-14 10.492 -64.668 806.12 800.0 17.095 16.958
4 93HG_004 CAR-004 1996 2 14 1996-02-14 10.492 -64.668 808.14 802.0 17.096 16.959
4 93HG_004 CAR-004 1996 2 14 1996-02-14 10.492 -64.668 810.16 804.0 17.097 16.959
4 93HG_004 CAR-004 1996 2 14 1996-02-14 10.492 -64.668 812.18 806.0 17.095 16.957
4 93HG_004 CAR-004 1996 2 14 1996-02-14 10.492 -64.668 814.2 808.0 17.095 16.957
4 93HG_004 CAR-004 1996 2 14 1996-02-14 10.492 -64.668 816.22 810.0 17.095 16.957
4 93HG_004 CAR-004 1996 2 14 1996-02-14 10.492 -64.668 818.24 812.0 17.095 16.956
4 93HG_004 CAR-004 1996 2 14 1996-02-14 10.492 -64.668 820.26 814.0 17.095 16.956
4 93HG_004 CAR-004 1996 2 14 1996-02-14 10.492 -64.668 822.28 816.0 17.095 16.956
4 93HG_004 CAR-004 1996 2 14 1996-02-14 10.492 -64.668 824.3 818.0 17.095 16.955
4 93HG_004 CAR-004 1996 2 14 1996-02-14 10.492 -64.668 826.32 820.0 17.095 16.955
4 93HG_004 CAR-004 1996 2 14 1996-02-14 10.492 -64.668 828.34 822.0 17.096 16.956
4 93HG_004 CAR-004 1996 2 14 1996-02-14 10.492 -64.668 830.36 824.0 17.096 16.955
4 93HG_004 CAR-004 1996 2 14 1996-02-14 10.492 -64.668 832.38 826.0 17.095 16.954
4 93HG_004 CAR-004 1996 2 14 1996-02-14 10.492 -64.668 834.39 828.0 17.094 16.952
4 93HG_004 CAR-004 1996 2 14 1996-02-14 10.492 -64.668 836.41 830.0 17.095 16.953
4 93HG_004 CAR-004 1996 2 14 1996-02-14 10.492 -64.668 838.43 832.0 17.095 16.953
4 93HG_004 CAR-004 1996 2 14 1996-02-14 10.492 -64.668 840.45 834.0 17.093 16.95
4 93HG_004 CAR-004 1996 2 14 1996-02-14 10.492 -64.668 842.47 836.0 17.092 16.949
4 93HG_004 CAR-004 1996 2 14 1996-02-14 10.492 -64.668 844.49 838.0 17.093 16.949
4 93HG_004 CAR-004 1996 2 14 1996-02-14 10.492 -64.668 846.51 840.0 17.094 16.95
4 93HG_004 CAR-004 1996 2 14 1996-02-14 10.492 -64.668 848.53 842.0 17.093 16.949
4 93HG_004 CAR-004 1996 2 14 1996-02-14 10.492 -64.668 850.55 844.0 17.093 16.949
4 93HG_004 CAR-004 1996 2 14 1996-02-14 10.492 -64.668 852.57 846.0 17.092 16.948
4 93HG_004 CAR-004 1996 2 14 1996-02-14 10.492 -64.668 854.59 848.0 17.093 16.948
4 93HG_004 CAR-004 1996 2 14 1996-02-14 10.492 -64.668 856.61 850.0 17.093 16.947
4 93HG_004 CAR-004 1996 2 14 1996-02-14 10.492 -64.668 858.63 852.0 17.093 16.947
4 93HG_004 CAR-004 1996 2 14 1996-02-14 10.492 -64.668 860.65 854.0 17.093 16.947
4 93HG_004 CAR-004 1996 2 14 1996-02-14 10.492 -64.668 862.67 856.0 17.093 16.947
4 93HG_004 CAR-004 1996 2 14 1996-02-14 10.492 -64.668 864.69 858.0 17.093 16.947
4 93HG_004 CAR-004 1996 2 14 1996-02-14 10.492 -64.668 866.71 860.0 17.092 16.945
4 93HG_004 CAR-004 1996 2 14 1996-02-14 10.492 -64.668 868.73 862.0 17.093 16.946
4 93HG_004 CAR-004 1996 2 14 1996-02-14 10.492 -64.668 870.75 864.0 17.092 16.944
4 93HG_004 CAR-004 1996 2 14 1996-02-14 10.492 -64.668 872.77 866.0 17.093 16.945
4 93HG_004 CAR-004 1996 2 14 1996-02-14 10.492 -64.668 874.79 868.0 17.094 16.945
4 93HG_004 CAR-004 1996 2 14 1996-02-14 10.492 -64.668 876.81 870.0 17.094 16.945
4 93HG_004 CAR-004 1996 2 14 1996-02-14 10.492 -64.668 878.83 872.0 17.094 16.944
4 93HG_004 CAR-004 1996 2 14 1996-02-14 10.492 -64.668 880.85 874.0 17.093 16.944
4 93HG_004 CAR-004 1996 2 14 1996-02-14 10.492 -64.668 882.87 876.0 17.093 16.943
4 93HG_004 CAR-004 1996 2 14 1996-02-14 10.492 -64.668 884.89 878.0 17.093 16.942
4 93HG_004 CAR-004 1996 2 14 1996-02-14 10.492 -64.668 886.91 880.0 17.093 16.942
4 93HG_004 CAR-004 1996 2 14 1996-02-14 10.492 -64.668 888.93 882.0 17.094 16.943
4 93HG_004 CAR-004 1996 2 14 1996-02-14 10.492 -64.668 890.95 884.0 17.092 16.941
4 93HG_004 CAR-004 1996 2 14 1996-02-14 10.492 -64.668 892.97 886.0 17.092 16.941
4 93HG_004 CAR-004 1996 2 14 1996-02-14 10.492 -64.668 894.99 888.0 17.093 16.94
4 93HG_004 CAR-004 1996 2 14 1996-02-14 10.492 -64.668 897.01 890.0 17.093 16.941
4 93HG_004 CAR-004 1996 2 14 1996-02-14 10.492 -64.668 899.03 892.0 17.093 16.941
4 93HG_004 CAR-004 1996 2 14 1996-02-14 10.492 -64.668 901.05 894.0 17.093 16.94
4 93HG_004 CAR-004 1996 2 14 1996-02-14 10.492 -64.668 903.07 896.0 17.094 16.941
4 93HG_004 CAR-004 1996 2 14 1996-02-14 10.492 -64.668 905.09 898.0 17.093 16.939
4 93HG_004 CAR-004 1996 2 14 1996-02-14 10.492 -64.668 907.11 900.0 17.092 16.938
4 93HG_004 CAR-004 1996 2 14 1996-02-14 10.492 -64.668 909.13 902.0 17.093 16.938
4 93HG_004 CAR-004 1996 2 14 1996-02-14 10.492 -64.668 911.15 904.0 17.093 16.938
4 93HG_004 CAR-004 1996 2 14 1996-02-14 10.492 -64.668 913.17 906.0 17.093 16.938
4 93HG_004 CAR-004 1996 2 14 1996-02-14 10.492 -64.668 915.19 908.0 17.092 16.937
4 93HG_004 CAR-004 1996 2 14 1996-02-14 10.492 -64.668 917.21 910.0 17.094 16.938
4 93HG_004 CAR-004 1996 2 14 1996-02-14 10.492 -64.668 919.23 912.0 17.094 16.938
4 93HG_004 CAR-004 1996 2 14 1996-02-14 10.492 -64.668 921.25 914.0 17.095 16.938
4 93HG_004 CAR-004 1996 2 14 1996-02-14 10.492 -64.668 923.27 916.0 17.093 16.936
4 93HG_004 CAR-004 1996 2 14 1996-02-14 10.492 -64.668 925.29 918.0 17.094 16.936
4 93HG_004 CAR-004 1996 2 14 1996-02-14 10.492 -64.668 927.31 920.0 17.095 16.937
4 93HG_004 CAR-004 1996 2 14 1996-02-14 10.492 -64.668 929.33 922.0 17.094 16.936
4 93HG_004 CAR-004 1996 2 14 1996-02-14 10.492 -64.668 931.35 924.0 17.094 16.936
4 93HG_004 CAR-004 1996 2 14 1996-02-14 10.492 -64.668 933.37 926.0 17.095 16.936
4 93HG_004 CAR-004 1996 2 14 1996-02-14 10.492 -64.668 935.39 928.0 17.093 16.934
4 93HG_004 CAR-004 1996 2 14 1996-02-14 10.492 -64.668 937.41 930.0 17.092 16.932
4 93HG_004 CAR-004 1996 2 14 1996-02-14 10.492 -64.668 939.43 932.0 17.091 16.932
4 93HG_004 CAR-004 1996 2 14 1996-02-14 10.492 -64.668 941.46 934.0 17.092 16.932
4 93HG_004 CAR-004 1996 2 14 1996-02-14 10.492 -64.668 943.48 936.0 17.092 16.932
4 93HG_004 CAR-004 1996 2 14 1996-02-14 10.492 -64.668 945.5 938.0 17.092 16.931
4 93HG_004 CAR-004 1996 2 14 1996-02-14 10.492 -64.668 947.52 940.0 17.095 16.934
4 93HG_004 CAR-004 1996 2 14 1996-02-14 10.492 -64.668 949.54 942.0 17.091 16.929
4 93HG_004 CAR-004 1996 2 14 1996-02-14 10.492 -64.668 951.56 944.0 17.094 16.932
4 93HG_004 CAR-004 1996 2 14 1996-02-14 10.492 -64.668 953.58 946.0 17.094 16.932
4 93HG_004 CAR-004 1996 2 14 1996-02-14 10.492 -64.668 955.6 948.0 17.094 16.932
4 93HG_004 CAR-004 1996 2 14 1996-02-14 10.492 -64.668 957.62 950.0 17.096 16.933
4 93HG_004 CAR-004 1996 2 14 1996-02-14 10.492 -64.668 959.64 952.0 17.089 16.925
4 93HG_004 CAR-004 1996 2 14 1996-02-14 10.492 -64.668 961.66 954.0 17.094 16.93
4 93HG_004 CAR-004 1996 2 14 1996-02-14 10.492 -64.668 963.68 956.0 17.092 16.927
4 93HG_004 CAR-004 1996 2 14 1996-02-14 10.492 -64.668 965.7 958.0 17.099 16.935
4 93HG_004 CAR-004 1996 2 14 1996-02-14 10.492 -64.668 967.72 960.0 17.102 16.937
4 93HG_004 CAR-004 1996 2 14 1996-02-14 10.492 -64.668 969.74 962.0 17.105 16.94
4 93HG_004 CAR-004 1996 2 14 1996-02-14 10.492 -64.668 971.76 964.0 17.102 16.936
4 93HG_004 CAR-004 1996 2 14 1996-02-14 10.492 -64.668 973.78 966.0 17.103 16.938
4 93HG_004 CAR-004 1996 2 14 1996-02-14 10.492 -64.668 975.81 968.0 17.108 16.942
4 93HG_004 CAR-004 1996 2 14 1996-02-14 10.492 -64.668 977.83 970.0 17.106 16.939
4 93HG_004 CAR-004 1996 2 14 1996-02-14 10.492 -64.668 979.85 972.0 17.109 16.942
4 93HG_004 CAR-004 1996 2 14 1996-02-14 10.492 -64.668 981.87 974.0 17.108 16.94
4 93HG_004 CAR-004 1996 2 14 1996-02-14 10.492 -64.668 983.89 976.0 17.113 16.946
4 93HG_004 CAR-004 1996 2 14 1996-02-14 10.492 -64.668 985.91 978.0 17.116 16.948
4 93HG_004 CAR-004 1996 2 14 1996-02-14 10.492 -64.668 987.93 980.0 17.11 16.942
4 93HG_004 CAR-004 1996 2 14 1996-02-14 10.492 -64.668 989.95 982.0 17.119 16.95
4 93HG_004 CAR-004 1996 2 14 1996-02-14 10.492 -64.668 991.97 984.0 17.113 16.944
4 93HG_004 CAR-004 1996 2 14 1996-02-14 10.492 -64.668 993.99 986.0 17.112 16.942
4 93HG_004 CAR-004 1996 2 14 1996-02-14 10.492 -64.668 996.01 988.0 17.111 16.942
4 93HG_004 CAR-004 1996 2 14 1996-02-14 10.492 -64.668 998.04 990.0 17.11 16.94
4 93HG_004 CAR-004 1996 2 14 1996-02-14 10.492 -64.668 1000.1 992.0 17.102 16.932
4 93HG_004 CAR-004 1996 2 14 1996-02-14 10.492 -64.668 1002.1 994.0 17.109 16.938
4 93HG_004 CAR-004 1996 2 14 1996-02-14 10.492 -64.668 1004.1 996.0 17.12 16.949
4 93HG_004 CAR-004 1996 2 14 1996-02-14 10.492 -64.668 1006.1 998.0 17.111 16.939
4 93HG_004 CAR-004 1996 2 14 1996-02-14 10.492 -64.668 1008.1 1000.0 17.111 16.939
4 93HG_004 CAR-004 1996 2 14 1996-02-14 10.492 -64.668 1010.2 1002.0 17.106 16.934
4 93HG_004 CAR-004 1996 2 14 1996-02-14 10.492 -64.668 1012.2 1004.0 17.095 16.922
4 93HG_004 CAR-004 1996 2 14 1996-02-14 10.492 -64.668 1014.2 1006.0 17.106 16.933
4 93HG_004 CAR-004 1996 2 14 1996-02-14 10.492 -64.668 1016.2 1008.0 17.106 16.933
4 93HG_004 CAR-004 1996 2 14 1996-02-14 10.492 -64.668 1018.2 1010.0 17.105 16.931
4 93HG_004 CAR-004 1996 2 14 1996-02-14 10.492 -64.668 1020.3 1012.0 17.102 16.928
4 93HG_004 CAR-004 1996 2 14 1996-02-14 10.492 -64.668 1022.3 1014.0 17.098 16.924
4 93HG_004 CAR-004 1996 2 14 1996-02-14 10.492 -64.668 1024.3 1016.0 17.095 16.92
4 93HG_004 CAR-004 1996 2 14 1996-02-14 10.492 -64.668 1026.3 1018.0 17.094 16.919
4 93HG_004 CAR-004 1996 2 14 1996-02-14 10.492 -64.668 1028.4 1020.0 17.09 16.915
4 93HG_004 CAR-004 1996 2 14 1996-02-14 10.492 -64.668 1030.4 1022.0 17.095 16.919
4 93HG_004 CAR-004 1996 2 14 1996-02-14 10.492 -64.668 1032.4 1024.0 17.107 16.931
4 93HG_004 CAR-004 1996 2 14 1996-02-14 10.492 -64.668 1034.4 1026.0 17.106 16.93
4 93HG_004 CAR-004 1996 2 14 1996-02-14 10.492 -64.668 1036.4 1028.0 17.097 16.92
4 93HG_004 CAR-004 1996 2 14 1996-02-14 10.492 -64.668 1038.5 1030.0 17.091 16.914
4 93HG_004 CAR-004 1996 2 14 1996-02-14 10.492 -64.668 1040.5 1032.0 17.088 16.91
4 93HG_004 CAR-004 1996 2 14 1996-02-14 10.492 -64.668 1042.5 1034.0 17.104 16.926
4 93HG_004 CAR-004 1996 2 14 1996-02-14 10.492 -64.668 1044.5 1036.0 17.101 16.923
4 93HG_004 CAR-004 1996 2 14 1996-02-14 10.492 -64.668 1046.5 1038.0 17.095 16.916
4 93HG_004 CAR-004 1996 2 14 1996-02-14 10.492 -64.668 1048.6 1040.0 17.095 16.916
4 93HG_004 CAR-004 1996 2 14 1996-02-14 10.492 -64.668 1050.6 1042.0 17.1 16.921
4 93HG_004 CAR-004 1996 2 14 1996-02-14 10.492 -64.668 1052.6 1044.0 17.106 16.927
4 93HG_004 CAR-004 1996 2 14 1996-02-14 10.492 -64.668 1054.6 1046.0 17.096 16.916
4 93HG_004 CAR-004 1996 2 14 1996-02-14 10.492 -64.668 1056.7 1048.0 17.094 16.914
4 93HG_004 CAR-004 1996 2 14 1996-02-14 10.492 -64.668 1058.7 1050.0 17.106 16.925
4 93HG_004 CAR-004 1996 2 14 1996-02-14 10.492 -64.668 1060.7 1052.0 17.108 16.927
4 93HG_004 CAR-004 1996 2 14 1996-02-14 10.492 -64.668 1062.7 1054.0 17.115 16.934
4 93HG_004 CAR-004 1996 2 14 1996-02-14 10.492 -64.668 1064.7 1056.0 17.122 16.94
4 93HG_004 CAR-004 1996 2 14 1996-02-14 10.492 -64.668 1066.8 1058.0 17.1 16.918
4 93HG_004 CAR-004 1996 2 14 1996-02-14 10.492 -64.668 1068.8 1060.0 17.104 16.922
4 93HG_004 CAR-004 1996 2 14 1996-02-14 10.492 -64.668 1070.8 1062.0 17.106 16.923
4 93HG_004 CAR-004 1996 2 14 1996-02-14 10.492 -64.668 1072.8 1064.0 17.109 16.926
4 93HG_004 CAR-004 1996 2 14 1996-02-14 10.492 -64.668 1074.8 1066.0 17.105 16.921
4 93HG_004 CAR-004 1996 2 14 1996-02-14 10.492 -64.668 1076.9 1068.0 17.09 16.906
4 93HG_004 CAR-004 1996 2 14 1996-02-14 10.492 -64.668 1078.9 1070.0 17.093 16.909
4 93HG_004 CAR-004 1996 2 14 1996-02-14 10.492 -64.668 1080.9 1072.0 17.084 16.899
4 93HG_004 CAR-004 1996 2 14 1996-02-14 10.492 -64.668 1082.9 1074.0 17.096 16.912
4 93HG_004 CAR-004 1996 2 14 1996-02-14 10.492 -64.668 1085.0 1076.0 17.107 16.922
4 93HG_004 CAR-004 1996 2 14 1996-02-14 10.492 -64.668 1087.0 1078.0 17.101 16.915
4 93HG_004 CAR-004 1996 2 14 1996-02-14 10.492 -64.668 1089.0 1080.0 17.091 16.906
4 93HG_004 CAR-004 1996 2 14 1996-02-14 10.492 -64.668 1091.0 1082.0 17.084 16.898
4 93HG_004 CAR-004 1996 2 14 1996-02-14 10.492 -64.668 1093.0 1084.0 17.095 16.909
4 93HG_004 CAR-004 1996 2 14 1996-02-14 10.492 -64.668 1095.1 1086.0 17.112 16.925
4 93HG_004 CAR-004 1996 2 14 1996-02-14 10.492 -64.668 1097.1 1088.0 17.108 16.921
4 93HG_004 CAR-004 1996 2 14 1996-02-14 10.492 -64.668 1099.1 1090.0 17.101 16.913
4 93HG_004 CAR-004 1996 2 14 1996-02-14 10.492 -64.668 1101.1 1092.0 17.103 16.915
4 93HG_004 CAR-004 1996 2 14 1996-02-14 10.492 -64.668 1103.2 1094.0 17.099 16.911
4 93HG_004 CAR-004 1996 2 14 1996-02-14 10.492 -64.668 1105.2 1096.0 17.108 16.919
4 93HG_004 CAR-004 1996 2 14 1996-02-14 10.492 -64.668 1107.2 1098.0 17.112 16.923
4 93HG_004 CAR-004 1996 2 14 1996-02-14 10.492 -64.668 1109.2 1100.0 17.108 16.919
4 93HG_004 CAR-004 1996 2 14 1996-02-14 10.492 -64.668 1111.2 1102.0 17.122 16.932
4 93HG_004 CAR-004 1996 2 14 1996-02-14 10.492 -64.668 1113.3 1104.0 17.108 16.918
4 93HG_004 CAR-004 1996 2 14 1996-02-14 10.492 -64.668 1115.3 1106.0 17.127 16.936
4 93HG_004 CAR-004 1996 2 14 1996-02-14 10.492 -64.668 1117.3 1108.0 17.103 16.912
4 93HG_004 CAR-004 1996 2 14 1996-02-14 10.492 -64.668 1119.3 1110.0 17.111 16.919
4 93HG_004 CAR-004 1996 2 14 1996-02-14 10.492 -64.668 1121.4 1112.0 17.108 16.916
4 93HG_004 CAR-004 1996 2 14 1996-02-14 10.492 -64.668 1123.4 1114.0 17.112 16.92
4 93HG_004 CAR-004 1996 2 14 1996-02-14 10.492 -64.668 1125.4 1116.0 17.114 16.922
4 93HG_004 CAR-004 1996 2 14 1996-02-14 10.492 -64.668 1127.4 1118.0 17.104 16.912
4 93HG_004 CAR-004 1996 2 14 1996-02-14 10.492 -64.668 1129.4 1120.0 17.112 16.919
4 93HG_004 CAR-004 1996 2 14 1996-02-14 10.492 -64.668 1131.5 1122.0 17.104 16.91
4 93HG_004 CAR-004 1996 2 14 1996-02-14 10.492 -64.668 1133.5 1124.0 17.103 16.91
4 93HG_004 CAR-004 1996 2 14 1996-02-14 10.492 -64.668 1135.5 1126.0 17.1 16.906
4 93HG_004 CAR-004 1996 2 14 1996-02-14 10.492 -64.668 1137.5 1128.0 17.1 16.905
4 93HG_004 CAR-004 1996 2 14 1996-02-14 10.492 -64.668 1139.6 1130.0 17.102 16.907
4 93HG_004 CAR-004 1996 2 14 1996-02-14 10.492 -64.668 1141.6 1132.0 17.097 16.902
4 93HG_004 CAR-004 1996 2 14 1996-02-14 10.492 -64.668 1143.6 1134.0 17.101 16.905
4 93HG_004 CAR-004 1996 2 14 1996-02-14 10.492 -64.668 1145.6 1136.0 17.104 16.908
4 93HG_004 CAR-004 1996 2 14 1996-02-14 10.492 -64.668 1147.6 1138.0 17.114 16.918
4 93HG_004 CAR-004 1996 2 14 1996-02-14 10.492 -64.668 1149.7 1140.0 17.094 16.898
4 93HG_004 CAR-004 1996 2 14 1996-02-14 10.492 -64.668 1151.7 1142.0 17.094 16.897
4 93HG_004 CAR-004 1996 2 14 1996-02-14 10.492 -64.668 1153.7 1144.0 17.095 16.898
4 93HG_004 CAR-004 1996 2 14 1996-02-14 10.492 -64.668 1155.7 1146.0 17.092 16.894
4 93HG_004 CAR-004 1996 2 14 1996-02-14 10.492 -64.668 1157.8 1148.0 17.094 16.896
4 93HG_004 CAR-004 1996 2 14 1996-02-14 10.492 -64.668 1159.8 1150.0 17.076 16.878
4 93HG_004 CAR-004 1996 2 14 1996-02-14 10.492 -64.668 1161.8 1152.0 17.079 16.881
4 93HG_004 CAR-004 1996 2 14 1996-02-14 10.492 -64.668 1163.8 1154.0 17.099 16.9
4 93HG_004 CAR-004 1996 2 14 1996-02-14 10.492 -64.668 1165.8 1156.0 17.097 16.898
4 93HG_004 CAR-004 1996 2 14 1996-02-14 10.492 -64.668 1167.9 1158.0 17.088 16.888
4 93HG_004 CAR-004 1996 2 14 1996-02-14 10.492 -64.668 1169.9 1160.0 17.089 16.889
4 93HG_004 CAR-004 1996 2 14 1996-02-14 10.492 -64.668 1171.9 1162.0 17.104 16.903
4 93HG_004 CAR-004 1996 2 14 1996-02-14 10.492 -64.668 1173.9 1164.0 17.109 16.908
4 93HG_004 CAR-004 1996 2 14 1996-02-14 10.492 -64.668 1176.0 1166.0 17.092 16.89
4 93HG_004 CAR-004 1996 2 14 1996-02-14 10.492 -64.668 1178.0 1168.0 17.111 16.91
4 93HG_004 CAR-004 1996 2 14 1996-02-14 10.492 -64.668 1180.0 1170.0 17.099 16.897
4 93HG_004 CAR-004 1996 2 14 1996-02-14 10.492 -64.668 1182.0 1172.0 17.106 16.904
4 93HG_004 CAR-004 1996 2 14 1996-02-14 10.492 -64.668 1184.1 1174.0 17.107 16.904
4 93HG_004 CAR-004 1996 2 14 1996-02-14 10.492 -64.668 1186.1 1176.0 17.105 16.902
4 93HG_004 CAR-004 1996 2 14 1996-02-14 10.492 -64.668 1188.1 1178.0 17.119 16.915
4 93HG_004 CAR-004 1996 2 14 1996-02-14 10.492 -64.668 1190.1 1180.0 17.099 16.895
4 93HG_004 CAR-004 1996 2 14 1996-02-14 10.492 -64.668 1192.1 1182.0 17.099 16.896
4 93HG_004 CAR-004 1996 2 14 1996-02-14 10.492 -64.668 1194.2 1184.0 17.105 16.901
4 93HG_004 CAR-004 1996 2 14 1996-02-14 10.492 -64.668 1196.2 1186.0 17.096 16.892
4 93HG_004 CAR-004 1996 2 14 1996-02-14 10.492 -64.668 1198.2 1188.0 17.084 16.879
4 93HG_004 CAR-004 1996 2 14 1996-02-14 10.492 -64.668 1200.2 1190.0 17.098 16.892
4 93HG_004 CAR-004 1996 2 14 1996-02-14 10.492 -64.668 1202.3 1192.0 17.076 16.87
4 93HG_004 CAR-004 1996 2 14 1996-02-14 10.492 -64.668 1204.3 1194.0 17.081 16.875
4 93HG_004 CAR-004 1996 2 14 1996-02-14 10.492 -64.668 1206.3 1196.0 17.08 16.873
4 93HG_004 CAR-004 1996 2 14 1996-02-14 10.492 -64.668 1208.3 1198.0 17.083 16.876
4 93HG_004 CAR-004 1996 2 14 1996-02-14 10.492 -64.668 1210.4 1200.0 17.081 16.873
4 93HG_004 CAR-004 1996 2 14 1996-02-14 10.492 -64.668 1212.4 1202.0 17.096 16.889
4 93HG_004 CAR-004 1996 2 14 1996-02-14 10.492 -64.668 1214.4 1204.0 17.101 16.893
4 93HG_004 CAR-004 1996 2 14 1996-02-14 10.492 -64.668 1216.4 1206.0 17.087 16.879
4 93HG_004 CAR-004 1996 2 14 1996-02-14 10.492 -64.668 1218.4 1208.0 17.098 16.889
4 93HG_004 CAR-004 1996 2 14 1996-02-14 10.492 -64.668 1220.5 1210.0 17.106 16.897
4 93HG_004 CAR-004 1996 2 14 1996-02-14 10.492 -64.668 1222.5 1212.0 17.098 16.889
4 93HG_004 CAR-004 1996 2 14 1996-02-14 10.492 -64.668 1224.5 1214.0 17.096 16.886
4 93HG_004 CAR-004 1996 2 14 1996-02-14 10.492 -64.668 1226.5 1216.0 17.093 16.883
4 93HG_004 CAR-004 1996 2 14 1996-02-14 10.492 -64.668 1228.6 1218.0 17.099 16.889
4 93HG_004 CAR-004 1996 2 14 1996-02-14 10.492 -64.668 1230.6 1220.0 17.107 16.896
4 93HG_004 CAR-004 1996 2 14 1996-02-14 10.492 -64.668 1232.6 1222.0 17.115 16.903
4 93HG_004 CAR-004 1996 2 14 1996-02-14 10.492 -64.668 1234.6 1224.0 17.11 16.898
4 93HG_004 CAR-004 1996 2 14 1996-02-14 10.492 -64.668 1236.7 1226.0 17.113 16.901
4 93HG_004 CAR-004 1996 2 14 1996-02-14 10.492 -64.668 1238.7 1228.0 17.115 16.903
4 93HG_004 CAR-004 1996 2 14 1996-02-14 10.492 -64.668 1240.7 1230.0 17.12 16.907
4 93HG_004 CAR-004 1996 2 14 1996-02-14 10.492 -64.668 1242.7 1232.0 17.129 16.916
4 93HG_004 CAR-004 1996 2 14 1996-02-14 10.492 -64.668 1244.7 1234.0 17.109 16.895
4 93HG_004 CAR-004 1996 2 14 1996-02-14 10.492 -64.668 1246.8 1236.0 17.117 16.903
4 93HG_004 CAR-004 1996 2 14 1996-02-14 10.492 -64.668 1248.8 1238.0 17.126 16.912
4 93HG_004 CAR-004 1996 2 14 1996-02-14 10.492 -64.668 1250.8 1240.0 17.141 16.926
4 93HG_004 CAR-004 1996 2 14 1996-02-14 10.492 -64.668 1252.8 1242.0 17.137 16.922
4 93HG_004 CAR-004 1996 2 14 1996-02-14 10.492 -64.668 1254.9 1244.0 17.131 16.916
5 93HG_005 CAR-005 1996 3 13 1996-03-13 10.5 -64.667 1.006 1.0 22.842 36.873 22.842 25.401 25.401 4.157 2.358
5 93HG_005 CAR-005 1996 3 13 1996-03-13 10.5 -64.667 2.011 2.0 22.843 36.874 22.843 25.401 25.401 4.106 2.478
5 93HG_005 CAR-005 1996 3 13 1996-03-13 10.5 -64.667 3.017 3.0 22.823 36.866 22.823 25.401 25.401 4.006 2.56
5 93HG_005 CAR-005 1996 3 13 1996-03-13 10.5 -64.667 4.023 4.0 22.784 36.866 22.783 25.412 25.413 3.953 2.689
5 93HG_005 CAR-005 1996 3 13 1996-03-13 10.5 -64.667 5.029 5.0 22.736 36.866 22.735 25.426 25.426 3.887 2.837
5 93HG_005 CAR-005 1996 3 13 1996-03-13 10.5 -64.667 6.034 6.0 22.688 36.849 22.687 25.427 25.427 3.769 2.82
5 93HG_005 CAR-005 1996 3 13 1996-03-13 10.5 -64.667 7.04 7.0 22.612 36.849 22.611 25.449 25.449 3.672 2.82
5 93HG_005 CAR-005 1996 3 13 1996-03-13 10.5 -64.667 8.046 8.0 22.471 36.839 22.47 25.482 25.482 3.594 2.874
5 93HG_005 CAR-005 1996 3 13 1996-03-13 10.5 -64.667 9.051 9.0 22.33 36.837 22.328 25.521 25.522 3.579 2.921
5 93HG_005 CAR-005 1996 3 13 1996-03-13 10.5 -64.667 10.057 10.0 22.229 36.859 22.227 25.566 25.567 3.591 2.91
5 93HG_005 CAR-005 1996 3 13 1996-03-13 10.5 -64.667 11.063 11.0 22.182 36.866 22.179 25.585 25.586 3.579 2.821
5 93HG_005 CAR-005 1996 3 13 1996-03-13 10.5 -64.667 12.069 12.0 22.147 36.87 22.145 25.598 25.598 3.56 2.768
5 93HG_005 CAR-005 1996 3 13 1996-03-13 10.5 -64.667 13.075 13.0 22.131 36.872 22.128 25.604 25.605 3.535 2.793
5 93HG_005 CAR-005 1996 3 13 1996-03-13 10.5 -64.667 14.08 14.0 22.116 36.873 22.113 25.609 25.61 3.496 2.806
5 93HG_005 CAR-005 1996 3 13 1996-03-13 10.5 -64.667 15.086 15.0 22.11 36.872 22.107 25.61 25.611 3.461 2.834
5 93HG_005 CAR-005 1996 3 13 1996-03-13 10.5 -64.667 16.092 16.0 22.088 36.87 22.085 25.615 25.615 3.43 2.702
5 93HG_005 CAR-005 1996 3 13 1996-03-13 10.5 -64.667 17.097 17.0 22.084 36.87 22.081 25.615 25.616 3.413 2.675
5 93HG_005 CAR-005 1996 3 13 1996-03-13 10.5 -64.667 18.103 18.0 22.08 36.87 22.077 25.617 25.618 3.386 2.641
5 93HG_005 CAR-005 1996 3 13 1996-03-13 10.5 -64.667 19.109 19.0 22.068 36.868 22.064 25.619 25.62 3.341 2.583
5 93HG_005 CAR-005 1996 3 13 1996-03-13 10.5 -64.667 20.115 20.0 22.051 36.869 22.047 25.624 25.625 3.275 2.379
5 93HG_005 CAR-005 1996 3 13 1996-03-13 10.5 -64.667 21.121 21.0 22.045 36.872 22.041 25.628 25.629 3.145 1.249
5 93HG_005 CAR-005 1996 3 13 1996-03-13 10.5 -64.667 22.127 22.0 22.042 36.869 22.037 25.627 25.628 2.946 0.681
5 93HG_005 CAR-005 1996 3 13 1996-03-13 10.5 -64.667 23.132 23.0 22.025 36.861 22.02 25.626 25.627 2.868 0.491
5 93HG_005 CAR-005 1996 3 13 1996-03-13 10.5 -64.667 24.138 24.0 22.001 36.868 21.996 25.638 25.639 2.835 0.374
5 93HG_005 CAR-005 1996 3 13 1996-03-13 10.5 -64.667 25.144 25.0 21.99 36.858 21.985 25.633 25.635 2.812 0.285
5 93HG_005 CAR-005 1996 3 13 1996-03-13 10.5 -64.667 26.15 26.0 21.954 36.833 21.949 25.624 25.626 2.789 0.26
5 93HG_005 CAR-005 1996 3 13 1996-03-13 10.5 -64.667 27.156 27.0 21.815 36.822 21.81 25.655 25.657 2.77 0.256
5 93HG_005 CAR-005 1996 3 13 1996-03-13 10.5 -64.667 28.162 28.0 21.666 36.822 21.661 25.697 25.698 2.768 0.258
5 93HG_005 CAR-005 1996 3 13 1996-03-13 10.5 -64.667 29.167 29.0 21.634 36.832 21.628 25.714 25.715 2.757 0.254
5 93HG_005 CAR-005 1996 3 13 1996-03-13 10.5 -64.667 30.173 30.0 21.609 36.832 21.603 25.72 25.722 2.749 0.24
5 93HG_005 CAR-005 1996 3 13 1996-03-13 10.5 -64.667 31.179 31.0 21.547 36.868 21.541 25.765 25.767 2.724 0.226
5 93HG_005 CAR-005 1996 3 13 1996-03-13 10.5 -64.667 32.185 32.0 21.535 36.859 21.529 25.762 25.764 2.704 0.204
5 93HG_005 CAR-005 1996 3 13 1996-03-13 10.5 -64.667 33.191 33.0 21.503 36.859 21.496 25.771 25.773 2.676 0.18
5 93HG_005 CAR-005 1996 3 13 1996-03-13 10.5 -64.667 34.196 34.0 21.477 36.864 21.47 25.782 25.784 2.657 0.164
5 93HG_005 CAR-005 1996 3 13 1996-03-13 10.5 -64.667 35.203 35.0 21.447 36.86 21.44 25.787 25.789 2.657 0.125
5 93HG_005 CAR-005 1996 3 13 1996-03-13 10.5 -64.667 36.208 36.0 21.421 36.864 21.413 25.797 25.799 2.666 0.112
5 93HG_005 CAR-005 1996 3 13 1996-03-13 10.5 -64.667 37.214 37.0 21.399 36.843 21.392 25.787 25.789 2.665 0.105
5 93HG_005 CAR-005 1996 3 13 1996-03-13 10.5 -64.667 38.22 38.0 21.33 36.843 21.323 25.807 25.809 2.653 0.098
5 93HG_005 CAR-005 1996 3 13 1996-03-13 10.5 -64.667 39.226 39.0 21.288 36.834 21.281 25.811 25.813 2.648 0.095
5 93HG_005 CAR-005 1996 3 13 1996-03-13 10.5 -64.667 40.232 40.0 21.238 36.834 21.23 25.825 25.827 2.662 0.087
5 93HG_005 CAR-005 1996 3 13 1996-03-13 10.5 -64.667 41.238 41.0 21.192 36.846 21.184 25.847 25.849 2.661 0.076
5 93HG_005 CAR-005 1996 3 13 1996-03-13 10.5 -64.667 42.244 42.0 21.16 36.849 21.152 25.858 25.861 2.656 0.071
5 93HG_005 CAR-005 1996 3 13 1996-03-13 10.5 -64.667 43.25 43.0 21.141 36.844 21.132 25.86 25.862 2.653 0.069
5 93HG_005 CAR-005 1996 3 13 1996-03-13 10.5 -64.667 44.255 44.0 21.122 36.845 21.113 25.866 25.868 2.652 0.07
5 93HG_005 CAR-005 1996 3 13 1996-03-13 10.5 -64.667 45.261 45.0 21.106 36.843 21.098 25.869 25.871 2.65 0.068
5 93HG_005 CAR-005 1996 3 13 1996-03-13 10.5 -64.667 46.267 46.0 21.093 36.834 21.084 25.866 25.868 2.639 0.067
5 93HG_005 CAR-005 1996 3 13 1996-03-13 10.5 -64.667 47.273 47.0 21.051 36.837 21.041 25.879 25.882 2.634 0.07
5 93HG_005 CAR-005 1996 3 13 1996-03-13 10.5 -64.667 48.279 48.0 21.023 36.847 21.013 25.895 25.897 2.627 0.073
5 93HG_005 CAR-005 1996 3 13 1996-03-13 10.5 -64.667 49.285 49.0 20.994 36.842 20.985 25.898 25.901 2.606 0.073
5 93HG_005 CAR-005 1996 3 13 1996-03-13 10.5 -64.667 50.291 50.0 20.959 36.84 20.949 25.907 25.91 2.586 0.065
5 93HG_005 CAR-005 1996 3 13 1996-03-13 10.5 -64.667 51.297 51.0 20.933 36.829 20.923 25.905 25.908 2.55 0.065
5 93HG_005 CAR-005 1996 3 13 1996-03-13 10.5 -64.667 52.303 52.0 20.908 36.82 20.898 25.906 25.909 2.528 0.066
5 93HG_005 CAR-005 1996 3 13 1996-03-13 10.5 -64.667 53.309 53.0 20.877 36.818 20.866 25.913 25.916 2.511 0.065
5 93HG_005 CAR-005 1996 3 13 1996-03-13 10.5 -64.667 54.315 54.0 20.868 36.821 20.857 25.917 25.92 2.492 0.064
5 93HG_005 CAR-005 1996 3 13 1996-03-13 10.5 -64.667 55.321 55.0 20.855 36.813 20.844 25.915 25.917 2.476 0.065
5 93HG_005 CAR-005 1996 3 13 1996-03-13 10.5 -64.667 56.327 56.0 20.829 36.814 20.818 25.923 25.926 2.459 0.066
5 93HG_005 CAR-005 1996 3 13 1996-03-13 10.5 -64.667 57.333 57.0 20.817 36.806 20.806 25.92 25.923 2.433 0.061
5 93HG_005 CAR-005 1996 3 13 1996-03-13 10.5 -64.667 58.339 58.0 20.789 36.8 20.778 25.923 25.926 2.413 0.059
5 93HG_005 CAR-005 1996 3 13 1996-03-13 10.5 -64.667 59.345 59.0 20.745 36.794 20.733 25.93 25.933 2.38 0.064
5 93HG_005 CAR-005 1996 3 13 1996-03-13 10.5 -64.667 60.351 60.0 20.701 36.802 20.689 25.948 25.951 2.363 0.065
5 93HG_005 CAR-005 1996 3 13 1996-03-13 10.5 -64.667 61.357 61.0 20.692 36.795 20.681 25.945 25.948 2.34 0.066
5 93HG_005 CAR-005 1996 3 13 1996-03-13 10.5 -64.667 62.363 62.0 20.652 36.776 20.64 25.942 25.945 2.319 0.067
5 93HG_005 CAR-005 1996 3 13 1996-03-13 10.5 -64.667 63.369 63.0 20.594 36.756 20.582 25.942 25.945 2.314 0.066
5 93HG_005 CAR-005 1996 3 13 1996-03-13 10.5 -64.667 64.375 64.0 20.556 36.757 20.544 25.953 25.956 2.315 0.063
5 93HG_005 CAR-005 1996 3 13 1996-03-13 10.5 -64.667 65.381 65.0 20.544 36.759 20.532 25.958 25.962 2.31 0.06
5 93HG_005 CAR-005 1996 3 13 1996-03-13 10.5 -64.667 66.387 66.0 20.532 36.754 20.519 25.957 25.961 2.297 0.061
5 93HG_005 CAR-005 1996 3 13 1996-03-13 10.5 -64.667 67.393 67.0 20.51 36.758 20.497 25.967 25.97 2.293 0.061
5 93HG_005 CAR-005 1996 3 13 1996-03-13 10.5 -64.667 68.399 68.0 20.5 36.756 20.487 25.968 25.971 2.284 0.058
5 93HG_005 CAR-005 1996 3 13 1996-03-13 10.5 -64.667 69.405 69.0 20.487 36.753 20.474 25.969 25.972 2.281 0.061
5 93HG_005 CAR-005 1996 3 13 1996-03-13 10.5 -64.667 70.411 70.0 20.459 36.745 20.446 25.97 25.974 2.264 0.062
5 93HG_005 CAR-005 1996 3 13 1996-03-13 10.5 -64.667 71.417 71.0 20.419 36.732 20.405 25.971 25.975 2.256 0.06
5 93HG_005 CAR-005 1996 3 13 1996-03-13 10.5 -64.667 72.423 72.0 20.395 36.73 20.381 25.976 25.98 2.253 0.055
5 93HG_005 CAR-005 1996 3 13 1996-03-13 10.5 -64.667 73.429 73.0 20.372 36.729 20.358 25.982 25.985 2.248 0.051
5 93HG_005 CAR-005 1996 3 13 1996-03-13 10.5 -64.667 74.435 74.0 20.349 36.719 20.335 25.98 25.984 2.241 0.051
5 93HG_005 CAR-005 1996 3 13 1996-03-13 10.5 -64.667 75.442 75.0 20.322 36.715 20.308 25.984 25.988 2.229 0.051
5 93HG_005 CAR-005 1996 3 13 1996-03-13 10.5 -64.667 76.448 76.0 20.298 36.716 20.284 25.992 25.996 2.219 0.051
5 93HG_005 CAR-005 1996 3 13 1996-03-13 10.5 -64.667 77.453 77.0 20.274 36.722 20.259 26.003 26.007 2.219 0.054
5 93HG_005 CAR-005 1996 3 13 1996-03-13 10.5 -64.667 78.459 78.0 20.257 36.724 20.242 26.009 26.012 2.217 0.054
5 93HG_005 CAR-005 1996 3 13 1996-03-13 10.5 -64.667 79.465 79.0 20.255 36.709 20.241 25.998 26.002 2.21 0.051
5 93HG_005 CAR-005 1996 3 13 1996-03-13 10.5 -64.667 80.472 80.0 20.23 36.688 20.215 25.988 25.992 2.208 0.054
5 93HG_005 CAR-005 1996 3 13 1996-03-13 10.5 -64.667 81.478 81.0 20.149 36.694 20.134 26.015 26.019 2.208 0.056
5 93HG_005 CAR-005 1996 3 13 1996-03-13 10.5 -64.667 82.484 82.0 20.123 36.703 20.108 26.029 26.033 2.214 0.056
5 93HG_005 CAR-005 1996 3 13 1996-03-13 10.5 -64.667 83.49 83.0 20.114 36.691 20.099 26.022 26.026 2.209 0.056
5 93HG_005 CAR-005 1996 3 13 1996-03-13 10.5 -64.667 84.496 84.0 20.08 36.699 20.064 26.037 26.041 2.215 0.056
5 93HG_005 CAR-005 1996 3 13 1996-03-13 10.5 -64.667 85.502 85.0 20.065 36.705 20.049 26.046 26.05 2.224 0.055
5 93HG_005 CAR-005 1996 3 13 1996-03-13 10.5 -64.667 86.508 86.0 20.065 36.709 20.049 26.049 26.053 2.226 0.054
5 93HG_005 CAR-005 1996 3 13 1996-03-13 10.5 -64.667 87.515 87.0 20.07 36.71 20.053 26.049 26.053 2.232 0.053
5 93HG_005 CAR-005 1996 3 13 1996-03-13 10.5 -64.667 88.521 88.0 20.066 36.71 20.05 26.049 26.054 2.242 0.053
5 93HG_005 CAR-005 1996 3 13 1996-03-13 10.5 -64.667 89.527 89.0 20.061 36.71 20.044 26.051 26.055 2.25 0.054
5 93HG_005 CAR-005 1996 3 13 1996-03-13 10.5 -64.667 90.533 90.0 20.055 36.707 20.038 26.049 26.054 2.257 0.053
5 93HG_005 CAR-005 1996 3 13 1996-03-13 10.5 -64.667 91.539 91.0 20.05 36.699 20.033 26.045 26.049 2.279 0.051
5 93HG_005 CAR-005 1996 3 13 1996-03-13 10.5 -64.667 92.545 92.0 20.036 36.699 20.019 26.048 26.053 2.291 0.049
5 93HG_005 CAR-005 1996 3 13 1996-03-13 10.5 -64.667 93.551 93.0 20.018 36.697 20.001 26.052 26.056 2.301 0.051
5 93HG_005 CAR-005 1996 3 13 1996-03-13 10.5 -64.667 94.558 94.0 20.003 36.696 19.986 26.056 26.06 2.302 0.049
5 93HG_005 CAR-005 1996 3 13 1996-03-13 10.5 -64.667 95.563 95.0 19.998 36.689 19.98 26.052 26.056 2.301 0.049
5 93HG_005 CAR-005 1996 3 13 1996-03-13 10.5 -64.667 96.57 96.0 19.985 36.694 19.967 26.058 26.063 2.303 0.053
5 93HG_005 CAR-005 1996 3 13 1996-03-13 10.5 -64.667 97.576 97.0 19.977 36.691 19.959 26.058 26.063 2.307 0.052
5 93HG_005 CAR-005 1996 3 13 1996-03-13 10.5 -64.667 98.582 98.0 19.961 36.693 19.943 26.064 26.069 2.312 0.051
5 93HG_005 CAR-005 1996 3 13 1996-03-13 10.5 -64.667 99.588 99.0 19.947 36.697 19.928 26.071 26.076 2.324 0.052
5 93HG_005 CAR-005 1996 3 13 1996-03-13 10.5 -64.667 100.6 100.0 19.94 36.695 19.922 26.071 26.076 2.339 0.053
5 93HG_005 CAR-005 1996 3 13 1996-03-13 10.5 -64.667 101.6 101.0 19.934 36.699 19.915 26.076 26.081 2.345 0.05
5 93HG_005 CAR-005 1996 3 13 1996-03-13 10.5 -64.667 102.61 102.0 19.951 36.684 19.932 26.071 26.076 2.344 0.049
5 93HG_005 CAR-005 1996 3 13 1996-03-13 10.5 -64.667 103.61 103.0 19.803 36.679 19.784 26.1 2.344 0.05
5 93HG_005 CAR-005 1996 3 13 1996-03-13 10.5 -64.667 104.62 104.0 19.792 36.681 19.772 26.105 2.348 0.052
5 93HG_005 CAR-005 1996 3 13 1996-03-13 10.5 -64.667 105.63 105.0 19.783 36.682 19.764 26.108 2.35 0.052
5 93HG_005 CAR-005 1996 3 13 1996-03-13 10.5 -64.667 106.63 106.0 19.774 36.682 19.754 26.111 2.352 0.049
5 93HG_005 CAR-005 1996 3 13 1996-03-13 10.5 -64.667 107.64 107.0 19.767 36.679 19.747 26.11 2.343
5 93HG_005 CAR-005 1996 3 13 1996-03-13 10.5 -64.667 108.64 108.0 19.754 36.678 19.734 26.113 2.334
5 93HG_005 CAR-005 1996 3 13 1996-03-13 10.5 -64.667 109.65 109.0 19.749 36.679 19.729 26.115 2.339
5 93HG_005 CAR-005 1996 3 13 1996-03-13 10.5 -64.667 110.66 110.0 19.743 36.675 19.723 26.113 2.346
5 93HG_005 CAR-005 1996 3 13 1996-03-13 10.5 -64.667 111.66 111.0 19.718 36.67 19.697 26.117 2.352
5 93HG_005 CAR-005 1996 3 13 1996-03-13 10.5 -64.667 112.67 112.0 19.678 36.664 19.657 26.123 2.342
5 93HG_005 CAR-005 1996 3 13 1996-03-13 10.5 -64.667 113.68 113.0 19.645 36.667 19.625 26.134 2.321
5 93HG_005 CAR-005 1996 3 13 1996-03-13 10.5 -64.667 114.68 114.0 19.645 36.667 19.623 26.134 2.29
5 93HG_005 CAR-005 1996 3 13 1996-03-13 10.5 -64.667 115.69 115.0 19.644 36.667 19.623 26.134 2.268
5 93HG_005 CAR-005 1996 3 13 1996-03-13 10.5 -64.667 116.69 116.0 19.639 36.661 19.617 26.131 2.241
5 93HG_005 CAR-005 1996 3 13 1996-03-13 10.5 -64.667 117.7 117.0 19.608 36.654 19.587 26.133 2.226
5 93HG_005 CAR-005 1996 3 13 1996-03-13 10.5 -64.667 118.71 118.0 19.587 36.652 19.566 26.137 2.209
5 93HG_005 CAR-005 1996 3 13 1996-03-13 10.5 -64.667 119.71 119.0 19.569 36.646 19.547 26.137 2.198
5 93HG_005 CAR-005 1996 3 13 1996-03-13 10.5 -64.667 120.72 120.0 19.543 36.648 19.521 26.146 2.191
5 93HG_005 CAR-005 1996 3 13 1996-03-13 10.5 -64.667 121.72 121.0 19.53 36.642 19.508 26.144 2.168
5 93HG_005 CAR-005 1996 3 13 1996-03-13 10.5 -64.667 122.73 122.0 19.5 36.64 19.477 26.151 2.175
5 93HG_005 CAR-005 1996 3 13 1996-03-13 10.5 -64.667 123.74 123.0 19.486 36.636 19.463 26.152 2.204
5 93HG_005 CAR-005 1996 3 13 1996-03-13 10.5 -64.667 124.75 124.0 19.466 36.634 19.444 26.155 2.223
5 93HG_005 CAR-005 1996 3 13 1996-03-13 10.5 -64.667 125.75 125.0 19.451 36.63 19.427 26.157 2.229
5 93HG_005 CAR-005 1996 3 13 1996-03-13 10.5 -64.667 126.76 126.0 19.429 36.626 19.406 26.159 2.233
5 93HG_005 CAR-005 1996 3 13 1996-03-13 10.5 -64.667 127.76 127.0 19.39 36.615 19.367 26.161 2.24
5 93HG_005 CAR-005 1996 3 13 1996-03-13 10.5 -64.667 128.77 128.0 19.35 36.606 19.327 26.165 2.255
5 93HG_005 CAR-005 1996 3 13 1996-03-13 10.5 -64.667 129.78 129.0 19.324 36.62 19.301 26.182 2.271
5 93HG_005 CAR-005 1996 3 13 1996-03-13 10.5 -64.667 130.78 130.0 19.318 36.62 19.294 26.184 2.259
5 93HG_005 CAR-005 1996 3 13 1996-03-13 10.5 -64.667 131.79 131.0 19.314 36.618 19.29 26.183 2.267
5 93HG_005 CAR-005 1996 3 13 1996-03-13 10.5 -64.667 132.79 132.0 19.308 36.622 19.284 26.188 2.294
5 93HG_005 CAR-005 1996 3 13 1996-03-13 10.5 -64.667 133.8 133.0 19.309 36.62 19.284 26.187 2.293
5 93HG_005 CAR-005 1996 3 13 1996-03-13 10.5 -64.667 134.81 134.0 19.305 36.614 19.281 26.183 2.292
5 93HG_005 CAR-005 1996 3 13 1996-03-13 10.5 -64.667 135.81 135.0 19.289 36.605 19.265 26.18 2.259
5 93HG_005 CAR-005 1996 3 13 1996-03-13 10.5 -64.667 136.82 136.0 19.262 36.602 19.237 26.185 2.234
5 93HG_005 CAR-005 1996 3 13 1996-03-13 10.5 -64.667 137.83 137.0 19.243 36.596 19.218 26.186 2.212
5 93HG_005 CAR-005 1996 3 13 1996-03-13 10.5 -64.667 138.83 138.0 19.222 36.608 19.197 26.2 2.186
5 93HG_005 CAR-005 1996 3 13 1996-03-13 10.5 -64.667 139.84 139.0 19.221 36.607 19.196 26.2 2.155
5 93HG_005 CAR-005 1996 3 13 1996-03-13 10.5 -64.667 140.85 140.0 19.22 36.604 19.194 26.198 2.125
5 93HG_005 CAR-005 1996 3 13 1996-03-13 10.5 -64.667 141.85 141.0 19.203 36.595 19.177 26.195 2.096
5 93HG_005 CAR-005 1996 3 13 1996-03-13 10.5 -64.667 142.86 142.0 19.176 36.594 19.15 26.201 2.038
5 93HG_005 CAR-005 1996 3 13 1996-03-13 10.5 -64.667 143.87 143.0 19.165 36.594 19.139 26.204 1.965
5 93HG_005 CAR-005 1996 3 13 1996-03-13 10.5 -64.667 144.87 144.0 19.155 36.591 19.129 26.204 1.902
5 93HG_005 CAR-005 1996 3 13 1996-03-13 10.5 -64.667 145.88 145.0 19.129 36.585 19.103 26.207 1.841
5 93HG_005 CAR-005 1996 3 13 1996-03-13 10.5 -64.667 146.88 146.0 19.111 36.581 19.084 26.208 1.759
5 93HG_005 CAR-005 1996 3 13 1996-03-13 10.5 -64.667 147.89 147.0 19.074 36.577 19.047 26.215 1.718
5 93HG_005 CAR-005 1996 3 13 1996-03-13 10.5 -64.667 148.9 148.0 19.042 36.565 19.016 26.214 1.691
5 93HG_005 CAR-005 1996 3 13 1996-03-13 10.5 -64.667 149.9 149.0 19.0 36.558 18.973 26.22 1.66
5 93HG_005 CAR-005 1996 3 13 1996-03-13 10.5 -64.667 150.91 150.0 18.966 36.556 18.939 26.227 1.7
5 93HG_005 CAR-005 1996 3 13 1996-03-13 10.5 -64.667 151.92 151.0 18.923 36.546 18.895 26.23 1.701
5 93HG_005 CAR-005 1996 3 13 1996-03-13 10.5 -64.667 152.92 152.0 18.894 36.543 18.866 26.235 1.648
5 93HG_005 CAR-005 1996 3 13 1996-03-13 10.5 -64.667 153.93 153.0 18.874 36.545 18.846 26.242 1.615
5 93HG_005 CAR-005 1996 3 13 1996-03-13 10.5 -64.667 154.94 154.0 18.861 36.538 18.833 26.241 1.581
5 93HG_005 CAR-005 1996 3 13 1996-03-13 10.5 -64.667 155.94 155.0 18.849 36.542 18.822 26.246 1.564
5 93HG_005 CAR-005 1996 3 13 1996-03-13 10.5 -64.667 156.95 156.0 18.847 36.546 18.819 26.25 1.555
5 93HG_005 CAR-005 1996 3 13 1996-03-13 10.5 -64.667 157.96 157.0 18.838 36.538 18.81 26.246 1.539
5 93HG_005 CAR-005 1996 3 13 1996-03-13 10.5 -64.667 158.96 158.0 18.819 36.538 18.791 26.251 1.497
5 93HG_005 CAR-005 1996 3 13 1996-03-13 10.5 -64.667 159.97 159.0 18.806 36.535 18.777 26.252 1.459
5 93HG_005 CAR-005 1996 3 13 1996-03-13 10.5 -64.667 160.97 160.0 18.794 36.534 18.765 26.255 1.399
5 93HG_005 CAR-005 1996 3 13 1996-03-13 10.5 -64.667 161.98 161.0 18.784 36.531 18.755 26.255 1.331
5 93HG_005 CAR-005 1996 3 13 1996-03-13 10.5 -64.667 162.99 162.0 18.772 36.517 18.743 26.248 1.313
5 93HG_005 CAR-005 1996 3 13 1996-03-13 10.5 -64.667 163.99 163.0 18.737 36.508 18.708 26.249 1.292
5 93HG_005 CAR-005 1996 3 13 1996-03-13 10.5 -64.667 165.0 164.0 18.714 36.513 18.685 26.259 1.259
5 93HG_005 CAR-005 1996 3 13 1996-03-13 10.5 -64.667 166.01 165.0 18.684 36.503 18.654 26.259 1.23
5 93HG_005 CAR-005 1996 3 13 1996-03-13 10.5 -64.667 167.01 166.0 18.624 36.493 18.594 26.267 1.214
5 93HG_005 CAR-005 1996 3 13 1996-03-13 10.5 -64.667 168.02 167.0 18.607 36.504 18.577 26.279 1.2
5 93HG_005 CAR-005 1996 3 13 1996-03-13 10.5 -64.667 169.03 168.0 18.599 36.504 18.569 26.282 1.183
5 93HG_005 CAR-005 1996 3 13 1996-03-13 10.5 -64.667 170.03 169.0 18.589 36.497 18.559 26.279 1.172
5 93HG_005 CAR-005 1996 3 13 1996-03-13 10.5 -64.667 171.04 170.0 18.569 36.499 18.539 26.285 1.161
5 93HG_005 CAR-005 1996 3 13 1996-03-13 10.5 -64.667 172.05 171.0 18.559 36.498 18.529 26.287 1.129
5 93HG_005 CAR-005 1996 3 13 1996-03-13 10.5 -64.667 173.05 172.0 18.557 36.498 18.526 26.288 1.092
5 93HG_005 CAR-005 1996 3 13 1996-03-13 10.5 -64.667 174.06 173.0 18.553 36.498 18.523 26.288 1.054
5 93HG_005 CAR-005 1996 3 13 1996-03-13 10.5 -64.667 175.07 174.0 18.548 36.493 18.517 26.286 1.02
5 93HG_005 CAR-005 1996 3 13 1996-03-13 10.5 -64.667 176.07 175.0 18.542 36.494 18.511 26.288 1.0
5 93HG_005 CAR-005 1996 3 13 1996-03-13 10.5 -64.667 177.08 176.0 18.53 36.491 18.499 26.289 0.929
5 93HG_005 CAR-005 1996 3 13 1996-03-13 10.5 -64.667 178.09 177.0 18.5 36.478 18.468 26.287 0.891
5 93HG_005 CAR-005 1996 3 13 1996-03-13 10.5 -64.667 179.09 178.0 18.456 36.477 18.424 26.297 0.853
5 93HG_005 CAR-005 1996 3 13 1996-03-13 10.5 -64.667 180.1 179.0 18.43 36.477 18.398 26.304 0.826
5 93HG_005 CAR-005 1996 3 13 1996-03-13 10.5 -64.667 181.11 180.0 18.417 36.478 18.385 26.308 0.806
5 93HG_005 CAR-005 1996 3 13 1996-03-13 10.5 -64.667 182.11 181.0 18.404 36.467 18.372 26.303 0.782
5 93HG_005 CAR-005 1996 3 13 1996-03-13 10.5 -64.667 183.12 182.0 18.375 36.469 18.342 26.312 0.768
5 93HG_005 CAR-005 1996 3 13 1996-03-13 10.5 -64.667 184.13 183.0 18.367 36.464 18.334 26.31 0.753
5 93HG_005 CAR-005 1996 3 13 1996-03-13 10.5 -64.667 185.13 184.0 18.354 36.466 18.322 26.315 0.733
5 93HG_005 CAR-005 1996 3 13 1996-03-13 10.5 -64.667 186.14 185.0 18.347 36.467 18.314 26.318 0.701
5 93HG_005 CAR-005 1996 3 13 1996-03-13 10.5 -64.667 187.15 186.0 18.34 36.464 18.308 26.317 0.667
5 93HG_005 CAR-005 1996 3 13 1996-03-13 10.5 -64.667 188.15 187.0 18.329 36.465 18.297 26.321 0.633
5 93HG_005 CAR-005 1996 3 13 1996-03-13 10.5 -64.667 189.16 188.0 18.327 36.465 18.294 26.321 0.61
5 93HG_005 CAR-005 1996 3 13 1996-03-13 10.5 -64.667 190.16 189.0 18.321 36.461 18.288 26.319 0.593
5 93HG_005 CAR-005 1996 3 13 1996-03-13 10.5 -64.667 191.17 190.0 18.308 36.459 18.274 26.321 0.573
5 93HG_005 CAR-005 1996 3 13 1996-03-13 10.5 -64.667 192.18 191.0 18.294 36.458 18.26 26.324 0.541
5 93HG_005 CAR-005 1996 3 13 1996-03-13 10.5 -64.667 193.19 192.0 18.279 36.457 18.245 26.327 0.508
5 93HG_005 CAR-005 1996 3 13 1996-03-13 10.5 -64.667 194.19 193.0 18.27 36.456 18.236 26.329 0.481
5 93HG_005 CAR-005 1996 3 13 1996-03-13 10.5 -64.667 195.2 194.0 18.264 36.454 18.23 26.329 0.461
5 93HG_005 CAR-005 1996 3 13 1996-03-13 10.5 -64.667 196.21 195.0 18.26 36.45 18.225 26.327 0.446
5 93HG_005 CAR-005 1996 3 13 1996-03-13 10.5 -64.667 197.21 196.0 18.251 36.444 18.216 26.324 0.432
5 93HG_005 CAR-005 1996 3 13 1996-03-13 10.5 -64.667 198.22 197.0 18.233 36.445 18.198 26.33 0.415
5 93HG_005 CAR-005 1996 3 13 1996-03-13 10.5 -64.667 199.22 198.0 18.218 36.44 18.183 26.33 0.39
5 93HG_005 CAR-005 1996 3 13 1996-03-13 10.5 -64.667 200.23 199.0 18.196 36.443 18.161 26.337 0.372
5 93HG_005 CAR-005 1996 3 13 1996-03-13 10.5 -64.667 201.24 200.0 18.189 36.445 18.154 26.341 0.354
5 93HG_005 CAR-005 1996 3 13 1996-03-13 10.5 -64.667 202.25 201.0 18.189 36.443 18.153 26.34 0.338
5 93HG_005 CAR-005 1996 3 13 1996-03-13 10.5 -64.667 203.25 202.0 18.185 36.441 18.15 26.339 0.325
5 93HG_005 CAR-005 1996 3 13 1996-03-13 10.5 -64.667 204.26 203.0 18.171 36.434 18.136 26.337 0.314
5 93HG_005 CAR-005 1996 3 13 1996-03-13 10.5 -64.667 205.26 204.0 18.153 36.437 18.118 26.344 0.305
5 93HG_005 CAR-005 1996 3 13 1996-03-13 10.5 -64.667 206.27 205.0 18.148 36.432 18.112 26.341 0.293
5 93HG_005 CAR-005 1996 3 13 1996-03-13 10.5 -64.667 207.28 206.0 18.136 36.435 18.1 26.346 0.281
5 93HG_005 CAR-005 1996 3 13 1996-03-13 10.5 -64.667 208.29 207.0 18.133 36.429 18.097 26.343 0.267
5 93HG_005 CAR-005 1996 3 13 1996-03-13 10.5 -64.667 209.29 208.0 18.12 36.427 18.083 26.345 0.254
5 93HG_005 CAR-005 1996 3 13 1996-03-13 10.5 -64.667 210.3 209.0 18.102 36.429 18.065 26.351 0.241
5 93HG_005 CAR-005 1996 3 13 1996-03-13 10.5 -64.667 211.31 210.0 18.096 36.427 18.06 26.351 0.233
5 93HG_005 CAR-005 1996 3 13 1996-03-13 10.5 -64.667 212.31 211.0 18.089 36.427 18.052 26.353 0.224
5 93HG_005 CAR-005 1996 3 13 1996-03-13 10.5 -64.667 213.32 212.0 18.079 36.429 18.042 26.357 0.211
5 93HG_005 CAR-005 1996 3 13 1996-03-13 10.5 -64.667 214.32 213.0 18.077 36.428 18.04 26.356 0.201
5 93HG_005 CAR-005 1996 3 13 1996-03-13 10.5 -64.667 215.33 214.0 18.073 36.42 18.036 26.352 0.19
5 93HG_005 CAR-005 1996 3 13 1996-03-13 10.5 -64.667 216.34 215.0 18.058 36.42 18.021 26.355 0.178
5 93HG_005 CAR-005 1996 3 13 1996-03-13 10.5 -64.667 217.35 216.0 18.047 36.422 18.009 26.359 0.17
5 93HG_005 CAR-005 1996 3 13 1996-03-13 10.5 -64.667 218.35 217.0 18.041 36.421 18.003 26.36 0.165
5 93HG_005 CAR-005 1996 3 13 1996-03-13 10.5 -64.667 219.36 218.0 18.035 36.421 17.997 26.361 0.159
5 93HG_005 CAR-005 1996 3 13 1996-03-13 10.5 -64.667 220.37 219.0 18.03 36.42 17.992 26.362 0.155
5 93HG_005 CAR-005 1996 3 13 1996-03-13 10.5 -64.667 221.37 220.0 18.027 36.416 17.988 26.36 0.155
5 93HG_005 CAR-005 1996 3 13 1996-03-13 10.5 -64.667 222.38 221.0 18.015 36.417 17.976 26.363 0.155
5 93HG_005 CAR-005 1996 3 13 1996-03-13 10.5 -64.667 223.39 222.0 18.006 36.418 17.968 26.367 0.151
5 93HG_005 CAR-005 1996 3 13 1996-03-13 10.5 -64.667 224.39 223.0 18.005 36.417 17.966 26.367 0.151
5 93HG_005 CAR-005 1996 3 13 1996-03-13 10.5 -64.667 225.4 224.0 18.003 36.418 17.964 26.368 0.146
5 93HG_005 CAR-005 1996 3 13 1996-03-13 10.5 -64.667 226.41 225.0 18.002 36.418 17.963 26.368 0.145
5 93HG_005 CAR-005 1996 3 13 1996-03-13 10.5 -64.667 227.41 226.0 17.999 36.415 17.959 26.367 0.141
5 93HG_005 CAR-005 1996 3 13 1996-03-13 10.5 -64.667 228.42 227.0 17.993 36.413 17.953 26.367 0.138
5 93HG_005 CAR-005 1996 3 13 1996-03-13 10.5 -64.667 229.43 228.0 17.988 36.415 17.948 26.369 0.135
5 93HG_005 CAR-005 1996 3 13 1996-03-13 10.5 -64.667 230.43 229.0 17.984 36.413 17.944 26.369 0.131
5 93HG_005 CAR-005 1996 3 13 1996-03-13 10.5 -64.667 231.44 230.0 17.98 36.412 17.94 26.369 0.128
5 93HG_005 CAR-005 1996 3 13 1996-03-13 10.5 -64.667 232.45 231.0 17.979 36.413 17.938 26.37 0.111
5 93HG_005 CAR-005 1996 3 13 1996-03-13 10.5 -64.667 233.45 232.0 17.977 36.412 17.937 26.37 0.103
5 93HG_005 CAR-005 1996 3 13 1996-03-13 10.5 -64.667 234.46 233.0 17.973 36.408 17.932 26.368 0.093
5 93HG_005 CAR-005 1996 3 13 1996-03-13 10.5 -64.667 235.47 234.0 17.965 36.407 17.924 26.369 0.088
5 93HG_005 CAR-005 1996 3 13 1996-03-13 10.5 -64.667 236.47 235.0 17.954 36.407 17.913 26.372 0.092
5 93HG_005 CAR-005 1996 3 13 1996-03-13 10.5 -64.667 237.48 236.0 17.943 36.405 17.902 26.373 0.094
5 93HG_005 CAR-005 1996 3 13 1996-03-13 10.5 -64.667 238.49 237.0 17.934 36.404 17.893 26.375 0.08
5 93HG_005 CAR-005 1996 3 13 1996-03-13 10.5 -64.667 239.5 238.0 17.93 36.405 17.888 26.376 0.072
5 93HG_005 CAR-005 1996 3 13 1996-03-13 10.5 -64.667 240.5 239.0 17.926 36.404 17.884 26.376 0.068
5 93HG_005 CAR-005 1996 3 13 1996-03-13 10.5 -64.667 241.51 240.0 17.919 36.403 17.878 26.378 0.065
5 93HG_005 CAR-005 1996 3 13 1996-03-13 10.5 -64.667 242.52 241.0 17.916 36.402 17.874 26.378 0.06
5 93HG_005 CAR-005 1996 3 13 1996-03-13 10.5 -64.667 243.52 242.0 17.91 36.4 17.868 26.378 0.057
5 93HG_005 CAR-005 1996 3 13 1996-03-13 10.5 -64.667 244.53 243.0 17.9 36.401 17.858 26.381 0.053
5 93HG_005 CAR-005 1996 3 13 1996-03-13 10.5 -64.667 245.54 244.0 17.896 36.401 17.853 26.382 0.05
5 93HG_005 CAR-005 1996 3 13 1996-03-13 10.5 -64.667 246.54 245.0 17.892 36.401 17.849 26.383 0.046
5 93HG_005 CAR-005 1996 3 13 1996-03-13 10.5 -64.667 247.55 246.0 17.891 36.4 17.848 26.383 0.044
5 93HG_005 CAR-005 1996 3 13 1996-03-13 10.5 -64.667 248.56 247.0 17.889 36.4 17.846 26.383 0.04
5 93HG_005 CAR-005 1996 3 13 1996-03-13 10.5 -64.667 249.56 248.0 17.885 36.398 17.842 26.382 0.037
5 93HG_005 CAR-005 1996 3 13 1996-03-13 10.5 -64.667 250.57 249.0 17.873 36.398 17.83 26.385 0.034
5 93HG_005 CAR-005 1996 3 13 1996-03-13 10.5 -64.667 251.58 250.0 17.863 36.396 17.819 26.387 0.032
5 93HG_005 CAR-005 1996 3 13 1996-03-13 10.5 -64.667 252.59 251.0 17.856 36.395 17.813 26.387 0.031
5 93HG_005 CAR-005 1996 3 13 1996-03-13 10.5 -64.667 253.59 252.0 17.852 36.392 17.809 26.386 0.027
5 93HG_005 CAR-005 1996 3 13 1996-03-13 10.5 -64.667 254.6 253.0 17.843 36.39 17.799 26.387 0.025
5 93HG_005 CAR-005 1996 3 13 1996-03-13 10.5 -64.667 255.61 254.0 17.834 36.393 17.79 26.392 0.024
5 93HG_005 CAR-005 1996 3 13 1996-03-13 10.5 -64.667 256.61 255.0 17.824 36.397 17.78 26.397 0.022
5 93HG_005 CAR-005 1996 3 13 1996-03-13 10.5 -64.667 257.62 256.0 17.822 36.399 17.778 26.399 0.018
5 93HG_005 CAR-005 1996 3 13 1996-03-13 10.5 -64.667 258.63 257.0 17.819 36.4 17.775 26.401 0.016
5 93HG_005 CAR-005 1996 3 13 1996-03-13 10.5 -64.667 259.63 258.0 17.818 36.402 17.773 26.402 0.014
5 93HG_005 CAR-005 1996 3 13 1996-03-13 10.5 -64.667 260.64 259.0 17.817 36.397 17.772 26.399 0.014
5 93HG_005 CAR-005 1996 3 13 1996-03-13 10.5 -64.667 261.65 260.0 17.816 36.394 17.771 26.397 0.012
5 93HG_005 CAR-005 1996 3 13 1996-03-13 10.5 -64.667 262.65 261.0 17.815 36.397 17.769 26.399 0.01
5 93HG_005 CAR-005 1996 3 13 1996-03-13 10.5 -64.667 263.66 262.0 17.806 36.397 17.761 26.402 0.007
5 93HG_005 CAR-005 1996 3 13 1996-03-13 10.5 -64.667 264.67 263.0 17.804 36.395 17.758 26.401 0.006
5 93HG_005 CAR-005 1996 3 13 1996-03-13 10.5 -64.667 265.68 264.0 17.798 36.397 17.752 26.404 0.004
5 93HG_005 CAR-005 1996 3 13 1996-03-13 10.5 -64.667 266.68 265.0 17.79 36.399 17.744 26.407 0.001
5 93HG_005 CAR-005 1996 3 13 1996-03-13 10.5 -64.667 267.69 266.0 17.788 36.401 17.742 26.41 0.002
5 93HG_005 CAR-005 1996 3 13 1996-03-13 10.5 -64.667 268.7 267.0 17.785 36.403 17.738 26.412 0.0
5 93HG_005 CAR-005 1996 3 13 1996-03-13 10.5 -64.667 269.7 268.0 17.777 36.404 17.731 26.415 0.0
5 93HG_005 CAR-005 1996 3 13 1996-03-13 10.5 -64.667 270.71 269.0 17.773 36.406 17.726 26.417 0.0
5 93HG_005 CAR-005 1996 3 13 1996-03-13 10.5 -64.667 271.72 270.0 17.769 36.406 17.722 26.418 0.0
5 93HG_005 CAR-005 1996 3 13 1996-03-13 10.5 -64.667 272.73 271.0 17.766 36.405 17.719 26.418
5 93HG_005 CAR-005 1996 3 13 1996-03-13 10.5 -64.667 273.73 272.0 17.765 36.405 17.718 26.419
5 93HG_005 CAR-005 1996 3 13 1996-03-13 10.5 -64.667 274.74 273.0 17.765 36.406 17.717 26.419
5 93HG_005 CAR-005 1996 3 13 1996-03-13 10.5 -64.667 275.75 274.0 17.764 36.406 17.716 26.419
5 93HG_005 CAR-005 1996 3 13 1996-03-13 10.5 -64.667 276.75 275.0 17.762 36.409 17.714 26.423
5 93HG_005 CAR-005 1996 3 13 1996-03-13 10.5 -64.667 277.76 276.0 17.759 36.408 17.711 26.422
5 93HG_005 CAR-005 1996 3 13 1996-03-13 10.5 -64.667 278.77 277.0 17.755 36.408 17.707 26.424
5 93HG_005 CAR-005 1996 3 13 1996-03-13 10.5 -64.667 279.77 278.0 17.753 36.41 17.704 26.425
5 93HG_005 CAR-005 1996 3 13 1996-03-13 10.5 -64.667 280.78 279.0 17.748 36.411 17.699 26.427
5 93HG_005 CAR-005 1996 3 13 1996-03-13 10.5 -64.667 281.79 280.0 17.743 36.411 17.695 26.429
5 93HG_005 CAR-005 1996 3 13 1996-03-13 10.5 -64.667 282.8 281.0 17.735 36.416 17.686 26.435
5 93HG_005 CAR-005 1996 3 13 1996-03-13 10.5 -64.667 283.8 282.0 17.73 36.415 17.682 26.435
5 93HG_005 CAR-005 1996 3 13 1996-03-13 10.5 -64.667 284.81 283.0 17.722 36.415 17.673 26.437
5 93HG_005 CAR-005 1996 3 13 1996-03-13 10.5 -64.667 285.82 284.0 17.717 36.415 17.668 26.438
5 93HG_005 CAR-005 1996 3 13 1996-03-13 10.5 -64.667 286.82 285.0 17.707 36.41 17.658 26.437
5 93HG_005 CAR-005 1996 3 13 1996-03-13 10.5 -64.667 287.83 286.0 17.698 36.412 17.649 26.441
5 93HG_005 CAR-005 1996 3 13 1996-03-13 10.5 -64.667 288.84 287.0 17.695 36.414 17.646 26.443
5 93HG_005 CAR-005 1996 3 13 1996-03-13 10.5 -64.667 289.85 288.0 17.693 36.414 17.643 26.444
5 93HG_005 CAR-005 1996 3 13 1996-03-13 10.5 -64.667 290.85 289.0 17.691 36.415 17.641 26.445
5 93HG_005 CAR-005 1996 3 13 1996-03-13 10.5 -64.667 291.86 290.0 17.687 36.413 17.637 26.445
5 93HG_005 CAR-005 1996 3 13 1996-03-13 10.5 -64.667 292.87 291.0 17.68 36.412 17.63 26.445
5 93HG_005 CAR-005 1996 3 13 1996-03-13 10.5 -64.667 293.87 292.0 17.676 36.41 17.625 26.445
5 93HG_005 CAR-005 1996 3 13 1996-03-13 10.5 -64.667 294.88 293.0 17.674 36.408 17.624 26.444
5 93HG_005 CAR-005 1996 3 13 1996-03-13 10.5 -64.667 295.89 294.0 17.673 36.407 17.622 26.444
5 93HG_005 CAR-005 1996 3 13 1996-03-13 10.5 -64.667 296.89 295.0 17.671 36.408 17.62 26.445
5 93HG_005 CAR-005 1996 3 13 1996-03-13 10.5 -64.667 297.9 296.0 17.67 36.411 17.619 26.447
5 93HG_005 CAR-005 1996 3 13 1996-03-13 10.5 -64.667 298.91 297.0 17.669 36.413 17.618 26.449
5 93HG_005 CAR-005 1996 3 13 1996-03-13 10.5 -64.667 299.92 298.0 17.667 36.415 17.616 26.451
5 93HG_005 CAR-005 1996 3 13 1996-03-13 10.5 -64.667 300.92 299.0 17.667 36.414 17.615 26.451
5 93HG_005 CAR-005 1996 3 13 1996-03-13 10.5 -64.667 301.93 300.0 17.663 36.412 17.611 26.451
5 93HG_005 CAR-005 1996 3 13 1996-03-13 10.5 -64.667 302.94 301.0 17.661 36.411 17.609 26.45
5 93HG_005 CAR-005 1996 3 13 1996-03-13 10.5 -64.667 303.94 302.0 17.66 36.411 17.608 26.45
5 93HG_005 CAR-005 1996 3 13 1996-03-13 10.5 -64.667 304.95 303.0 17.66 36.41 17.607 26.45
5 93HG_005 CAR-005 1996 3 13 1996-03-13 10.5 -64.667 305.96 304.0 17.66 36.409 17.607 26.449
5 93HG_005 CAR-005 1996 3 13 1996-03-13 10.5 -64.667 306.97 305.0 17.659 36.41 17.606 26.45
5 93HG_005 CAR-005 1996 3 13 1996-03-13 10.5 -64.667 307.97 306.0 17.654 36.411 17.601 26.452
5 93HG_005 CAR-005 1996 3 13 1996-03-13 10.5 -64.667 308.98 307.0 17.652 36.412 17.599 26.453
5 93HG_005 CAR-005 1996 3 13 1996-03-13 10.5 -64.667 309.99 308.0 17.651 36.412 17.598 26.454
5 93HG_005 CAR-005 1996 3 13 1996-03-13 10.5 -64.667 311.0 309.0 17.651 36.411 17.598 26.453
5 93HG_005 CAR-005 1996 3 13 1996-03-13 10.5 -64.667 312.0 310.0 17.65 36.413 17.596 26.454
5 93HG_005 CAR-005 1996 3 13 1996-03-13 10.5 -64.667 313.01 311.0 17.647 36.417 17.593 26.458
5 93HG_005 CAR-005 1996 3 13 1996-03-13 10.5 -64.667 314.02 312.0 17.645 36.417 17.591 26.459
5 93HG_005 CAR-005 1996 3 13 1996-03-13 10.5 -64.667 315.02 313.0 17.644 36.416 17.59 26.458
5 93HG_005 CAR-005 1996 3 13 1996-03-13 10.5 -64.667 316.03 314.0 17.64 36.417 17.585 26.46
5 93HG_005 CAR-005 1996 3 13 1996-03-13 10.5 -64.667 317.04 315.0 17.636 36.417 17.582 26.461
5 93HG_005 CAR-005 1996 3 13 1996-03-13 10.5 -64.667 318.05 316.0 17.632 36.421 17.578 26.465
5 93HG_005 CAR-005 1996 3 13 1996-03-13 10.5 -64.667 319.05 317.0 17.629 36.419 17.574 26.465
5 93HG_005 CAR-005 1996 3 13 1996-03-13 10.5 -64.667 320.06 318.0 17.627 36.417 17.572 26.464
5 93HG_005 CAR-005 1996 3 13 1996-03-13 10.5 -64.667 321.07 319.0 17.623 36.417 17.568 26.465
5 93HG_005 CAR-005 1996 3 13 1996-03-13 10.5 -64.667 322.07 320.0 17.621 36.409 17.566 26.459
5 93HG_005 CAR-005 1996 3 13 1996-03-13 10.5 -64.667 323.08 321.0 17.617 36.412 17.561 26.462
5 93HG_005 CAR-005 1996 3 13 1996-03-13 10.5 -64.667 324.09 322.0 17.615 36.414 17.56 26.465
5 93HG_005 CAR-005 1996 3 13 1996-03-13 10.5 -64.667 325.1 323.0 17.613 36.417 17.557 26.467
5 93HG_005 CAR-005 1996 3 13 1996-03-13 10.5 -64.667 326.1 324.0 17.61 36.422 17.554 26.471
5 93HG_005 CAR-005 1996 3 13 1996-03-13 10.5 -64.667 327.11 325.0 17.605 36.425 17.549 26.476
5 93HG_005 CAR-005 1996 3 13 1996-03-13 10.5 -64.667 328.12 326.0 17.603 36.423 17.547 26.474
5 93HG_005 CAR-005 1996 3 13 1996-03-13 10.5 -64.667 329.13 327.0 17.6 36.423 17.544 26.475
5 93HG_005 CAR-005 1996 3 13 1996-03-13 10.5 -64.667 330.13 328.0 17.597 36.426 17.541 26.478
5 93HG_005 CAR-005 1996 3 13 1996-03-13 10.5 -64.667 331.14 329.0 17.597 36.425 17.54 26.478
5 93HG_005 CAR-005 1996 3 13 1996-03-13 10.5 -64.667 332.15 330.0 17.598 36.418 17.541 26.472
5 93HG_005 CAR-005 1996 3 13 1996-03-13 10.5 -64.667 333.15 331.0 17.596 36.423 17.539 26.476
5 93HG_005 CAR-005 1996 3 13 1996-03-13 10.5 -64.667 334.16 332.0 17.596 36.421 17.538 26.475
5 93HG_005 CAR-005 1996 3 13 1996-03-13 10.5 -64.667 335.17 333.0 17.596 36.42 17.539 26.474
5 93HG_005 CAR-005 1996 3 13 1996-03-13 10.5 -64.667 336.18 334.0 17.596 36.421 17.538 26.475
5 93HG_005 CAR-005 1996 3 13 1996-03-13 10.5 -64.667 337.19 335.0 17.596 36.415 17.539 26.47
5 93HG_005 CAR-005 1996 3 13 1996-03-13 10.5 -64.667 338.19 336.0 17.596 36.416 17.539 26.471
5 93HG_005 CAR-005 1996 3 13 1996-03-13 10.5 -64.667 339.2 337.0 17.596 36.413 17.538 26.469
5 93HG_005 CAR-005 1996 3 13 1996-03-13 10.5 -64.667 340.21 338.0 17.595 36.413 17.537 26.469
5 93HG_005 CAR-005 1996 3 13 1996-03-13 10.5 -64.667 341.21 339.0 17.588 36.411 17.53 26.469
5 93HG_005 CAR-005 1996 3 13 1996-03-13 10.5 -64.667 342.22 340.0 17.585 36.417 17.526 26.475
5 93HG_005 CAR-005 1996 3 13 1996-03-13 10.5 -64.667 343.23 341.0 17.583 36.42 17.524 26.477
5 93HG_005 CAR-005 1996 3 13 1996-03-13 10.5 -64.667 344.24 342.0 17.581 36.415 17.522 26.474
5 93HG_005 CAR-005 1996 3 13 1996-03-13 10.5 -64.667 345.24 343.0 17.578 36.411 17.519 26.472
5 93HG_005 CAR-005 1996 3 13 1996-03-13 10.5 -64.667 346.25 344.0 17.577 36.409 17.517 26.471
5 93HG_005 CAR-005 1996 3 13 1996-03-13 10.5 -64.667 347.26 345.0 17.574 36.41 17.515 26.473
5 93HG_005 CAR-005 1996 3 13 1996-03-13 10.5 -64.667 348.26 346.0 17.569 36.415 17.509 26.477
5 93HG_005 CAR-005 1996 3 13 1996-03-13 10.5 -64.667 349.27 347.0 17.565 36.413 17.505 26.477
5 93HG_005 CAR-005 1996 3 13 1996-03-13 10.5 -64.667 350.28 348.0 17.562 36.411 17.502 26.476
5 93HG_005 CAR-005 1996 3 13 1996-03-13 10.5 -64.667 351.29 349.0 17.562 36.397 17.502 26.465
5 93HG_005 CAR-005 1996 3 13 1996-03-13 10.5 -64.667 352.3 350.0 17.567 36.345 17.507 26.424
5 93HG_005 CAR-005 1996 3 13 1996-03-13 10.5 -64.667 353.3 351.0 17.565 36.347 17.505 26.427
5 93HG_005 CAR-005 1996 3 13 1996-03-13 10.5 -64.667 354.31 352.0 17.565 36.347 17.505 26.426
5 93HG_005 CAR-005 1996 3 13 1996-03-13 10.5 -64.667 355.32 353.0 17.565 36.347 17.504 26.427
5 93HG_005 CAR-005 1996 3 13 1996-03-13 10.5 -64.667 356.32 354.0 17.564 36.348 17.503 26.427
5 93HG_005 CAR-005 1996 3 13 1996-03-13 10.5 -64.667 357.33 355.0 17.564 36.346 17.503 26.426
5 93HG_005 CAR-005 1996 3 13 1996-03-13 10.5 -64.667 358.34 356.0 17.564 36.345 17.503 26.425
5 93HG_005 CAR-005 1996 3 13 1996-03-13 10.5 -64.667 359.35 357.0 17.56 36.343 17.499 26.425
5 93HG_005 CAR-005 1996 3 13 1996-03-13 10.5 -64.667 360.36 358.0 17.556 36.343 17.494 26.426
5 93HG_005 CAR-005 1996 3 13 1996-03-13 10.5 -64.667 361.36 359.0 17.552 36.341 17.491 26.425
5 93HG_005 CAR-005 1996 3 13 1996-03-13 10.5 -64.667 362.37 360.0 17.551 36.338 17.489 26.423
5 93HG_005 CAR-005 1996 3 13 1996-03-13 10.5 -64.667 363.38 361.0 17.547 36.336 17.484 26.423
5 93HG_005 CAR-005 1996 3 13 1996-03-13 10.5 -64.667 364.38 362.0 17.541 36.337 17.479 26.425
5 93HG_005 CAR-005 1996 3 13 1996-03-13 10.5 -64.667 365.39 363.0 17.537 36.339 17.475 26.427
5 93HG_005 CAR-005 1996 3 13 1996-03-13 10.5 -64.667 366.4 364.0 17.535 36.34 17.472 26.429
5 93HG_005 CAR-005 1996 3 13 1996-03-13 10.5 -64.667 367.41 365.0 17.534 36.338 17.471 26.428
5 93HG_005 CAR-005 1996 3 13 1996-03-13 10.5 -64.667 368.41 366.0 17.532 36.335 17.469 26.426
5 93HG_005 CAR-005 1996 3 13 1996-03-13 10.5 -64.667 369.42 367.0 17.529 36.331 17.466 26.423
5 93HG_005 CAR-005 1996 3 13 1996-03-13 10.5 -64.667 370.43 368.0 17.524 36.33 17.461 26.424
5 93HG_005 CAR-005 1996 3 13 1996-03-13 10.5 -64.667 371.44 369.0 17.518 36.329 17.455 26.425
5 93HG_005 CAR-005 1996 3 13 1996-03-13 10.5 -64.667 372.44 370.0 17.517 36.326 17.453 26.423
5 93HG_005 CAR-005 1996 3 13 1996-03-13 10.5 -64.667 373.45 371.0 17.512 36.326 17.448 26.424
5 93HG_005 CAR-005 1996 3 13 1996-03-13 10.5 -64.667 374.46 372.0 17.509 36.328 17.445 26.426
5 93HG_005 CAR-005 1996 3 13 1996-03-13 10.5 -64.667 375.47 373.0 17.507 36.328 17.443 26.427
5 93HG_005 CAR-005 1996 3 13 1996-03-13 10.5 -64.667 376.47 374.0 17.506 36.328 17.442 26.427
5 93HG_005 CAR-005 1996 3 13 1996-03-13 10.5 -64.667 377.48 375.0 17.507 36.327 17.442 26.426
5 93HG_005 CAR-005 1996 3 13 1996-03-13 10.5 -64.667 378.49 376.0 17.506 36.324 17.442 26.424
5 93HG_005 CAR-005 1996 3 13 1996-03-13 10.5 -64.667 379.5 377.0 17.498 36.323 17.433 26.426
5 93HG_005 CAR-005 1996 3 13 1996-03-13 10.5 -64.667 380.51 378.0 17.492 36.322 17.427 26.426
5 93HG_005 CAR-005 1996 3 13 1996-03-13 10.5 -64.667 381.51 379.0 17.491 36.322 17.426 26.426
5 93HG_005 CAR-005 1996 3 13 1996-03-13 10.5 -64.667 382.52 380.0 17.489 36.323 17.424 26.428
5 93HG_005 CAR-005 1996 3 13 1996-03-13 10.5 -64.667 383.53 381.0 17.487 36.322 17.422 26.428
5 93HG_005 CAR-005 1996 3 13 1996-03-13 10.5 -64.667 384.54 382.0 17.485 36.321 17.42 26.427
5 93HG_005 CAR-005 1996 3 13 1996-03-13 10.5 -64.667 385.54 383.0 17.483 36.321 17.417 26.428
5 93HG_005 CAR-005 1996 3 13 1996-03-13 10.5 -64.667 386.55 384.0 17.479 36.321 17.413 26.429
5 93HG_005 CAR-005 1996 3 13 1996-03-13 10.5 -64.667 387.56 385.0 17.472 36.322 17.406 26.432
5 93HG_005 CAR-005 1996 3 13 1996-03-13 10.5 -64.667 388.57 386.0 17.468 36.322 17.402 26.432
5 93HG_005 CAR-005 1996 3 13 1996-03-13 10.5 -64.667 389.57 387.0 17.466 36.319 17.4 26.431
5 93HG_005 CAR-005 1996 3 13 1996-03-13 10.5 -64.667 390.58 388.0 17.464 36.317 17.398 26.43
5 93HG_005 CAR-005 1996 3 13 1996-03-13 10.5 -64.667 391.59 389.0 17.462 36.316 17.395 26.429
5 93HG_005 CAR-005 1996 3 13 1996-03-13 10.5 -64.667 392.6 390.0 17.46 36.315 17.394 26.429
5 93HG_005 CAR-005 1996 3 13 1996-03-13 10.5 -64.667 393.6 391.0 17.459 36.313 17.392 26.428
5 93HG_005 CAR-005 1996 3 13 1996-03-13 10.5 -64.667 394.61 392.0 17.455 36.312 17.388 26.428
5 93HG_005 CAR-005 1996 3 13 1996-03-13 10.5 -64.667 395.62 393.0 17.453 36.307 17.385 26.425
5 93HG_005 CAR-005 1996 3 13 1996-03-13 10.5 -64.667 396.63 394.0 17.445 36.306 17.377 26.426
5 93HG_005 CAR-005 1996 3 13 1996-03-13 10.5 -64.667 397.63 395.0 17.442 36.304 17.375 26.425
5 93HG_005 CAR-005 1996 3 13 1996-03-13 10.5 -64.667 398.64 396.0 17.439 36.303 17.372 26.425
5 93HG_005 CAR-005 1996 3 13 1996-03-13 10.5 -64.667 399.65 397.0 17.435 36.303 17.367 26.427
5 93HG_005 CAR-005 1996 3 13 1996-03-13 10.5 -64.667 400.66 398.0 17.433 36.3 17.365 26.424
5 93HG_005 CAR-005 1996 3 13 1996-03-13 10.5 -64.667 401.66 399.0 17.425 36.299 17.357 26.426
5 93HG_005 CAR-005 1996 3 13 1996-03-13 10.5 -64.667 402.67 400.0 17.422 36.297 17.353 26.425
5 93HG_005 CAR-005 1996 3 13 1996-03-13 10.5 -64.667 403.68 401.0 17.418 36.301 17.349 26.429
5 93HG_005 CAR-005 1996 3 13 1996-03-13 10.5 -64.667 404.69 402.0 17.416 36.303 17.347 26.431
5 93HG_005 CAR-005 1996 3 13 1996-03-13 10.5 -64.667 405.69 403.0 17.415 36.301 17.346 26.429
5 93HG_005 CAR-005 1996 3 13 1996-03-13 10.5 -64.667 406.7 404.0 17.415 36.299 17.346 26.428
5 93HG_005 CAR-005 1996 3 13 1996-03-13 10.5 -64.667 407.71 405.0 17.413 36.295 17.344 26.426
5 93HG_005 CAR-005 1996 3 13 1996-03-13 10.5 -64.667 408.72 406.0 17.404 36.293 17.335 26.426
5 93HG_005 CAR-005 1996 3 13 1996-03-13 10.5 -64.667 409.73 407.0 17.403 36.293 17.333 26.427
5 93HG_005 CAR-005 1996 3 13 1996-03-13 10.5 -64.667 410.73 408.0 17.4 36.292 17.33 26.427
5 93HG_005 CAR-005 1996 3 13 1996-03-13 10.5 -64.667 411.74 409.0 17.399 36.288 17.329 26.424
5 93HG_005 CAR-005 1996 3 13 1996-03-13 10.5 -64.667 412.75 410.0 17.396 36.287 17.326 26.424
5 93HG_005 CAR-005 1996 3 13 1996-03-13 10.5 -64.667 413.76 411.0 17.394 36.288 17.324 26.425
5 93HG_005 CAR-005 1996 3 13 1996-03-13 10.5 -64.667 414.76 412.0 17.394 36.286 17.323 26.424
5 93HG_005 CAR-005 1996 3 13 1996-03-13 10.5 -64.667 415.77 413.0 17.393 36.285 17.322 26.423
5 93HG_005 CAR-005 1996 3 13 1996-03-13 10.5 -64.667 416.78 414.0 17.393 36.283 17.322 26.422
5 93HG_005 CAR-005 1996 3 13 1996-03-13 10.5 -64.667 417.79 415.0 17.392 36.281 17.321 26.421
5 93HG_005 CAR-005 1996 3 13 1996-03-13 10.5 -64.667 418.8 416.0 17.39 36.28 17.319 26.42
5 93HG_005 CAR-005 1996 3 13 1996-03-13 10.5 -64.667 419.8 417.0 17.383 36.28 17.311 26.422
5 93HG_005 CAR-005 1996 3 13 1996-03-13 10.5 -64.667 420.81 418.0 17.381 36.28 17.309 26.423
5 93HG_005 CAR-005 1996 3 13 1996-03-13 10.5 -64.667 421.82 419.0 17.38 36.28 17.308 26.423
5 93HG_005 CAR-005 1996 3 13 1996-03-13 10.5 -64.667 422.83 420.0 17.378 36.279 17.307 26.422
5 93HG_005 CAR-005 1996 3 13 1996-03-13 10.5 -64.667 423.83 421.0 17.375 36.277 17.303 26.422
5 93HG_005 CAR-005 1996 3 13 1996-03-13 10.5 -64.667 424.84 422.0 17.371 36.275 17.299 26.421
5 93HG_005 CAR-005 1996 3 13 1996-03-13 10.5 -64.667 425.85 423.0 17.368 36.275 17.295 26.422
5 93HG_005 CAR-005 1996 3 13 1996-03-13 10.5 -64.667 426.86 424.0 17.366 36.276 17.294 26.424
5 93HG_005 CAR-005 1996 3 13 1996-03-13 10.5 -64.667 427.87 425.0 17.366 36.276 17.293 26.424
5 93HG_005 CAR-005 1996 3 13 1996-03-13 10.5 -64.667 428.87 426.0 17.366 36.276 17.293 26.423
5 93HG_005 CAR-005 1996 3 13 1996-03-13 10.5 -64.667 429.88 427.0 17.366 36.275 17.293 26.422
5 93HG_005 CAR-005 1996 3 13 1996-03-13 10.5 -64.667 430.89 428.0 17.367 36.273 17.293 26.421
5 93HG_005 CAR-005 1996 3 13 1996-03-13 10.5 -64.667 431.9 429.0 17.366 36.274 17.292 26.422
5 93HG_005 CAR-005 1996 3 13 1996-03-13 10.5 -64.667 432.9 430.0 17.365 36.275 17.291 26.423
5 93HG_005 CAR-005 1996 3 13 1996-03-13 10.5 -64.667 433.91 431.0 17.364 36.275 17.29 26.423
5 93HG_005 CAR-005 1996 3 13 1996-03-13 10.5 -64.667 434.92 432.0 17.361 36.273 17.288 26.422
5 93HG_005 CAR-005 1996 3 13 1996-03-13 10.5 -64.667 435.93 433.0 17.36 36.272 17.286 26.422
5 93HG_005 CAR-005 1996 3 13 1996-03-13 10.5 -64.667 436.94 434.0 17.359 36.273 17.284 26.423
5 93HG_005 CAR-005 1996 3 13 1996-03-13 10.5 -64.667 437.94 435.0 17.357 36.274 17.283 26.425
5 93HG_005 CAR-005 1996 3 13 1996-03-13 10.5 -64.667 438.95 436.0 17.356 36.274 17.281 26.425
5 93HG_005 CAR-005 1996 3 13 1996-03-13 10.5 -64.667 439.96 437.0 17.354 36.272 17.279 26.424
5 93HG_005 CAR-005 1996 3 13 1996-03-13 10.5 -64.667 440.97 438.0 17.352 36.273 17.277 26.425
5 93HG_005 CAR-005 1996 3 13 1996-03-13 10.5 -64.667 441.97 439.0 17.349 36.273 17.274 26.426
5 93HG_005 CAR-005 1996 3 13 1996-03-13 10.5 -64.667 442.98 440.0 17.348 36.273 17.273 26.426
5 93HG_005 CAR-005 1996 3 13 1996-03-13 10.5 -64.667 443.99 441.0 17.346 36.271 17.271 26.425
5 93HG_005 CAR-005 1996 3 13 1996-03-13 10.5 -64.667 445.0 442.0 17.344 36.269 17.268 26.424
5 93HG_005 CAR-005 1996 3 13 1996-03-13 10.5 -64.667 446.01 443.0 17.341 36.269 17.265 26.425
5 93HG_005 CAR-005 1996 3 13 1996-03-13 10.5 -64.667 447.01 444.0 17.338 36.267 17.262 26.424
5 93HG_005 CAR-005 1996 3 13 1996-03-13 10.5 -64.667 448.02 445.0 17.336 36.268 17.26 26.426
5 93HG_005 CAR-005 1996 3 13 1996-03-13 10.5 -64.667 449.03 446.0 17.336 36.267 17.26 26.424
5 93HG_005 CAR-005 1996 3 13 1996-03-13 10.5 -64.667 450.04 447.0 17.334 36.267 17.258 26.425
5 93HG_005 CAR-005 1996 3 13 1996-03-13 10.5 -64.667 451.05 448.0 17.333 36.268 17.256 26.426
5 93HG_005 CAR-005 1996 3 13 1996-03-13 10.5 -64.667 452.05 449.0 17.332 36.269 17.256 26.427
5 93HG_005 CAR-005 1996 3 13 1996-03-13 10.5 -64.667 453.06 450.0 17.332 36.268 17.255 26.427
5 93HG_005 CAR-005 1996 3 13 1996-03-13 10.5 -64.667 454.07 451.0 17.331 36.269 17.254 26.427
5 93HG_005 CAR-005 1996 3 13 1996-03-13 10.5 -64.667 455.08 452.0 17.331 36.269 17.254 26.428
5 93HG_005 CAR-005 1996 3 13 1996-03-13 10.5 -64.667 456.08 453.0 17.33 36.269 17.252 26.428
5 93HG_005 CAR-005 1996 3 13 1996-03-13 10.5 -64.667 457.09 454.0 17.328 36.267 17.25 26.427
5 93HG_005 CAR-005 1996 3 13 1996-03-13 10.5 -64.667 458.1 455.0 17.325 36.268 17.247 26.428
5 93HG_005 CAR-005 1996 3 13 1996-03-13 10.5 -64.667 459.11 456.0 17.324 36.267 17.246 26.428
5 93HG_005 CAR-005 1996 3 13 1996-03-13 10.5 -64.667 460.12 457.0 17.323 36.267 17.245 26.428
5 93HG_005 CAR-005 1996 3 13 1996-03-13 10.5 -64.667 461.12 458.0 17.323 36.267 17.244 26.428
5 93HG_005 CAR-005 1996 3 13 1996-03-13 10.5 -64.667 462.13 459.0 17.322 36.265 17.243 26.427
5 93HG_005 CAR-005 1996 3 13 1996-03-13 10.5 -64.667 463.14 460.0 17.32 36.266 17.241 26.429
5 93HG_005 CAR-005 1996 3 13 1996-03-13 10.5 -64.667 464.15 461.0 17.318 36.267 17.24 26.43
5 93HG_005 CAR-005 1996 3 13 1996-03-13 10.5 -64.667 465.16 462.0 17.317 36.267 17.238 26.43
5 93HG_005 CAR-005 1996 3 13 1996-03-13 10.5 -64.667 466.16 463.0 17.317 36.266 17.237 26.43
5 93HG_005 CAR-005 1996 3 13 1996-03-13 10.5 -64.667 467.17 464.0 17.316 36.266 17.237 26.429
5 93HG_005 CAR-005 1996 3 13 1996-03-13 10.5 -64.667 468.18 465.0 17.316 36.265 17.237 26.428
5 93HG_005 CAR-005 1996 3 13 1996-03-13 10.5 -64.667 469.19 466.0 17.315 36.264 17.236 26.428
5 93HG_005 CAR-005 1996 3 13 1996-03-13 10.5 -64.667 470.2 467.0 17.315 36.263 17.235 26.427
5 93HG_005 CAR-005 1996 3 13 1996-03-13 10.5 -64.667 471.2 468.0 17.315 36.263 17.235 26.427
5 93HG_005 CAR-005 1996 3 13 1996-03-13 10.5 -64.667 472.21 469.0 17.313 36.264 17.233 26.429
5 93HG_005 CAR-005 1996 3 13 1996-03-13 10.5 -64.667 473.22 470.0 17.313 36.264 17.233 26.429
5 93HG_005 CAR-005 1996 3 13 1996-03-13 10.5 -64.667 474.23 471.0 17.313 36.264 17.232 26.429
5 93HG_005 CAR-005 1996 3 13 1996-03-13 10.5 -64.667 475.24 472.0 17.312 36.265 17.231 26.43
5 93HG_005 CAR-005 1996 3 13 1996-03-13 10.5 -64.667 476.24 473.0 17.311 36.263 17.23 26.429
5 93HG_005 CAR-005 1996 3 13 1996-03-13 10.5 -64.667 477.25 474.0 17.308 36.262 17.227 26.429
5 93HG_005 CAR-005 1996 3 13 1996-03-13 10.5 -64.667 478.26 475.0 17.305 36.261 17.224 26.429
5 93HG_005 CAR-005 1996 3 13 1996-03-13 10.5 -64.667 479.27 476.0 17.303 36.261 17.222 26.429
5 93HG_005 CAR-005 1996 3 13 1996-03-13 10.5 -64.667 480.28 477.0 17.3 36.261 17.219 26.43
5 93HG_005 CAR-005 1996 3 13 1996-03-13 10.5 -64.667 481.28 478.0 17.296 36.259 17.215 26.429
5 93HG_005 CAR-005 1996 3 13 1996-03-13 10.5 -64.667 482.29 479.0 17.29 36.259 17.208 26.431
5 93HG_005 CAR-005 1996 3 13 1996-03-13 10.5 -64.667 483.3 480.0 17.287 36.258 17.205 26.431
5 93HG_005 CAR-005 1996 3 13 1996-03-13 10.5 -64.667 484.31 481.0 17.282 36.258 17.2 26.432
5 93HG_005 CAR-005 1996 3 13 1996-03-13 10.5 -64.667 485.32 482.0 17.28 36.258 17.197 26.433
5 93HG_005 CAR-005 1996 3 13 1996-03-13 10.5 -64.667 486.32 483.0 17.276 36.256 17.194 26.432
5 93HG_005 CAR-005 1996 3 13 1996-03-13 10.5 -64.667 487.33 484.0 17.275 36.253 17.192 26.43
5 93HG_005 CAR-005 1996 3 13 1996-03-13 10.5 -64.667 488.34 485.0 17.271 36.253 17.189 26.431
5 93HG_005 CAR-005 1996 3 13 1996-03-13 10.5 -64.667 489.35 486.0 17.271 36.253 17.188 26.431
5 93HG_005 CAR-005 1996 3 13 1996-03-13 10.5 -64.667 490.36 487.0 17.271 36.251 17.188 26.43
5 93HG_005 CAR-005 1996 3 13 1996-03-13 10.5 -64.667 491.37 488.0 17.271 36.253 17.187 26.431
5 93HG_005 CAR-005 1996 3 13 1996-03-13 10.5 -64.667 492.37 489.0 17.27 36.255 17.186 26.433
5 93HG_005 CAR-005 1996 3 13 1996-03-13 10.5 -64.667 493.38 490.0 17.27 36.254 17.186 26.433
5 93HG_005 CAR-005 1996 3 13 1996-03-13 10.5 -64.667 494.39 491.0 17.27 36.253 17.186 26.432
5 93HG_005 CAR-005 1996 3 13 1996-03-13 10.5 -64.667 495.4 492.0 17.27 36.254 17.186 26.432
5 93HG_005 CAR-005 1996 3 13 1996-03-13 10.5 -64.667 496.4 493.0 17.27 36.253 17.186 26.432
5 93HG_005 CAR-005 1996 3 13 1996-03-13 10.5 -64.667 497.41 494.0 17.27 36.252 17.186 26.431
5 93HG_005 CAR-005 1996 3 13 1996-03-13 10.5 -64.667 498.42 495.0 17.267 36.253 17.182 26.432
5 93HG_005 CAR-005 1996 3 13 1996-03-13 10.5 -64.667 499.43 496.0 17.264 36.252 17.18 26.433
5 93HG_005 CAR-005 1996 3 13 1996-03-13 10.5 -64.667 500.44 497.0 17.263 36.253 17.179 26.433
5 93HG_005 CAR-005 1996 3 13 1996-03-13 10.5 -64.667 501.45 498.0 17.263 36.252 17.178 26.433
5 93HG_005 CAR-005 1996 3 13 1996-03-13 10.5 -64.667 502.45 499.0 17.263 36.251 17.178 26.432
5 93HG_005 CAR-005 1996 3 13 1996-03-13 10.5 -64.667 503.46 500.0 17.259 36.251 17.174 26.433
5 93HG_005 CAR-005 1996 3 13 1996-03-13 10.5 -64.667 504.47 501.0 17.255 36.251 17.17 26.434
5 93HG_005 CAR-005 1996 3 13 1996-03-13 10.5 -64.667 505.48 502.0 17.254 36.249 17.169 26.433
5 93HG_005 CAR-005 1996 3 13 1996-03-13 10.5 -64.667 506.49 503.0 17.253 36.25 17.167 26.434
5 93HG_005 CAR-005 1996 3 13 1996-03-13 10.5 -64.667 507.5 504.0 17.253 36.249 17.167 26.433
5 93HG_005 CAR-005 1996 3 13 1996-03-13 10.5 -64.667 508.5 505.0 17.254 36.248 17.168 26.433
5 93HG_005 CAR-005 1996 3 13 1996-03-13 10.5 -64.667 509.51 506.0 17.254 36.248 17.167 26.432
5 93HG_005 CAR-005 1996 3 13 1996-03-13 10.5 -64.667 510.52 507.0 17.253 36.248 17.167 26.432
5 93HG_005 CAR-005 1996 3 13 1996-03-13 10.5 -64.667 511.53 508.0 17.253 36.248 17.166 26.432
5 93HG_005 CAR-005 1996 3 13 1996-03-13 10.5 -64.667 512.54 509.0 17.253 36.248 17.166 26.433
5 93HG_005 CAR-005 1996 3 13 1996-03-13 10.5 -64.667 513.54 510.0 17.253 36.248 17.165 26.433
5 93HG_005 CAR-005 1996 3 13 1996-03-13 10.5 -64.667 514.55 511.0 17.253 36.248 17.166 26.433
5 93HG_005 CAR-005 1996 3 13 1996-03-13 10.5 -64.667 515.56 512.0 17.253 36.248 17.165 26.433
5 93HG_005 CAR-005 1996 3 13 1996-03-13 10.5 -64.667 516.57 513.0 17.253 36.247 17.165 26.432
5 93HG_005 CAR-005 1996 3 13 1996-03-13 10.5 -64.667 517.58 514.0 17.253 36.247 17.165 26.432
5 93HG_005 CAR-005 1996 3 13 1996-03-13 10.5 -64.667 518.59 515.0 17.253 36.245 17.165 26.431
5 93HG_005 CAR-005 1996 3 13 1996-03-13 10.5 -64.667 519.59 516.0 17.254 36.244 17.166 26.43
5 93HG_005 CAR-005 1996 3 13 1996-03-13 10.5 -64.667 520.6 517.0 17.253 36.245 17.165 26.43
5 93HG_005 CAR-005 1996 3 13 1996-03-13 10.5 -64.667 521.61 518.0 17.253 36.243 17.164 26.43
5 93HG_005 CAR-005 1996 3 13 1996-03-13 10.5 -64.667 522.62 519.0 17.252 36.244 17.163 26.43
5 93HG_005 CAR-005 1996 3 13 1996-03-13 10.5 -64.667 523.63 520.0 17.252 36.243 17.163 26.43
5 93HG_005 CAR-005 1996 3 13 1996-03-13 10.5 -64.667 524.63 521.0 17.252 36.242 17.163 26.429
5 93HG_005 CAR-005 1996 3 13 1996-03-13 10.5 -64.667 525.64 522.0 17.251 36.242 17.162 26.429
5 93HG_005 CAR-005 1996 3 13 1996-03-13 10.5 -64.667 526.65 523.0 17.249 36.242 17.16 26.429
5 93HG_005 CAR-005 1996 3 13 1996-03-13 10.5 -64.667 527.66 524.0 17.248 36.242 17.159 26.43
5 93HG_005 CAR-005 1996 3 13 1996-03-13 10.5 -64.667 528.67 525.0 17.246 36.243 17.157 26.431
5 93HG_005 CAR-005 1996 3 13 1996-03-13 10.5 -64.667 529.67 526.0 17.245 36.242 17.156 26.431
5 93HG_005 CAR-005 1996 3 13 1996-03-13 10.5 -64.667 530.68 527.0 17.245 36.242 17.155 26.43
5 93HG_005 CAR-005 1996 3 13 1996-03-13 10.5 -64.667 531.69 528.0 17.245 36.242 17.155 26.431
5 93HG_005 CAR-005 1996 3 13 1996-03-13 10.5 -64.667 532.7 529.0 17.245 36.242 17.154 26.431
5 93HG_005 CAR-005 1996 3 13 1996-03-13 10.5 -64.667 533.71 530.0 17.244 36.243 17.154 26.432
5 93HG_005 CAR-005 1996 3 13 1996-03-13 10.5 -64.667 534.72 531.0 17.244 36.243 17.153 26.432
5 93HG_005 CAR-005 1996 3 13 1996-03-13 10.5 -64.667 535.73 532.0 17.244 36.243 17.154 26.432
5 93HG_005 CAR-005 1996 3 13 1996-03-13 10.5 -64.667 536.73 533.0 17.243 36.243 17.153 26.432
5 93HG_005 CAR-005 1996 3 13 1996-03-13 10.5 -64.667 537.74 534.0 17.243 36.242 17.152 26.432
5 93HG_005 CAR-005 1996 3 13 1996-03-13 10.5 -64.667 538.75 535.0 17.241 36.241 17.15 26.431
5 93HG_005 CAR-005 1996 3 13 1996-03-13 10.5 -64.667 539.76 536.0 17.24 36.24 17.148 26.431
5 93HG_005 CAR-005 1996 3 13 1996-03-13 10.5 -64.667 540.77 537.0 17.239 36.24 17.147 26.432
5 93HG_005 CAR-005 1996 3 13 1996-03-13 10.5 -64.667 541.77 538.0 17.237 36.24 17.145 26.432
5 93HG_005 CAR-005 1996 3 13 1996-03-13 10.5 -64.667 542.78 539.0 17.234 36.24 17.142 26.432
5 93HG_005 CAR-005 1996 3 13 1996-03-13 10.5 -64.667 543.79 540.0 17.232 36.239 17.14 26.432
5 93HG_005 CAR-005 1996 3 13 1996-03-13 10.5 -64.667 544.8 541.0 17.23 36.238 17.138 26.432
5 93HG_005 CAR-005 1996 3 13 1996-03-13 10.5 -64.667 545.81 542.0 17.225 36.237 17.133 26.432
5 93HG_005 CAR-005 1996 3 13 1996-03-13 10.5 -64.667 546.82 543.0 17.222 36.236 17.13 26.432
5 93HG_005 CAR-005 1996 3 13 1996-03-13 10.5 -64.667 547.83 544.0 17.218 36.235 17.125 26.433
5 93HG_005 CAR-005 1996 3 13 1996-03-13 10.5 -64.667 548.83 545.0 17.216 36.235 17.123 26.433
5 93HG_005 CAR-005 1996 3 13 1996-03-13 10.5 -64.667 549.84 546.0 17.212 36.233 17.119 26.433
5 93HG_005 CAR-005 1996 3 13 1996-03-13 10.5 -64.667 550.85 547.0 17.21 36.233 17.117 26.433
5 93HG_005 CAR-005 1996 3 13 1996-03-13 10.5 -64.667 551.86 548.0 17.209 36.233 17.116 26.433
5 93HG_005 CAR-005 1996 3 13 1996-03-13 10.5 -64.667 552.87 549.0 17.208 36.233 17.115 26.433
5 93HG_005 CAR-005 1996 3 13 1996-03-13 10.5 -64.667 553.88 550.0 17.207 36.233 17.113 26.433
5 93HG_005 CAR-005 1996 3 13 1996-03-13 10.5 -64.667 554.88 551.0 17.207 36.232 17.113 26.433
5 93HG_005 CAR-005 1996 3 13 1996-03-13 10.5 -64.667 555.89 552.0 17.206 36.232 17.112 26.434
5 93HG_005 CAR-005 1996 3 13 1996-03-13 10.5 -64.667 556.9 553.0 17.204 36.231 17.11 26.433
5 93HG_005 CAR-005 1996 3 13 1996-03-13 10.5 -64.667 557.91 554.0 17.202 36.232 17.108 26.435
5 93HG_005 CAR-005 1996 3 13 1996-03-13 10.5 -64.667 558.92 555.0 17.202 36.232 17.108 26.434
5 93HG_005 CAR-005 1996 3 13 1996-03-13 10.5 -64.667 559.93 556.0 17.202 36.231 17.108 26.434
5 93HG_005 CAR-005 1996 3 13 1996-03-13 10.5 -64.667 560.93 557.0 17.202 36.231 17.107 26.434
5 93HG_005 CAR-005 1996 3 13 1996-03-13 10.5 -64.667 561.94 558.0 17.201 36.231 17.106 26.434
5 93HG_005 CAR-005 1996 3 13 1996-03-13 10.5 -64.667 562.95 559.0 17.201 36.231 17.105 26.434
5 93HG_005 CAR-005 1996 3 13 1996-03-13 10.5 -64.667 563.96 560.0 17.199 36.229 17.104 26.433
5 93HG_005 CAR-005 1996 3 13 1996-03-13 10.5 -64.667 564.97 561.0 17.198 36.228 17.102 26.433
5 93HG_005 CAR-005 1996 3 13 1996-03-13 10.5 -64.667 565.98 562.0 17.197 36.227 17.101 26.432
5 93HG_005 CAR-005 1996 3 13 1996-03-13 10.5 -64.667 566.99 563.0 17.193 36.226 17.097 26.432
5 93HG_005 CAR-005 1996 3 13 1996-03-13 10.5 -64.667 567.99 564.0 17.189 36.225 17.092 26.433
5 93HG_005 CAR-005 1996 3 13 1996-03-13 10.5 -64.667 569.0 565.0 17.184 36.224 17.088 26.433
5 93HG_005 CAR-005 1996 3 13 1996-03-13 10.5 -64.667 570.01 566.0 17.182 36.224 17.086 26.434
5 93HG_005 CAR-005 1996 3 13 1996-03-13 10.5 -64.667 571.02 567.0 17.181 36.224 17.084 26.434
5 93HG_005 CAR-005 1996 3 13 1996-03-13 10.5 -64.667 572.03 568.0 17.178 36.224 17.082 26.435
5 93HG_005 CAR-005 1996 3 13 1996-03-13 10.5 -64.667 573.04 569.0 17.178 36.223 17.081 26.434
5 93HG_005 CAR-005 1996 3 13 1996-03-13 10.5 -64.667 574.04 570.0 17.176 36.222 17.078 26.434
5 93HG_005 CAR-005 1996 3 13 1996-03-13 10.5 -64.667 575.05 571.0 17.173 36.222 17.076 26.434
5 93HG_005 CAR-005 1996 3 13 1996-03-13 10.5 -64.667 576.06 572.0 17.172 36.221 17.074 26.434
5 93HG_005 CAR-005 1996 3 13 1996-03-13 10.5 -64.667 577.07 573.0 17.171 36.221 17.074 26.434
5 93HG_005 CAR-005 1996 3 13 1996-03-13 10.5 -64.667 578.08 574.0 17.17 36.221 17.072 26.435
5 93HG_005 CAR-005 1996 3 13 1996-03-13 10.5 -64.667 579.09 575.0 17.17 36.221 17.072 26.434
5 93HG_005 CAR-005 1996 3 13 1996-03-13 10.5 -64.667 580.1 576.0 17.169 36.22 17.071 26.434
5 93HG_005 CAR-005 1996 3 13 1996-03-13 10.5 -64.667 581.1 577.0 17.168 36.22 17.07 26.434
5 93HG_005 CAR-005 1996 3 13 1996-03-13 10.5 -64.667 582.11 578.0 17.167 36.219 17.068 26.434
5 93HG_005 CAR-005 1996 3 13 1996-03-13 10.5 -64.667 583.12 579.0 17.164 36.219 17.065 26.434
5 93HG_005 CAR-005 1996 3 13 1996-03-13 10.5 -64.667 584.13 580.0 17.162 36.218 17.063 26.434
5 93HG_005 CAR-005 1996 3 13 1996-03-13 10.5 -64.667 585.14 581.0 17.162 36.217 17.063 26.434
5 93HG_005 CAR-005 1996 3 13 1996-03-13 10.5 -64.667 586.15 582.0 17.161 36.218 17.062 26.434
5 93HG_005 CAR-005 1996 3 13 1996-03-13 10.5 -64.667 587.15 583.0 17.161 36.216 17.061 26.433
5 93HG_005 CAR-005 1996 3 13 1996-03-13 10.5 -64.667 588.16 584.0 17.159 36.215 17.06 26.433
5 93HG_005 CAR-005 1996 3 13 1996-03-13 10.5 -64.667 589.17 585.0 17.157 36.215 17.058 26.433
5 93HG_005 CAR-005 1996 3 13 1996-03-13 10.5 -64.667 590.18 586.0 17.156 36.215 17.056 26.434
5 93HG_005 CAR-005 1996 3 13 1996-03-13 10.5 -64.667 591.19 587.0 17.156 36.215 17.056 26.434
5 93HG_005 CAR-005 1996 3 13 1996-03-13 10.5 -64.667 592.2 588.0 17.155 36.215 17.055 26.434
5 93HG_005 CAR-005 1996 3 13 1996-03-13 10.5 -64.667 593.21 589.0 17.155 36.216 17.055 26.435
5 93HG_005 CAR-005 1996 3 13 1996-03-13 10.5 -64.667 594.22 590.0 17.154 36.215 17.054 26.435
5 93HG_005 CAR-005 1996 3 13 1996-03-13 10.5 -64.667 595.22 591.0 17.154 36.215 17.053 26.434
5 93HG_005 CAR-005 1996 3 13 1996-03-13 10.5 -64.667 596.23 592.0 17.153 36.215 17.052 26.435
5 93HG_005 CAR-005 1996 3 13 1996-03-13 10.5 -64.667 597.24 593.0 17.151 36.215 17.05 26.435
5 93HG_005 CAR-005 1996 3 13 1996-03-13 10.5 -64.667 598.25 594.0 17.151 36.215 17.049 26.435
5 93HG_005 CAR-005 1996 3 13 1996-03-13 10.5 -64.667 599.26 595.0 17.151 36.213 17.05 26.434
5 93HG_005 CAR-005 1996 3 13 1996-03-13 10.5 -64.667 600.27 596.0 17.151 36.212 17.05 26.433
5 93HG_005 CAR-005 1996 3 13 1996-03-13 10.5 -64.667 601.27 597.0 17.151 36.213 17.049 26.434
5 93HG_005 CAR-005 1996 3 13 1996-03-13 10.5 -64.667 602.28 598.0 17.15 36.213 17.049 26.434
5 93HG_005 CAR-005 1996 3 13 1996-03-13 10.5 -64.667 603.29 599.0 17.15 36.214 17.048 26.435
5 93HG_005 CAR-005 1996 3 13 1996-03-13 10.5 -64.667 604.3 600.0 17.149 36.214 17.047 26.435
5 93HG_005 CAR-005 1996 3 13 1996-03-13 10.5 -64.667 605.31 601.0 17.149 36.214 17.047 26.435
5 93HG_005 CAR-005 1996 3 13 1996-03-13 10.5 -64.667 606.32 602.0 17.15 36.214 17.047 26.435
5 93HG_005 CAR-005 1996 3 13 1996-03-13 10.5 -64.667 607.33 603.0 17.149 36.214 17.047 26.435
5 93HG_005 CAR-005 1996 3 13 1996-03-13 10.5 -64.667 608.34 604.0 17.149 36.214 17.046 26.435
5 93HG_005 CAR-005 1996 3 13 1996-03-13 10.5 -64.667 609.34 605.0 17.15 36.213 17.047 26.434
5 93HG_005 CAR-005 1996 3 13 1996-03-13 10.5 -64.667 610.35 606.0 17.15 36.212 17.047 26.433
5 93HG_005 CAR-005 1996 3 13 1996-03-13 10.5 -64.667 611.36 607.0 17.147 36.212 17.044 26.434
5 93HG_005 CAR-005 1996 3 13 1996-03-13 10.5 -64.667 612.37 608.0 17.145 36.211 17.041 26.435
5 93HG_005 CAR-005 1996 3 13 1996-03-13 10.5 -64.667 613.38 609.0 17.143 36.211 17.039 26.435
5 93HG_005 CAR-005 1996 3 13 1996-03-13 10.5 -64.667 614.39 610.0 17.143 36.21 17.039 26.434
5 93HG_005 CAR-005 1996 3 13 1996-03-13 10.5 -64.667 615.4 611.0 17.141 36.21 17.037 26.434
5 93HG_005 CAR-005 1996 3 13 1996-03-13 10.5 -64.667 616.4 612.0 17.14 36.21 17.035 26.435
5 93HG_005 CAR-005 1996 3 13 1996-03-13 10.5 -64.667 617.41 613.0 17.139 36.211 17.035 26.436
5 93HG_005 CAR-005 1996 3 13 1996-03-13 10.5 -64.667 618.42 614.0 17.138 36.211 17.034 26.436
5 93HG_005 CAR-005 1996 3 13 1996-03-13 10.5 -64.667 619.43 615.0 17.138 36.212 17.033 26.437
5 93HG_005 CAR-005 1996 3 13 1996-03-13 10.5 -64.667 620.44 616.0 17.138 36.211 17.033 26.436
5 93HG_005 CAR-005 1996 3 13 1996-03-13 10.5 -64.667 621.45 617.0 17.137 36.211 17.032 26.437
5 93HG_005 CAR-005 1996 3 13 1996-03-13 10.5 -64.667 622.46 618.0 17.136 36.211 17.031 26.437
5 93HG_005 CAR-005 1996 3 13 1996-03-13 10.5 -64.667 623.47 619.0 17.135 36.211 17.03 26.437
5 93HG_005 CAR-005 1996 3 13 1996-03-13 10.5 -64.667 624.48 620.0 17.135 36.211 17.029 26.437
5 93HG_005 CAR-005 1996 3 13 1996-03-13 10.5 -64.667 625.48 621.0 17.134 36.211 17.029 26.437
5 93HG_005 CAR-005 1996 3 13 1996-03-13 10.5 -64.667 626.49 622.0 17.134 36.211 17.028 26.437
5 93HG_005 CAR-005 1996 3 13 1996-03-13 10.5 -64.667 627.5 623.0 17.134 36.211 17.028 26.437
5 93HG_005 CAR-005 1996 3 13 1996-03-13 10.5 -64.667 628.51 624.0 17.134 36.211 17.028 26.437
5 93HG_005 CAR-005 1996 3 13 1996-03-13 10.5 -64.667 629.52 625.0 17.134 36.211 17.028 26.437
5 93HG_005 CAR-005 1996 3 13 1996-03-13 10.5 -64.667 630.53 626.0 17.134 36.211 17.028 26.438
5 93HG_005 CAR-005 1996 3 13 1996-03-13 10.5 -64.667 631.54 627.0 17.134 36.211 17.027 26.438
5 93HG_005 CAR-005 1996 3 13 1996-03-13 10.5 -64.667 632.54 628.0 17.133 36.21 17.026 26.437
5 93HG_005 CAR-005 1996 3 13 1996-03-13 10.5 -64.667 633.55 629.0 17.133 36.211 17.026 26.438
5 93HG_005 CAR-005 1996 3 13 1996-03-13 10.5 -64.667 634.56 630.0 17.133 36.21 17.026 26.437
5 93HG_005 CAR-005 1996 3 13 1996-03-13 10.5 -64.667 635.57 631.0 17.132 36.211 17.024 26.438
5 93HG_005 CAR-005 1996 3 13 1996-03-13 10.5 -64.667 636.58 632.0 17.131 36.211 17.024 26.438
5 93HG_005 CAR-005 1996 3 13 1996-03-13 10.5 -64.667 637.59 633.0 17.131 36.211 17.023 26.439
5 93HG_005 CAR-005 1996 3 13 1996-03-13 10.5 -64.667 638.6 634.0 17.131 36.211 17.023 26.438
5 93HG_005 CAR-005 1996 3 13 1996-03-13 10.5 -64.667 639.61 635.0 17.131 36.211 17.023 26.438
5 93HG_005 CAR-005 1996 3 13 1996-03-13 10.5 -64.667 640.61 636.0 17.131 36.211 17.023 26.439
5 93HG_005 CAR-005 1996 3 13 1996-03-13 10.5 -64.667 641.62 637.0 17.131 36.21 17.022 26.438
5 93HG_005 CAR-005 1996 3 13 1996-03-13 10.5 -64.667 642.63 638.0 17.129 36.21 17.021 26.439
5 93HG_005 CAR-005 1996 3 13 1996-03-13 10.5 -64.667 643.64 639.0 17.129 36.21 17.02 26.439
5 93HG_005 CAR-005 1996 3 13 1996-03-13 10.5 -64.667 644.65 640.0 17.129 36.21 17.02 26.438
5 93HG_005 CAR-005 1996 3 13 1996-03-13 10.5 -64.667 645.66 641.0 17.128 36.209 17.019 26.439
5 93HG_005 CAR-005 1996 3 13 1996-03-13 10.5 -64.667 646.67 642.0 17.127 36.209 17.018 26.439
5 93HG_005 CAR-005 1996 3 13 1996-03-13 10.5 -64.667 647.68 643.0 17.125 36.21 17.016 26.44
5 93HG_005 CAR-005 1996 3 13 1996-03-13 10.5 -64.667 648.69 644.0 17.124 36.21 17.014 26.44
5 93HG_005 CAR-005 1996 3 13 1996-03-13 10.5 -64.667 649.69 645.0 17.122 36.209 17.012 26.44
5 93HG_005 CAR-005 1996 3 13 1996-03-13 10.5 -64.667 650.7 646.0 17.121 36.209 17.011 26.44
5 93HG_005 CAR-005 1996 3 13 1996-03-13 10.5 -64.667 651.71 647.0 17.121 36.208 17.011 26.439
5 93HG_005 CAR-005 1996 3 13 1996-03-13 10.5 -64.667 652.72 648.0 17.12 36.208 17.009 26.439
5 93HG_005 CAR-005 1996 3 13 1996-03-13 10.5 -64.667 653.73 649.0 17.118 36.208 17.007 26.44
5 93HG_005 CAR-005 1996 3 13 1996-03-13 10.5 -64.667 654.74 650.0 17.118 36.207 17.007 26.44
5 93HG_005 CAR-005 1996 3 13 1996-03-13 10.5 -64.667 655.75 651.0 17.117 36.208 17.006 26.44
5 93HG_005 CAR-005 1996 3 13 1996-03-13 10.5 -64.667 656.76 652.0 17.117 36.207 17.006 26.44
5 93HG_005 CAR-005 1996 3 13 1996-03-13 10.5 -64.667 657.76 653.0 17.117 36.207 17.006 26.44
5 93HG_005 CAR-005 1996 3 13 1996-03-13 10.5 -64.667 658.77 654.0 17.116 36.208 17.005 26.441
5 93HG_005 CAR-005 1996 3 13 1996-03-13 10.5 -64.667 659.78 655.0 17.115 36.208 17.004 26.441
5 93HG_005 CAR-005 1996 3 13 1996-03-13 10.5 -64.667 660.79 656.0 17.116 36.207 17.004 26.441
5 93HG_005 CAR-005 1996 3 13 1996-03-13 10.5 -64.667 661.8 657.0 17.116 36.207 17.004 26.44
5 93HG_005 CAR-005 1996 3 13 1996-03-13 10.5 -64.667 662.81 658.0 17.116 36.207 17.004 26.441
5 93HG_005 CAR-005 1996 3 13 1996-03-13 10.5 -64.667 663.82 659.0 17.115 36.208 17.003 26.441
5 93HG_005 CAR-005 1996 3 13 1996-03-13 10.5 -64.667 664.83 660.0 17.116 36.207 17.003 26.441
5 93HG_005 CAR-005 1996 3 13 1996-03-13 10.5 -64.667 665.84 661.0 17.116 36.207 17.003 26.441
5 93HG_005 CAR-005 1996 3 13 1996-03-13 10.5 -64.667 666.85 662.0 17.115 36.208 17.002 26.441
5 93HG_005 CAR-005 1996 3 13 1996-03-13 10.5 -64.667 667.86 663.0 17.116 36.207 17.003 26.441
5 93HG_005 CAR-005 1996 3 13 1996-03-13 10.5 -64.667 668.86 664.0 17.115 36.208 17.002 26.441
5 93HG_005 CAR-005 1996 3 13 1996-03-13 10.5 -64.667 669.87 665.0 17.115 36.208 17.002 26.441
5 93HG_005 CAR-005 1996 3 13 1996-03-13 10.5 -64.667 670.88 666.0 17.115 36.208 17.001 26.441
5 93HG_005 CAR-005 1996 3 13 1996-03-13 10.5 -64.667 671.89 667.0 17.115 36.207 17.001 26.441
5 93HG_005 CAR-005 1996 3 13 1996-03-13 10.5 -64.667 672.9 668.0 17.114 36.207 17.0 26.441
5 93HG_005 CAR-005 1996 3 13 1996-03-13 10.5 -64.667 673.91 669.0 17.113 36.207 16.999 26.442
5 93HG_005 CAR-005 1996 3 13 1996-03-13 10.5 -64.667 674.92 670.0 17.112 36.207 16.998 26.442
5 93HG_005 CAR-005 1996 3 13 1996-03-13 10.5 -64.667 675.93 671.0 17.111 36.208 16.997 26.442
5 93HG_005 CAR-005 1996 3 13 1996-03-13 10.5 -64.667 676.93 672.0 17.111 36.207 16.997 26.442
5 93HG_005 CAR-005 1996 3 13 1996-03-13 10.5 -64.667 677.94 673.0 17.111 36.207 16.997 26.442
5 93HG_005 CAR-005 1996 3 13 1996-03-13 10.5 -64.667 678.95 674.0 17.111 36.208 16.996 26.442
5 93HG_005 CAR-005 1996 3 13 1996-03-13 10.5 -64.667 679.96 675.0 17.111 36.208 16.996 26.442
5 93HG_005 CAR-005 1996 3 13 1996-03-13 10.5 -64.667 680.97 676.0 17.111 36.208 16.996 26.443
5 93HG_005 CAR-005 1996 3 13 1996-03-13 10.5 -64.667 681.98 677.0 17.111 36.208 16.996 26.443
5 93HG_005 CAR-005 1996 3 13 1996-03-13 10.5 -64.667 682.99 678.0 17.111 36.208 16.996 26.442
5 93HG_005 CAR-005 1996 3 13 1996-03-13 10.5 -64.667 684.0 679.0 17.111 36.209 16.995 26.443
5 93HG_005 CAR-005 1996 3 13 1996-03-13 10.5 -64.667 685.01 680.0 17.111 36.208 16.995 26.443
5 93HG_005 CAR-005 1996 3 13 1996-03-13 10.5 -64.667 686.02 681.0 17.111 36.208 16.995 26.443
5 93HG_005 CAR-005 1996 3 13 1996-03-13 10.5 -64.667 687.02 682.0 17.111 36.208 16.995 26.443
5 93HG_005 CAR-005 1996 3 13 1996-03-13 10.5 -64.667 688.03 683.0 17.111 36.208 16.995 26.443
5 93HG_005 CAR-005 1996 3 13 1996-03-13 10.5 -64.667 689.04 684.0 17.111 36.209 16.995 26.444
5 93HG_005 CAR-005 1996 3 13 1996-03-13 10.5 -64.667 690.05 685.0 17.111 36.208 16.995 26.443
5 93HG_005 CAR-005 1996 3 13 1996-03-13 10.5 -64.667 691.06 686.0 17.111 36.208 16.994 26.443
5 93HG_005 CAR-005 1996 3 13 1996-03-13 10.5 -64.667 692.07 687.0 17.111 36.208 16.994 26.443
5 93HG_005 CAR-005 1996 3 13 1996-03-13 10.5 -64.667 693.08 688.0 17.111 36.208 16.994 26.443
5 93HG_005 CAR-005 1996 3 13 1996-03-13 10.5 -64.667 694.09 689.0 17.11 36.208 16.992 26.444
5 93HG_005 CAR-005 1996 3 13 1996-03-13 10.5 -64.667 695.1 690.0 17.109 36.208 16.991 26.444
5 93HG_005 CAR-005 1996 3 13 1996-03-13 10.5 -64.667 696.11 691.0 17.108 36.208 16.99 26.444
5 93HG_005 CAR-005 1996 3 13 1996-03-13 10.5 -64.667 697.12 692.0 17.108 36.208 16.99 26.444
5 93HG_005 CAR-005 1996 3 13 1996-03-13 10.5 -64.667 698.13 693.0 17.107 36.209 16.989 26.445
5 93HG_005 CAR-005 1996 3 13 1996-03-13 10.5 -64.667 699.13 694.0 17.108 36.208 16.99 26.444
5 93HG_005 CAR-005 1996 3 13 1996-03-13 10.5 -64.667 700.14 695.0 17.108 36.208 16.99 26.444
5 93HG_005 CAR-005 1996 3 13 1996-03-13 10.5 -64.667 701.15 696.0 17.108 36.208 16.989 26.445
5 93HG_005 CAR-005 1996 3 13 1996-03-13 10.5 -64.667 702.16 697.0 17.107 36.208 16.988 26.445
5 93HG_005 CAR-005 1996 3 13 1996-03-13 10.5 -64.667 703.17 698.0 17.106 36.208 16.987 26.445
5 93HG_005 CAR-005 1996 3 13 1996-03-13 10.5 -64.667 704.18 699.0 17.105 36.208 16.986 26.446
5 93HG_005 CAR-005 1996 3 13 1996-03-13 10.5 -64.667 705.19 700.0 17.105 36.208 16.985 26.445
5 93HG_005 CAR-005 1996 3 13 1996-03-13 10.5 -64.667 706.2 701.0 17.105 36.208 16.985 26.445
5 93HG_005 CAR-005 1996 3 13 1996-03-13 10.5 -64.667 707.21 702.0 17.105 36.208 16.985 26.445
5 93HG_005 CAR-005 1996 3 13 1996-03-13 10.5 -64.667 708.22 703.0 17.104 36.208 16.984 26.445
5 93HG_005 CAR-005 1996 3 13 1996-03-13 10.5 -64.667 709.22 704.0 17.104 36.208 16.984 26.445
5 93HG_005 CAR-005 1996 3 13 1996-03-13 10.5 -64.667 710.23 705.0 17.104 36.207 16.984 26.445
5 93HG_005 CAR-005 1996 3 13 1996-03-13 10.5 -64.667 711.24 706.0 17.104 36.207 16.984 26.445
5 93HG_005 CAR-005 1996 3 13 1996-03-13 10.5 -64.667 712.25 707.0 17.104 36.208 16.983 26.445
5 93HG_005 CAR-005 1996 3 13 1996-03-13 10.5 -64.667 713.26 708.0 17.103 36.208 16.983 26.446
5 93HG_005 CAR-005 1996 3 13 1996-03-13 10.5 -64.667 714.27 709.0 17.103 36.208 16.983 26.446
5 93HG_005 CAR-005 1996 3 13 1996-03-13 10.5 -64.667 715.28 710.0 17.103 36.207 16.982 26.445
5 93HG_005 CAR-005 1996 3 13 1996-03-13 10.5 -64.667 716.29 711.0 17.103 36.207 16.982 26.446
5 93HG_005 CAR-005 1996 3 13 1996-03-13 10.5 -64.667 717.3 712.0 17.103 36.208 16.981 26.446
5 93HG_005 CAR-005 1996 3 13 1996-03-13 10.5 -64.667 718.31 713.0 17.103 36.208 16.981 26.446
5 93HG_005 CAR-005 1996 3 13 1996-03-13 10.5 -64.667 719.32 714.0 17.102 36.208 16.981 26.446
5 93HG_005 CAR-005 1996 3 13 1996-03-13 10.5 -64.667 720.33 715.0 17.102 36.208 16.98 26.447
5 93HG_005 CAR-005 1996 3 13 1996-03-13 10.5 -64.667 721.34 716.0 17.102 36.207 16.98 26.446
5 93HG_005 CAR-005 1996 3 13 1996-03-13 10.5 -64.667 722.34 717.0 17.102 36.208 16.979 26.447
5 93HG_005 CAR-005 1996 3 13 1996-03-13 10.5 -64.667 723.35 718.0 17.101 36.208 16.979 26.447
5 93HG_005 CAR-005 1996 3 13 1996-03-13 10.5 -64.667 724.36 719.0 17.102 36.207 16.979 26.446
5 93HG_005 CAR-005 1996 3 13 1996-03-13 10.5 -64.667 725.37 720.0 17.102 36.207 16.979 26.446
5 93HG_005 CAR-005 1996 3 13 1996-03-13 10.5 -64.667 726.38 721.0 17.101 36.207 16.978 26.446
5 93HG_005 CAR-005 1996 3 13 1996-03-13 10.5 -64.667 727.39 722.0 17.101 36.207 16.977 26.447
5 93HG_005 CAR-005 1996 3 13 1996-03-13 10.5 -64.667 728.4 723.0 17.101 36.207 16.977 26.446
5 93HG_005 CAR-005 1996 3 13 1996-03-13 10.5 -64.667 729.41 724.0 17.1 36.207 16.976 26.447
5 93HG_005 CAR-005 1996 3 13 1996-03-13 10.5 -64.667 730.42 725.0 17.098 36.207 16.975 26.447
5 93HG_005 CAR-005 1996 3 13 1996-03-13 10.5 -64.667 731.43 726.0 17.098 36.207 16.974 26.447
5 93HG_005 CAR-005 1996 3 13 1996-03-13 10.5 -64.667 732.44 727.0 17.098 36.207 16.974 26.448
5 93HG_005 CAR-005 1996 3 13 1996-03-13 10.5 -64.667 733.45 728.0 17.098 36.207 16.974 26.447
5 93HG_005 CAR-005 1996 3 13 1996-03-13 10.5 -64.667 734.46 729.0 17.097 36.207 16.973 26.448
5 93HG_005 CAR-005 1996 3 13 1996-03-13 10.5 -64.667 735.46 730.0 17.098 36.207 16.973 26.448
5 93HG_005 CAR-005 1996 3 13 1996-03-13 10.5 -64.667 736.47 731.0 17.098 36.207 16.973 26.448
5 93HG_005 CAR-005 1996 3 13 1996-03-13 10.5 -64.667 737.48 732.0 17.098 36.207 16.973 26.448
5 93HG_005 CAR-005 1996 3 13 1996-03-13 10.5 -64.667 738.49 733.0 17.098 36.207 16.972 26.448
5 93HG_005 CAR-005 1996 3 13 1996-03-13 10.5 -64.667 739.5 734.0 17.098 36.208 16.972 26.448
5 93HG_005 CAR-005 1996 3 13 1996-03-13 10.5 -64.667 740.51 735.0 17.098 36.208 16.972 26.448
5 93HG_005 CAR-005 1996 3 13 1996-03-13 10.5 -64.667 741.52 736.0 17.098 36.208 16.972 26.448
5 93HG_005 CAR-005 1996 3 13 1996-03-13 10.5 -64.667 742.53 737.0 17.098 36.208 16.972 26.448
5 93HG_005 CAR-005 1996 3 13 1996-03-13 10.5 -64.667 743.54 738.0 17.098 36.208 16.972 26.449
5 93HG_005 CAR-005 1996 3 13 1996-03-13 10.5 -64.667 744.55 739.0 17.098 36.208 16.972 26.449
5 93HG_005 CAR-005 1996 3 13 1996-03-13 10.5 -64.667 745.56 740.0 17.098 36.208 16.971 26.449
5 93HG_005 CAR-005 1996 3 13 1996-03-13 10.5 -64.667 746.57 741.0 17.098 36.208 16.971 26.449
5 93HG_005 CAR-005 1996 3 13 1996-03-13 10.5 -64.667 747.58 742.0 17.098 36.208 16.971 26.449
5 93HG_005 CAR-005 1996 3 13 1996-03-13 10.5 -64.667 748.59 743.0 17.098 36.208 16.971 26.449
5 93HG_005 CAR-005 1996 3 13 1996-03-13 10.5 -64.667 749.59 744.0 17.098 36.207 16.971 26.448
5 93HG_005 CAR-005 1996 3 13 1996-03-13 10.5 -64.667 750.6 745.0 17.097 36.208 16.97 26.449
5 93HG_005 CAR-005 1996 3 13 1996-03-13 10.5 -64.667 751.61 746.0 17.097 36.208 16.969 26.449
5 93HG_005 CAR-005 1996 3 13 1996-03-13 10.5 -64.667 752.62 747.0 17.097 36.208 16.969 26.449
5 93HG_005 CAR-005 1996 3 13 1996-03-13 10.5 -64.667 753.63 748.0 17.097 36.207 16.969 26.449
5 93HG_005 CAR-005 1996 3 13 1996-03-13 10.5 -64.667 754.64 749.0 17.097 36.208 16.969 26.449
5 93HG_005 CAR-005 1996 3 13 1996-03-13 10.5 -64.667 755.65 750.0 17.096 36.208 16.968 26.45
5 93HG_005 CAR-005 1996 3 13 1996-03-13 10.5 -64.667 756.66 751.0 17.096 36.207 16.968 26.449
5 93HG_005 CAR-005 1996 3 13 1996-03-13 10.5 -64.667 757.67 752.0 17.096 36.208 16.967 26.45
5 93HG_005 CAR-005 1996 3 13 1996-03-13 10.5 -64.667 758.68 753.0 17.095 36.208 16.967 26.45
5 93HG_005 CAR-005 1996 3 13 1996-03-13 10.5 -64.667 759.69 754.0 17.096 36.208 16.967 26.45
5 93HG_005 CAR-005 1996 3 13 1996-03-13 10.5 -64.667 760.7 755.0 17.096 36.208 16.967 26.45
5 93HG_005 CAR-005 1996 3 13 1996-03-13 10.5 -64.667 761.71 756.0 17.096 36.208 16.967 26.45
5 93HG_005 CAR-005 1996 3 13 1996-03-13 10.5 -64.667 762.72 757.0 17.095 36.208 16.966 26.45
5 93HG_005 CAR-005 1996 3 13 1996-03-13 10.5 -64.667 763.73 758.0 17.095 36.208 16.965 26.45
5 93HG_005 CAR-005 1996 3 13 1996-03-13 10.5 -64.667 764.74 759.0 17.094 36.208 16.965 26.45
5 93HG_005 CAR-005 1996 3 13 1996-03-13 10.5 -64.667 765.74 760.0 17.094 36.208 16.964 26.45
5 93HG_005 CAR-005 1996 3 13 1996-03-13 10.5 -64.667 766.75 761.0 17.094 36.208 16.964 26.45
5 93HG_005 CAR-005 1996 3 13 1996-03-13 10.5 -64.667 767.76 762.0 17.093 36.208 16.963 26.451
5 93HG_005 CAR-005 1996 3 13 1996-03-13 10.5 -64.667 768.77 763.0 17.093 36.208 16.963 26.451
5 93HG_005 CAR-005 1996 3 13 1996-03-13 10.5 -64.667 769.78 764.0 17.092 36.208 16.962 26.451
5 93HG_005 CAR-005 1996 3 13 1996-03-13 10.5 -64.667 770.79 765.0 17.092 36.208 16.962 26.451
5 93HG_005 CAR-005 1996 3 13 1996-03-13 10.5 -64.667 771.8 766.0 17.093 36.208 16.962 26.451
5 93HG_005 CAR-005 1996 3 13 1996-03-13 10.5 -64.667 772.81 767.0 17.093 36.208 16.962 26.451
5 93HG_005 CAR-005 1996 3 13 1996-03-13 10.5 -64.667 773.82 768.0 17.093 36.209 16.962 26.451
5 93HG_005 CAR-005 1996 3 13 1996-03-13 10.5 -64.667 774.83 769.0 17.093 36.208 16.962 26.451
5 93HG_005 CAR-005 1996 3 13 1996-03-13 10.5 -64.667 775.84 770.0 17.092 36.208 16.961 26.451
5 93HG_005 CAR-005 1996 3 13 1996-03-13 10.5 -64.667 776.85 771.0 17.092 36.208 16.96 26.451
5 93HG_005 CAR-005 1996 3 13 1996-03-13 10.5 -64.667 777.86 772.0 17.091 36.208 16.96 26.452
5 93HG_005 CAR-005 1996 3 13 1996-03-13 10.5 -64.667 778.87 773.0 17.092 36.208 16.96 26.451
5 93HG_005 CAR-005 1996 3 13 1996-03-13 10.5 -64.667 779.88 774.0 17.091 36.208 16.959 26.452
5 93HG_005 CAR-005 1996 3 13 1996-03-13 10.5 -64.667 780.89 775.0 17.091 36.208 16.959 26.451
5 93HG_005 CAR-005 1996 3 13 1996-03-13 10.5 -64.667 781.89 776.0 17.09 36.208 16.958 26.452
5 93HG_005 CAR-005 1996 3 13 1996-03-13 10.5 -64.667 782.9 777.0 17.09 36.208 16.958 26.452
5 93HG_005 CAR-005 1996 3 13 1996-03-13 10.5 -64.667 783.91 778.0 17.09 36.208 16.957 26.452
5 93HG_005 CAR-005 1996 3 13 1996-03-13 10.5 -64.667 784.92 779.0 17.09 36.208 16.957 26.452
5 93HG_005 CAR-005 1996 3 13 1996-03-13 10.5 -64.667 785.93 780.0 17.09 36.208 16.956 26.452
5 93HG_005 CAR-005 1996 3 13 1996-03-13 10.5 -64.667 786.94 781.0 17.09 36.208 16.956 26.452
5 93HG_005 CAR-005 1996 3 13 1996-03-13 10.5 -64.667 787.95 782.0 17.09 36.207 16.957 26.451
5 93HG_005 CAR-005 1996 3 13 1996-03-13 10.5 -64.667 788.96 783.0 17.09 36.207 16.956 26.452
5 93HG_005 CAR-005 1996 3 13 1996-03-13 10.5 -64.667 789.97 784.0 17.09 36.207 16.956 26.452
5 93HG_005 CAR-005 1996 3 13 1996-03-13 10.5 -64.667 790.98 785.0 17.09 36.207 16.956 26.452
5 93HG_005 CAR-005 1996 3 13 1996-03-13 10.5 -64.667 791.99 786.0 17.09 36.207 16.955 26.452
5 93HG_005 CAR-005 1996 3 13 1996-03-13 10.5 -64.667 793.0 787.0 17.089 36.207 16.955 26.452
5 93HG_005 CAR-005 1996 3 13 1996-03-13 10.5 -64.667 794.01 788.0 17.089 36.208 16.954 26.452
5 93HG_005 CAR-005 1996 3 13 1996-03-13 10.5 -64.667 795.02 789.0 17.089 36.207 16.954 26.452
5 93HG_005 CAR-005 1996 3 13 1996-03-13 10.5 -64.667 796.03 790.0 17.088 36.208 16.953 26.453
5 93HG_005 CAR-005 1996 3 13 1996-03-13 10.5 -64.667 797.04 791.0 17.088 36.208 16.953 26.453
5 93HG_005 CAR-005 1996 3 13 1996-03-13 10.5 -64.667 798.05 792.0 17.088 36.207 16.953 26.453
5 93HG_005 CAR-005 1996 3 13 1996-03-13 10.5 -64.667 799.06 793.0 17.088 36.207 16.953 26.452
5 93HG_005 CAR-005 1996 3 13 1996-03-13 10.5 -64.667 800.07 794.0 17.089 36.207 16.953 26.452
5 93HG_005 CAR-005 1996 3 13 1996-03-13 10.5 -64.667 801.08 795.0 17.088 36.208 16.952 26.453
5 93HG_005 CAR-005 1996 3 13 1996-03-13 10.5 -64.667 802.09 796.0 17.088 36.207 16.952 26.453
5 93HG_005 CAR-005 1996 3 13 1996-03-13 10.5 -64.667 803.1 797.0 17.089 36.207 16.953 26.453
5 93HG_005 CAR-005 1996 3 13 1996-03-13 10.5 -64.667 804.11 798.0 17.089 36.208 16.953 26.453
5 93HG_005 CAR-005 1996 3 13 1996-03-13 10.5 -64.667 805.12 799.0 17.088 36.208 16.952 26.453
5 93HG_005 CAR-005 1996 3 13 1996-03-13 10.5 -64.667 806.12 800.0 17.088 36.208 16.951 26.453
5 93HG_005 CAR-005 1996 3 13 1996-03-13 10.5 -64.667 807.13 801.0 17.088 36.208 16.951 26.453
5 93HG_005 CAR-005 1996 3 13 1996-03-13 10.5 -64.667 808.14 802.0 17.088 36.208 16.951 26.453
5 93HG_005 CAR-005 1996 3 13 1996-03-13 10.5 -64.667 809.15 803.0 17.088 36.208 16.951 26.453
5 93HG_005 CAR-005 1996 3 13 1996-03-13 10.5 -64.667 810.16 804.0 17.088 36.207 16.951 26.453
5 93HG_005 CAR-005 1996 3 13 1996-03-13 10.5 -64.667 811.17 805.0 17.088 36.207 16.951 26.453
5 93HG_005 CAR-005 1996 3 13 1996-03-13 10.5 -64.667 812.18 806.0 17.088 36.207 16.95 26.453
5 93HG_005 CAR-005 1996 3 13 1996-03-13 10.5 -64.667 813.19 807.0 17.087 36.208 16.95 26.454
5 93HG_005 CAR-005 1996 3 13 1996-03-13 10.5 -64.667 814.2 808.0 17.087 36.208 16.95 26.454
5 93HG_005 CAR-005 1996 3 13 1996-03-13 10.5 -64.667 815.21 809.0 17.088 36.208 16.95 26.454
5 93HG_005 CAR-005 1996 3 13 1996-03-13 10.5 -64.667 816.22 810.0 17.088 36.207 16.95 26.453
5 93HG_005 CAR-005 1996 3 13 1996-03-13 10.5 -64.667 817.23 811.0 17.088 36.207 16.95 26.453
5 93HG_005 CAR-005 1996 3 13 1996-03-13 10.5 -64.667 818.24 812.0 17.088 36.207 16.95 26.453
5 93HG_005 CAR-005 1996 3 13 1996-03-13 10.5 -64.667 819.25 813.0 17.088 36.208 16.949 26.454
5 93HG_005 CAR-005 1996 3 13 1996-03-13 10.5 -64.667 820.26 814.0 17.088 36.209 16.949 26.454
5 93HG_005 CAR-005 1996 3 13 1996-03-13 10.5 -64.667 821.27 815.0 17.088 36.208 16.949 26.454
5 93HG_005 CAR-005 1996 3 13 1996-03-13 10.5 -64.667 822.28 816.0 17.088 36.208 16.949 26.454
5 93HG_005 CAR-005 1996 3 13 1996-03-13 10.5 -64.667 823.29 817.0 17.088 36.208 16.949 26.454
5 93HG_005 CAR-005 1996 3 13 1996-03-13 10.5 -64.667 824.3 818.0 17.088 36.208 16.948 26.454
5 93HG_005 CAR-005 1996 3 13 1996-03-13 10.5 -64.667 825.31 819.0 17.087 36.208 16.948 26.454
5 93HG_005 CAR-005 1996 3 13 1996-03-13 10.5 -64.667 826.32 820.0 17.087 36.208 16.947 26.455
5 93HG_005 CAR-005 1996 3 13 1996-03-13 10.5 -64.667 827.33 821.0 17.087 36.208 16.946 26.455
5 93HG_005 CAR-005 1996 3 13 1996-03-13 10.5 -64.667 828.34 822.0 17.087 36.208 16.946 26.455
5 93HG_005 CAR-005 1996 3 13 1996-03-13 10.5 -64.667 829.35 823.0 17.087 36.208 16.946 26.455
5 93HG_005 CAR-005 1996 3 13 1996-03-13 10.5 -64.667 830.36 824.0 17.087 36.208 16.946 26.455
5 93HG_005 CAR-005 1996 3 13 1996-03-13 10.5 -64.667 831.37 825.0 17.087 36.208 16.946 26.455
5 93HG_005 CAR-005 1996 3 13 1996-03-13 10.5 -64.667 832.38 826.0 17.087 36.208 16.946 26.454
5 93HG_005 CAR-005 1996 3 13 1996-03-13 10.5 -64.667 833.38 827.0 17.087 36.208 16.946 26.454
5 93HG_005 CAR-005 1996 3 13 1996-03-13 10.5 -64.667 834.39 828.0 17.087 36.208 16.945 26.455
5 93HG_005 CAR-005 1996 3 13 1996-03-13 10.5 -64.667 835.4 829.0 17.087 36.208 16.945 26.455
5 93HG_005 CAR-005 1996 3 13 1996-03-13 10.5 -64.667 836.41 830.0 17.087 36.208 16.945 26.455
5 93HG_005 CAR-005 1996 3 13 1996-03-13 10.5 -64.667 837.42 831.0 17.087 36.207 16.945 26.454
5 93HG_005 CAR-005 1996 3 13 1996-03-13 10.5 -64.667 838.43 832.0 17.087 36.207 16.945 26.454
5 93HG_005 CAR-005 1996 3 13 1996-03-13 10.5 -64.667 839.44 833.0 17.087 36.207